<?xml version='1.0' encoding='UTF-8'?><gpx version="1.1" creator="JPX - https://github.com/jenetics/jpx" xmlns="http://www.topografix.com/GPX/1/1"><trk><trkseg><trkpt lat="45.70822823376354" lon="9.19207913103715"><ele>269.0</ele><time>2026-05-03T10:11:12.552Z</time></trkpt><trkpt lat="45.7081661730546" lon="9.19210367120609"><ele>269.0</ele><time>2026-05-03T10:12:05.514Z</time></trkpt><trkpt lat="45.708103884866524" lon="9.192019393878574"><ele>269.0</ele><time>2026-05-03T10:12:09.514Z</time></trkpt><trkpt lat="45.70812581643436" lon="9.19189979137378"><ele>269.0</ele><time>2026-05-03T10:12:12.514Z</time></trkpt><trkpt lat="45.70818089690136" lon="9.191834092236999"><ele>269.0</ele><time>2026-05-03T10:12:15.514Z</time></trkpt><trkpt lat="45.70824953537421" lon="9.19183087806354"><ele>269.0</ele><time>2026-05-03T10:12:18.514Z</time></trkpt><trkpt lat="45.708375270658216" lon="9.19198373741921"><ele>269.0</ele><time>2026-05-03T10:12:20.514Z</time></trkpt><trkpt lat="45.70844677014079" lon="9.192100949449697"><ele>269.0</ele><time>2026-05-03T10:12:21.514Z</time></trkpt><trkpt lat="45.70857184958974" lon="9.192281017580616"><ele>269.0</ele><time>2026-05-03T10:12:22.967Z</time></trkpt><trkpt lat="45.70864696946222" lon="9.192393404210089"><ele>269.0</ele><time>2026-05-03T10:12:23.969Z</time></trkpt><trkpt lat="45.70874234137195" lon="9.192515800271117"><ele>269.0</ele><time>2026-05-03T10:12:24.971Z</time></trkpt><trkpt lat="45.70883677741361" lon="9.192655083067445"><ele>269.0</ele><time>2026-05-03T10:12:25.973Z</time></trkpt><trkpt lat="45.70890825898764" lon="9.192776776351609"><ele>269.0</ele><time>2026-05-03T10:12:26.974Z</time></trkpt><trkpt lat="45.708976799396495" lon="9.192901544920312"><ele>269.0</ele><time>2026-05-03T10:12:27.976Z</time></trkpt><trkpt lat="45.709027729203214" lon="9.1930066156494"><ele>269.0</ele><time>2026-05-03T10:12:28.977Z</time></trkpt><trkpt lat="45.7090701758891" lon="9.193101689020114"><ele>269.33333333333337</ele><time>2026-05-03T10:12:29.979Z</time></trkpt><trkpt lat="45.70911503919483" lon="9.193188102986472"><ele>269.6666666666667</ele><time>2026-05-03T10:12:30.98Z</time></trkpt><trkpt lat="45.709153750461574" lon="9.193283615822654"><ele>270.0</ele><time>2026-05-03T10:12:31.981Z</time></trkpt><trkpt lat="45.70918059789108" lon="9.193381384783404"><ele>270.3333333333333</ele><time>2026-05-03T10:12:32.983Z</time></trkpt><trkpt lat="45.70919149258" lon="9.19348754106797"><ele>270.66666666666663</ele><time>2026-05-03T10:12:33.984Z</time></trkpt><trkpt lat="45.709185150211745" lon="9.19359305718582"><ele>271.0</ele><time>2026-05-03T10:12:34.985Z</time></trkpt><trkpt lat="45.70920852647045" lon="9.193743148274068"><ele>271.0</ele><time>2026-05-03T10:12:36.987Z</time></trkpt><trkpt lat="45.70929115541363" lon="9.1937612924521"><ele>271.0</ele><time>2026-05-03T10:12:38.988Z</time></trkpt><trkpt lat="45.70933496548176" lon="9.193680597506939"><ele>271.0</ele><time>2026-05-03T10:12:39.989Z</time></trkpt><trkpt lat="45.70933906484607" lon="9.193548251403506"><ele>271.0</ele><time>2026-05-03T10:12:40.99Z</time></trkpt><trkpt lat="45.709348767682805" lon="9.19339141438067"><ele>271.0</ele><time>2026-05-03T10:12:41.99Z</time></trkpt><trkpt lat="45.70939318028227" lon="9.193226256689377"><ele>270.0</ele><time>2026-05-03T10:12:42.991Z</time></trkpt><trkpt lat="45.70948866739228" lon="9.193013636236914"><ele>269.0</ele><time>2026-05-03T10:12:43.992Z</time></trkpt><trkpt lat="45.70955473841136" lon="9.192828410283953"><ele>268.0</ele><time>2026-05-03T10:12:44.992Z</time></trkpt><trkpt lat="45.70960803358367" lon="9.192647745756622"><ele>268.0</ele><time>2026-05-03T10:12:45.993Z</time></trkpt><trkpt lat="45.70968453516604" lon="9.19250169947321"><ele>268.0</ele><time>2026-05-03T10:12:46.993Z</time></trkpt><trkpt lat="45.70974927453153" lon="9.192374568726152"><ele>268.0</ele><time>2026-05-03T10:12:47.993Z</time></trkpt><trkpt lat="45.70980979985928" lon="9.192262439723894"><ele>268.0</ele><time>2026-05-03T10:12:48.994Z</time></trkpt><trkpt lat="45.709857432846015" lon="9.192149670169929"><ele>268.0</ele><time>2026-05-03T10:12:49.994Z</time></trkpt><trkpt lat="45.709918574163915" lon="9.192048210261675"><ele>268.0</ele><time>2026-05-03T10:12:50.995Z</time></trkpt><trkpt lat="45.7099718066517" lon="9.191951343403783"><ele>268.0</ele><time>2026-05-03T10:12:51.995Z</time></trkpt><trkpt lat="45.710025703024755" lon="9.19185073826061"><ele>268.0</ele><time>2026-05-03T10:12:52.995Z</time></trkpt><trkpt lat="45.710074992085495" lon="9.191757720360435"><ele>268.0</ele><time>2026-05-03T10:12:53.996Z</time></trkpt><trkpt lat="45.71012719951625" lon="9.191662547243837"><ele>268.0</ele><time>2026-05-03T10:12:54.996Z</time></trkpt><trkpt lat="45.71017815821465" lon="9.191574935989578"><ele>268.0</ele><time>2026-05-03T10:12:55.996Z</time></trkpt><trkpt lat="45.71022552605783" lon="9.191490132222578"><ele>268.0</ele><time>2026-05-03T10:12:56.996Z</time></trkpt><trkpt lat="45.71027141365966" lon="9.191409998926133"><ele>268.0</ele><time>2026-05-03T10:12:57.997Z</time></trkpt><trkpt lat="45.710317227421896" lon="9.191319554913234"><ele>268.0</ele><time>2026-05-03T10:12:58.997Z</time></trkpt><trkpt lat="45.71036491077168" lon="9.19122654451277"><ele>268.0</ele><time>2026-05-03T10:12:59.997Z</time></trkpt><trkpt lat="45.71041674303656" lon="9.191135984609016"><ele>268.0</ele><time>2026-05-03T10:13:00.997Z</time></trkpt><trkpt lat="45.71047269200506" lon="9.191039560103237"><ele>268.0</ele><time>2026-05-03T10:13:01.997Z</time></trkpt><trkpt lat="45.71053805524437" lon="9.190921564676362"><ele>268.0</ele><time>2026-05-03T10:13:02.998Z</time></trkpt><trkpt lat="45.71061313023184" lon="9.19078927279372"><ele>268.0</ele><time>2026-05-03T10:13:03.998Z</time></trkpt><trkpt lat="45.71069181203736" lon="9.190632224969791"><ele>268.0</ele><time>2026-05-03T10:13:04.998Z</time></trkpt><trkpt lat="45.71076863706862" lon="9.190478938185162"><ele>268.0</ele><time>2026-05-03T10:13:05.998Z</time></trkpt><trkpt lat="45.710849970450084" lon="9.190326743165821"><ele>268.25</ele><time>2026-05-03T10:13:06.998Z</time></trkpt><trkpt lat="45.710937359409954" lon="9.190196838785393"><ele>268.5</ele><time>2026-05-03T10:13:07.998Z</time></trkpt><trkpt lat="45.71099942295282" lon="9.190048185248799"><ele>268.75</ele><time>2026-05-03T10:13:08.998Z</time></trkpt><trkpt lat="45.711069813692504" lon="9.189925107811673"><ele>269.0</ele><time>2026-05-03T10:13:09.999Z</time></trkpt><trkpt lat="45.7111268440925" lon="9.189811346104795"><ele>269.1666666666667</ele><time>2026-05-03T10:13:10.999Z</time></trkpt><trkpt lat="45.71117320988519" lon="9.189705584006935"><ele>269.33333333333337</ele><time>2026-05-03T10:13:11.999Z</time></trkpt><trkpt lat="45.71121276971119" lon="9.189619979761353"><ele>269.5</ele><time>2026-05-03T10:13:12.999Z</time></trkpt><trkpt lat="45.711312426336164" lon="9.189501518298544"><ele>269.6666666666667</ele><time>2026-05-03T10:13:14.999Z</time></trkpt><trkpt lat="45.71136977787051" lon="9.189445685628947"><ele>269.8333333333333</ele><time>2026-05-03T10:13:15.999Z</time></trkpt><trkpt lat="45.71142613437614" lon="9.189392460982585"><ele>270.0</ele><time>2026-05-03T10:13:16.999Z</time></trkpt><trkpt lat="45.71148105386715" lon="9.189343092469347"><ele>270.0</ele><time>2026-05-03T10:13:17.999Z</time></trkpt><trkpt lat="45.71159132633076" lon="9.189287203225474"><ele>270.0</ele><time>2026-05-03T10:13:19.999Z</time></trkpt><trkpt lat="45.711645764054865" lon="9.189202577138294"><ele>270.0</ele><time>2026-05-03T10:13:21.999Z</time></trkpt><trkpt lat="45.7116364981567" lon="9.189110229950526"><ele>270.0</ele><time>2026-05-03T10:13:22.999Z</time></trkpt><trkpt lat="45.711621582832265" lon="9.188998088798105"><ele>270.0</ele><time>2026-05-03T10:13:24Z</time></trkpt><trkpt lat="45.7116310893834" lon="9.18888371073543"><ele>270.0</ele><time>2026-05-03T10:13:25Z</time></trkpt><trkpt lat="45.71169172910306" lon="9.188803252249432"><ele>270.0</ele><time>2026-05-03T10:13:26Z</time></trkpt><trkpt lat="45.71173975138067" lon="9.188679921870362"><ele>270.0</ele><time>2026-05-03T10:13:27Z</time></trkpt><trkpt lat="45.71179784355709" lon="9.1885711444061"><ele>270.0</ele><time>2026-05-03T10:13:28Z</time></trkpt><trkpt lat="45.711851586866224" lon="9.18844237209364"><ele>270.0</ele><time>2026-05-03T10:13:29Z</time></trkpt><trkpt lat="45.711907856636344" lon="9.188305239478167"><ele>270.0</ele><time>2026-05-03T10:13:30Z</time></trkpt><trkpt lat="45.71195602788307" lon="9.188173242084218"><ele>270.2</ele><time>2026-05-03T10:13:31Z</time></trkpt><trkpt lat="45.71199597000287" lon="9.188045653253344"><ele>270.4</ele><time>2026-05-03T10:13:32Z</time></trkpt><trkpt lat="45.71202387856988" lon="9.187913674707502"><ele>270.6</ele><time>2026-05-03T10:13:33Z</time></trkpt><trkpt lat="45.71204155479822" lon="9.18777430606491"><ele>270.8</ele><time>2026-05-03T10:13:34Z</time></trkpt><trkpt lat="45.712061191525336" lon="9.187636944221683"><ele>271.0</ele><time>2026-05-03T10:13:35Z</time></trkpt><trkpt lat="45.71207329210136" lon="9.187504727236833"><ele>271.0</ele><time>2026-05-03T10:13:36Z</time></trkpt><trkpt lat="45.71207865676695" lon="9.187375897713617"><ele>271.0</ele><time>2026-05-03T10:13:37Z</time></trkpt><trkpt lat="45.712079488405315" lon="9.18724899818083"><ele>271.0</ele><time>2026-05-03T10:13:38Z</time></trkpt><trkpt lat="45.71207896768454" lon="9.187124008668649"><ele>271.0</ele><time>2026-05-03T10:13:39Z</time></trkpt><trkpt lat="45.71203998322847" lon="9.18700300142336"><ele>271.0</ele><time>2026-05-03T10:13:40Z</time></trkpt><trkpt lat="45.711937439001254" lon="9.186904459215553"><ele>271.0</ele><time>2026-05-03T10:13:41Z</time></trkpt><trkpt lat="45.7118399865141" lon="9.1868051317348"><ele>271.0</ele><time>2026-05-03T10:13:42Z</time></trkpt><trkpt lat="45.711738555135824" lon="9.186700845480107"><ele>271.0</ele><time>2026-05-03T10:13:43Z</time></trkpt><trkpt lat="45.71163240843238" lon="9.186582556170427"><ele>271.0</ele><time>2026-05-03T10:13:44Z</time></trkpt><trkpt lat="45.71152739634275" lon="9.186457680084967"><ele>271.0</ele><time>2026-05-03T10:13:45Z</time></trkpt><trkpt lat="45.71143036188756" lon="9.186348506765079"><ele>271.0</ele><time>2026-05-03T10:13:46Z</time></trkpt><trkpt lat="45.711340509564174" lon="9.186247514110343"><ele>271.0</ele><time>2026-05-03T10:13:47Z</time></trkpt><trkpt lat="45.711259419833326" lon="9.18615929342431"><ele>271.0</ele><time>2026-05-03T10:13:48Z</time></trkpt><trkpt lat="45.71118916305195" lon="9.186073431173035"><ele>271.0</ele><time>2026-05-03T10:13:49Z</time></trkpt><trkpt lat="45.711126296143654" lon="9.185996213577873"><ele>270.85714285714283</ele><time>2026-05-03T10:13:50Z</time></trkpt><trkpt lat="45.71107200287979" lon="9.185913554081239"><ele>270.7142857142857</ele><time>2026-05-03T10:13:51Z</time></trkpt><trkpt lat="45.71104009341326" lon="9.185832588142242"><ele>270.57142857142856</ele><time>2026-05-03T10:13:52Z</time></trkpt><trkpt lat="45.711022450158225" lon="9.185739045023755"><ele>270.42857142857144</ele><time>2026-05-03T10:13:53Z</time></trkpt><trkpt lat="45.71102232461134" lon="9.185640340405255"><ele>270.2857142857143</ele><time>2026-05-03T10:13:54Z</time></trkpt><trkpt lat="45.71103613998461" lon="9.185540703515281"><ele>270.1428571428571</ele><time>2026-05-03T10:13:55Z</time></trkpt><trkpt lat="45.711066902835576" lon="9.18545667904959"><ele>270.0</ele><time>2026-05-03T10:13:56Z</time></trkpt><trkpt lat="45.71114106602562" lon="9.185313796755134"><ele>270.0</ele><time>2026-05-03T10:13:58Z</time></trkpt><trkpt lat="45.711175544494886" lon="9.1851562321367"><ele>270.0</ele><time>2026-05-03T10:14:00Z</time></trkpt><trkpt lat="45.71113758930518" lon="9.185015412244855"><ele>270.0</ele><time>2026-05-03T10:14:02Z</time></trkpt><trkpt lat="45.711070207103624" lon="9.184993072745208"><ele>270.0</ele><time>2026-05-03T10:14:03Z</time></trkpt><trkpt lat="45.71094279029715" lon="9.184999086757491"><ele>270.0</ele><time>2026-05-03T10:14:05Z</time></trkpt><trkpt lat="45.710877234156094" lon="9.184987476886132"><ele>270.0</ele><time>2026-05-03T10:14:06Z</time></trkpt><trkpt lat="45.710812639467285" lon="9.184939123744908"><ele>270.0</ele><time>2026-05-03T10:14:07Z</time></trkpt><trkpt lat="45.71075422473302" lon="9.184841331031743"><ele>270.0</ele><time>2026-05-03T10:14:08Z</time></trkpt><trkpt lat="45.710662954093976" lon="9.184784510918757"><ele>270.0</ele><time>2026-05-03T10:14:09Z</time></trkpt><trkpt lat="45.71057047285427" lon="9.184713118075438"><ele>270.0</ele><time>2026-05-03T10:14:10Z</time></trkpt><trkpt lat="45.710463067848345" lon="9.184653841123223"><ele>270.25</ele><time>2026-05-03T10:14:11Z</time></trkpt><trkpt lat="45.71035391333012" lon="9.184602737647813"><ele>270.5</ele><time>2026-05-03T10:14:12Z</time></trkpt><trkpt lat="45.71023978539236" lon="9.184587023356407"><ele>270.75</ele><time>2026-05-03T10:14:13Z</time></trkpt><trkpt lat="45.71012227186309" lon="9.184588939707549"><ele>271.0</ele><time>2026-05-03T10:14:14Z</time></trkpt><trkpt lat="45.709999009981324" lon="9.184590512357286"><ele>270.25</ele><time>2026-05-03T10:14:15Z</time></trkpt><trkpt lat="45.709871883511276" lon="9.184597906139588"><ele>269.5</ele><time>2026-05-03T10:14:16Z</time></trkpt><trkpt lat="45.70974216797537" lon="9.184602250484097"><ele>268.75</ele><time>2026-05-03T10:14:17Z</time></trkpt><trkpt lat="45.709616580825134" lon="9.184606429308294"><ele>268.0</ele><time>2026-05-03T10:14:18Z</time></trkpt><trkpt lat="45.70950529305926" lon="9.184603935834573"><ele>267.0</ele><time>2026-05-03T10:14:19Z</time></trkpt><trkpt lat="45.70940290168348" lon="9.184567197283654"><ele>266.0</ele><time>2026-05-03T10:14:20Z</time></trkpt><trkpt lat="45.709312585915065" lon="9.18454581338506"><ele>265.0</ele><time>2026-05-03T10:14:21Z</time></trkpt><trkpt lat="45.70921114221342" lon="9.184512004263432"><ele>264.0</ele><time>2026-05-03T10:14:22Z</time></trkpt><trkpt lat="45.70910866011333" lon="9.184494961008072"><ele>263.0</ele><time>2026-05-03T10:14:23Z</time></trkpt><trkpt lat="45.709007160200784" lon="9.184453379040116"><ele>263.0</ele><time>2026-05-03T10:14:24Z</time></trkpt><trkpt lat="45.70890146719099" lon="9.184417484284445"><ele>263.0</ele><time>2026-05-03T10:14:25Z</time></trkpt><trkpt lat="45.70880191810103" lon="9.184377013572647"><ele>263.0</ele><time>2026-05-03T10:14:26Z</time></trkpt><trkpt lat="45.7087139654597" lon="9.184303003815714"><ele>263.0</ele><time>2026-05-03T10:14:27Z</time></trkpt><trkpt lat="45.708623567300826" lon="9.184244793384378"><ele>263.0</ele><time>2026-05-03T10:14:28Z</time></trkpt><trkpt lat="45.70853885282165" lon="9.184185056500246"><ele>263.0</ele><time>2026-05-03T10:14:29Z</time></trkpt><trkpt lat="45.70846564680798" lon="9.184124501540596"><ele>263.0</ele><time>2026-05-03T10:14:30Z</time></trkpt><trkpt lat="45.708392870979175" lon="9.184055592760336"><ele>263.0</ele><time>2026-05-03T10:14:31Z</time></trkpt><trkpt lat="45.70830631330096" lon="9.183997905094147"><ele>263.0</ele><time>2026-05-03T10:14:32Z</time></trkpt><trkpt lat="45.70822705232385" lon="9.183916855926796"><ele>263.0</ele><time>2026-05-03T10:14:33Z</time></trkpt><trkpt lat="45.708145475248095" lon="9.183834987834796"><ele>262.8</ele><time>2026-05-03T10:14:34Z</time></trkpt><trkpt lat="45.70806563757504" lon="9.183744589277762"><ele>262.6</ele><time>2026-05-03T10:14:35Z</time></trkpt><trkpt lat="45.707983142906166" lon="9.183660192965057"><ele>262.4</ele><time>2026-05-03T10:14:36Z</time></trkpt><trkpt lat="45.70789277898096" lon="9.18357738382831"><ele>262.2</ele><time>2026-05-03T10:14:37Z</time></trkpt><trkpt lat="45.70780920196889" lon="9.183493709351106"><ele>262.0</ele><time>2026-05-03T10:14:38Z</time></trkpt><trkpt lat="45.707734033471056" lon="9.183409748969318"><ele>262.0</ele><time>2026-05-03T10:14:39Z</time></trkpt><trkpt lat="45.70766350593649" lon="9.18333549357096"><ele>262.0</ele><time>2026-05-03T10:14:40Z</time></trkpt><trkpt lat="45.70759735503626" lon="9.183276358379253"><ele>262.0</ele><time>2026-05-03T10:14:41Z</time></trkpt><trkpt lat="45.70753654215924" lon="9.183213557337476"><ele>262.0</ele><time>2026-05-03T10:14:42Z</time></trkpt><trkpt lat="45.70747098178904" lon="9.18317328073294"><ele>262.0</ele><time>2026-05-03T10:14:43Z</time></trkpt><trkpt lat="45.707392504321845" lon="9.183162084852093"><ele>262.0</ele><time>2026-05-03T10:14:44Z</time></trkpt><trkpt lat="45.707318852043336" lon="9.183132183535264"><ele>262.0</ele><time>2026-05-03T10:14:45Z</time></trkpt><trkpt lat="45.70722934045933" lon="9.183269600206977"><ele>262.0</ele><time>2026-05-03T10:14:46Z</time></trkpt><trkpt lat="45.707147495071126" lon="9.183346091981859"><ele>262.0</ele><time>2026-05-03T10:14:47Z</time></trkpt><trkpt lat="45.70706819248978" lon="9.183422278303903"><ele>262.0</ele><time>2026-05-03T10:14:48Z</time></trkpt><trkpt lat="45.70698457160489" lon="9.18350485249561"><ele>262.0</ele><time>2026-05-03T10:14:49Z</time></trkpt><trkpt lat="45.70689856317072" lon="9.183589222510431"><ele>262.2</ele><time>2026-05-03T10:14:50Z</time></trkpt><trkpt lat="45.70680960208964" lon="9.18367154743504"><ele>262.4</ele><time>2026-05-03T10:14:51Z</time></trkpt><trkpt lat="45.706721164101936" lon="9.18376188094344"><ele>262.6</ele><time>2026-05-03T10:14:52Z</time></trkpt><trkpt lat="45.70663271423456" lon="9.183842833700526"><ele>262.8</ele><time>2026-05-03T10:14:53Z</time></trkpt><trkpt lat="45.7065406599127" lon="9.183941528432864"><ele>263.0</ele><time>2026-05-03T10:14:54Z</time></trkpt><trkpt lat="45.706458445685875" lon="9.184042422545907"><ele>263.0</ele><time>2026-05-03T10:14:55Z</time></trkpt><trkpt lat="45.70637933742321" lon="9.184123853195088"><ele>263.0</ele><time>2026-05-03T10:14:56Z</time></trkpt><trkpt lat="45.70630234950823" lon="9.184196883705345"><ele>263.0</ele><time>2026-05-03T10:14:57Z</time></trkpt><trkpt lat="45.70622408931256" lon="9.184260595790459"><ele>263.0</ele><time>2026-05-03T10:14:58Z</time></trkpt><trkpt lat="45.70614345518593" lon="9.184304356275064"><ele>263.0</ele><time>2026-05-03T10:14:59Z</time></trkpt><trkpt lat="45.706056677383934" lon="9.184295081860816"><ele>263.0</ele><time>2026-05-03T10:15:00Z</time></trkpt><trkpt lat="45.705965596298064" lon="9.184329201890277"><ele>263.0</ele><time>2026-05-03T10:15:01Z</time></trkpt><trkpt lat="45.70587028610703" lon="9.184337535715938"><ele>263.0</ele><time>2026-05-03T10:15:02Z</time></trkpt><trkpt lat="45.70577273945016" lon="9.184345821231702"><ele>263.0</ele><time>2026-05-03T10:15:03Z</time></trkpt><trkpt lat="45.705673647229595" lon="9.184355484505884"><ele>263.0</ele><time>2026-05-03T10:15:04Z</time></trkpt><trkpt lat="45.70556966633935" lon="9.184362449044405"><ele>263.0</ele><time>2026-05-03T10:15:05Z</time></trkpt><trkpt lat="45.705464269652225" lon="9.184372062776758"><ele>263.0</ele><time>2026-05-03T10:15:06Z</time></trkpt><trkpt lat="45.705363467714434" lon="9.184385615877977"><ele>263.0</ele><time>2026-05-03T10:15:07Z</time></trkpt><trkpt lat="45.70527009925064" lon="9.184393518231765"><ele>263.0</ele><time>2026-05-03T10:15:08Z</time></trkpt><trkpt lat="45.70518346045949" lon="9.184401399888511"><ele>263.0</ele><time>2026-05-03T10:15:09Z</time></trkpt><trkpt lat="45.705107686894706" lon="9.184401025810494"><ele>263.0</ele><time>2026-05-03T10:15:10Z</time></trkpt><trkpt lat="45.70503390269506" lon="9.184405291114576"><ele>263.0</ele><time>2026-05-03T10:15:11Z</time></trkpt><trkpt lat="45.70496688137523" lon="9.184409364477187"><ele>263.0</ele><time>2026-05-03T10:15:12Z</time></trkpt><trkpt lat="45.704900810156445" lon="9.184405988562693"><ele>263.0</ele><time>2026-05-03T10:15:13Z</time></trkpt><trkpt lat="45.70479568483009" lon="9.184372061808938"><ele>263.0</ele><time>2026-05-03T10:15:15Z</time></trkpt><trkpt lat="45.70472305394191" lon="9.184307919705839"><ele>263.0</ele><time>2026-05-03T10:15:17Z</time></trkpt><trkpt lat="45.70465375737155" lon="9.184354731239948"><ele>263.0</ele><time>2026-05-03T10:15:18Z</time></trkpt><trkpt lat="45.70463092013008" lon="9.184478414802422"><ele>263.0</ele><time>2026-05-03T10:15:19Z</time></trkpt><trkpt lat="45.70460987819849" lon="9.184608584409663"><ele>263.0</ele><time>2026-05-03T10:15:20Z</time></trkpt><trkpt lat="45.70458866053652" lon="9.184718742531587"><ele>263.0</ele><time>2026-05-03T10:15:21Z</time></trkpt><trkpt lat="45.704541432704794" lon="9.184836471851934"><ele>263.0</ele><time>2026-05-03T10:15:22Z</time></trkpt><trkpt lat="45.70448349798484" lon="9.184948272620119"><ele>262.8</ele><time>2026-05-03T10:15:23Z</time></trkpt><trkpt lat="45.70442400755917" lon="9.185061274044465"><ele>262.6</ele><time>2026-05-03T10:15:24Z</time></trkpt><trkpt lat="45.7043581402158" lon="9.18518790010734"><ele>262.4</ele><time>2026-05-03T10:15:25Z</time></trkpt><trkpt lat="45.70429596335329" lon="9.185313327621705"><ele>262.2</ele><time>2026-05-03T10:15:26Z</time></trkpt><trkpt lat="45.70422410152617" lon="9.185442647046884"><ele>262.0</ele><time>2026-05-03T10:15:27Z</time></trkpt><trkpt lat="45.704158050943015" lon="9.185567761822442"><ele>262.0</ele><time>2026-05-03T10:15:28Z</time></trkpt><trkpt lat="45.704101981248755" lon="9.185689157140095"><ele>262.0</ele><time>2026-05-03T10:15:29Z</time></trkpt><trkpt lat="45.704025778081814" lon="9.185791506823417"><ele>262.0</ele><time>2026-05-03T10:15:30Z</time></trkpt><trkpt lat="45.703964329778515" lon="9.185932186086946"><ele>262.0</ele><time>2026-05-03T10:15:31Z</time></trkpt><trkpt lat="45.703880884323844" lon="9.186049306222625"><ele>262.0</ele><time>2026-05-03T10:15:32Z</time></trkpt><trkpt lat="45.70380082817928" lon="9.186165846742016"><ele>262.0</ele><time>2026-05-03T10:15:33Z</time></trkpt><trkpt lat="45.703728390391674" lon="9.186289492561862"><ele>262.0</ele><time>2026-05-03T10:15:34Z</time></trkpt><trkpt lat="45.70365690145516" lon="9.186398411731984"><ele>262.0</ele><time>2026-05-03T10:15:35Z</time></trkpt><trkpt lat="45.70360005929795" lon="9.186496368760832"><ele>262.0</ele><time>2026-05-03T10:15:36Z</time></trkpt><trkpt lat="45.70354614119503" lon="9.18658124696799"><ele>262.0</ele><time>2026-05-03T10:15:37Z</time></trkpt><trkpt lat="45.70349616505513" lon="9.18665362553531"><ele>262.2</ele><time>2026-05-03T10:15:38Z</time></trkpt><trkpt lat="45.70344383769862" lon="9.18671304378928"><ele>262.4</ele><time>2026-05-03T10:15:39Z</time></trkpt><trkpt lat="45.703380254955775" lon="9.18680345629958"><ele>262.6</ele><time>2026-05-03T10:15:41Z</time></trkpt><trkpt lat="45.70334348055609" lon="9.186904211509097"><ele>262.8</ele><time>2026-05-03T10:15:46Z</time></trkpt><trkpt lat="45.70345961545307" lon="9.187054019377278"><ele>263.0</ele><time>2026-05-03T10:15:48Z</time></trkpt><trkpt lat="45.703529854324486" lon="9.187119851769959"><ele>262.75</ele><time>2026-05-03T10:15:49Z</time></trkpt><trkpt lat="45.70360559687455" lon="9.18720012215971"><ele>262.5</ele><time>2026-05-03T10:15:50Z</time></trkpt><trkpt lat="45.70369589387198" lon="9.18727985894719"><ele>262.25</ele><time>2026-05-03T10:15:51.001Z</time></trkpt><trkpt lat="45.703803724527994" lon="9.187386541983262"><ele>262.0</ele><time>2026-05-03T10:15:52.001Z</time></trkpt><trkpt lat="45.70391661585666" lon="9.187493591470174"><ele>261.75</ele><time>2026-05-03T10:15:53.001Z</time></trkpt><trkpt lat="45.704048110480386" lon="9.187627768978953"><ele>261.5</ele><time>2026-05-03T10:15:54.001Z</time></trkpt><trkpt lat="45.70417707330666" lon="9.187732227811928"><ele>261.25</ele><time>2026-05-03T10:15:55.001Z</time></trkpt><trkpt lat="45.70428420300492" lon="9.187831484186962"><ele>261.0</ele><time>2026-05-03T10:15:56.001Z</time></trkpt><trkpt lat="45.70437596333246" lon="9.187926235563213"><ele>261.2</ele><time>2026-05-03T10:15:57.001Z</time></trkpt><trkpt lat="45.704459956526435" lon="9.18801352831423"><ele>261.40000000000003</ele><time>2026-05-03T10:15:58.001Z</time></trkpt><trkpt lat="45.70453139165209" lon="9.188104813059837"><ele>261.6</ele><time>2026-05-03T10:15:59.001Z</time></trkpt><trkpt lat="45.70459786807779" lon="9.18820647831173"><ele>261.8</ele><time>2026-05-03T10:16:00.001Z</time></trkpt><trkpt lat="45.70466495926565" lon="9.1883066995862"><ele>262.0</ele><time>2026-05-03T10:16:01.001Z</time></trkpt><trkpt lat="45.704765858978924" lon="9.1883770770669"><ele>262.0</ele><time>2026-05-03T10:16:02.001Z</time></trkpt><trkpt lat="45.70489628130419" lon="9.188452878816033"><ele>262.0</ele><time>2026-05-03T10:16:03.001Z</time></trkpt><trkpt lat="45.705022748444556" lon="9.188557073216884"><ele>262.0</ele><time>2026-05-03T10:16:04.001Z</time></trkpt><trkpt lat="45.7051492805494" lon="9.188683968828304"><ele>262.0</ele><time>2026-05-03T10:16:05.001Z</time></trkpt><trkpt lat="45.7052696941631" lon="9.188810613711935"><ele>262.0</ele><time>2026-05-03T10:16:06.001Z</time></trkpt><trkpt lat="45.705401498224504" lon="9.188942866789404"><ele>262.0</ele><time>2026-05-03T10:16:07.001Z</time></trkpt><trkpt lat="45.7055475878552" lon="9.18908427545672"><ele>262.0</ele><time>2026-05-03T10:16:08.001Z</time></trkpt><trkpt lat="45.70570345161205" lon="9.189240774457181"><ele>262.66666666666663</ele><time>2026-05-03T10:16:09.001Z</time></trkpt><trkpt lat="45.70585893114057" lon="9.18939716644759"><ele>263.3333333333333</ele><time>2026-05-03T10:16:10.001Z</time></trkpt><trkpt lat="45.7060098226633" lon="9.189540192048819"><ele>264.0</ele><time>2026-05-03T10:16:11.001Z</time></trkpt><trkpt lat="45.70614891350105" lon="9.18967145355279"><ele>264.0</ele><time>2026-05-03T10:16:12.001Z</time></trkpt><trkpt lat="45.7062726578" lon="9.189793829952492"><ele>264.0</ele><time>2026-05-03T10:16:13.001Z</time></trkpt><trkpt lat="45.70639668905145" lon="9.189913781992257"><ele>264.0</ele><time>2026-05-03T10:16:14.001Z</time></trkpt><trkpt lat="45.70651643075183" lon="9.190027790986777"><ele>264.0</ele><time>2026-05-03T10:16:15.001Z</time></trkpt><trkpt lat="45.706636521479695" lon="9.190138166001292"><ele>264.75</ele><time>2026-05-03T10:16:16.001Z</time></trkpt><trkpt lat="45.70675420583954" lon="9.19024245225145"><ele>265.5</ele><time>2026-05-03T10:16:17.001Z</time></trkpt><trkpt lat="45.70686820169637" lon="9.19034930538374"><ele>266.25</ele><time>2026-05-03T10:16:18.001Z</time></trkpt><trkpt lat="45.706975838766176" lon="9.190454471412465"><ele>267.0</ele><time>2026-05-03T10:16:19Z</time></trkpt><trkpt lat="45.70708411366342" lon="9.190562084919419"><ele>267.0</ele><time>2026-05-03T10:16:20Z</time></trkpt><trkpt lat="45.707195632896166" lon="9.190671185182886"><ele>267.0</ele><time>2026-05-03T10:16:21Z</time></trkpt><trkpt lat="45.7073205023027" lon="9.190787388994547"><ele>267.0</ele><time>2026-05-03T10:16:22Z</time></trkpt><trkpt lat="45.707453497525876" lon="9.190944015779882"><ele>267.3333333333333</ele><time>2026-05-03T10:16:23Z</time></trkpt><trkpt lat="45.70760740829334" lon="9.191068201419736"><ele>267.66666666666663</ele><time>2026-05-03T10:16:24Z</time></trkpt><trkpt lat="45.70775783402876" lon="9.191231976394118"><ele>268.0</ele><time>2026-05-03T10:16:25Z</time></trkpt><trkpt lat="45.7079030342168" lon="9.191398337705877"><ele>268.3333333333333</ele><time>2026-05-03T10:16:26Z</time></trkpt><trkpt lat="45.708048067757396" lon="9.191565735161882"><ele>268.6666666666667</ele><time>2026-05-03T10:16:27Z</time></trkpt><trkpt lat="45.708187011539856" lon="9.191741488120357"><ele>269.0</ele><time>2026-05-03T10:16:28Z</time></trkpt><trkpt lat="45.7083142246566" lon="9.191909660150493"><ele>269.0</ele><time>2026-05-03T10:16:29Z</time></trkpt><trkpt lat="45.70844452566319" lon="9.19209870481905"><ele>269.0</ele><time>2026-05-03T10:16:30Z</time></trkpt><trkpt lat="45.70857882934007" lon="9.192305263345816"><ele>269.0</ele><time>2026-05-03T10:16:31Z</time></trkpt><trkpt lat="45.70870713536419" lon="9.192494333805325"><ele>269.0</ele><time>2026-05-03T10:16:32Z</time></trkpt><trkpt lat="45.70881200988665" lon="9.192658301571512"><ele>269.0</ele><time>2026-05-03T10:16:33Z</time></trkpt><trkpt lat="45.708912982882296" lon="9.192814017925626"><ele>269.0</ele><time>2026-05-03T10:16:34Z</time></trkpt><trkpt lat="45.70900112587429" lon="9.192964149843103"><ele>269.0</ele><time>2026-05-03T10:16:35Z</time></trkpt><trkpt lat="45.709073924566795" lon="9.193103405843559"><ele>269.33333333333337</ele><time>2026-05-03T10:16:36Z</time></trkpt><trkpt lat="45.70912765872268" lon="9.193227631370997"><ele>269.6666666666667</ele><time>2026-05-03T10:16:37Z</time></trkpt><trkpt lat="45.70916099040799" lon="9.193321519061332"><ele>270.0</ele><time>2026-05-03T10:16:38Z</time></trkpt><trkpt lat="45.709173806417155" lon="9.193415805541242"><ele>270.3333333333333</ele><time>2026-05-03T10:16:40Z</time></trkpt><trkpt lat="45.70916388242369" lon="9.193521537440477"><ele>270.66666666666663</ele><time>2026-05-03T10:16:44Z</time></trkpt><trkpt lat="45.70917343112561" lon="9.193677128706552"><ele>271.0</ele><time>2026-05-03T10:16:46Z</time></trkpt><trkpt lat="45.70918499192115" lon="9.193856575803961"><ele>271.0</ele><time>2026-05-03T10:16:48Z</time></trkpt><trkpt lat="45.70916607873072" lon="9.193973742358681"><ele>271.0</ele><time>2026-05-03T10:16:49Z</time></trkpt><trkpt lat="45.70913145176333" lon="9.194081337844255"><ele>271.0</ele><time>2026-05-03T10:16:50Z</time></trkpt><trkpt lat="45.70908920895089" lon="9.194185240998257"><ele>271.0</ele><time>2026-05-03T10:16:51Z</time></trkpt><trkpt lat="45.709050741647346" lon="9.19428092387767"><ele>271.0</ele><time>2026-05-03T10:16:52Z</time></trkpt><trkpt lat="45.709009498924836" lon="9.19437065574378"><ele>271.0</ele><time>2026-05-03T10:16:53Z</time></trkpt><trkpt lat="45.7089711262483" lon="9.194459086448044"><ele>271.0</ele><time>2026-05-03T10:16:54Z</time></trkpt><trkpt lat="45.70893398653488" lon="9.194544920909092"><ele>271.0</ele><time>2026-05-03T10:16:55Z</time></trkpt><trkpt lat="45.70889374201176" lon="9.19463111527116"><ele>271.0</ele><time>2026-05-03T10:16:56Z</time></trkpt><trkpt lat="45.708854076809025" lon="9.194717068498203"><ele>271.0</ele><time>2026-05-03T10:16:57Z</time></trkpt><trkpt lat="45.70881795597628" lon="9.194799862859542"><ele>271.0</ele><time>2026-05-03T10:16:58Z</time></trkpt><trkpt lat="45.70875689134557" lon="9.194940979101986"><ele>271.0</ele><time>2026-05-03T10:17:00Z</time></trkpt><trkpt lat="45.70872614569354" lon="9.1950595202375"><ele>271.40000000000003</ele><time>2026-05-03T10:17:02Z</time></trkpt><trkpt lat="45.70882196781262" lon="9.195183688472053"><ele>271.8</ele><time>2026-05-03T10:17:05Z</time></trkpt><trkpt lat="45.708901527361036" lon="9.195162439123946"><ele>272.20000000000005</ele><time>2026-05-03T10:17:06Z</time></trkpt><trkpt lat="45.70898658725918" lon="9.19513428219132"><ele>272.6</ele><time>2026-05-03T10:17:07Z</time></trkpt><trkpt lat="45.7090894645736" lon="9.195114933686101"><ele>273.0</ele><time>2026-05-03T10:17:08Z</time></trkpt><trkpt lat="45.709197516826656" lon="9.195104577098677"><ele>273.0</ele><time>2026-05-03T10:17:09Z</time></trkpt><trkpt lat="45.70930651667796" lon="9.195103205495059"><ele>273.0</ele><time>2026-05-03T10:17:10Z</time></trkpt><trkpt lat="45.70941038060125" lon="9.195095797264855"><ele>273.0</ele><time>2026-05-03T10:17:11Z</time></trkpt><trkpt lat="45.70950406720095" lon="9.195081428279016"><ele>273.0</ele><time>2026-05-03T10:17:12Z</time></trkpt><trkpt lat="45.709589886507615" lon="9.195063756959206"><ele>273.0</ele><time>2026-05-03T10:17:13Z</time></trkpt><trkpt lat="45.70966711132928" lon="9.195046145012206"><ele>273.0</ele><time>2026-05-03T10:17:14Z</time></trkpt><trkpt lat="45.709735585412545" lon="9.195036490232212"><ele>273.0</ele><time>2026-05-03T10:17:15Z</time></trkpt><trkpt lat="45.70984601438008" lon="9.195038565445088"><ele>273.0</ele><time>2026-05-03T10:17:17Z</time></trkpt><trkpt lat="45.70990322005644" lon="9.195143593234135"><ele>273.0</ele><time>2026-05-03T10:17:18Z</time></trkpt><trkpt lat="45.70995496460758" lon="9.195269411090825"><ele>273.0</ele><time>2026-05-03T10:17:19Z</time></trkpt><trkpt lat="45.710011088763856" lon="9.195393490955482"><ele>273.0</ele><time>2026-05-03T10:17:20Z</time></trkpt><trkpt lat="45.710068520083404" lon="9.195523179395112"><ele>273.0</ele><time>2026-05-03T10:17:21Z</time></trkpt><trkpt lat="45.710127479891355" lon="9.19563892137412"><ele>273.0</ele><time>2026-05-03T10:17:22Z</time></trkpt><trkpt lat="45.710169541257436" lon="9.195741942547784"><ele>273.0</ele><time>2026-05-03T10:17:23Z</time></trkpt><trkpt lat="45.71018261180709" lon="9.195832361154743"><ele>273.0</ele><time>2026-05-03T10:17:24Z</time></trkpt><trkpt lat="45.710194653433526" lon="9.195931968338282"><ele>273.0</ele><time>2026-05-03T10:17:25Z</time></trkpt><trkpt lat="45.71021979753327" lon="9.196124741261649"><ele>273.3333333333333</ele><time>2026-05-03T10:17:27Z</time></trkpt><trkpt lat="45.710235302857235" lon="9.196242159796181"><ele>273.6666666666667</ele><time>2026-05-03T10:17:28Z</time></trkpt><trkpt lat="45.71024317616517" lon="9.196361471786176"><ele>274.0</ele><time>2026-05-03T10:17:29Z</time></trkpt><trkpt lat="45.71025384463029" lon="9.196490550394751"><ele>274.33333333333337</ele><time>2026-05-03T10:17:30Z</time></trkpt><trkpt lat="45.71026510720395" lon="9.19661903998687"><ele>274.6666666666667</ele><time>2026-05-03T10:17:31Z</time></trkpt><trkpt lat="45.71027418260994" lon="9.196746762494909"><ele>275.0</ele><time>2026-05-03T10:17:32Z</time></trkpt><trkpt lat="45.71028759335415" lon="9.196872925127282"><ele>275.2857142857143</ele><time>2026-05-03T10:17:33Z</time></trkpt><trkpt lat="45.710301296411075" lon="9.1969682475224"><ele>275.57142857142856</ele><time>2026-05-03T10:17:34Z</time></trkpt><trkpt lat="45.71030983834017" lon="9.197059421261931"><ele>275.85714285714283</ele><time>2026-05-03T10:17:35Z</time></trkpt><trkpt lat="45.71031791628999" lon="9.19715115565812"><ele>276.1428571428571</ele><time>2026-05-03T10:17:36Z</time></trkpt><trkpt lat="45.710330279805596" lon="9.197239584055922"><ele>276.4285714285714</ele><time>2026-05-03T10:17:37Z</time></trkpt><trkpt lat="45.71035341715071" lon="9.197415865101137"><ele>276.7142857142857</ele><time>2026-05-03T10:17:39Z</time></trkpt><trkpt lat="45.71036919563242" lon="9.19750464722434"><ele>277.0</ele><time>2026-05-03T10:17:40Z</time></trkpt><trkpt lat="45.71038419603624" lon="9.197601534926415"><ele>277.0</ele><time>2026-05-03T10:17:41Z</time></trkpt><trkpt lat="45.71041832492219" lon="9.197765861980088"><ele>277.0</ele><time>2026-05-03T10:17:43Z</time></trkpt><trkpt lat="45.71044214634844" lon="9.19785101898151"><ele>277.0</ele><time>2026-05-03T10:17:44Z</time></trkpt><trkpt lat="45.710466556202036" lon="9.197946475731793"><ele>277.0</ele><time>2026-05-03T10:17:45Z</time></trkpt><trkpt lat="45.71049561600148" lon="9.198051235200346"><ele>277.0</ele><time>2026-05-03T10:17:46Z</time></trkpt><trkpt lat="45.71053126497615" lon="9.198165351228626"><ele>277.0</ele><time>2026-05-03T10:17:47Z</time></trkpt><trkpt lat="45.710568976284456" lon="9.198276766749178"><ele>277.0</ele><time>2026-05-03T10:17:48Z</time></trkpt><trkpt lat="45.71061654699396" lon="9.198386491701257"><ele>277.0</ele><time>2026-05-03T10:17:49Z</time></trkpt><trkpt lat="45.710663405697986" lon="9.198548102015318"><ele>277.0</ele><time>2026-05-03T10:17:50Z</time></trkpt><trkpt lat="45.7107421251767" lon="9.198749881623021"><ele>277.0</ele><time>2026-05-03T10:17:51Z</time></trkpt><trkpt lat="45.710825659742916" lon="9.198975936656687"><ele>277.66666666666663</ele><time>2026-05-03T10:17:52Z</time></trkpt><trkpt lat="45.710910369695966" lon="9.199222840194533"><ele>278.3333333333333</ele><time>2026-05-03T10:17:53Z</time></trkpt><trkpt lat="45.71102377802475" lon="9.19948396181894"><ele>279.0</ele><time>2026-05-03T10:17:54Z</time></trkpt><trkpt lat="45.71113707471538" lon="9.19974445984219"><ele>282.0</ele><time>2026-05-03T10:17:55Z</time></trkpt><trkpt lat="45.711253443140116" lon="9.200035016782012"><ele>285.0</ele><time>2026-05-03T10:17:56Z</time></trkpt><trkpt lat="45.711372704453936" lon="9.20032569388941"><ele>285.0</ele><time>2026-05-03T10:17:57Z</time></trkpt><trkpt lat="45.71149504087839" lon="9.20063027493648"><ele>285.0</ele><time>2026-05-03T10:17:58Z</time></trkpt><trkpt lat="45.71161021699878" lon="9.200940473074663"><ele>285.3333333333333</ele><time>2026-05-03T10:17:59.001Z</time></trkpt><trkpt lat="45.71171503082824" lon="9.201220979777268"><ele>285.66666666666663</ele><time>2026-05-03T10:18:00.001Z</time></trkpt><trkpt lat="45.711840302120635" lon="9.201446165501173"><ele>286.0</ele><time>2026-05-03T10:18:01.001Z</time></trkpt><trkpt lat="45.71198621325996" lon="9.201646787969613"><ele>286.0</ele><time>2026-05-03T10:18:02.001Z</time></trkpt><trkpt lat="45.71214721634162" lon="9.201831955300062"><ele>286.0</ele><time>2026-05-03T10:18:03.001Z</time></trkpt><trkpt lat="45.71232969681156" lon="9.201986111522581"><ele>286.0</ele><time>2026-05-03T10:18:04.001Z</time></trkpt><trkpt lat="45.71254478309578" lon="9.202140597667007"><ele>284.5</ele><time>2026-05-03T10:18:05.001Z</time></trkpt><trkpt lat="45.712745492225466" lon="9.20230146950131"><ele>283.0</ele><time>2026-05-03T10:18:06.001Z</time></trkpt><trkpt lat="45.712952401694096" lon="9.202471356044068"><ele>283.0</ele><time>2026-05-03T10:18:07.001Z</time></trkpt><trkpt lat="45.713161971586715" lon="9.202645446627336"><ele>283.0</ele><time>2026-05-03T10:18:08.001Z</time></trkpt><trkpt lat="45.71338780100692" lon="9.20283172761527"><ele>283.0</ele><time>2026-05-03T10:18:09.001Z</time></trkpt><trkpt lat="45.71357036782176" lon="9.20297642601926"><ele>283.0</ele><time>2026-05-03T10:18:10.001Z</time></trkpt><trkpt lat="45.71373060843519" lon="9.203115052356203"><ele>283.0</ele><time>2026-05-03T10:18:11.001Z</time></trkpt><trkpt lat="45.71387127424062" lon="9.203216829530488"><ele>283.2</ele><time>2026-05-03T10:18:12.001Z</time></trkpt><trkpt lat="45.71397043818783" lon="9.203302300468222"><ele>283.4</ele><time>2026-05-03T10:18:13.001Z</time></trkpt><trkpt lat="45.71404507593117" lon="9.203378200803956"><ele>283.59999999999997</ele><time>2026-05-03T10:18:14.001Z</time></trkpt><trkpt lat="45.71409557488401" lon="9.203459476949337"><ele>283.8</ele><time>2026-05-03T10:18:15.001Z</time></trkpt><trkpt lat="45.71418443706989" lon="9.2035577605231"><ele>284.0</ele><time>2026-05-03T10:18:17.001Z</time></trkpt><trkpt lat="45.71425869521773" lon="9.203621154439638"><ele>284.0</ele><time>2026-05-03T10:18:18.001Z</time></trkpt><trkpt lat="45.71436286067149" lon="9.203683187358422"><ele>284.0</ele><time>2026-05-03T10:18:19.001Z</time></trkpt><trkpt lat="45.714511492690846" lon="9.203704890389565"><ele>284.0</ele><time>2026-05-03T10:18:20.001Z</time></trkpt><trkpt lat="45.71464013560905" lon="9.203810991989972"><ele>284.0</ele><time>2026-05-03T10:18:21.001Z</time></trkpt><trkpt lat="45.714755524427034" lon="9.203934083762709"><ele>283.8</ele><time>2026-05-03T10:18:22.001Z</time></trkpt><trkpt lat="45.71485942162983" lon="9.204031742357731"><ele>283.59999999999997</ele><time>2026-05-03T10:18:23.001Z</time></trkpt><trkpt lat="45.714947034872964" lon="9.204100306527748"><ele>283.4</ele><time>2026-05-03T10:18:24.001Z</time></trkpt><trkpt lat="45.71502071876062" lon="9.204158961666892"><ele>283.2</ele><time>2026-05-03T10:18:24.999Z</time></trkpt><trkpt lat="45.715073016148956" lon="9.204218418817693"><ele>283.0</ele><time>2026-05-03T10:18:25.999Z</time></trkpt><trkpt lat="45.71509491433574" lon="9.204320226622071"><ele>283.0</ele><time>2026-05-03T10:18:27.999Z</time></trkpt><trkpt lat="45.715103191204584" lon="9.204409811279143"><ele>283.0</ele><time>2026-05-03T10:18:29.999Z</time></trkpt><trkpt lat="45.71515018260426" lon="9.204471213483524"><ele>283.0</ele><time>2026-05-03T10:18:31.999Z</time></trkpt><trkpt lat="45.71515789492342" lon="9.204577145373083"><ele>283.0</ele><time>2026-05-03T10:18:32.999Z</time></trkpt><trkpt lat="45.71516436705872" lon="9.204726009698494"><ele>283.0</ele><time>2026-05-03T10:18:33.999Z</time></trkpt><trkpt lat="45.71514983514952" lon="9.204894912048598"><ele>283.0</ele><time>2026-05-03T10:18:34.999Z</time></trkpt><trkpt lat="45.71513204629934" lon="9.205046628301131"><ele>283.4</ele><time>2026-05-03T10:18:35.999Z</time></trkpt><trkpt lat="45.715115405338224" lon="9.205192101561137"><ele>283.8</ele><time>2026-05-03T10:18:36.999Z</time></trkpt><trkpt lat="45.71510027127631" lon="9.205322634726114"><ele>284.2</ele><time>2026-05-03T10:18:37.999Z</time></trkpt><trkpt lat="45.71508610785826" lon="9.205455148031588"><ele>284.6</ele><time>2026-05-03T10:18:38.999Z</time></trkpt><trkpt lat="45.71507169159361" lon="9.20558193521667"><ele>285.0</ele><time>2026-05-03T10:18:39.999Z</time></trkpt><trkpt lat="45.71506538425422" lon="9.205688016077703"><ele>285.0</ele><time>2026-05-03T10:18:41Z</time></trkpt><trkpt lat="45.715117547879316" lon="9.205825346391709"><ele>285.0</ele><time>2026-05-03T10:18:43Z</time></trkpt><trkpt lat="45.71521174818263" lon="9.205836275533565"><ele>285.0</ele><time>2026-05-03T10:18:45Z</time></trkpt><trkpt lat="45.71531085715497" lon="9.205770791810732"><ele>285.0</ele><time>2026-05-03T10:18:47Z</time></trkpt><trkpt lat="45.71537382156815" lon="9.20572407097308"><ele>285.0</ele><time>2026-05-03T10:18:48Z</time></trkpt><trkpt lat="45.71543994289654" lon="9.205676913748778"><ele>285.2</ele><time>2026-05-03T10:18:49Z</time></trkpt><trkpt lat="45.71551026709749" lon="9.205625513987327"><ele>285.4</ele><time>2026-05-03T10:18:50Z</time></trkpt><trkpt lat="45.71559317002315" lon="9.205557259385847"><ele>285.6</ele><time>2026-05-03T10:18:51Z</time></trkpt><trkpt lat="45.7156935441823" lon="9.205458998996217"><ele>285.8</ele><time>2026-05-03T10:18:52Z</time></trkpt><trkpt lat="45.71580757006541" lon="9.205328714981365"><ele>286.0</ele><time>2026-05-03T10:18:53Z</time></trkpt><trkpt lat="45.71589677926076" lon="9.205210806966663"><ele>286.0</ele><time>2026-05-03T10:18:54Z</time></trkpt><trkpt lat="45.71596463111124" lon="9.205108890042778"><ele>286.0</ele><time>2026-05-03T10:18:55Z</time></trkpt><trkpt lat="45.716023966712974" lon="9.205027214881776"><ele>286.0</ele><time>2026-05-03T10:18:56Z</time></trkpt><trkpt lat="45.71608409873364" lon="9.204962777996347"><ele>286.0</ele><time>2026-05-03T10:18:57Z</time></trkpt><trkpt lat="45.7161644588266" lon="9.204921613358636"><ele>286.0</ele><time>2026-05-03T10:18:58Z</time></trkpt><trkpt lat="45.716249051037686" lon="9.204849805624999"><ele>286.0</ele><time>2026-05-03T10:18:59Z</time></trkpt><trkpt lat="45.7163376317203" lon="9.20476968078544"><ele>286.2</ele><time>2026-05-03T10:19:00Z</time></trkpt><trkpt lat="45.71641464832787" lon="9.204702971987187"><ele>286.40000000000003</ele><time>2026-05-03T10:19:01Z</time></trkpt><trkpt lat="45.71649393450537" lon="9.20463540636633"><ele>286.6</ele><time>2026-05-03T10:19:02Z</time></trkpt><trkpt lat="45.71656997601601" lon="9.204571467574864"><ele>286.8</ele><time>2026-05-03T10:19:03Z</time></trkpt><trkpt lat="45.716648401678384" lon="9.204503812822932"><ele>287.0</ele><time>2026-05-03T10:19:04Z</time></trkpt><trkpt lat="45.7167294788625" lon="9.204434530040796"><ele>287.0</ele><time>2026-05-03T10:19:05Z</time></trkpt><trkpt lat="45.716809637743644" lon="9.204366512312689"><ele>287.0</ele><time>2026-05-03T10:19:06Z</time></trkpt><trkpt lat="45.716890039871906" lon="9.204302917695474"><ele>287.0</ele><time>2026-05-03T10:19:07Z</time></trkpt><trkpt lat="45.71696705834525" lon="9.204241707844865"><ele>287.0</ele><time>2026-05-03T10:19:08Z</time></trkpt><trkpt lat="45.71704491151358" lon="9.204187984980457"><ele>287.0</ele><time>2026-05-03T10:19:09Z</time></trkpt><trkpt lat="45.717124030659285" lon="9.204150183165673"><ele>287.0</ele><time>2026-05-03T10:19:10Z</time></trkpt><trkpt lat="45.71720629238661" lon="9.204125853054357"><ele>287.2</ele><time>2026-05-03T10:19:11Z</time></trkpt><trkpt lat="45.7172960854101" lon="9.204113798852294"><ele>287.4</ele><time>2026-05-03T10:19:12Z</time></trkpt><trkpt lat="45.717394367879194" lon="9.204112032533022"><ele>287.6</ele><time>2026-05-03T10:19:13Z</time></trkpt><trkpt lat="45.717498544199834" lon="9.20412607527042"><ele>287.8</ele><time>2026-05-03T10:19:14Z</time></trkpt><trkpt lat="45.717608635346124" lon="9.204140287949745"><ele>288.0</ele><time>2026-05-03T10:19:15Z</time></trkpt><trkpt lat="45.717727387755104" lon="9.204152568929487"><ele>288.5</ele><time>2026-05-03T10:19:16Z</time></trkpt><trkpt lat="45.717847531721844" lon="9.204167202748032"><ele>289.0</ele><time>2026-05-03T10:19:17Z</time></trkpt><trkpt lat="45.71797484852996" lon="9.20418235884148"><ele>289.5</ele><time>2026-05-03T10:19:18Z</time></trkpt><trkpt lat="45.71810543516682" lon="9.204198091611588"><ele>290.0</ele><time>2026-05-03T10:19:19Z</time></trkpt><trkpt lat="45.71823823198978" lon="9.204213449725325"><ele>290.0</ele><time>2026-05-03T10:19:20Z</time></trkpt><trkpt lat="45.718367757667224" lon="9.204229030559548"><ele>290.0</ele><time>2026-05-03T10:19:21Z</time></trkpt><trkpt lat="45.718490271687095" lon="9.204244836867385"><ele>290.0</ele><time>2026-05-03T10:19:22Z</time></trkpt><trkpt lat="45.71861479655956" lon="9.204259857302507"><ele>290.0</ele><time>2026-05-03T10:19:23Z</time></trkpt><trkpt lat="45.718739790130975" lon="9.20426888702135"><ele>290.25</ele><time>2026-05-03T10:19:24Z</time></trkpt><trkpt lat="45.71886794475136" lon="9.204270693915907"><ele>290.5</ele><time>2026-05-03T10:19:25Z</time></trkpt><trkpt lat="45.719002720440194" lon="9.204270306762991"><ele>290.75</ele><time>2026-05-03T10:19:26Z</time></trkpt><trkpt lat="45.7191420537979" lon="9.204270164187559"><ele>291.0</ele><time>2026-05-03T10:19:27Z</time></trkpt><trkpt lat="45.7192829701233" lon="9.204262125357925"><ele>291.25</ele><time>2026-05-03T10:19:28Z</time></trkpt><trkpt lat="45.71942167516672" lon="9.204252806480394"><ele>291.5</ele><time>2026-05-03T10:19:29Z</time></trkpt><trkpt lat="45.71956421162176" lon="9.204238397460415"><ele>291.75</ele><time>2026-05-03T10:19:30Z</time></trkpt><trkpt lat="45.71970892654916" lon="9.204223059571543"><ele>292.0</ele><time>2026-05-03T10:19:31Z</time></trkpt><trkpt lat="45.71985592842047" lon="9.204205307877766"><ele>292.0</ele><time>2026-05-03T10:19:32Z</time></trkpt><trkpt lat="45.719999005206624" lon="9.20418591854033"><ele>292.0</ele><time>2026-05-03T10:19:33Z</time></trkpt><trkpt lat="45.720146443038196" lon="9.204172889103905"><ele>292.0</ele><time>2026-05-03T10:19:34Z</time></trkpt><trkpt lat="45.72029328860815" lon="9.204161016232645"><ele>292.0</ele><time>2026-05-03T10:19:35Z</time></trkpt><trkpt lat="45.72043998292526" lon="9.204145982933948"><ele>292.5</ele><time>2026-05-03T10:19:36Z</time></trkpt><trkpt lat="45.72058005968256" lon="9.20413057530582"><ele>293.0</ele><time>2026-05-03T10:19:37Z</time></trkpt><trkpt lat="45.720717739762065" lon="9.204115879395628"><ele>293.5</ele><time>2026-05-03T10:19:38Z</time></trkpt><trkpt lat="45.720850035392104" lon="9.204107096323906"><ele>294.0</ele><time>2026-05-03T10:19:39Z</time></trkpt><trkpt lat="45.720984994308346" lon="9.204097625895173"><ele>294.5</ele><time>2026-05-03T10:19:40Z</time></trkpt><trkpt lat="45.72112179600487" lon="9.204081762344462"><ele>295.0</ele><time>2026-05-03T10:19:41Z</time></trkpt><trkpt lat="45.721252346065626" lon="9.204066858303742"><ele>295.5</ele><time>2026-05-03T10:19:42Z</time></trkpt><trkpt lat="45.7213900770716" lon="9.204053019410066"><ele>296.0</ele><time>2026-05-03T10:19:43Z</time></trkpt><trkpt lat="45.72152208968736" lon="9.204035880435475"><ele>296.0</ele><time>2026-05-03T10:19:44Z</time></trkpt><trkpt lat="45.72165733715663" lon="9.204018526725495"><ele>296.0</ele><time>2026-05-03T10:19:45Z</time></trkpt><trkpt lat="45.72179158750408" lon="9.20400068368701"><ele>296.0</ele><time>2026-05-03T10:19:46Z</time></trkpt><trkpt lat="45.721925799614255" lon="9.203985689755772"><ele>296.0</ele><time>2026-05-03T10:19:47Z</time></trkpt><trkpt lat="45.7220594583683" lon="9.203963530354434"><ele>296.0</ele><time>2026-05-03T10:19:48Z</time></trkpt><trkpt lat="45.72219366457209" lon="9.203944644827034"><ele>296.0</ele><time>2026-05-03T10:19:49Z</time></trkpt><trkpt lat="45.72232821589259" lon="9.203926687102998"><ele>296.0</ele><time>2026-05-03T10:19:50Z</time></trkpt><trkpt lat="45.72246420670514" lon="9.203911760725006"><ele>296.0</ele><time>2026-05-03T10:19:51Z</time></trkpt><trkpt lat="45.72259680398044" lon="9.203893145722553"><ele>296.0</ele><time>2026-05-03T10:19:52Z</time></trkpt><trkpt lat="45.72272797025224" lon="9.203869557144278"><ele>296.0</ele><time>2026-05-03T10:19:53.001Z</time></trkpt><trkpt lat="45.722865415041355" lon="9.20385031160271"><ele>296.0</ele><time>2026-05-03T10:19:54.001Z</time></trkpt><trkpt lat="45.723016474930404" lon="9.203831439836728"><ele>296.0</ele><time>2026-05-03T10:19:55.001Z</time></trkpt><trkpt lat="45.7231703131189" lon="9.203808643666038"><ele>296.33333333333337</ele><time>2026-05-03T10:19:56.001Z</time></trkpt><trkpt lat="45.723329501011804" lon="9.203780914708537"><ele>296.6666666666667</ele><time>2026-05-03T10:19:57.001Z</time></trkpt><trkpt lat="45.72349150516897" lon="9.203752083171437"><ele>297.0</ele><time>2026-05-03T10:19:58.001Z</time></trkpt><trkpt lat="45.72365224720246" lon="9.203728310423616"><ele>297.0</ele><time>2026-05-03T10:19:59.001Z</time></trkpt><trkpt lat="45.72380878682113" lon="9.203693819821995"><ele>297.0</ele><time>2026-05-03T10:20:00.001Z</time></trkpt><trkpt lat="45.723966298771394" lon="9.203667448710712"><ele>297.0</ele><time>2026-05-03T10:20:01.001Z</time></trkpt><trkpt lat="45.7241228139207" lon="9.203643231398738"><ele>297.0</ele><time>2026-05-03T10:20:02.001Z</time></trkpt><trkpt lat="45.72427088892351" lon="9.203617948109967"><ele>297.0</ele><time>2026-05-03T10:20:03.001Z</time></trkpt><trkpt lat="45.724417512102775" lon="9.203593690083412"><ele>297.0</ele><time>2026-05-03T10:20:04.001Z</time></trkpt><trkpt lat="45.72456060591925" lon="9.203572780147242"><ele>297.0</ele><time>2026-05-03T10:20:05.001Z</time></trkpt><trkpt lat="45.724699603545986" lon="9.203548354820924"><ele>297.25</ele><time>2026-05-03T10:20:06.001Z</time></trkpt><trkpt lat="45.7248415098705" lon="9.203525548405345"><ele>297.5</ele><time>2026-05-03T10:20:07.001Z</time></trkpt><trkpt lat="45.72497797997546" lon="9.203503450974322"><ele>297.75</ele><time>2026-05-03T10:20:08.001Z</time></trkpt><trkpt lat="45.72512106541552" lon="9.203481825782228"><ele>298.0</ele><time>2026-05-03T10:20:09.001Z</time></trkpt><trkpt lat="45.72526490844426" lon="9.203457721037474"><ele>298.5</ele><time>2026-05-03T10:20:10.001Z</time></trkpt><trkpt lat="45.725403323159554" lon="9.203435643909122"><ele>299.0</ele><time>2026-05-03T10:20:11.001Z</time></trkpt><trkpt lat="45.725539819379335" lon="9.20341537411777"><ele>299.5</ele><time>2026-05-03T10:20:12.001Z</time></trkpt><trkpt lat="45.72567091068474" lon="9.203394505502876"><ele>300.0</ele><time>2026-05-03T10:20:13.001Z</time></trkpt><trkpt lat="45.72580450919166" lon="9.203375670982481"><ele>300.0</ele><time>2026-05-03T10:20:14.001Z</time></trkpt><trkpt lat="45.72594421838607" lon="9.20335218520125"><ele>300.0</ele><time>2026-05-03T10:20:15.001Z</time></trkpt><trkpt lat="45.72608588826026" lon="9.203322740603454"><ele>300.0</ele><time>2026-05-03T10:20:16.001Z</time></trkpt><trkpt lat="45.726219872327086" lon="9.203302124404546"><ele>300.0</ele><time>2026-05-03T10:20:17.001Z</time></trkpt><trkpt lat="45.726338935671805" lon="9.203282303605802"><ele>300.2</ele><time>2026-05-03T10:20:18.001Z</time></trkpt><trkpt lat="45.726451494168764" lon="9.203260330847781"><ele>300.4</ele><time>2026-05-03T10:20:19.001Z</time></trkpt><trkpt lat="45.72655387860014" lon="9.20324622614395"><ele>300.6</ele><time>2026-05-03T10:20:20.001Z</time></trkpt><trkpt lat="45.726648766767056" lon="9.203234651564888"><ele>300.8</ele><time>2026-05-03T10:20:21.001Z</time></trkpt><trkpt lat="45.726736007624055" lon="9.203225902199053"><ele>301.0</ele><time>2026-05-03T10:20:22.001Z</time></trkpt><trkpt lat="45.726811785986165" lon="9.203225998050433"><ele>301.0</ele><time>2026-05-03T10:20:23.001Z</time></trkpt><trkpt lat="45.72688832701401" lon="9.203242023351125"><ele>301.0</ele><time>2026-05-03T10:20:24.001Z</time></trkpt><trkpt lat="45.726965098475404" lon="9.203279756823822"><ele>301.0</ele><time>2026-05-03T10:20:25.001Z</time></trkpt><trkpt lat="45.72705569593414" lon="9.20329753431051"><ele>301.0</ele><time>2026-05-03T10:20:26.001Z</time></trkpt><trkpt lat="45.72715630884334" lon="9.20342347640888"><ele>301.0</ele><time>2026-05-03T10:20:27.001Z</time></trkpt><trkpt lat="45.7272738790796" lon="9.203502561989119"><ele>301.3333333333333</ele><time>2026-05-03T10:20:28.001Z</time></trkpt><trkpt lat="45.727400277508984" lon="9.203598079022633"><ele>301.6666666666667</ele><time>2026-05-03T10:20:29.001Z</time></trkpt><trkpt lat="45.727537444339916" lon="9.203699431108797"><ele>302.0</ele><time>2026-05-03T10:20:30.001Z</time></trkpt><trkpt lat="45.7276818079556" lon="9.203807431359218"><ele>302.0</ele><time>2026-05-03T10:20:30.999Z</time></trkpt><trkpt lat="45.727838882812904" lon="9.203923802376533"><ele>302.0</ele><time>2026-05-03T10:20:31.999Z</time></trkpt><trkpt lat="45.727994641986804" lon="9.204043650857098"><ele>302.0</ele><time>2026-05-03T10:20:32.999Z</time></trkpt><trkpt lat="45.72814547255426" lon="9.204161535315414"><ele>302.0</ele><time>2026-05-03T10:20:33.999Z</time></trkpt><trkpt lat="45.7283136003501" lon="9.204285940135776"><ele>302.0</ele><time>2026-05-03T10:20:34.999Z</time></trkpt><trkpt lat="45.72847354741011" lon="9.204414208595681"><ele>302.0</ele><time>2026-05-03T10:20:35.999Z</time></trkpt><trkpt lat="45.72865044466056" lon="9.20455582608491"><ele>301.6666666666667</ele><time>2026-05-03T10:20:36.999Z</time></trkpt><trkpt lat="45.728818641798306" lon="9.204699878055258"><ele>301.3333333333333</ele><time>2026-05-03T10:20:37.999Z</time></trkpt><trkpt lat="45.728997956459416" lon="9.204849699569634"><ele>301.0</ele><time>2026-05-03T10:20:38.999Z</time></trkpt><trkpt lat="45.72917181639783" lon="9.204996861787931"><ele>301.66666666666663</ele><time>2026-05-03T10:20:39.999Z</time></trkpt><trkpt lat="45.729336420869444" lon="9.205133884045859"><ele>302.3333333333333</ele><time>2026-05-03T10:20:40.999Z</time></trkpt><trkpt lat="45.7295083057796" lon="9.205281685680143"><ele>303.0</ele><time>2026-05-03T10:20:41.999Z</time></trkpt><trkpt lat="45.729676196426965" lon="9.205424624253686"><ele>303.0</ele><time>2026-05-03T10:20:42.999Z</time></trkpt><trkpt lat="45.729830453365665" lon="9.205556618867828"><ele>303.0</ele><time>2026-05-03T10:20:43.999Z</time></trkpt><trkpt lat="45.72997849691685" lon="9.205677551621191"><ele>303.0</ele><time>2026-05-03T10:20:44.999Z</time></trkpt><trkpt lat="45.7301316570736" lon="9.205831212260684"><ele>304.6666666666667</ele><time>2026-05-03T10:20:45.999Z</time></trkpt><trkpt lat="45.73028771567804" lon="9.205961082597963"><ele>306.33333333333337</ele><time>2026-05-03T10:20:46.999Z</time></trkpt><trkpt lat="45.73042608023045" lon="9.206076059324374"><ele>308.0</ele><time>2026-05-03T10:20:47.999Z</time></trkpt><trkpt lat="45.73056534880929" lon="9.206193203766116"><ele>308.0</ele><time>2026-05-03T10:20:48.999Z</time></trkpt><trkpt lat="45.73069678635798" lon="9.206305639219433"><ele>308.0</ele><time>2026-05-03T10:20:50Z</time></trkpt><trkpt lat="45.73082368591431" lon="9.206414192755664"><ele>308.0</ele><time>2026-05-03T10:20:51Z</time></trkpt><trkpt lat="45.73094594811741" lon="9.206521569254363"><ele>308.0</ele><time>2026-05-03T10:20:52Z</time></trkpt><trkpt lat="45.731063551772756" lon="9.206628620060767"><ele>308.75</ele><time>2026-05-03T10:20:53Z</time></trkpt><trkpt lat="45.731194015488406" lon="9.206721735658443"><ele>309.5</ele><time>2026-05-03T10:20:54Z</time></trkpt><trkpt lat="45.73130939142285" lon="9.20682606275022"><ele>310.25</ele><time>2026-05-03T10:20:55Z</time></trkpt><trkpt lat="45.731419872433094" lon="9.206924980137591"><ele>311.0</ele><time>2026-05-03T10:20:56Z</time></trkpt><trkpt lat="45.73153761249238" lon="9.207011049520771"><ele>311.0</ele><time>2026-05-03T10:20:57Z</time></trkpt><trkpt lat="45.73166415729063" lon="9.207074377712285"><ele>311.0</ele><time>2026-05-03T10:20:58Z</time></trkpt><trkpt lat="45.73179543061369" lon="9.20712115773553"><ele>311.0</ele><time>2026-05-03T10:20:59Z</time></trkpt><trkpt lat="45.731928294838035" lon="9.207139124859033"><ele>311.0</ele><time>2026-05-03T10:21:00Z</time></trkpt><trkpt lat="45.732069462661144" lon="9.207137899571478"><ele>310.75</ele><time>2026-05-03T10:21:01Z</time></trkpt><trkpt lat="45.73221035053957" lon="9.20712998253858"><ele>310.5</ele><time>2026-05-03T10:21:02Z</time></trkpt><trkpt lat="45.732354904340596" lon="9.20711739285019"><ele>310.25</ele><time>2026-05-03T10:21:03Z</time></trkpt><trkpt lat="45.73249226980375" lon="9.207106987843028"><ele>310.0</ele><time>2026-05-03T10:21:04Z</time></trkpt><trkpt lat="45.73263725617548" lon="9.207099810414974"><ele>311.0</ele><time>2026-05-03T10:21:05Z</time></trkpt><trkpt lat="45.73278003844878" lon="9.207091899164771"><ele>312.0</ele><time>2026-05-03T10:21:06Z</time></trkpt><trkpt lat="45.73292627750377" lon="9.2070842898912"><ele>313.0</ele><time>2026-05-03T10:21:07Z</time></trkpt><trkpt lat="45.73307019370883" lon="9.207075522079052"><ele>314.0</ele><time>2026-05-03T10:21:08Z</time></trkpt><trkpt lat="45.73320356166391" lon="9.207071440772644"><ele>314.0</ele><time>2026-05-03T10:21:09Z</time></trkpt><trkpt lat="45.73333963403504" lon="9.207062948770886"><ele>314.0</ele><time>2026-05-03T10:21:10Z</time></trkpt><trkpt lat="45.733471092508616" lon="9.20705920869672"><ele>314.0</ele><time>2026-05-03T10:21:11Z</time></trkpt><trkpt lat="45.7336097363882" lon="9.207053981335642"><ele>314.0</ele><time>2026-05-03T10:21:12Z</time></trkpt><trkpt lat="45.73374187947829" lon="9.207053523705827"><ele>314.25</ele><time>2026-05-03T10:21:13Z</time></trkpt><trkpt lat="45.73387615670222" lon="9.207044590113219"><ele>314.5</ele><time>2026-05-03T10:21:14Z</time></trkpt><trkpt lat="45.734010837489265" lon="9.20703699248156"><ele>314.75</ele><time>2026-05-03T10:21:15Z</time></trkpt><trkpt lat="45.73414806924715" lon="9.207026188388465"><ele>315.0</ele><time>2026-05-03T10:21:16Z</time></trkpt><trkpt lat="45.73428615766521" lon="9.207017488307924"><ele>316.75</ele><time>2026-05-03T10:21:17Z</time></trkpt><trkpt lat="45.73442224399182" lon="9.207008125907489"><ele>318.5</ele><time>2026-05-03T10:21:18Z</time></trkpt><trkpt lat="45.73456419261356" lon="9.207000783528873"><ele>320.25</ele><time>2026-05-03T10:21:19Z</time></trkpt><trkpt lat="45.73470352824941" lon="9.206997776569974"><ele>322.0</ele><time>2026-05-03T10:21:20Z</time></trkpt><trkpt lat="45.734839937884566" lon="9.206993612632445"><ele>322.0</ele><time>2026-05-03T10:21:21Z</time></trkpt><trkpt lat="45.734975692483644" lon="9.206987585025132"><ele>322.0</ele><time>2026-05-03T10:21:22Z</time></trkpt><trkpt lat="45.73511437047548" lon="9.206977636928851"><ele>322.0</ele><time>2026-05-03T10:21:23Z</time></trkpt><trkpt lat="45.73525146244639" lon="9.206967076747597"><ele>322.0</ele><time>2026-05-03T10:21:24Z</time></trkpt><trkpt lat="45.73538451504338" lon="9.206960404098908"><ele>325.25</ele><time>2026-05-03T10:21:25Z</time></trkpt><trkpt lat="45.73552096656753" lon="9.206962728031009"><ele>328.5</ele><time>2026-05-03T10:21:26Z</time></trkpt><trkpt lat="45.7356558454173" lon="9.20694836428956"><ele>331.75</ele><time>2026-05-03T10:21:27Z</time></trkpt><trkpt lat="45.73578910089517" lon="9.206947314479162"><ele>335.0</ele><time>2026-05-03T10:21:28Z</time></trkpt><trkpt lat="45.73592267284923" lon="9.206980687826185"><ele>336.25</ele><time>2026-05-03T10:21:29Z</time></trkpt><trkpt lat="45.73605876314218" lon="9.206992846809202"><ele>337.5</ele><time>2026-05-03T10:21:30Z</time></trkpt><trkpt lat="45.736200615589" lon="9.207014299815754"><ele>338.75</ele><time>2026-05-03T10:21:31Z</time></trkpt><trkpt lat="45.7363403564564" lon="9.207042361319994"><ele>340.0</ele><time>2026-05-03T10:21:32Z</time></trkpt><trkpt lat="45.736486959792025" lon="9.207051869180367"><ele>340.0</ele><time>2026-05-03T10:21:33Z</time></trkpt><trkpt lat="45.73663273134668" lon="9.207068229853123"><ele>340.0</ele><time>2026-05-03T10:21:34Z</time></trkpt><trkpt lat="45.73678035142709" lon="9.207080724231158"><ele>340.0</ele><time>2026-05-03T10:21:35Z</time></trkpt><trkpt lat="45.73692540829429" lon="9.207102919246848"><ele>340.0</ele><time>2026-05-03T10:21:36Z</time></trkpt><trkpt lat="45.73706626347753" lon="9.20712634418988"><ele>340.0</ele><time>2026-05-03T10:21:37Z</time></trkpt><trkpt lat="45.737193076212876" lon="9.207147872397634"><ele>340.0</ele><time>2026-05-03T10:21:38Z</time></trkpt><trkpt lat="45.73731249234606" lon="9.207165214256914"><ele>340.0</ele><time>2026-05-03T10:21:39Z</time></trkpt><trkpt lat="45.73741712217768" lon="9.207183125783335"><ele>340.0</ele><time>2026-05-03T10:21:40Z</time></trkpt><trkpt lat="45.73751212712885" lon="9.20719459422971"><ele>340.0</ele><time>2026-05-03T10:21:41Z</time></trkpt><trkpt lat="45.737607966690874" lon="9.207190930626295"><ele>340.0</ele><time>2026-05-03T10:21:42Z</time></trkpt><trkpt lat="45.73770296445025" lon="9.207151387850237"><ele>340.0</ele><time>2026-05-03T10:21:43.001Z</time></trkpt><trkpt lat="45.737784266284855" lon="9.207081637627734"><ele>340.0</ele><time>2026-05-03T10:21:44.001Z</time></trkpt><trkpt lat="45.73786407457174" lon="9.207051698324836"><ele>340.0</ele><time>2026-05-03T10:21:45.001Z</time></trkpt><trkpt lat="45.73796929104162" lon="9.20699992892512"><ele>340.0</ele><time>2026-05-03T10:21:47.001Z</time></trkpt><trkpt lat="45.73802498641115" lon="9.207190441848564"><ele>339.8</ele><time>2026-05-03T10:21:49.001Z</time></trkpt><trkpt lat="45.73806951457709" lon="9.207286234858861"><ele>339.6</ele><time>2026-05-03T10:21:50.001Z</time></trkpt><trkpt lat="45.73809622302311" lon="9.207402047061061"><ele>339.4</ele><time>2026-05-03T10:21:51.001Z</time></trkpt><trkpt lat="45.73813778369062" lon="9.207524237496365"><ele>339.2</ele><time>2026-05-03T10:21:52.001Z</time></trkpt><trkpt lat="45.73818001661309" lon="9.20765561302971"><ele>339.0</ele><time>2026-05-03T10:21:53.001Z</time></trkpt><trkpt lat="45.73822616893886" lon="9.20778992773015"><ele>338.25</ele><time>2026-05-03T10:21:54.001Z</time></trkpt><trkpt lat="45.738273778671754" lon="9.207933811425574"><ele>337.5</ele><time>2026-05-03T10:21:55.001Z</time></trkpt><trkpt lat="45.73832115639035" lon="9.208087068140928"><ele>336.75</ele><time>2026-05-03T10:21:56.001Z</time></trkpt><trkpt lat="45.7383739337072" lon="9.208244088538391"><ele>336.0</ele><time>2026-05-03T10:21:57.001Z</time></trkpt><trkpt lat="45.73842878130011" lon="9.208405981436517"><ele>336.25</ele><time>2026-05-03T10:21:58.001Z</time></trkpt><trkpt lat="45.738486324451806" lon="9.208572479243921"><ele>336.5</ele><time>2026-05-03T10:21:59.001Z</time></trkpt><trkpt lat="45.73854326726409" lon="9.208743251912457"><ele>336.75</ele><time>2026-05-03T10:22:00.001Z</time></trkpt><trkpt lat="45.738602532576046" lon="9.208915244275056"><ele>337.0</ele><time>2026-05-03T10:22:01.001Z</time></trkpt><trkpt lat="45.738663312586866" lon="9.209093188084982"><ele>336.5</ele><time>2026-05-03T10:22:02.001Z</time></trkpt><trkpt lat="45.738722250161025" lon="9.209263993175451"><ele>336.0</ele><time>2026-05-03T10:22:03.001Z</time></trkpt><trkpt lat="45.73877749201172" lon="9.209427719010257"><ele>335.5</ele><time>2026-05-03T10:22:04.001Z</time></trkpt><trkpt lat="45.73883100211313" lon="9.209595944960206"><ele>335.0</ele><time>2026-05-03T10:22:05.001Z</time></trkpt><trkpt lat="45.73888642701192" lon="9.209767020402504"><ele>335.0</ele><time>2026-05-03T10:22:06.001Z</time></trkpt><trkpt lat="45.73894383819333" lon="9.209935471913218"><ele>335.0</ele><time>2026-05-03T10:22:07.001Z</time></trkpt><trkpt lat="45.739002525037435" lon="9.210108061843865"><ele>335.0</ele><time>2026-05-03T10:22:08.001Z</time></trkpt><trkpt lat="45.73905607284602" lon="9.210278783587952"><ele>335.0</ele><time>2026-05-03T10:22:09.001Z</time></trkpt><trkpt lat="45.739110182692805" lon="9.210450560189667"><ele>335.0</ele><time>2026-05-03T10:22:10.001Z</time></trkpt><trkpt lat="45.73916815353157" lon="9.210625928553883"><ele>335.0</ele><time>2026-05-03T10:22:11.001Z</time></trkpt><trkpt lat="45.73922380832289" lon="9.210801209665867"><ele>335.0</ele><time>2026-05-03T10:22:12.001Z</time></trkpt><trkpt lat="45.739275692671086" lon="9.210974069184973"><ele>335.0</ele><time>2026-05-03T10:22:13.001Z</time></trkpt><trkpt lat="45.73932581137089" lon="9.211147459551352"><ele>335.25</ele><time>2026-05-03T10:22:14.001Z</time></trkpt><trkpt lat="45.73937625915202" lon="9.211324456738149"><ele>335.5</ele><time>2026-05-03T10:22:15.001Z</time></trkpt><trkpt lat="45.73942418795688" lon="9.211501889568318"><ele>335.75</ele><time>2026-05-03T10:22:16.001Z</time></trkpt><trkpt lat="45.73947042446867" lon="9.211678792093974"><ele>336.0</ele><time>2026-05-03T10:22:17.001Z</time></trkpt><trkpt lat="45.73951390504656" lon="9.21185460412734"><ele>337.5</ele><time>2026-05-03T10:22:18.001Z</time></trkpt><trkpt lat="45.7395586589422" lon="9.212031776942704"><ele>339.0</ele><time>2026-05-03T10:22:19.001Z</time></trkpt><trkpt lat="45.7396027339434" lon="9.212204651125749"><ele>340.5</ele><time>2026-05-03T10:22:20.001Z</time></trkpt><trkpt lat="45.73965048919225" lon="9.212381524571647"><ele>342.0</ele><time>2026-05-03T10:22:21.001Z</time></trkpt><trkpt lat="45.73969964226179" lon="9.212562989123375"><ele>342.25</ele><time>2026-05-03T10:22:22.001Z</time></trkpt><trkpt lat="45.73974153948653" lon="9.212740522780543"><ele>342.5</ele><time>2026-05-03T10:22:23.001Z</time></trkpt><trkpt lat="45.73978565325787" lon="9.212921808316333"><ele>342.75</ele><time>2026-05-03T10:22:24.001Z</time></trkpt><trkpt lat="45.739824837518135" lon="9.213098311376823"><ele>343.0</ele><time>2026-05-03T10:22:25.001Z</time></trkpt><trkpt lat="45.7398687944726" lon="9.213283862356896"><ele>344.0</ele><time>2026-05-03T10:22:26.001Z</time></trkpt><trkpt lat="45.73990705930473" lon="9.213468837042294"><ele>345.0</ele><time>2026-05-03T10:22:27.001Z</time></trkpt><trkpt lat="45.73995089984793" lon="9.213648268433706"><ele>346.0</ele><time>2026-05-03T10:22:28.001Z</time></trkpt><trkpt lat="45.74000293016385" lon="9.213828777440273"><ele>347.0</ele><time>2026-05-03T10:22:29.001Z</time></trkpt><trkpt lat="45.74006340918194" lon="9.214006908846617"><ele>347.0</ele><time>2026-05-03T10:22:30.001Z</time></trkpt><trkpt lat="45.74013448742269" lon="9.21418275216085"><ele>347.0</ele><time>2026-05-03T10:22:31.001Z</time></trkpt><trkpt lat="45.74020368451752" lon="9.214319266668864"><ele>347.0</ele><time>2026-05-03T10:22:32.001Z</time></trkpt><trkpt lat="45.740264886424455" lon="9.214426887801224"><ele>347.0</ele><time>2026-05-03T10:22:33.001Z</time></trkpt><trkpt lat="45.7403076260397" lon="9.214498771649543"><ele>347.0</ele><time>2026-05-03T10:22:34.001Z</time></trkpt><trkpt lat="45.74036556358805" lon="9.214591976457527"><ele>349.0</ele><time>2026-05-03T10:22:36.001Z</time></trkpt><trkpt lat="45.7404404780718" lon="9.214744362492775"><ele>351.0</ele><time>2026-05-03T10:22:39.999Z</time></trkpt><trkpt lat="45.74045554629714" lon="9.214936628621546"><ele>353.0</ele><time>2026-05-03T10:22:41.999Z</time></trkpt><trkpt lat="45.74045076183692" lon="9.215092932443666"><ele>355.0</ele><time>2026-05-03T10:22:42.999Z</time></trkpt><trkpt lat="45.74046928333836" lon="9.215250952057504"><ele>355.0</ele><time>2026-05-03T10:22:43.999Z</time></trkpt><trkpt lat="45.740482012557884" lon="9.215382170309864"><ele>355.0</ele><time>2026-05-03T10:22:44.999Z</time></trkpt><trkpt lat="45.74049465332827" lon="9.21548086708404"><ele>355.0</ele><time>2026-05-03T10:22:45.999Z</time></trkpt><trkpt lat="45.74057578552382" lon="9.215553008202452"><ele>355.0</ele><time>2026-05-03T10:22:47.999Z</time></trkpt><trkpt lat="45.740660509937086" lon="9.215550664495685"><ele>355.0</ele><time>2026-05-03T10:22:49.999Z</time></trkpt><trkpt lat="45.74064912899793" lon="9.215303672418683"><ele>355.0</ele><time>2026-05-03T10:22:50.999Z</time></trkpt><trkpt lat="45.74070538819636" lon="9.215173746525819"><ele>355.0</ele><time>2026-05-03T10:22:52.999Z</time></trkpt><trkpt lat="45.74078653666488" lon="9.215165200800623"><ele>355.0</ele><time>2026-05-03T10:22:53.999Z</time></trkpt><trkpt lat="45.74087750008563" lon="9.215197011460603"><ele>355.0</ele><time>2026-05-03T10:22:54.999Z</time></trkpt><trkpt lat="45.7409724814677" lon="9.215237150394836"><ele>355.0</ele><time>2026-05-03T10:22:56Z</time></trkpt><trkpt lat="45.74108088920316" lon="9.215275099187552"><ele>355.75</ele><time>2026-05-03T10:22:57Z</time></trkpt><trkpt lat="45.741210576307566" lon="9.215310942159835"><ele>356.5</ele><time>2026-05-03T10:22:58Z</time></trkpt><trkpt lat="45.7413374589631" lon="9.215342803482026"><ele>357.25</ele><time>2026-05-03T10:22:59Z</time></trkpt><trkpt lat="45.74144856214756" lon="9.21537259955584"><ele>358.0</ele><time>2026-05-03T10:23:00Z</time></trkpt><trkpt lat="45.74155820691784" lon="9.215409246620759"><ele>358.0</ele><time>2026-05-03T10:23:01Z</time></trkpt><trkpt lat="45.74167842266785" lon="9.215463229626392"><ele>358.0</ele><time>2026-05-03T10:23:02Z</time></trkpt><trkpt lat="45.74179772521539" lon="9.21552210028695"><ele>358.0</ele><time>2026-05-03T10:23:03Z</time></trkpt><trkpt lat="45.74191277070833" lon="9.215592179346176"><ele>358.0</ele><time>2026-05-03T10:23:04Z</time></trkpt><trkpt lat="45.74202508601156" lon="9.215676676496075"><ele>357.5</ele><time>2026-05-03T10:23:05Z</time></trkpt><trkpt lat="45.7421355586722" lon="9.215774909407731"><ele>357.0</ele><time>2026-05-03T10:23:06Z</time></trkpt><trkpt lat="45.742242579885136" lon="9.215889670422358"><ele>356.5</ele><time>2026-05-03T10:23:07Z</time></trkpt><trkpt lat="45.74234297736095" lon="9.21600780344274"><ele>356.0</ele><time>2026-05-03T10:23:08Z</time></trkpt><trkpt lat="45.74244554471968" lon="9.216119847575872"><ele>356.0</ele><time>2026-05-03T10:23:09Z</time></trkpt><trkpt lat="45.74255245132588" lon="9.216238338851491"><ele>356.0</ele><time>2026-05-03T10:23:10Z</time></trkpt><trkpt lat="45.74266286525451" lon="9.216352737908991"><ele>356.0</ele><time>2026-05-03T10:23:11Z</time></trkpt><trkpt lat="45.74277399384896" lon="9.216470178742613"><ele>356.0</ele><time>2026-05-03T10:23:12Z</time></trkpt><trkpt lat="45.74288506073834" lon="9.216587155818054"><ele>355.5</ele><time>2026-05-03T10:23:13Z</time></trkpt><trkpt lat="45.74300466818674" lon="9.216716583251937"><ele>355.0</ele><time>2026-05-03T10:23:14Z</time></trkpt><trkpt lat="45.74312107392525" lon="9.216838233481123"><ele>354.5</ele><time>2026-05-03T10:23:15Z</time></trkpt><trkpt lat="45.74323856867604" lon="9.21696554156094"><ele>354.0</ele><time>2026-05-03T10:23:16Z</time></trkpt><trkpt lat="45.74335298698359" lon="9.217084970980931"><ele>354.0</ele><time>2026-05-03T10:23:17Z</time></trkpt><trkpt lat="45.74347097720631" lon="9.217208884407817"><ele>354.0</ele><time>2026-05-03T10:23:18Z</time></trkpt><trkpt lat="45.74358163645677" lon="9.217325352017596"><ele>354.0</ele><time>2026-05-03T10:23:19Z</time></trkpt><trkpt lat="45.74369115811505" lon="9.217446623391746"><ele>354.0</ele><time>2026-05-03T10:23:20Z</time></trkpt><trkpt lat="45.743806821177685" lon="9.217573021185853"><ele>352.75</ele><time>2026-05-03T10:23:21Z</time></trkpt><trkpt lat="45.743914188456095" lon="9.217689434317725"><ele>351.5</ele><time>2026-05-03T10:23:22Z</time></trkpt><trkpt lat="45.74401491230912" lon="9.217797087906709"><ele>350.25</ele><time>2026-05-03T10:23:23Z</time></trkpt><trkpt lat="45.74410984146264" lon="9.217899273976922"><ele>349.0</ele><time>2026-05-03T10:23:24Z</time></trkpt><trkpt lat="45.74419528084994" lon="9.217993817578934"><ele>349.0</ele><time>2026-05-03T10:23:25Z</time></trkpt><trkpt lat="45.74426170826853" lon="9.218070520621096"><ele>349.0</ele><time>2026-05-03T10:23:26Z</time></trkpt><trkpt lat="45.744338336842475" lon="9.21817764491584"><ele>349.0</ele><time>2026-05-03T10:23:28Z</time></trkpt><trkpt lat="45.74439791314185" lon="9.218289641926763"><ele>349.0</ele><time>2026-05-03T10:23:30Z</time></trkpt><trkpt lat="45.744401388395126" lon="9.218412833741018"><ele>349.0</ele><time>2026-05-03T10:23:31Z</time></trkpt><trkpt lat="45.74442068758583" lon="9.218523283088514"><ele>347.79999999999995</ele><time>2026-05-03T10:23:32Z</time></trkpt><trkpt lat="45.74443945276371" lon="9.218642989500708"><ele>346.59999999999997</ele><time>2026-05-03T10:23:33Z</time></trkpt><trkpt lat="45.74445844520451" lon="9.218777590945818"><ele>345.4</ele><time>2026-05-03T10:23:34Z</time></trkpt><trkpt lat="45.74447175798116" lon="9.218917136138923"><ele>344.2</ele><time>2026-05-03T10:23:35Z</time></trkpt><trkpt lat="45.7444803922896" lon="9.219062222605613"><ele>343.0</ele><time>2026-05-03T10:23:36Z</time></trkpt><trkpt lat="45.744464269349145" lon="9.219211160449747"><ele>342.79999999999995</ele><time>2026-05-03T10:23:37Z</time></trkpt><trkpt lat="45.74445786604981" lon="9.21936110878283"><ele>342.6</ele><time>2026-05-03T10:23:38Z</time></trkpt><trkpt lat="45.74444607187996" lon="9.219516273431008"><ele>342.4</ele><time>2026-05-03T10:23:39Z</time></trkpt><trkpt lat="45.744430727382394" lon="9.21966666633628"><ele>342.20000000000005</ele><time>2026-05-03T10:23:40Z</time></trkpt><trkpt lat="45.744410169793476" lon="9.219804580754301"><ele>342.0</ele><time>2026-05-03T10:23:41Z</time></trkpt><trkpt lat="45.74437754985014" lon="9.219923349498206"><ele>343.8333333333333</ele><time>2026-05-03T10:23:42Z</time></trkpt><trkpt lat="45.74436289846135" lon="9.220046300472948"><ele>345.6666666666667</ele><time>2026-05-03T10:23:43Z</time></trkpt><trkpt lat="45.74433033824648" lon="9.220153899760982"><ele>347.5</ele><time>2026-05-03T10:23:44Z</time></trkpt><trkpt lat="45.74429271337348" lon="9.220261519951285"><ele>349.33333333333337</ele><time>2026-05-03T10:23:45.001Z</time></trkpt><trkpt lat="45.74427522954598" lon="9.22038020751538"><ele>351.1666666666667</ele><time>2026-05-03T10:23:46.001Z</time></trkpt><trkpt lat="45.74426131806692" lon="9.220499038098135"><ele>353.0</ele><time>2026-05-03T10:23:47.001Z</time></trkpt><trkpt lat="45.744252991653376" lon="9.220611307933108"><ele>353.1666666666667</ele><time>2026-05-03T10:23:48.001Z</time></trkpt><trkpt lat="45.74424670624194" lon="9.220718203142415"><ele>353.33333333333337</ele><time>2026-05-03T10:23:49.001Z</time></trkpt><trkpt lat="45.74425613441531" lon="9.220813595583122"><ele>353.5</ele><time>2026-05-03T10:23:50.001Z</time></trkpt><trkpt lat="45.74424590923171" lon="9.220910183182848"><ele>353.6666666666667</ele><time>2026-05-03T10:23:53.001Z</time></trkpt><trkpt lat="45.74424339067207" lon="9.221033125611202"><ele>353.8333333333333</ele><time>2026-05-03T10:23:56.001Z</time></trkpt><trkpt lat="45.74423296026011" lon="9.221145557526063"><ele>354.0</ele><time>2026-05-03T10:23:57.001Z</time></trkpt><trkpt lat="45.744204957994675" lon="9.221284386958153"><ele>354.0</ele><time>2026-05-03T10:23:58.001Z</time></trkpt><trkpt lat="45.7441850260985" lon="9.221429987595755"><ele>354.0</ele><time>2026-05-03T10:23:59.001Z</time></trkpt><trkpt lat="45.744163125002004" lon="9.221565137144156"><ele>354.0</ele><time>2026-05-03T10:24:00.001Z</time></trkpt><trkpt lat="45.74414413958988" lon="9.221683755433634"><ele>354.0</ele><time>2026-05-03T10:24:01.001Z</time></trkpt><trkpt lat="45.74412928755883" lon="9.221791549372313"><ele>354.0</ele><time>2026-05-03T10:24:02.001Z</time></trkpt><trkpt lat="45.74412411190117" lon="9.221884005114172"><ele>354.0</ele><time>2026-05-03T10:24:03.001Z</time></trkpt><trkpt lat="45.74408237914961" lon="9.221986855690734"><ele>352.75</ele><time>2026-05-03T10:24:05.001Z</time></trkpt><trkpt lat="45.74407707893455" lon="9.222080385511218"><ele>351.5</ele><time>2026-05-03T10:24:06.001Z</time></trkpt><trkpt lat="45.743914819931895" lon="9.222135502201857"><ele>350.25</ele><time>2026-05-03T10:24:07.001Z</time></trkpt><trkpt lat="45.74379786296215" lon="9.22220860991377"><ele>349.0</ele><time>2026-05-03T10:24:08.001Z</time></trkpt><trkpt lat="45.74367975065124" lon="9.222274020693957"><ele>350.0</ele><time>2026-05-03T10:24:09.001Z</time></trkpt><trkpt lat="45.74353794277737" lon="9.222364256295199"><ele>351.0</ele><time>2026-05-03T10:24:10.001Z</time></trkpt><trkpt lat="45.74339212133047" lon="9.222466634744011"><ele>352.0</ele><time>2026-05-03T10:24:11.001Z</time></trkpt><trkpt lat="45.74325157131338" lon="9.22256547096312"><ele>352.0</ele><time>2026-05-03T10:24:12.001Z</time></trkpt><trkpt lat="45.743092782641284" lon="9.222662126624629"><ele>352.0</ele><time>2026-05-03T10:24:13.001Z</time></trkpt><trkpt lat="45.74293341732353" lon="9.22275900179012"><ele>352.0</ele><time>2026-05-03T10:24:14.001Z</time></trkpt><trkpt lat="45.74278577249397" lon="9.22285435637423"><ele>353.0</ele><time>2026-05-03T10:24:15.001Z</time></trkpt><trkpt lat="45.7426454658529" lon="9.22293978031062"><ele>354.0</ele><time>2026-05-03T10:24:16.001Z</time></trkpt><trkpt lat="45.742506530847265" lon="9.223005228754623"><ele>355.0</ele><time>2026-05-03T10:24:17.001Z</time></trkpt><trkpt lat="45.7423612898916" lon="9.223056328253678"><ele>356.0</ele><time>2026-05-03T10:24:18.001Z</time></trkpt><trkpt lat="45.74222177644441" lon="9.223104553214965"><ele>353.5</ele><time>2026-05-03T10:24:19.001Z</time></trkpt><trkpt lat="45.742091417373615" lon="9.223150970106587"><ele>351.0</ele><time>2026-05-03T10:24:20.001Z</time></trkpt><trkpt lat="45.74196849784261" lon="9.223194382970565"><ele>348.5</ele><time>2026-05-03T10:24:21.001Z</time></trkpt><trkpt lat="45.74185106528787" lon="9.223234203757183"><ele>346.0</ele><time>2026-05-03T10:24:22.001Z</time></trkpt><trkpt lat="45.74173665946442" lon="9.223256920821267"><ele>345.4</ele><time>2026-05-03T10:24:23.001Z</time></trkpt><trkpt lat="45.74161907051382" lon="9.223262815336422"><ele>344.8</ele><time>2026-05-03T10:24:24.001Z</time></trkpt><trkpt lat="45.74150518496048" lon="9.22326265561623"><ele>344.2</ele><time>2026-05-03T10:24:25.001Z</time></trkpt><trkpt lat="45.74139422510992" lon="9.223266235182638"><ele>343.59999999999997</ele><time>2026-05-03T10:24:26.001Z</time></trkpt><trkpt lat="45.741290089100794" lon="9.223273254665267"><ele>343.0</ele><time>2026-05-03T10:24:27.001Z</time></trkpt><trkpt lat="45.74119129136991" lon="9.223289163261105"><ele>343.0</ele><time>2026-05-03T10:24:28.001Z</time></trkpt><trkpt lat="45.74109578205289" lon="9.22331097201352"><ele>343.0</ele><time>2026-05-03T10:24:29.001Z</time></trkpt><trkpt lat="45.741008560556494" lon="9.223356889265206"><ele>343.0</ele><time>2026-05-03T10:24:30.001Z</time></trkpt><trkpt lat="45.74093823163809" lon="9.223419679575002"><ele>343.0</ele><time>2026-05-03T10:24:31.001Z</time></trkpt><trkpt lat="45.7408663709176" lon="9.223467499224828"><ele>343.0</ele><time>2026-05-03T10:24:32.001Z</time></trkpt><trkpt lat="45.74079920611299" lon="9.22350051197729"><ele>343.0</ele><time>2026-05-03T10:24:33.001Z</time></trkpt><trkpt lat="45.74072886014594" lon="9.223504752489374"><ele>342.2</ele><time>2026-05-03T10:24:34.001Z</time></trkpt><trkpt lat="45.740658410121725" lon="9.223514858919819"><ele>341.4</ele><time>2026-05-03T10:24:35.001Z</time></trkpt><trkpt lat="45.74054775490064" lon="9.223548216153766"><ele>340.59999999999997</ele><time>2026-05-03T10:24:37.001Z</time></trkpt><trkpt lat="45.740486766743345" lon="9.223571622781348"><ele>339.79999999999995</ele><time>2026-05-03T10:24:39.001Z</time></trkpt><trkpt lat="45.740459730149446" lon="9.223802067565805"><ele>339.0</ele><time>2026-05-03T10:24:41.999Z</time></trkpt><trkpt lat="45.74050812048734" lon="9.22391729567258"><ele>338.4</ele><time>2026-05-03T10:24:42.999Z</time></trkpt><trkpt lat="45.740568089509196" lon="9.224040969030119"><ele>337.79999999999995</ele><time>2026-05-03T10:24:43.999Z</time></trkpt><trkpt lat="45.74062587504346" lon="9.224189679693339"><ele>337.20000000000005</ele><time>2026-05-03T10:24:44.999Z</time></trkpt><trkpt lat="45.740682320425975" lon="9.224330508673889"><ele>336.6</ele><time>2026-05-03T10:24:45.999Z</time></trkpt><trkpt lat="45.740726469524866" lon="9.224451520838938"><ele>336.0</ele><time>2026-05-03T10:24:46.999Z</time></trkpt><trkpt lat="45.74076803182728" lon="9.224551702462122"><ele>336.0</ele><time>2026-05-03T10:24:47.999Z</time></trkpt><trkpt lat="45.7408031917805" lon="9.22463961225154"><ele>336.0</ele><time>2026-05-03T10:24:48.999Z</time></trkpt><trkpt lat="45.74086042733273" lon="9.224764443183886"><ele>336.0</ele><time>2026-05-03T10:24:50.999Z</time></trkpt><trkpt lat="45.74087819555717" lon="9.224882770899237"><ele>336.0</ele><time>2026-05-03T10:24:52.999Z</time></trkpt><trkpt lat="45.740773304276225" lon="9.225092140946698"><ele>336.0</ele><time>2026-05-03T10:24:54.999Z</time></trkpt><trkpt lat="45.74073572864334" lon="9.225257115747514"><ele>336.25</ele><time>2026-05-03T10:24:55.999Z</time></trkpt><trkpt lat="45.7407182806584" lon="9.22545964416735"><ele>336.5</ele><time>2026-05-03T10:24:56.999Z</time></trkpt><trkpt lat="45.74070877541008" lon="9.225679889731275"><ele>336.75</ele><time>2026-05-03T10:24:57.999Z</time></trkpt><trkpt lat="45.7407044561197" lon="9.225878131217936"><ele>337.0</ele><time>2026-05-03T10:24:58.999Z</time></trkpt><trkpt lat="45.74071242695452" lon="9.226050186131339"><ele>337.0</ele><time>2026-05-03T10:24:59.999Z</time></trkpt><trkpt lat="45.740743149109825" lon="9.226205672366"><ele>337.0</ele><time>2026-05-03T10:25:01Z</time></trkpt><trkpt lat="45.74080304007492" lon="9.226359044515958"><ele>337.0</ele><time>2026-05-03T10:25:02Z</time></trkpt><trkpt lat="45.74083925402396" lon="9.22651164076108"><ele>337.0</ele><time>2026-05-03T10:25:03Z</time></trkpt><trkpt lat="45.740896592230946" lon="9.226638013511797"><ele>338.0</ele><time>2026-05-03T10:25:04Z</time></trkpt><trkpt lat="45.74094886006032" lon="9.226775209994628"><ele>339.0</ele><time>2026-05-03T10:25:05Z</time></trkpt><trkpt lat="45.74101959752061" lon="9.226909751716281"><ele>340.0</ele><time>2026-05-03T10:25:06Z</time></trkpt><trkpt lat="45.74110563617188" lon="9.227034782909204"><ele>341.0</ele><time>2026-05-03T10:25:07Z</time></trkpt><trkpt lat="45.741203448685106" lon="9.227153911084761"><ele>341.0</ele><time>2026-05-03T10:25:08Z</time></trkpt><trkpt lat="45.74130274777017" lon="9.227274245960098"><ele>341.0</ele><time>2026-05-03T10:25:09Z</time></trkpt><trkpt lat="45.74140579518761" lon="9.227402343711331"><ele>341.0</ele><time>2026-05-03T10:25:10Z</time></trkpt><trkpt lat="45.74150884896988" lon="9.227537227696892"><ele>341.0</ele><time>2026-05-03T10:25:11Z</time></trkpt><trkpt lat="45.74161301771496" lon="9.22767210454349"><ele>338.25</ele><time>2026-05-03T10:25:12Z</time></trkpt><trkpt lat="45.741716904596295" lon="9.227808167770572"><ele>335.5</ele><time>2026-05-03T10:25:13Z</time></trkpt><trkpt lat="45.74182794561294" lon="9.227935255579364"><ele>332.75</ele><time>2026-05-03T10:25:14Z</time></trkpt><trkpt lat="45.741942783087296" lon="9.228051369311087"><ele>330.0</ele><time>2026-05-03T10:25:15Z</time></trkpt><trkpt lat="45.742069918605324" lon="9.228162738837824"><ele>328.0</ele><time>2026-05-03T10:25:16Z</time></trkpt><trkpt lat="45.742203922139126" lon="9.228294236410449"><ele>326.0</ele><time>2026-05-03T10:25:17Z</time></trkpt><trkpt lat="45.7423425010763" lon="9.228433079080425"><ele>324.0</ele><time>2026-05-03T10:25:18Z</time></trkpt><trkpt lat="45.74247556413775" lon="9.228564367620544"><ele>324.0</ele><time>2026-05-03T10:25:19Z</time></trkpt><trkpt lat="45.74259522795221" lon="9.22868102905886"><ele>324.0</ele><time>2026-05-03T10:25:20Z</time></trkpt><trkpt lat="45.74270079565016" lon="9.228794984082661"><ele>324.0</ele><time>2026-05-03T10:25:21Z</time></trkpt><trkpt lat="45.74279833621377" lon="9.228911390587646"><ele>324.0</ele><time>2026-05-03T10:25:22Z</time></trkpt><trkpt lat="45.74287525636635" lon="9.229054675190223"><ele>322.75</ele><time>2026-05-03T10:25:23Z</time></trkpt><trkpt lat="45.74292889973489" lon="9.229223419281519"><ele>321.5</ele><time>2026-05-03T10:25:24Z</time></trkpt><trkpt lat="45.742957836238915" lon="9.229418025634189"><ele>320.25</ele><time>2026-05-03T10:25:25Z</time></trkpt><trkpt lat="45.74296990937739" lon="9.229599390889865"><ele>319.0</ele><time>2026-05-03T10:25:26Z</time></trkpt><trkpt lat="45.74295424706234" lon="9.229754532654937"><ele>319.0</ele><time>2026-05-03T10:25:27Z</time></trkpt><trkpt lat="45.7428774152106" lon="9.22990585799275"><ele>319.0</ele><time>2026-05-03T10:25:28Z</time></trkpt><trkpt lat="45.74282291048249" lon="9.230076088690067"><ele>319.0</ele><time>2026-05-03T10:25:29Z</time></trkpt><trkpt lat="45.74274400737288" lon="9.230240593218827"><ele>319.0</ele><time>2026-05-03T10:25:30Z</time></trkpt><trkpt lat="45.742682354810256" lon="9.230403673349269"><ele>320.0</ele><time>2026-05-03T10:25:31Z</time></trkpt><trkpt lat="45.742625338549296" lon="9.230555384699079"><ele>321.0</ele><time>2026-05-03T10:25:32Z</time></trkpt><trkpt lat="45.74258595325673" lon="9.230689045719696"><ele>322.0</ele><time>2026-05-03T10:25:33Z</time></trkpt><trkpt lat="45.74256530623781" lon="9.23081818465557"><ele>323.0</ele><time>2026-05-03T10:25:34Z</time></trkpt><trkpt lat="45.742577325983504" lon="9.230952583439317"><ele>324.0</ele><time>2026-05-03T10:25:35Z</time></trkpt><trkpt lat="45.74261915775165" lon="9.23109616258473"><ele>323.75</ele><time>2026-05-03T10:25:36Z</time></trkpt><trkpt lat="45.742682834986745" lon="9.231225599286663"><ele>323.5</ele><time>2026-05-03T10:25:37Z</time></trkpt><trkpt lat="45.74277249330111" lon="9.231344525392348"><ele>323.25</ele><time>2026-05-03T10:25:38Z</time></trkpt><trkpt lat="45.74288267016752" lon="9.231452639266646"><ele>323.0</ele><time>2026-05-03T10:25:39Z</time></trkpt><trkpt lat="45.7430033199226" lon="9.231557849685133"><ele>323.0</ele><time>2026-05-03T10:25:40Z</time></trkpt><trkpt lat="45.74312659297877" lon="9.231678812382876"><ele>323.0</ele><time>2026-05-03T10:25:41Z</time></trkpt><trkpt lat="45.74324555164483" lon="9.231803386386025"><ele>323.0</ele><time>2026-05-03T10:25:42Z</time></trkpt><trkpt lat="45.74336223619103" lon="9.231921355825246"><ele>323.0</ele><time>2026-05-03T10:25:43Z</time></trkpt><trkpt lat="45.74346750777338" lon="9.232035211988592"><ele>321.75</ele><time>2026-05-03T10:25:44Z</time></trkpt><trkpt lat="45.74357501907757" lon="9.232150669317424"><ele>320.5</ele><time>2026-05-03T10:25:45Z</time></trkpt><trkpt lat="45.743688331653644" lon="9.232270878605796"><ele>319.25</ele><time>2026-05-03T10:25:46Z</time></trkpt><trkpt lat="45.743812990091065" lon="9.232379872568881"><ele>318.0</ele><time>2026-05-03T10:25:47Z</time></trkpt><trkpt lat="45.743958611773145" lon="9.23245034956588"><ele>317.6666666666667</ele><time>2026-05-03T10:25:48Z</time></trkpt><trkpt lat="45.74413012609242" lon="9.23249378524376"><ele>317.33333333333337</ele><time>2026-05-03T10:25:49.001Z</time></trkpt><trkpt lat="45.744314566104265" lon="9.232550359347396"><ele>317.0</ele><time>2026-05-03T10:25:50.001Z</time></trkpt><trkpt lat="45.74448534747526" lon="9.232689153565252"><ele>317.6666666666667</ele><time>2026-05-03T10:25:51.001Z</time></trkpt><trkpt lat="45.74467258870226" lon="9.232821524034764"><ele>318.3333333333333</ele><time>2026-05-03T10:25:52.001Z</time></trkpt><trkpt lat="45.74483946010357" lon="9.232953794895742"><ele>319.0</ele><time>2026-05-03T10:25:53.001Z</time></trkpt><trkpt lat="45.74499134314058" lon="9.233065846712602"><ele>318.5</ele><time>2026-05-03T10:25:54.001Z</time></trkpt><trkpt lat="45.745130408268025" lon="9.233170195177276"><ele>318.0</ele><time>2026-05-03T10:25:55.001Z</time></trkpt><trkpt lat="45.74525425656368" lon="9.233263403794394"><ele>317.5</ele><time>2026-05-03T10:25:56.001Z</time></trkpt><trkpt lat="45.74537289783396" lon="9.23335740839825"><ele>317.0</ele><time>2026-05-03T10:25:57.001Z</time></trkpt><trkpt lat="45.745500036128995" lon="9.23338372806267"><ele>317.0</ele><time>2026-05-03T10:25:58.001Z</time></trkpt><trkpt lat="45.74560527300692" lon="9.233463896278437"><ele>317.0</ele><time>2026-05-03T10:25:59.001Z</time></trkpt><trkpt lat="45.74570789915828" lon="9.233599733588324"><ele>317.0</ele><time>2026-05-03T10:26:00.001Z</time></trkpt><trkpt lat="45.745761137704285" lon="9.233790481112353"><ele>317.0</ele><time>2026-05-03T10:26:01.001Z</time></trkpt><trkpt lat="45.745842326816884" lon="9.233960841005311"><ele>316.6666666666667</ele><time>2026-05-03T10:26:02.001Z</time></trkpt><trkpt lat="45.74591810414092" lon="9.234146741212449"><ele>316.3333333333333</ele><time>2026-05-03T10:26:03.001Z</time></trkpt><trkpt lat="45.74600246989962" lon="9.234333450559307"><ele>316.0</ele><time>2026-05-03T10:26:04.001Z</time></trkpt><trkpt lat="45.74609026619005" lon="9.234525594311224"><ele>316.0</ele><time>2026-05-03T10:26:05.001Z</time></trkpt><trkpt lat="45.746181232819175" lon="9.23471873568899"><ele>316.0</ele><time>2026-05-03T10:26:06.001Z</time></trkpt><trkpt lat="45.7462736771151" lon="9.23490897434186"><ele>316.0</ele><time>2026-05-03T10:26:07.001Z</time></trkpt><trkpt lat="45.74637166558409" lon="9.235114421664933"><ele>314.0</ele><time>2026-05-03T10:26:08.001Z</time></trkpt><trkpt lat="45.74647058525248" lon="9.23531830066476"><ele>312.0</ele><time>2026-05-03T10:26:09.001Z</time></trkpt><trkpt lat="45.74657082456463" lon="9.235529120298073"><ele>310.0</ele><time>2026-05-03T10:26:10.001Z</time></trkpt><trkpt lat="45.74666829780527" lon="9.235744772081162"><ele>310.0</ele><time>2026-05-03T10:26:11.001Z</time></trkpt><trkpt lat="45.74676801440134" lon="9.235955188140682"><ele>310.0</ele><time>2026-05-03T10:26:12.001Z</time></trkpt><trkpt lat="45.74687130721592" lon="9.23617087319897"><ele>310.0</ele><time>2026-05-03T10:26:13.001Z</time></trkpt><trkpt lat="45.74696696841864" lon="9.236382024595649"><ele>309.5</ele><time>2026-05-03T10:26:14.001Z</time></trkpt><trkpt lat="45.74706224343483" lon="9.236564772880786"><ele>309.0</ele><time>2026-05-03T10:26:15.001Z</time></trkpt><trkpt lat="45.74714380893339" lon="9.236728231143697"><ele>308.5</ele><time>2026-05-03T10:26:16.001Z</time></trkpt><trkpt lat="45.74721364166288" lon="9.23689162515109"><ele>308.0</ele><time>2026-05-03T10:26:17.001Z</time></trkpt><trkpt lat="45.74726940370916" lon="9.237050838552578"><ele>308.0</ele><time>2026-05-03T10:26:18.001Z</time></trkpt><trkpt lat="45.747304016872256" lon="9.237187412650506"><ele>308.0</ele><time>2026-05-03T10:26:19.001Z</time></trkpt><trkpt lat="45.747316261304995" lon="9.237278590578546"><ele>308.0</ele><time>2026-05-03T10:26:20.001Z</time></trkpt><trkpt lat="45.74735338472626" lon="9.237437149969841"><ele>308.0</ele><time>2026-05-03T10:26:22.001Z</time></trkpt><trkpt lat="45.74735007503211" lon="9.237584610426062"><ele>308.0</ele><time>2026-05-03T10:26:23.001Z</time></trkpt><trkpt lat="45.747363117031824" lon="9.237750945670234"><ele>308.25</ele><time>2026-05-03T10:26:24.001Z</time></trkpt><trkpt lat="45.747363444553805" lon="9.237936493410503"><ele>308.5</ele><time>2026-05-03T10:26:25.001Z</time></trkpt><trkpt lat="45.747352427185845" lon="9.238141568142131"><ele>308.75</ele><time>2026-05-03T10:26:26.001Z</time></trkpt><trkpt lat="45.74733195900068" lon="9.238361056978148"><ele>309.0</ele><time>2026-05-03T10:26:27.001Z</time></trkpt><trkpt lat="45.74731016788894" lon="9.23859529923456"><ele>309.3333333333333</ele><time>2026-05-03T10:26:28.001Z</time></trkpt><trkpt lat="45.747284749385486" lon="9.238835731882205"><ele>309.66666666666663</ele><time>2026-05-03T10:26:29.001Z</time></trkpt><trkpt lat="45.747254454332506" lon="9.239060072333581"><ele>310.0</ele><time>2026-05-03T10:26:30.001Z</time></trkpt><trkpt lat="45.747238482777625" lon="9.239281776107104"><ele>309.25</ele><time>2026-05-03T10:26:31.001Z</time></trkpt><trkpt lat="45.747229502960124" lon="9.239491431784707"><ele>308.5</ele><time>2026-05-03T10:26:32.001Z</time></trkpt><trkpt lat="45.747232413310996" lon="9.2397064387231"><ele>307.75</ele><time>2026-05-03T10:26:33.001Z</time></trkpt><trkpt lat="45.74724497376646" lon="9.239913142226259"><ele>307.0</ele><time>2026-05-03T10:26:34.001Z</time></trkpt><trkpt lat="45.74725591842749" lon="9.240111990797873"><ele>306.0</ele><time>2026-05-03T10:26:35.001Z</time></trkpt><trkpt lat="45.74726500660136" lon="9.240300699541585"><ele>305.0</ele><time>2026-05-03T10:26:36.001Z</time></trkpt><trkpt lat="45.747268395000276" lon="9.240460139543734"><ele>304.0</ele><time>2026-05-03T10:26:37.001Z</time></trkpt><trkpt lat="45.74727465460291" lon="9.240593470215453"><ele>303.0</ele><time>2026-05-03T10:26:38.001Z</time></trkpt><trkpt lat="45.74729244668696" lon="9.240724805032277"><ele>302.0</ele><time>2026-05-03T10:26:39.001Z</time></trkpt><trkpt lat="45.74733499489741" lon="9.240850401881445"><ele>301.5</ele><time>2026-05-03T10:26:40.001Z</time></trkpt><trkpt lat="45.7474155109549" lon="9.240967622581163"><ele>301.0</ele><time>2026-05-03T10:26:41.001Z</time></trkpt><trkpt lat="45.747529035405435" lon="9.241081899064437"><ele>300.5</ele><time>2026-05-03T10:26:42.001Z</time></trkpt><trkpt lat="45.747649479636365" lon="9.241191261298976"><ele>300.0</ele><time>2026-05-03T10:26:43.001Z</time></trkpt><trkpt lat="45.747762422855686" lon="9.241298633198404"><ele>297.5</ele><time>2026-05-03T10:26:44.001Z</time></trkpt><trkpt lat="45.747869213802474" lon="9.241402531056709"><ele>295.0</ele><time>2026-05-03T10:26:45.001Z</time></trkpt><trkpt lat="45.747972892655135" lon="9.241507774781924"><ele>292.5</ele><time>2026-05-03T10:26:46.001Z</time></trkpt><trkpt lat="45.74806975872404" lon="9.24162239223429"><ele>290.0</ele><time>2026-05-03T10:26:47.001Z</time></trkpt><trkpt lat="45.748160573957065" lon="9.24174601873168"><ele>288.75</ele><time>2026-05-03T10:26:47.999Z</time></trkpt><trkpt lat="45.74825020156672" lon="9.24189648774239"><ele>287.5</ele><time>2026-05-03T10:26:48.999Z</time></trkpt><trkpt lat="45.7483225860744" lon="9.242071537538576"><ele>286.25</ele><time>2026-05-03T10:26:49.999Z</time></trkpt><trkpt lat="45.74841642955175" lon="9.242225625406888"><ele>285.0</ele><time>2026-05-03T10:26:50.999Z</time></trkpt><trkpt lat="45.74850009491782" lon="9.242405297667595"><ele>282.0</ele><time>2026-05-03T10:26:51.999Z</time></trkpt><trkpt lat="45.7485851251871" lon="9.242569958535537"><ele>279.0</ele><time>2026-05-03T10:26:52.999Z</time></trkpt><trkpt lat="45.74868514681689" lon="9.242734010491152"><ele>276.0</ele><time>2026-05-03T10:26:53.999Z</time></trkpt><trkpt lat="45.748781567901666" lon="9.24289427866355"><ele>273.0</ele><time>2026-05-03T10:26:54.999Z</time></trkpt><trkpt lat="45.748873644955104" lon="9.243041915420669"><ele>273.5</ele><time>2026-05-03T10:26:55.999Z</time></trkpt><trkpt lat="45.74896516999328" lon="9.243190409738462"><ele>274.0</ele><time>2026-05-03T10:26:56.999Z</time></trkpt><trkpt lat="45.749049447093114" lon="9.243340031531545"><ele>274.5</ele><time>2026-05-03T10:26:57.999Z</time></trkpt><trkpt lat="45.74913702380993" lon="9.243489911915095"><ele>275.0</ele><time>2026-05-03T10:26:58.999Z</time></trkpt><trkpt lat="45.749221577342325" lon="9.243638383300716"><ele>275.0</ele><time>2026-05-03T10:26:59.999Z</time></trkpt><trkpt lat="45.749307117553926" lon="9.243788839697634"><ele>275.0</ele><time>2026-05-03T10:27:00.999Z</time></trkpt><trkpt lat="45.749391595903944" lon="9.243938375797974"><ele>275.0</ele><time>2026-05-03T10:27:01.999Z</time></trkpt><trkpt lat="45.74947628232676" lon="9.244091325965286"><ele>275.0</ele><time>2026-05-03T10:27:02.999Z</time></trkpt><trkpt lat="45.74956128420921" lon="9.24423824713572"><ele>274.25</ele><time>2026-05-03T10:27:03.999Z</time></trkpt><trkpt lat="45.74965018982619" lon="9.244379572526059"><ele>273.5</ele><time>2026-05-03T10:27:04.999Z</time></trkpt><trkpt lat="45.749756125673294" lon="9.244504170648677"><ele>272.75</ele><time>2026-05-03T10:27:05.999Z</time></trkpt><trkpt lat="45.74986983174257" lon="9.244624690075252"><ele>272.0</ele><time>2026-05-03T10:27:06.999Z</time></trkpt><trkpt lat="45.749979006365336" lon="9.244741503903327"><ele>271.0</ele><time>2026-05-03T10:27:07.999Z</time></trkpt><trkpt lat="45.75008307675982" lon="9.244858309414033"><ele>270.0</ele><time>2026-05-03T10:27:08.999Z</time></trkpt><trkpt lat="45.75018333640311" lon="9.244966654584179"><ele>269.0</ele><time>2026-05-03T10:27:09.999Z</time></trkpt><trkpt lat="45.750277027101944" lon="9.245066730240145"><ele>268.0</ele><time>2026-05-03T10:27:10.999Z</time></trkpt><trkpt lat="45.750363959401945" lon="9.245171925790213"><ele>267.75</ele><time>2026-05-03T10:27:12Z</time></trkpt><trkpt lat="45.750438733252736" lon="9.245294307055106"><ele>267.5</ele><time>2026-05-03T10:27:13Z</time></trkpt><trkpt lat="45.750502363491975" lon="9.245433911105193"><ele>267.25</ele><time>2026-05-03T10:27:14Z</time></trkpt><trkpt lat="45.750560248991306" lon="9.245584566648407"><ele>267.0</ele><time>2026-05-03T10:27:15Z</time></trkpt><trkpt lat="45.75060875111901" lon="9.245724183738401"><ele>267.0</ele><time>2026-05-03T10:27:16Z</time></trkpt><trkpt lat="45.75064747511438" lon="9.245866626919577"><ele>267.0</ele><time>2026-05-03T10:27:17Z</time></trkpt><trkpt lat="45.75068513735417" lon="9.246004583703789"><ele>267.0</ele><time>2026-05-03T10:27:18Z</time></trkpt><trkpt lat="45.75070995418279" lon="9.246139939164493"><ele>267.0</ele><time>2026-05-03T10:27:19Z</time></trkpt><trkpt lat="45.75072655135683" lon="9.246267063985352"><ele>267.0</ele><time>2026-05-03T10:27:20Z</time></trkpt><trkpt lat="45.7507371269379" lon="9.246378525712545"><ele>266.5</ele><time>2026-05-03T10:27:21Z</time></trkpt><trkpt lat="45.75078243277454" lon="9.246533825805939"><ele>266.0</ele><time>2026-05-03T10:27:23Z</time></trkpt><trkpt lat="45.75087722854895" lon="9.246682662876482"><ele>265.5</ele><time>2026-05-03T10:27:25Z</time></trkpt><trkpt lat="45.750875580702996" lon="9.246886520453025"><ele>265.0</ele><time>2026-05-03T10:27:26Z</time></trkpt><trkpt lat="45.75089290450583" lon="9.247079035268259"><ele>265.0</ele><time>2026-05-03T10:27:27Z</time></trkpt><trkpt lat="45.75091325237862" lon="9.247286520022817"><ele>265.0</ele><time>2026-05-03T10:27:28Z</time></trkpt><trkpt lat="45.75093616396398" lon="9.24750912010887"><ele>265.0</ele><time>2026-05-03T10:27:29Z</time></trkpt><trkpt lat="45.750963120439344" lon="9.247745373321921"><ele>262.3333333333333</ele><time>2026-05-03T10:27:30Z</time></trkpt><trkpt lat="45.75098670478452" lon="9.24797618700568"><ele>259.6666666666667</ele><time>2026-05-03T10:27:31Z</time></trkpt><trkpt lat="45.751009897996276" lon="9.248211919336223"><ele>257.0</ele><time>2026-05-03T10:27:32Z</time></trkpt><trkpt lat="45.75103032808269" lon="9.248439841041993"><ele>257.6666666666667</ele><time>2026-05-03T10:27:33Z</time></trkpt><trkpt lat="45.75105111711324" lon="9.248669272633915"><ele>258.3333333333333</ele><time>2026-05-03T10:27:34Z</time></trkpt><trkpt lat="45.75107256664747" lon="9.248892467199413"><ele>259.0</ele><time>2026-05-03T10:27:35Z</time></trkpt><trkpt lat="45.75109379698378" lon="9.24911571988653"><ele>259.0</ele><time>2026-05-03T10:27:36Z</time></trkpt><trkpt lat="45.75111249813367" lon="9.249335855822851"><ele>259.0</ele><time>2026-05-03T10:27:37Z</time></trkpt><trkpt lat="45.75113032156483" lon="9.249556177658327"><ele>259.0</ele><time>2026-05-03T10:27:38Z</time></trkpt><trkpt lat="45.75114813713718" lon="9.24977030302705"><ele>257.25</ele><time>2026-05-03T10:27:39Z</time></trkpt><trkpt lat="45.75116770319895" lon="9.249977139222006"><ele>255.5</ele><time>2026-05-03T10:27:40Z</time></trkpt><trkpt lat="45.7511874264957" lon="9.250181026022764"><ele>253.75</ele><time>2026-05-03T10:27:41Z</time></trkpt><trkpt lat="45.751206636397036" lon="9.250378987435498"><ele>252.0</ele><time>2026-05-03T10:27:42Z</time></trkpt><trkpt lat="45.75122301916985" lon="9.250587782926669"><ele>249.66666666666669</ele><time>2026-05-03T10:27:43Z</time></trkpt><trkpt lat="45.7512317280553" lon="9.250796056588763"><ele>247.33333333333334</ele><time>2026-05-03T10:27:44Z</time></trkpt><trkpt lat="45.751228837951025" lon="9.25101416046982"><ele>245.0</ele><time>2026-05-03T10:27:45Z</time></trkpt><trkpt lat="45.751223997205024" lon="9.251246710590213"><ele>244.0</ele><time>2026-05-03T10:27:46Z</time></trkpt><trkpt lat="45.75121651676292" lon="9.251485729471387"><ele>243.0</ele><time>2026-05-03T10:27:47Z</time></trkpt><trkpt lat="45.75121058645597" lon="9.251736271401663"><ele>242.0</ele><time>2026-05-03T10:27:48Z</time></trkpt><trkpt lat="45.75120707779452" lon="9.252012861160942"><ele>242.0</ele><time>2026-05-03T10:27:49Z</time></trkpt><trkpt lat="45.75120837820957" lon="9.252306128007556"><ele>242.0</ele><time>2026-05-03T10:27:50Z</time></trkpt><trkpt lat="45.75120805260536" lon="9.252609147062012"><ele>242.0</ele><time>2026-05-03T10:27:51Z</time></trkpt><trkpt lat="45.75120788747444" lon="9.252919419439047"><ele>242.0</ele><time>2026-05-03T10:27:52Z</time></trkpt><trkpt lat="45.75120658756346" lon="9.253231657651481"><ele>242.0</ele><time>2026-05-03T10:27:53Z</time></trkpt><trkpt lat="45.75120598396054" lon="9.253545699471657"><ele>242.0</ele><time>2026-05-03T10:27:54Z</time></trkpt><trkpt lat="45.751203620896035" lon="9.253859457808353"><ele>241.66666666666669</ele><time>2026-05-03T10:27:55Z</time></trkpt><trkpt lat="45.75120281419881" lon="9.254167318710403"><ele>241.33333333333331</ele><time>2026-05-03T10:27:56Z</time></trkpt><trkpt lat="45.75120230181414" lon="9.254467911995961"><ele>241.0</ele><time>2026-05-03T10:27:57.001Z</time></trkpt><trkpt lat="45.75120034212646" lon="9.254752217488083"><ele>240.66666666666666</ele><time>2026-05-03T10:27:58.001Z</time></trkpt><trkpt lat="45.751201105524956" lon="9.255016566082862"><ele>240.33333333333331</ele><time>2026-05-03T10:27:59.001Z</time></trkpt><trkpt lat="45.75120489839205" lon="9.255276376427226"><ele>240.0</ele><time>2026-05-03T10:28:00.001Z</time></trkpt><trkpt lat="45.75120430071322" lon="9.255523420595868"><ele>240.0</ele><time>2026-05-03T10:28:01.001Z</time></trkpt><trkpt lat="45.75120020300912" lon="9.255768516222027"><ele>240.0</ele><time>2026-05-03T10:28:02.001Z</time></trkpt><trkpt lat="45.75119366456026" lon="9.256001779594444"><ele>240.0</ele><time>2026-05-03T10:28:03.001Z</time></trkpt><trkpt lat="45.75117643747885" lon="9.256222948148004"><ele>240.0</ele><time>2026-05-03T10:28:04.001Z</time></trkpt><trkpt lat="45.75113641128841" lon="9.256424847595442"><ele>240.0</ele><time>2026-05-03T10:28:05.001Z</time></trkpt><trkpt lat="45.751075556495145" lon="9.256614564711226"><ele>240.0</ele><time>2026-05-03T10:28:06.001Z</time></trkpt><trkpt lat="45.75100135090094" lon="9.256790810376152"><ele>240.0</ele><time>2026-05-03T10:28:07.001Z</time></trkpt><trkpt lat="45.75092971560965" lon="9.256949551434069"><ele>240.6</ele><time>2026-05-03T10:28:08.001Z</time></trkpt><trkpt lat="45.75086618000017" lon="9.257092115552782"><ele>241.2</ele><time>2026-05-03T10:28:09.001Z</time></trkpt><trkpt lat="45.75080786924627" lon="9.25722737259832"><ele>241.8</ele><time>2026-05-03T10:28:10.001Z</time></trkpt><trkpt lat="45.750747390077656" lon="9.257353984430951"><ele>242.4</ele><time>2026-05-03T10:28:11.001Z</time></trkpt><trkpt lat="45.750687984101745" lon="9.257474551387173"><ele>243.0</ele><time>2026-05-03T10:28:12.001Z</time></trkpt><trkpt lat="45.75063465704935" lon="9.257584895115793"><ele>243.16666666666666</ele><time>2026-05-03T10:28:13.001Z</time></trkpt><trkpt lat="45.75058406095544" lon="9.25768138453792"><ele>243.33333333333331</ele><time>2026-05-03T10:28:14.001Z</time></trkpt><trkpt lat="45.750526594467026" lon="9.257760861019738"><ele>243.5</ele><time>2026-05-03T10:28:16.001Z</time></trkpt><trkpt lat="45.75046933837814" lon="9.257830374084143"><ele>243.66666666666666</ele><time>2026-05-03T10:28:19.001Z</time></trkpt><trkpt lat="45.750385463083006" lon="9.257907066574365"><ele>243.83333333333331</ele><time>2026-05-03T10:28:22.001Z</time></trkpt><trkpt lat="45.75029837657093" lon="9.257999179956537"><ele>244.0</ele><time>2026-05-03T10:28:24.001Z</time></trkpt><trkpt lat="45.750238237481696" lon="9.258135001552382"><ele>243.83333333333331</ele><time>2026-05-03T10:28:26.001Z</time></trkpt><trkpt lat="45.750219911144086" lon="9.258227783407625"><ele>243.66666666666666</ele><time>2026-05-03T10:28:27.001Z</time></trkpt><trkpt lat="45.75020371252063" lon="9.258332090046759"><ele>243.5</ele><time>2026-05-03T10:28:28.001Z</time></trkpt><trkpt lat="45.750185660630834" lon="9.25844962424493"><ele>243.33333333333331</ele><time>2026-05-03T10:28:29.001Z</time></trkpt><trkpt lat="45.750166284390964" lon="9.258575986687338"><ele>243.16666666666666</ele><time>2026-05-03T10:28:30.001Z</time></trkpt><trkpt lat="45.75013853012768" lon="9.258713433372238"><ele>243.0</ele><time>2026-05-03T10:28:31.001Z</time></trkpt><trkpt lat="45.750094394618245" lon="9.258875032370982"><ele>244.66666666666669</ele><time>2026-05-03T10:28:32.001Z</time></trkpt><trkpt lat="45.75003333381142" lon="9.259075127985835"><ele>246.33333333333334</ele><time>2026-05-03T10:28:33.001Z</time></trkpt><trkpt lat="45.74996276528509" lon="9.259277371919376"><ele>248.0</ele><time>2026-05-03T10:28:34.001Z</time></trkpt><trkpt lat="45.74988562306798" lon="9.259473046190772"><ele>248.0</ele><time>2026-05-03T10:28:35.001Z</time></trkpt><trkpt lat="45.74980517593816" lon="9.259651069398696"><ele>248.0</ele><time>2026-05-03T10:28:36.001Z</time></trkpt><trkpt lat="45.74971748518695" lon="9.259817343059353"><ele>248.0</ele><time>2026-05-03T10:28:37.001Z</time></trkpt><trkpt lat="45.74962453296017" lon="9.259968205162606"><ele>248.0</ele><time>2026-05-03T10:28:38.001Z</time></trkpt><trkpt lat="45.74952814175031" lon="9.260102039911127"><ele>247.5</ele><time>2026-05-03T10:28:39.001Z</time></trkpt><trkpt lat="45.74942606241687" lon="9.26022027714617"><ele>247.0</ele><time>2026-05-03T10:28:40.001Z</time></trkpt><trkpt lat="45.74931871258163" lon="9.260326954477902"><ele>246.5</ele><time>2026-05-03T10:28:41.001Z</time></trkpt><trkpt lat="45.74920748838369" lon="9.260424252606922"><ele>246.0</ele><time>2026-05-03T10:28:42.001Z</time></trkpt><trkpt lat="45.749093840890446" lon="9.26052358130516"><ele>248.75</ele><time>2026-05-03T10:28:43.001Z</time></trkpt><trkpt lat="45.74898314508812" lon="9.260629434849228"><ele>251.5</ele><time>2026-05-03T10:28:44.001Z</time></trkpt><trkpt lat="45.74887961322223" lon="9.260742980702396"><ele>254.25</ele><time>2026-05-03T10:28:45.001Z</time></trkpt><trkpt lat="45.74877955848678" lon="9.260872940239416"><ele>257.0</ele><time>2026-05-03T10:28:46.001Z</time></trkpt><trkpt lat="45.74869615365778" lon="9.261004892338752"><ele>257.0</ele><time>2026-05-03T10:28:47.001Z</time></trkpt><trkpt lat="45.74863259962556" lon="9.261134074269503"><ele>257.0</ele><time>2026-05-03T10:28:48.001Z</time></trkpt><trkpt lat="45.748582479758404" lon="9.261262182674487"><ele>257.0</ele><time>2026-05-03T10:28:49.001Z</time></trkpt><trkpt lat="45.74854383954432" lon="9.261386133895318"><ele>257.0</ele><time>2026-05-03T10:28:50.001Z</time></trkpt><trkpt lat="45.74851656191955" lon="9.261497756967247"><ele>257.0</ele><time>2026-05-03T10:28:51.001Z</time></trkpt><trkpt lat="45.748489102040274" lon="9.261646928047394"><ele>257.0</ele><time>2026-05-03T10:28:53.002Z</time></trkpt><trkpt lat="45.74847595271711" lon="9.261756069866836"><ele>257.0</ele><time>2026-05-03T10:28:54.999Z</time></trkpt><trkpt lat="45.748464156804815" lon="9.261846256285354"><ele>257.0</ele><time>2026-05-03T10:28:57.999Z</time></trkpt><trkpt lat="45.748439218804435" lon="9.261976790150777"><ele>257.0</ele><time>2026-05-03T10:28:59.999Z</time></trkpt><trkpt lat="45.74843472511883" lon="9.262146023898996"><ele>257.0</ele><time>2026-05-03T10:29:01.999Z</time></trkpt><trkpt lat="45.74845704563707" lon="9.262241846042679"><ele>257.0</ele><time>2026-05-03T10:29:02.999Z</time></trkpt><trkpt lat="45.74849105030646" lon="9.262344730177972"><ele>257.8</ele><time>2026-05-03T10:29:03.999Z</time></trkpt><trkpt lat="45.7485351447783" lon="9.262453447747014"><ele>258.6</ele><time>2026-05-03T10:29:04.999Z</time></trkpt><trkpt lat="45.748581117051245" lon="9.262569904303971"><ele>259.40000000000003</ele><time>2026-05-03T10:29:05.999Z</time></trkpt><trkpt lat="45.74862696137972" lon="9.262699185069083"><ele>260.2</ele><time>2026-05-03T10:29:06.999Z</time></trkpt><trkpt lat="45.74867021362462" lon="9.262845389167362"><ele>261.0</ele><time>2026-05-03T10:29:07.999Z</time></trkpt><trkpt lat="45.7487229527649" lon="9.263020476472672"><ele>261.0</ele><time>2026-05-03T10:29:08.999Z</time></trkpt><trkpt lat="45.748786148480725" lon="9.263233276797658"><ele>261.0</ele><time>2026-05-03T10:29:09.999Z</time></trkpt><trkpt lat="45.748847459648545" lon="9.263434442332562"><ele>261.0</ele><time>2026-05-03T10:29:10.999Z</time></trkpt><trkpt lat="45.74890443019654" lon="9.263618342544405"><ele>261.0</ele><time>2026-05-03T10:29:11.999Z</time></trkpt><trkpt lat="45.74895896559862" lon="9.26379875757346"><ele>261.0</ele><time>2026-05-03T10:29:12.999Z</time></trkpt><trkpt lat="45.74900952960636" lon="9.263955677806853"><ele>261.0</ele><time>2026-05-03T10:29:13.999Z</time></trkpt><trkpt lat="45.74906495560945" lon="9.26409649865143"><ele>261.0</ele><time>2026-05-03T10:29:14.999Z</time></trkpt><trkpt lat="45.749126823416326" lon="9.26421193276339"><ele>260.8333333333333</ele><time>2026-05-03T10:29:15.999Z</time></trkpt><trkpt lat="45.749172921888544" lon="9.26431977106312"><ele>260.6666666666667</ele><time>2026-05-03T10:29:16.999Z</time></trkpt><trkpt lat="45.74921507876152" lon="9.264421795283868"><ele>260.5</ele><time>2026-05-03T10:29:17.999Z</time></trkpt><trkpt lat="45.74924491317965" lon="9.264538460086131"><ele>260.33333333333337</ele><time>2026-05-03T10:29:18.999Z</time></trkpt><trkpt lat="45.74927221451554" lon="9.264669780122317"><ele>260.1666666666667</ele><time>2026-05-03T10:29:19.999Z</time></trkpt><trkpt lat="45.74929507243705" lon="9.264792469243769"><ele>260.0</ele><time>2026-05-03T10:29:21Z</time></trkpt><trkpt lat="45.74932956317203" lon="9.264907339718691"><ele>260.6</ele><time>2026-05-03T10:29:22Z</time></trkpt><trkpt lat="45.749376151779344" lon="9.265031816629985"><ele>261.2</ele><time>2026-05-03T10:29:23Z</time></trkpt><trkpt lat="45.749422052620275" lon="9.265159884016532"><ele>261.8</ele><time>2026-05-03T10:29:24Z</time></trkpt><trkpt lat="45.74945958723272" lon="9.265278279073048"><ele>262.4</ele><time>2026-05-03T10:29:25Z</time></trkpt><trkpt lat="45.74948492152563" lon="9.265387972557164"><ele>263.0</ele><time>2026-05-03T10:29:26Z</time></trkpt><trkpt lat="45.74951095651691" lon="9.265500104358026"><ele>263.0</ele><time>2026-05-03T10:29:27Z</time></trkpt><trkpt lat="45.74952470597608" lon="9.265596998271613"><ele>263.0</ele><time>2026-05-03T10:29:28Z</time></trkpt><trkpt lat="45.74953188609423" lon="9.265702477882328"><ele>263.0</ele><time>2026-05-03T10:29:29Z</time></trkpt><trkpt lat="45.749529916670525" lon="9.265800434150396"><ele>263.0</ele><time>2026-05-03T10:29:30Z</time></trkpt><trkpt lat="45.74951819665678" lon="9.26589433770726"><ele>263.0</ele><time>2026-05-03T10:29:31Z</time></trkpt><trkpt lat="45.74950258139014" lon="9.26598367213502"><ele>263.0</ele><time>2026-05-03T10:29:32Z</time></trkpt><trkpt lat="45.749492393517464" lon="9.266082910926512"><ele>263.0</ele><time>2026-05-03T10:29:33Z</time></trkpt><trkpt lat="45.749493574229625" lon="9.266186034834176"><ele>263.8</ele><time>2026-05-03T10:29:34Z</time></trkpt><trkpt lat="45.74950886688221" lon="9.266294644885436"><ele>264.6</ele><time>2026-05-03T10:29:35Z</time></trkpt><trkpt lat="45.74951840972999" lon="9.266426609831067"><ele>265.4</ele><time>2026-05-03T10:29:36Z</time></trkpt><trkpt lat="45.74950654326991" lon="9.266557567896262"><ele>266.2</ele><time>2026-05-03T10:29:37Z</time></trkpt><trkpt lat="45.74948055135034" lon="9.266693520338308"><ele>267.0</ele><time>2026-05-03T10:29:38Z</time></trkpt><trkpt lat="45.749454275326826" lon="9.26683891102963"><ele>268.25</ele><time>2026-05-03T10:29:39Z</time></trkpt><trkpt lat="45.7494213344387" lon="9.266984794566465"><ele>269.5</ele><time>2026-05-03T10:29:40Z</time></trkpt><trkpt lat="45.74938742325083" lon="9.267138637825402"><ele>270.75</ele><time>2026-05-03T10:29:41Z</time></trkpt><trkpt lat="45.74934792276633" lon="9.267295464065977"><ele>272.0</ele><time>2026-05-03T10:29:42Z</time></trkpt><trkpt lat="45.74931211515411" lon="9.2674545758541"><ele>272.0</ele><time>2026-05-03T10:29:43Z</time></trkpt><trkpt lat="45.74927347399489" lon="9.26761444328016"><ele>272.0</ele><time>2026-05-03T10:29:44Z</time></trkpt><trkpt lat="45.74924463778625" lon="9.267751438931466"><ele>272.0</ele><time>2026-05-03T10:29:45Z</time></trkpt><trkpt lat="45.74921369571317" lon="9.267893857184552"><ele>272.0</ele><time>2026-05-03T10:29:46Z</time></trkpt><trkpt lat="45.74918447312424" lon="9.268031501195088"><ele>272.0</ele><time>2026-05-03T10:29:47Z</time></trkpt><trkpt lat="45.74915350676793" lon="9.268170297846472"><ele>272.2</ele><time>2026-05-03T10:29:48Z</time></trkpt><trkpt lat="45.74912194090053" lon="9.268308497510379"><ele>272.4</ele><time>2026-05-03T10:29:49Z</time></trkpt><trkpt lat="45.74909146909257" lon="9.268442680914461"><ele>272.6</ele><time>2026-05-03T10:29:50Z</time></trkpt><trkpt lat="45.7490620286153" lon="9.268579962318869"><ele>272.8</ele><time>2026-05-03T10:29:51Z</time></trkpt><trkpt lat="45.74903193533793" lon="9.26871640573104"><ele>273.0</ele><time>2026-05-03T10:29:52Z</time></trkpt><trkpt lat="45.749001589309245" lon="9.268849915894425"><ele>273.4</ele><time>2026-05-03T10:29:53Z</time></trkpt><trkpt lat="45.74897109170817" lon="9.268980368756933"><ele>273.8</ele><time>2026-05-03T10:29:54Z</time></trkpt><trkpt lat="45.74894139636611" lon="9.269112240162121"><ele>274.2</ele><time>2026-05-03T10:29:55Z</time></trkpt><trkpt lat="45.74891188463379" lon="9.269247682730347"><ele>274.6</ele><time>2026-05-03T10:29:56Z</time></trkpt><trkpt lat="45.74888178757611" lon="9.269387323353383"><ele>275.0</ele><time>2026-05-03T10:29:57Z</time></trkpt><trkpt lat="45.7488508353729" lon="9.269525995271923"><ele>275.0</ele><time>2026-05-03T10:29:58Z</time></trkpt><trkpt lat="45.74881908558357" lon="9.269670622768437"><ele>275.0</ele><time>2026-05-03T10:29:59Z</time></trkpt><trkpt lat="45.74878641609353" lon="9.269816460133708"><ele>275.0</ele><time>2026-05-03T10:30:00Z</time></trkpt><trkpt lat="45.74875369767141" lon="9.26996695746217"><ele>275.0</ele><time>2026-05-03T10:30:01Z</time></trkpt><trkpt lat="45.74871819098682" lon="9.270121035778965"><ele>275.0</ele><time>2026-05-03T10:30:02Z</time></trkpt><trkpt lat="45.748684113560635" lon="9.27027171651429"><ele>275.75</ele><time>2026-05-03T10:30:03.001Z</time></trkpt><trkpt lat="45.748648043150276" lon="9.270427747628535"><ele>276.5</ele><time>2026-05-03T10:30:04.001Z</time></trkpt><trkpt lat="45.748612514496166" lon="9.270596425057873"><ele>277.25</ele><time>2026-05-03T10:30:05.001Z</time></trkpt><trkpt lat="45.74857911115653" lon="9.270751949645335"><ele>278.0</ele><time>2026-05-03T10:30:06.001Z</time></trkpt><trkpt lat="45.74854365642757" lon="9.27091559071911"><ele>278.0</ele><time>2026-05-03T10:30:07.001Z</time></trkpt><trkpt lat="45.7485069369232" lon="9.271079142713633"><ele>278.0</ele><time>2026-05-03T10:30:08.001Z</time></trkpt><trkpt lat="45.74847078080279" lon="9.271249793617033"><ele>278.0</ele><time>2026-05-03T10:30:09.001Z</time></trkpt><trkpt lat="45.748432819476356" lon="9.271420315491934"><ele>278.0</ele><time>2026-05-03T10:30:10.001Z</time></trkpt><trkpt lat="45.748397092691064" lon="9.271583447911345"><ele>278.4</ele><time>2026-05-03T10:30:11.001Z</time></trkpt><trkpt lat="45.74836414552551" lon="9.27174520570933"><ele>278.8</ele><time>2026-05-03T10:30:12.001Z</time></trkpt><trkpt lat="45.74833964062771" lon="9.271890399469072"><ele>279.2</ele><time>2026-05-03T10:30:13.001Z</time></trkpt><trkpt lat="45.7483174589697" lon="9.272028853930195"><ele>279.6</ele><time>2026-05-03T10:30:14.001Z</time></trkpt><trkpt lat="45.748298640713706" lon="9.27215216327019"><ele>280.0</ele><time>2026-05-03T10:30:15.001Z</time></trkpt><trkpt lat="45.748283668636184" lon="9.27227119756303"><ele>279.8333333333333</ele><time>2026-05-03T10:30:16.001Z</time></trkpt><trkpt lat="45.74826810342261" lon="9.272379602023095"><ele>279.66666666666663</ele><time>2026-05-03T10:30:17.001Z</time></trkpt><trkpt lat="45.74823413420438" lon="9.272481194526407"><ele>279.5</ele><time>2026-05-03T10:30:18.001Z</time></trkpt><trkpt lat="45.74818732939452" lon="9.27256825057924"><ele>279.3333333333333</ele><time>2026-05-03T10:30:19.001Z</time></trkpt><trkpt lat="45.74815559027149" lon="9.272653321644778"><ele>279.1666666666667</ele><time>2026-05-03T10:30:20.001Z</time></trkpt><trkpt lat="45.74815327941942" lon="9.272768547788145"><ele>279.0</ele><time>2026-05-03T10:30:21.001Z</time></trkpt><trkpt lat="45.748169924252466" lon="9.272900971586308"><ele>279.0</ele><time>2026-05-03T10:30:22.001Z</time></trkpt><trkpt lat="45.748187287732776" lon="9.273053937075783"><ele>279.0</ele><time>2026-05-03T10:30:23.001Z</time></trkpt><trkpt lat="45.748190419898286" lon="9.27320267629982"><ele>279.0</ele><time>2026-05-03T10:30:24.001Z</time></trkpt><trkpt lat="45.74818090721005" lon="9.273361289162663"><ele>279.0</ele><time>2026-05-03T10:30:25.001Z</time></trkpt><trkpt lat="45.74816558910059" lon="9.27352301209294"><ele>279.0</ele><time>2026-05-03T10:30:26.001Z</time></trkpt><trkpt lat="45.748147983069806" lon="9.273677036051843"><ele>279.25</ele><time>2026-05-03T10:30:27.001Z</time></trkpt><trkpt lat="45.74813177528463" lon="9.273839539952188"><ele>279.5</ele><time>2026-05-03T10:30:28.001Z</time></trkpt><trkpt lat="45.74811632790038" lon="9.274009765655597"><ele>279.75</ele><time>2026-05-03T10:30:29.001Z</time></trkpt><trkpt lat="45.74810401718111" lon="9.27418537463674"><ele>280.0</ele><time>2026-05-03T10:30:30.001Z</time></trkpt><trkpt lat="45.74808685543094" lon="9.274367549019859"><ele>279.5</ele><time>2026-05-03T10:30:31.001Z</time></trkpt><trkpt lat="45.74807079532932" lon="9.274552570369057"><ele>279.0</ele><time>2026-05-03T10:30:32.001Z</time></trkpt><trkpt lat="45.74805537996793" lon="9.274747554139836"><ele>278.5</ele><time>2026-05-03T10:30:33.001Z</time></trkpt><trkpt lat="45.74803987168994" lon="9.274949894477484"><ele>278.0</ele><time>2026-05-03T10:30:34.001Z</time></trkpt><trkpt lat="45.748021617652824" lon="9.275152069914661"><ele>277.75</ele><time>2026-05-03T10:30:35.001Z</time></trkpt><trkpt lat="45.74800195916554" lon="9.275357344827801"><ele>277.5</ele><time>2026-05-03T10:30:36.001Z</time></trkpt><trkpt lat="45.74797825520488" lon="9.275563860031726"><ele>277.25</ele><time>2026-05-03T10:30:37.001Z</time></trkpt><trkpt lat="45.74795600594518" lon="9.275775198555666"><ele>277.0</ele><time>2026-05-03T10:30:38.001Z</time></trkpt><trkpt lat="45.74793598236458" lon="9.275988314916846"><ele>277.0</ele><time>2026-05-03T10:30:39.001Z</time></trkpt><trkpt lat="45.74792279795254" lon="9.276194951112295"><ele>277.0</ele><time>2026-05-03T10:30:40.001Z</time></trkpt><trkpt lat="45.747911599739815" lon="9.276397394548095"><ele>277.0</ele><time>2026-05-03T10:30:41.001Z</time></trkpt><trkpt lat="45.747908588683686" lon="9.276580633617993"><ele>277.0</ele><time>2026-05-03T10:30:42.001Z</time></trkpt><trkpt lat="45.74791072124738" lon="9.276752751545315"><ele>277.0</ele><time>2026-05-03T10:30:43.001Z</time></trkpt><trkpt lat="45.74791576094378" lon="9.276923093135776"><ele>277.0</ele><time>2026-05-03T10:30:44.001Z</time></trkpt><trkpt lat="45.74792726179561" lon="9.277100146814702"><ele>277.0</ele><time>2026-05-03T10:30:45.001Z</time></trkpt><trkpt lat="45.74794533637559" lon="9.277281124759842"><ele>277.0</ele><time>2026-05-03T10:30:46.001Z</time></trkpt><trkpt lat="45.74796551646886" lon="9.277463558970096"><ele>277.5</ele><time>2026-05-03T10:30:47.001Z</time></trkpt><trkpt lat="45.74798375013471" lon="9.27764779459504"><ele>278.0</ele><time>2026-05-03T10:30:48.001Z</time></trkpt><trkpt lat="45.74801334824808" lon="9.277835596857047"><ele>278.5</ele><time>2026-05-03T10:30:49.001Z</time></trkpt><trkpt lat="45.7480405680138" lon="9.278030115091559"><ele>279.0</ele><time>2026-05-03T10:30:50.001Z</time></trkpt><trkpt lat="45.7480748735485" lon="9.278228471182938"><ele>279.0</ele><time>2026-05-03T10:30:51.001Z</time></trkpt><trkpt lat="45.74810710884207" lon="9.278423629244607"><ele>279.0</ele><time>2026-05-03T10:30:52.001Z</time></trkpt><trkpt lat="45.748142028284114" lon="9.278620538371278"><ele>279.0</ele><time>2026-05-03T10:30:53.001Z</time></trkpt><trkpt lat="45.74818066709401" lon="9.27883265709067"><ele>279.0</ele><time>2026-05-03T10:30:54.002Z</time></trkpt><trkpt lat="45.74821757225679" lon="9.279052098641278"><ele>279.6666666666667</ele><time>2026-05-03T10:30:55.002Z</time></trkpt><trkpt lat="45.74825790822456" lon="9.279279461004933"><ele>280.33333333333337</ele><time>2026-05-03T10:30:56.002Z</time></trkpt><trkpt lat="45.74830803429391" lon="9.279512904254393"><ele>281.0</ele><time>2026-05-03T10:30:57.002Z</time></trkpt><trkpt lat="45.74836015010214" lon="9.279755466342495"><ele>281.33333333333337</ele><time>2026-05-03T10:30:58.002Z</time></trkpt><trkpt lat="45.748417721850046" lon="9.280005875949907"><ele>281.6666666666667</ele><time>2026-05-03T10:30:59.002Z</time></trkpt><trkpt lat="45.74846999599388" lon="9.28026414468025"><ele>282.0</ele><time>2026-05-03T10:30:59.999Z</time></trkpt><trkpt lat="45.748518832700235" lon="9.28052656010206"><ele>281.3333333333333</ele><time>2026-05-03T10:31:00.999Z</time></trkpt><trkpt lat="45.74856588703794" lon="9.280792089162604"><ele>280.66666666666663</ele><time>2026-05-03T10:31:01.999Z</time></trkpt><trkpt lat="45.74861526259069" lon="9.281062601587646"><ele>280.0</ele><time>2026-05-03T10:31:02.999Z</time></trkpt><trkpt lat="45.748653699395184" lon="9.281349707220652"><ele>280.3333333333333</ele><time>2026-05-03T10:31:03.999Z</time></trkpt><trkpt lat="45.74870679508753" lon="9.28163401412206"><ele>280.6666666666667</ele><time>2026-05-03T10:31:04.999Z</time></trkpt><trkpt lat="45.74876117710397" lon="9.281879782785936"><ele>281.0</ele><time>2026-05-03T10:31:05.999Z</time></trkpt><trkpt lat="45.748791881665724" lon="9.28210058864667"><ele>281.0</ele><time>2026-05-03T10:31:06.999Z</time></trkpt><trkpt lat="45.74883248726713" lon="9.282308664264045"><ele>281.0</ele><time>2026-05-03T10:31:07.999Z</time></trkpt><trkpt lat="45.74888150468392" lon="9.282521906338063"><ele>281.0</ele><time>2026-05-03T10:31:08.999Z</time></trkpt><trkpt lat="45.74891885680062" lon="9.28277213017413"><ele>281.0</ele><time>2026-05-03T10:31:09.999Z</time></trkpt><trkpt lat="45.74897199185817" lon="9.283057876996098"><ele>281.0</ele><time>2026-05-03T10:31:10.999Z</time></trkpt><trkpt lat="45.749043260001656" lon="9.283344178274202"><ele>281.0</ele><time>2026-05-03T10:31:11.999Z</time></trkpt><trkpt lat="45.74908514266271" lon="9.283643458699629"><ele>281.0</ele><time>2026-05-03T10:31:12.999Z</time></trkpt><trkpt lat="45.749154222251455" lon="9.283953559445903"><ele>281.0</ele><time>2026-05-03T10:31:13.999Z</time></trkpt><trkpt lat="45.749251599247295" lon="9.284283011539172"><ele>281.0</ele><time>2026-05-03T10:31:14.999Z</time></trkpt><trkpt lat="45.749369304525715" lon="9.284605713653953"><ele>281.0</ele><time>2026-05-03T10:31:15.999Z</time></trkpt><trkpt lat="45.749497049161334" lon="9.284899150384712"><ele>282.5</ele><time>2026-05-03T10:31:16.999Z</time></trkpt><trkpt lat="45.749631291482295" lon="9.28518559166824"><ele>284.0</ele><time>2026-05-03T10:31:17.999Z</time></trkpt><trkpt lat="45.74978602859977" lon="9.285466327898051"><ele>284.5</ele><time>2026-05-03T10:31:18.999Z</time></trkpt><trkpt lat="45.74996225818148" lon="9.285740343916979"><ele>285.0</ele><time>2026-05-03T10:31:19.999Z</time></trkpt><trkpt lat="45.75014194492095" lon="9.286013191181206"><ele>287.0</ele><time>2026-05-03T10:31:20.999Z</time></trkpt><trkpt lat="45.75032677285559" lon="9.286294738029554"><ele>289.0</ele><time>2026-05-03T10:31:21.999Z</time></trkpt><trkpt lat="45.750508519229975" lon="9.286579735627438"><ele>289.0</ele><time>2026-05-03T10:31:22.999Z</time></trkpt><trkpt lat="45.7506921107503" lon="9.286868457175913"><ele>289.0</ele><time>2026-05-03T10:31:24Z</time></trkpt><trkpt lat="45.75087532647756" lon="9.287162636897191"><ele>294.0</ele><time>2026-05-03T10:31:25Z</time></trkpt><trkpt lat="45.751058392346536" lon="9.287451933146313"><ele>299.0</ele><time>2026-05-03T10:31:26Z</time></trkpt><trkpt lat="45.75124207679405" lon="9.287730965383927"><ele>299.0</ele><time>2026-05-03T10:31:27Z</time></trkpt><trkpt lat="45.751416401460624" lon="9.287997356863551"><ele>299.0</ele><time>2026-05-03T10:31:28Z</time></trkpt><trkpt lat="45.75158839157661" lon="9.288268607245552"><ele>301.5</ele><time>2026-05-03T10:31:29Z</time></trkpt><trkpt lat="45.75176735718165" lon="9.288547187591632"><ele>304.0</ele><time>2026-05-03T10:31:30Z</time></trkpt><trkpt lat="45.75193603244721" lon="9.288809532519767"><ele>301.66666666666663</ele><time>2026-05-03T10:31:31Z</time></trkpt><trkpt lat="45.752081298681496" lon="9.289046537613498"><ele>299.3333333333333</ele><time>2026-05-03T10:31:32Z</time></trkpt><trkpt lat="45.75220070252841" lon="9.289270878279869"><ele>297.0</ele><time>2026-05-03T10:31:33Z</time></trkpt><trkpt lat="45.752290782411876" lon="9.289500589715129"><ele>297.0</ele><time>2026-05-03T10:31:34Z</time></trkpt><trkpt lat="45.75235640711999" lon="9.28972631526103"><ele>297.0</ele><time>2026-05-03T10:31:35Z</time></trkpt><trkpt lat="45.752402325498394" lon="9.28996953016346"><ele>297.0</ele><time>2026-05-03T10:31:36Z</time></trkpt><trkpt lat="45.75243420898014" lon="9.29020079695954"><ele>296.25</ele><time>2026-05-03T10:31:37Z</time></trkpt><trkpt lat="45.75244305641409" lon="9.29039602356101"><ele>295.5</ele><time>2026-05-03T10:31:38Z</time></trkpt><trkpt lat="45.752437032769" lon="9.290590027611835"><ele>294.75</ele><time>2026-05-03T10:31:39Z</time></trkpt><trkpt lat="45.75241430203791" lon="9.290782648636112"><ele>294.0</ele><time>2026-05-03T10:31:40Z</time></trkpt><trkpt lat="45.752381026121334" lon="9.290954614673028"><ele>293.8</ele><time>2026-05-03T10:31:41Z</time></trkpt><trkpt lat="45.752345374226614" lon="9.291107506608206"><ele>293.59999999999997</ele><time>2026-05-03T10:31:42Z</time></trkpt><trkpt lat="45.75232004450524" lon="9.291252590864602"><ele>293.4</ele><time>2026-05-03T10:31:43Z</time></trkpt><trkpt lat="45.752297743484334" lon="9.291408867945453"><ele>293.2</ele><time>2026-05-03T10:31:44Z</time></trkpt><trkpt lat="45.752286544589204" lon="9.291575855684204"><ele>293.0</ele><time>2026-05-03T10:31:45Z</time></trkpt><trkpt lat="45.75228402529205" lon="9.291745929002882"><ele>293.5</ele><time>2026-05-03T10:31:46Z</time></trkpt><trkpt lat="45.75228713419564" lon="9.291906742248539"><ele>294.0</ele><time>2026-05-03T10:31:47Z</time></trkpt><trkpt lat="45.752293581660034" lon="9.292051926020958"><ele>294.5</ele><time>2026-05-03T10:31:48Z</time></trkpt><trkpt lat="45.75231731972084" lon="9.292203551792332"><ele>295.0</ele><time>2026-05-03T10:31:49Z</time></trkpt><trkpt lat="45.752373590541595" lon="9.292377856585098"><ele>295.0</ele><time>2026-05-03T10:31:50Z</time></trkpt><trkpt lat="45.75243319302358" lon="9.292576192972978"><ele>295.0</ele><time>2026-05-03T10:31:51Z</time></trkpt><trkpt lat="45.75248361262408" lon="9.292791602409956"><ele>295.0</ele><time>2026-05-03T10:31:52Z</time></trkpt><trkpt lat="45.752514093987216" lon="9.293042417911316"><ele>294.66666666666663</ele><time>2026-05-03T10:31:53Z</time></trkpt><trkpt lat="45.75252707567158" lon="9.293308919871718"><ele>294.3333333333333</ele><time>2026-05-03T10:31:54Z</time></trkpt><trkpt lat="45.752529868766565" lon="9.293567747256187"><ele>294.0</ele><time>2026-05-03T10:31:55Z</time></trkpt><trkpt lat="45.7525363585424" lon="9.293812426162146"><ele>293.75</ele><time>2026-05-03T10:31:56Z</time></trkpt><trkpt lat="45.75254085076343" lon="9.29403040259943"><ele>293.5</ele><time>2026-05-03T10:31:57Z</time></trkpt><trkpt lat="45.75254519144235" lon="9.29423102455532"><ele>293.25</ele><time>2026-05-03T10:31:58Z</time></trkpt><trkpt lat="45.752546725017154" lon="9.294407679969453"><ele>293.0</ele><time>2026-05-03T10:31:59Z</time></trkpt><trkpt lat="45.752538125110874" lon="9.294579963724933"><ele>293.0</ele><time>2026-05-03T10:32:00Z</time></trkpt><trkpt lat="45.75252273691356" lon="9.29474973482617"><ele>293.0</ele><time>2026-05-03T10:32:01Z</time></trkpt><trkpt lat="45.752523559529656" lon="9.294941452997305"><ele>293.0</ele><time>2026-05-03T10:32:02.001Z</time></trkpt><trkpt lat="45.75255548900548" lon="9.295150187622534"><ele>293.0</ele><time>2026-05-03T10:32:03.001Z</time></trkpt><trkpt lat="45.752590636434014" lon="9.295388178719122"><ele>293.33333333333337</ele><time>2026-05-03T10:32:04.001Z</time></trkpt><trkpt lat="45.75260659521958" lon="9.29563100084051"><ele>293.6666666666667</ele><time>2026-05-03T10:32:05.001Z</time></trkpt><trkpt lat="45.752615139217134" lon="9.2958870451518"><ele>294.0</ele><time>2026-05-03T10:32:06.001Z</time></trkpt><trkpt lat="45.7526229402131" lon="9.296152597345506"><ele>294.6666666666667</ele><time>2026-05-03T10:32:07.001Z</time></trkpt><trkpt lat="45.75262976520318" lon="9.296423545891233"><ele>295.33333333333337</ele><time>2026-05-03T10:32:08.001Z</time></trkpt><trkpt lat="45.75263810444181" lon="9.296698209158725"><ele>296.0</ele><time>2026-05-03T10:32:09.001Z</time></trkpt><trkpt lat="45.752649771886134" lon="9.296952377952413"><ele>296.0</ele><time>2026-05-03T10:32:10.001Z</time></trkpt><trkpt lat="45.75265969706538" lon="9.297228043921196"><ele>296.0</ele><time>2026-05-03T10:32:11.001Z</time></trkpt><trkpt lat="45.752666711222254" lon="9.297512408768876"><ele>296.0</ele><time>2026-05-03T10:32:12.001Z</time></trkpt><trkpt lat="45.75267469238984" lon="9.297807797958692"><ele>296.6666666666667</ele><time>2026-05-03T10:32:13.001Z</time></trkpt><trkpt lat="45.75268777955921" lon="9.298115588331969"><ele>297.3333333333333</ele><time>2026-05-03T10:32:14.001Z</time></trkpt><trkpt lat="45.75269772787768" lon="9.298409249621173"><ele>298.0</ele><time>2026-05-03T10:32:15.001Z</time></trkpt><trkpt lat="45.752706495515845" lon="9.298683855082297"><ele>300.3333333333333</ele><time>2026-05-03T10:32:16.001Z</time></trkpt><trkpt lat="45.752714801411365" lon="9.298925850930111"><ele>302.6666666666667</ele><time>2026-05-03T10:32:17.001Z</time></trkpt><trkpt lat="45.752725717297565" lon="9.299146617233562"><ele>305.0</ele><time>2026-05-03T10:32:18.001Z</time></trkpt><trkpt lat="45.75272546978001" lon="9.29936161546191"><ele>305.0</ele><time>2026-05-03T10:32:19.001Z</time></trkpt><trkpt lat="45.75274010353754" lon="9.299575466935865"><ele>305.0</ele><time>2026-05-03T10:32:20.001Z</time></trkpt><trkpt lat="45.75274405315915" lon="9.299790465982241"><ele>305.0</ele><time>2026-05-03T10:32:21.001Z</time></trkpt><trkpt lat="45.75275229370047" lon="9.299990683804834"><ele>305.0</ele><time>2026-05-03T10:32:22.001Z</time></trkpt><trkpt lat="45.752765139645916" lon="9.300189298894047"><ele>306.25</ele><time>2026-05-03T10:32:23.001Z</time></trkpt><trkpt lat="45.75277216706486" lon="9.300398559943092"><ele>307.5</ele><time>2026-05-03T10:32:24.001Z</time></trkpt><trkpt lat="45.75277989061333" lon="9.300604477201542"><ele>308.75</ele><time>2026-05-03T10:32:25.001Z</time></trkpt><trkpt lat="45.7527751209386" lon="9.300814597017409"><ele>310.0</ele><time>2026-05-03T10:32:26.001Z</time></trkpt><trkpt lat="45.7527700553989" lon="9.301019073630528"><ele>311.66666666666663</ele><time>2026-05-03T10:32:27.001Z</time></trkpt><trkpt lat="45.75275494428999" lon="9.301234474644692"><ele>313.3333333333333</ele><time>2026-05-03T10:32:28.001Z</time></trkpt><trkpt lat="45.75273692844715" lon="9.301453647035586"><ele>315.0</ele><time>2026-05-03T10:32:29.001Z</time></trkpt><trkpt lat="45.75269756045282" lon="9.30167638556249"><ele>316.6666666666667</ele><time>2026-05-03T10:32:30.001Z</time></trkpt><trkpt lat="45.752643598864715" lon="9.301880239128446"><ele>318.33333333333337</ele><time>2026-05-03T10:32:31.001Z</time></trkpt><trkpt lat="45.75257536546321" lon="9.302085143374711"><ele>320.0</ele><time>2026-05-03T10:32:32.001Z</time></trkpt><trkpt lat="45.75249845196834" lon="9.302269893767406"><ele>321.25</ele><time>2026-05-03T10:32:33.001Z</time></trkpt><trkpt lat="45.752419432303945" lon="9.302444110595806"><ele>322.5</ele><time>2026-05-03T10:32:34.001Z</time></trkpt><trkpt lat="45.752349978117046" lon="9.302627571204733"><ele>323.75</ele><time>2026-05-03T10:32:35.001Z</time></trkpt><trkpt lat="45.752314436284486" lon="9.302818510816556"><ele>325.0</ele><time>2026-05-03T10:32:36.001Z</time></trkpt><trkpt lat="45.752304438432525" lon="9.303017986216988"><ele>326.0</ele><time>2026-05-03T10:32:37.001Z</time></trkpt><trkpt lat="45.752307004566916" lon="9.303220816184412"><ele>327.0</ele><time>2026-05-03T10:32:38.001Z</time></trkpt><trkpt lat="45.75233029568326" lon="9.30342073865531"><ele>328.0</ele><time>2026-05-03T10:32:39.001Z</time></trkpt><trkpt lat="45.752379589682185" lon="9.303615391197647"><ele>329.0</ele><time>2026-05-03T10:32:40.001Z</time></trkpt><trkpt lat="45.75245478396176" lon="9.303795725435434"><ele>329.33333333333337</ele><time>2026-05-03T10:32:41.001Z</time></trkpt><trkpt lat="45.752550712583435" lon="9.303967725777527"><ele>329.6666666666667</ele><time>2026-05-03T10:32:42.001Z</time></trkpt><trkpt lat="45.75265879391941" lon="9.304123578940267"><ele>330.0</ele><time>2026-05-03T10:32:43.001Z</time></trkpt><trkpt lat="45.75278269233213" lon="9.304263716821646"><ele>332.0</ele><time>2026-05-03T10:32:44.001Z</time></trkpt><trkpt lat="45.75291787515983" lon="9.304384227583757"><ele>334.0</ele><time>2026-05-03T10:32:45.001Z</time></trkpt><trkpt lat="45.7530560434992" lon="9.304515481935276"><ele>336.0</ele><time>2026-05-03T10:32:46.001Z</time></trkpt><trkpt lat="45.75318606601247" lon="9.304644983742989"><ele>335.3333333333333</ele><time>2026-05-03T10:32:47.002Z</time></trkpt><trkpt lat="45.75331196285392" lon="9.304778478789363"><ele>334.66666666666663</ele><time>2026-05-03T10:32:48.002Z</time></trkpt><trkpt lat="45.75344067966487" lon="9.304927598555285"><ele>334.0</ele><time>2026-05-03T10:32:49.002Z</time></trkpt><trkpt lat="45.75356649312727" lon="9.305067929624963"><ele>334.0</ele><time>2026-05-03T10:32:50.002Z</time></trkpt><trkpt lat="45.753690408142035" lon="9.305199240901004"><ele>334.0</ele><time>2026-05-03T10:32:51.002Z</time></trkpt><trkpt lat="45.753818157927675" lon="9.305323596493523"><ele>334.0</ele><time>2026-05-03T10:32:52.002Z</time></trkpt><trkpt lat="45.75394537420995" lon="9.305449319251288"><ele>334.0</ele><time>2026-05-03T10:32:53.002Z</time></trkpt><trkpt lat="45.75406242945716" lon="9.305564371817578"><ele>334.0</ele><time>2026-05-03T10:32:54.002Z</time></trkpt><trkpt lat="45.754186964807566" lon="9.305680276983024"><ele>334.0</ele><time>2026-05-03T10:32:55.002Z</time></trkpt><trkpt lat="45.75430971548976" lon="9.305796099919858"><ele>334.0</ele><time>2026-05-03T10:32:56.002Z</time></trkpt><trkpt lat="45.75442076005511" lon="9.305906561335018"><ele>334.25</ele><time>2026-05-03T10:32:57.002Z</time></trkpt><trkpt lat="45.7545389069386" lon="9.30601960877192"><ele>334.5</ele><time>2026-05-03T10:32:58.002Z</time></trkpt><trkpt lat="45.75464695484187" lon="9.306133440521963"><ele>334.75</ele><time>2026-05-03T10:32:59.002Z</time></trkpt><trkpt lat="45.75475549088855" lon="9.306251401575315"><ele>335.0</ele><time>2026-05-03T10:33:00.002Z</time></trkpt><trkpt lat="45.75485440942938" lon="9.306377075143532"><ele>335.75</ele><time>2026-05-03T10:33:01.002Z</time></trkpt><trkpt lat="45.75494899035693" lon="9.306511641206319"><ele>336.5</ele><time>2026-05-03T10:33:02.002Z</time></trkpt><trkpt lat="45.75503381266979" lon="9.306657149398578"><ele>337.25</ele><time>2026-05-03T10:33:03.002Z</time></trkpt><trkpt lat="45.755107769532316" lon="9.306814934548791"><ele>338.0</ele><time>2026-05-03T10:33:04.002Z</time></trkpt><trkpt lat="45.75516854611579" lon="9.30698365417385"><ele>338.75</ele><time>2026-05-03T10:33:05.002Z</time></trkpt><trkpt lat="45.75521918596572" lon="9.307161336836705"><ele>339.5</ele><time>2026-05-03T10:33:05.999Z</time></trkpt><trkpt lat="45.755256804374845" lon="9.30733844171844"><ele>340.25</ele><time>2026-05-03T10:33:06.999Z</time></trkpt><trkpt lat="45.75528111859705" lon="9.30752460554766"><ele>341.0</ele><time>2026-05-03T10:33:07.999Z</time></trkpt><trkpt lat="45.755295427839485" lon="9.307720495195472"><ele>341.0</ele><time>2026-05-03T10:33:08.999Z</time></trkpt><trkpt lat="45.755304106526054" lon="9.307920705717594"><ele>341.0</ele><time>2026-05-03T10:33:09.999Z</time></trkpt><trkpt lat="45.75530949701262" lon="9.308124786119027"><ele>341.0</ele><time>2026-05-03T10:33:10.999Z</time></trkpt><trkpt lat="45.75530497595877" lon="9.308334250181101"><ele>341.0</ele><time>2026-05-03T10:33:11.999Z</time></trkpt><trkpt lat="45.75528944373706" lon="9.308559207141515"><ele>341.6666666666667</ele><time>2026-05-03T10:33:12.999Z</time></trkpt><trkpt lat="45.75524624408911" lon="9.308787430556542"><ele>342.3333333333333</ele><time>2026-05-03T10:33:13.999Z</time></trkpt><trkpt lat="45.75520113298949" lon="9.309007787958048"><ele>343.0</ele><time>2026-05-03T10:33:14.999Z</time></trkpt><trkpt lat="45.75515029138086" lon="9.309230107819946"><ele>345.0</ele><time>2026-05-03T10:33:15.999Z</time></trkpt><trkpt lat="45.755096394162294" lon="9.309445674281351"><ele>347.0</ele><time>2026-05-03T10:33:16.999Z</time></trkpt><trkpt lat="45.75504646907318" lon="9.309657291476388"><ele>349.0</ele><time>2026-05-03T10:33:17.999Z</time></trkpt><trkpt lat="45.75499683834871" lon="9.309853079958716"><ele>349.0</ele><time>2026-05-03T10:33:18.999Z</time></trkpt><trkpt lat="45.754944045238595" lon="9.31005348489646"><ele>349.0</ele><time>2026-05-03T10:33:19.999Z</time></trkpt><trkpt lat="45.75489287044569" lon="9.310241660949606"><ele>349.0</ele><time>2026-05-03T10:33:20.999Z</time></trkpt><trkpt lat="45.75483842605403" lon="9.310430181487485"><ele>349.0</ele><time>2026-05-03T10:33:21.999Z</time></trkpt><trkpt lat="45.754791806637286" lon="9.310618675843326"><ele>349.0</ele><time>2026-05-03T10:33:22.999Z</time></trkpt><trkpt lat="45.7547389295656" lon="9.310807538445333"><ele>349.0</ele><time>2026-05-03T10:33:23.999Z</time></trkpt><trkpt lat="45.754686389971596" lon="9.31099600155527"><ele>349.0</ele><time>2026-05-03T10:33:24.999Z</time></trkpt><trkpt lat="45.75463318996593" lon="9.311191309631617"><ele>349.0</ele><time>2026-05-03T10:33:25.999Z</time></trkpt><trkpt lat="45.754576082562636" lon="9.311391620032987"><ele>348.66666666666663</ele><time>2026-05-03T10:33:26.999Z</time></trkpt><trkpt lat="45.75451859425186" lon="9.311593779597056"><ele>348.3333333333333</ele><time>2026-05-03T10:33:27.999Z</time></trkpt><trkpt lat="45.75446025070763" lon="9.311798962195995"><ele>348.0</ele><time>2026-05-03T10:33:28.999Z</time></trkpt><trkpt lat="45.75440140536862" lon="9.312014524639329"><ele>347.3333333333333</ele><time>2026-05-03T10:33:30Z</time></trkpt><trkpt lat="45.75434500746113" lon="9.312225904576797"><ele>346.66666666666663</ele><time>2026-05-03T10:33:31Z</time></trkpt><trkpt lat="45.754287898628256" lon="9.312440708316759"><ele>346.0</ele><time>2026-05-03T10:33:32Z</time></trkpt><trkpt lat="45.754233502056216" lon="9.312654119596157"><ele>346.0</ele><time>2026-05-03T10:33:33Z</time></trkpt><trkpt lat="45.754179807708844" lon="9.312870210910988"><ele>346.0</ele><time>2026-05-03T10:33:34Z</time></trkpt><trkpt lat="45.75412768329305" lon="9.313087971024805"><ele>346.0</ele><time>2026-05-03T10:33:35Z</time></trkpt><trkpt lat="45.75407448172994" lon="9.31330175286761"><ele>346.0</ele><time>2026-05-03T10:33:36Z</time></trkpt><trkpt lat="45.7540170093928" lon="9.313517190545749"><ele>346.0</ele><time>2026-05-03T10:33:37Z</time></trkpt><trkpt lat="45.753960420198446" lon="9.313727217646356"><ele>346.0</ele><time>2026-05-03T10:33:38Z</time></trkpt><trkpt lat="45.75390258003274" lon="9.31394117621099"><ele>345.66666666666663</ele><time>2026-05-03T10:33:39Z</time></trkpt><trkpt lat="45.75384590452439" lon="9.314156747729788"><ele>345.3333333333333</ele><time>2026-05-03T10:33:40Z</time></trkpt><trkpt lat="45.75378632335457" lon="9.314377343666784"><ele>345.0</ele><time>2026-05-03T10:33:41Z</time></trkpt><trkpt lat="45.75373298183608" lon="9.314589621986297"><ele>345.0</ele><time>2026-05-03T10:33:42Z</time></trkpt><trkpt lat="45.75367252810842" lon="9.31480741692276"><ele>345.0</ele><time>2026-05-03T10:33:43Z</time></trkpt><trkpt lat="45.75361021866754" lon="9.315021699047412"><ele>345.0</ele><time>2026-05-03T10:33:44Z</time></trkpt><trkpt lat="45.75355290068125" lon="9.315234107766356"><ele>345.0</ele><time>2026-05-03T10:33:45Z</time></trkpt><trkpt lat="45.753496312308144" lon="9.315444003555719"><ele>345.0</ele><time>2026-05-03T10:33:46Z</time></trkpt><trkpt lat="45.75344237536718" lon="9.315647036583991"><ele>345.0</ele><time>2026-05-03T10:33:47Z</time></trkpt><trkpt lat="45.75339065213516" lon="9.315843010884354"><ele>345.0</ele><time>2026-05-03T10:33:48Z</time></trkpt><trkpt lat="45.75333939285667" lon="9.316039824690385"><ele>345.0</ele><time>2026-05-03T10:33:49Z</time></trkpt><trkpt lat="45.75328725985496" lon="9.316232844916799"><ele>345.0</ele><time>2026-05-03T10:33:50Z</time></trkpt><trkpt lat="45.75323851921565" lon="9.316432855033087"><ele>345.0</ele><time>2026-05-03T10:33:51Z</time></trkpt><trkpt lat="45.75318726000637" lon="9.316626910399094"><ele>345.25</ele><time>2026-05-03T10:33:52Z</time></trkpt><trkpt lat="45.75313626681509" lon="9.316818652662418"><ele>345.5</ele><time>2026-05-03T10:33:53Z</time></trkpt><trkpt lat="45.75308942400538" lon="9.317006069293356"><ele>345.75</ele><time>2026-05-03T10:33:54Z</time></trkpt><trkpt lat="45.75303810525526" lon="9.317199877291243"><ele>346.0</ele><time>2026-05-03T10:33:55Z</time></trkpt><trkpt lat="45.75298808564357" lon="9.317387026569838"><ele>346.0</ele><time>2026-05-03T10:33:56Z</time></trkpt><trkpt lat="45.75293844945995" lon="9.317574621632382"><ele>346.0</ele><time>2026-05-03T10:33:57Z</time></trkpt><trkpt lat="45.75288899335878" lon="9.317758079970403"><ele>346.0</ele><time>2026-05-03T10:33:58Z</time></trkpt><trkpt lat="45.75284351126866" lon="9.317933613014567"><ele>346.0</ele><time>2026-05-03T10:33:59Z</time></trkpt><trkpt lat="45.752801536311615" lon="9.318100297832412"><ele>345.75</ele><time>2026-05-03T10:34:00Z</time></trkpt><trkpt lat="45.75275726920963" lon="9.318261587802375"><ele>345.5</ele><time>2026-05-03T10:34:01Z</time></trkpt><trkpt lat="45.75271480311016" lon="9.318418298296882"><ele>345.25</ele><time>2026-05-03T10:34:02Z</time></trkpt><trkpt lat="45.75267367805614" lon="9.31857103450749"><ele>345.0</ele><time>2026-05-03T10:34:03Z</time></trkpt><trkpt lat="45.75263520388846" lon="9.318715329250065"><ele>344.6</ele><time>2026-05-03T10:34:04.001Z</time></trkpt><trkpt lat="45.752594855036286" lon="9.318848128174821"><ele>344.2</ele><time>2026-05-03T10:34:05.001Z</time></trkpt><trkpt lat="45.75255110753838" lon="9.318981303770551"><ele>343.79999999999995</ele><time>2026-05-03T10:34:06.001Z</time></trkpt><trkpt lat="45.75250092007457" lon="9.31910617444594"><ele>343.4</ele><time>2026-05-03T10:34:07.001Z</time></trkpt><trkpt lat="45.75245564276229" lon="9.319223721296135"><ele>343.0</ele><time>2026-05-03T10:34:08.001Z</time></trkpt><trkpt lat="45.75240347369827" lon="9.319329546081672"><ele>343.66666666666663</ele><time>2026-05-03T10:34:09.001Z</time></trkpt><trkpt lat="45.752334863649274" lon="9.319440573579854"><ele>344.3333333333333</ele><time>2026-05-03T10:34:10.001Z</time></trkpt><trkpt lat="45.75226997779692" lon="9.31952675125514"><ele>345.0</ele><time>2026-05-03T10:34:11.001Z</time></trkpt><trkpt lat="45.75220997819912" lon="9.319592207235617"><ele>345.6666666666667</ele><time>2026-05-03T10:34:12.001Z</time></trkpt><trkpt lat="45.75215529228972" lon="9.319661773268308"><ele>346.33333333333337</ele><time>2026-05-03T10:34:13.001Z</time></trkpt><trkpt lat="45.75212569874059" lon="9.319753723107391"><ele>347.0</ele><time>2026-05-03T10:34:14.001Z</time></trkpt><trkpt lat="45.75212040098926" lon="9.319862749721329"><ele>347.0</ele><time>2026-05-03T10:34:15.001Z</time></trkpt><trkpt lat="45.75213905511858" lon="9.319992851543864"><ele>347.0</ele><time>2026-05-03T10:34:16.001Z</time></trkpt><trkpt lat="45.75216559106715" lon="9.3201506487599"><ele>347.0</ele><time>2026-05-03T10:34:17.001Z</time></trkpt><trkpt lat="45.75217277586602" lon="9.320324065905265"><ele>347.0</ele><time>2026-05-03T10:34:18.001Z</time></trkpt><trkpt lat="45.75215083838331" lon="9.32050016889867"><ele>347.5</ele><time>2026-05-03T10:34:19.001Z</time></trkpt><trkpt lat="45.752113911308285" lon="9.320678618725266"><ele>348.0</ele><time>2026-05-03T10:34:20.001Z</time></trkpt><trkpt lat="45.7520717904903" lon="9.320870208685545"><ele>348.5</ele><time>2026-05-03T10:34:21.001Z</time></trkpt><trkpt lat="45.752027971963095" lon="9.321052411959712"><ele>349.0</ele><time>2026-05-03T10:34:22.001Z</time></trkpt><trkpt lat="45.75198130120334" lon="9.321212959009113"><ele>349.0</ele><time>2026-05-03T10:34:23.001Z</time></trkpt><trkpt lat="45.75194140879111" lon="9.321363175519808"><ele>349.0</ele><time>2026-05-03T10:34:24.001Z</time></trkpt><trkpt lat="45.75189697710312" lon="9.32151859525251"><ele>349.0</ele><time>2026-05-03T10:34:25.001Z</time></trkpt><trkpt lat="45.75185236151829" lon="9.32167820928136"><ele>349.0</ele><time>2026-05-03T10:34:26.001Z</time></trkpt><trkpt lat="45.75180574406672" lon="9.321838737922272"><ele>348.5</ele><time>2026-05-03T10:34:27.001Z</time></trkpt><trkpt lat="45.75175598456403" lon="9.321990848806031"><ele>348.0</ele><time>2026-05-03T10:34:28.001Z</time></trkpt><trkpt lat="45.751700750905016" lon="9.322142826619288"><ele>347.5</ele><time>2026-05-03T10:34:29.001Z</time></trkpt><trkpt lat="45.75164887470416" lon="9.322290308886704"><ele>347.0</ele><time>2026-05-03T10:34:30.001Z</time></trkpt><trkpt lat="45.75159827201304" lon="9.322446660249243"><ele>347.0</ele><time>2026-05-03T10:34:31.001Z</time></trkpt><trkpt lat="45.751555544559956" lon="9.322601768085462"><ele>347.0</ele><time>2026-05-03T10:34:32.001Z</time></trkpt><trkpt lat="45.751511032450885" lon="9.3227644078115"><ele>347.0</ele><time>2026-05-03T10:34:33.001Z</time></trkpt><trkpt lat="45.751466290311114" lon="9.322930679838986"><ele>347.0</ele><time>2026-05-03T10:34:34.001Z</time></trkpt><trkpt lat="45.75142044771045" lon="9.323088770383707"><ele>347.0</ele><time>2026-05-03T10:34:35.001Z</time></trkpt><trkpt lat="45.75137796268665" lon="9.32325301516467"><ele>347.0</ele><time>2026-05-03T10:34:36.001Z</time></trkpt><trkpt lat="45.75133697737071" lon="9.323417441019261"><ele>347.0</ele><time>2026-05-03T10:34:37.001Z</time></trkpt><trkpt lat="45.75129483206027" lon="9.323580014469874"><ele>347.0</ele><time>2026-05-03T10:34:38.001Z</time></trkpt><trkpt lat="45.751255658102025" lon="9.323741461499935"><ele>347.0</ele><time>2026-05-03T10:34:39.001Z</time></trkpt><trkpt lat="45.75121825392561" lon="9.323915933489248"><ele>347.0</ele><time>2026-05-03T10:34:40.001Z</time></trkpt><trkpt lat="45.75118586212066" lon="9.324088816699408"><ele>347.0</ele><time>2026-05-03T10:34:41.001Z</time></trkpt><trkpt lat="45.75114837879002" lon="9.324269308922714"><ele>347.0</ele><time>2026-05-03T10:34:42.001Z</time></trkpt><trkpt lat="45.75110529411216" lon="9.324453240438682"><ele>347.0</ele><time>2026-05-03T10:34:43.001Z</time></trkpt><trkpt lat="45.7510590100655" lon="9.32464509666149"><ele>347.0</ele><time>2026-05-03T10:34:44.001Z</time></trkpt><trkpt lat="45.75101025185551" lon="9.324828943698476"><ele>347.0</ele><time>2026-05-03T10:34:45.001Z</time></trkpt><trkpt lat="45.75096078139083" lon="9.325025829838843"><ele>347.0</ele><time>2026-05-03T10:34:46.002Z</time></trkpt><trkpt lat="45.75091166649776" lon="9.325224224204273"><ele>347.6666666666667</ele><time>2026-05-03T10:34:47.002Z</time></trkpt><trkpt lat="45.75085964730024" lon="9.325435893232797"><ele>348.3333333333333</ele><time>2026-05-03T10:34:48.002Z</time></trkpt><trkpt lat="45.750802139757205" lon="9.325664181639931"><ele>349.0</ele><time>2026-05-03T10:34:49.002Z</time></trkpt><trkpt lat="45.75073670819742" lon="9.325908786190041"><ele>349.0</ele><time>2026-05-03T10:34:50.002Z</time></trkpt><trkpt lat="45.75066767251977" lon="9.326163674225695"><ele>349.0</ele><time>2026-05-03T10:34:51.002Z</time></trkpt><trkpt lat="45.75060338342385" lon="9.32640249048323"><ele>349.0</ele><time>2026-05-03T10:34:52.002Z</time></trkpt><trkpt lat="45.75054977243365" lon="9.326611278016161"><ele>349.0</ele><time>2026-05-03T10:34:53.002Z</time></trkpt><trkpt lat="45.75050260395888" lon="9.326796442161573"><ele>349.0</ele><time>2026-05-03T10:34:54.002Z</time></trkpt><trkpt lat="45.75045705508371" lon="9.326971503821309"><ele>349.0</ele><time>2026-05-03T10:34:55.002Z</time></trkpt><trkpt lat="45.75041149036068" lon="9.327139934326572"><ele>349.0</ele><time>2026-05-03T10:34:56.002Z</time></trkpt><trkpt lat="45.75036553407923" lon="9.327297449669619"><ele>349.6</ele><time>2026-05-03T10:34:57.002Z</time></trkpt><trkpt lat="45.75032905685761" lon="9.327451384169512"><ele>350.2</ele><time>2026-05-03T10:34:58.002Z</time></trkpt><trkpt lat="45.750288967634006" lon="9.327601686946855"><ele>350.8</ele><time>2026-05-03T10:34:59.002Z</time></trkpt><trkpt lat="45.75025072075307" lon="9.327743846660955"><ele>351.40000000000003</ele><time>2026-05-03T10:35:00.002Z</time></trkpt><trkpt lat="45.75020856423124" lon="9.32789113721671"><ele>352.0</ele><time>2026-05-03T10:35:01.002Z</time></trkpt><trkpt lat="45.75017039639246" lon="9.32803396341388"><ele>352.75</ele><time>2026-05-03T10:35:02.002Z</time></trkpt><trkpt lat="45.750130940959366" lon="9.328185112072966"><ele>353.5</ele><time>2026-05-03T10:35:03.002Z</time></trkpt><trkpt lat="45.75009004509181" lon="9.328335406909535"><ele>354.25</ele><time>2026-05-03T10:35:04.002Z</time></trkpt><trkpt lat="45.750051085592055" lon="9.328486365851138"><ele>355.0</ele><time>2026-05-03T10:35:05.002Z</time></trkpt><trkpt lat="45.750009181652665" lon="9.328637911981394"><ele>355.0</ele><time>2026-05-03T10:35:06.002Z</time></trkpt><trkpt lat="45.74996736394272" lon="9.328790916450124"><ele>355.0</ele><time>2026-05-03T10:35:07.002Z</time></trkpt><trkpt lat="45.749925062336445" lon="9.328948963561123"><ele>355.0</ele><time>2026-05-03T10:35:08.002Z</time></trkpt><trkpt lat="45.74988318727042" lon="9.32911493204112"><ele>355.0</ele><time>2026-05-03T10:35:09.002Z</time></trkpt><trkpt lat="45.74984567766848" lon="9.32928849805426"><ele>355.0</ele><time>2026-05-03T10:35:10.002Z</time></trkpt><trkpt lat="45.749813053903374" lon="9.329470506799986"><ele>355.0</ele><time>2026-05-03T10:35:11.002Z</time></trkpt><trkpt lat="45.74978551689025" lon="9.329655655295525"><ele>355.0</ele><time>2026-05-03T10:35:11.999Z</time></trkpt><trkpt lat="45.74976270476102" lon="9.329847881903811"><ele>355.0</ele><time>2026-05-03T10:35:12.999Z</time></trkpt><trkpt lat="45.74974558188239" lon="9.330031939072386"><ele>355.0</ele><time>2026-05-03T10:35:13.999Z</time></trkpt><trkpt lat="45.7497273421673" lon="9.330217178874806"><ele>355.0</ele><time>2026-05-03T10:35:14.999Z</time></trkpt><trkpt lat="45.7497119659617" lon="9.330394833283366"><ele>355.0</ele><time>2026-05-03T10:35:15.999Z</time></trkpt><trkpt lat="45.74969972464919" lon="9.330570855333375"><ele>355.0</ele><time>2026-05-03T10:35:16.999Z</time></trkpt><trkpt lat="45.74969107540884" lon="9.330745904017983"><ele>355.0</ele><time>2026-05-03T10:35:17.999Z</time></trkpt><trkpt lat="45.74968137472212" lon="9.330917921934319"><ele>355.0</ele><time>2026-05-03T10:35:18.999Z</time></trkpt><trkpt lat="45.74966832404762" lon="9.331087593469274"><ele>355.0</ele><time>2026-05-03T10:35:19.999Z</time></trkpt><trkpt lat="45.749656160935515" lon="9.33125687234125"><ele>355.0</ele><time>2026-05-03T10:35:20.999Z</time></trkpt><trkpt lat="45.7496471308199" lon="9.331416775804566"><ele>354.8</ele><time>2026-05-03T10:35:21.999Z</time></trkpt><trkpt lat="45.749638047324424" lon="9.331575201200064"><ele>354.6</ele><time>2026-05-03T10:35:22.999Z</time></trkpt><trkpt lat="45.749629832940066" lon="9.331729094568594"><ele>354.4</ele><time>2026-05-03T10:35:23.999Z</time></trkpt><trkpt lat="45.74962325677425" lon="9.331876748282985"><ele>354.2</ele><time>2026-05-03T10:35:24.999Z</time></trkpt><trkpt lat="45.74961606849597" lon="9.33200574633854"><ele>354.0</ele><time>2026-05-03T10:35:25.999Z</time></trkpt><trkpt lat="45.74961095957106" lon="9.332125145202792"><ele>354.14285714285717</ele><time>2026-05-03T10:35:26.999Z</time></trkpt><trkpt lat="45.749606046044775" lon="9.332238713948074"><ele>354.2857142857143</ele><time>2026-05-03T10:35:28Z</time></trkpt><trkpt lat="45.74960114505419" lon="9.332348692290415"><ele>354.42857142857144</ele><time>2026-05-03T10:35:29Z</time></trkpt><trkpt lat="45.74959849195496" lon="9.332449350208783"><ele>354.57142857142856</ele><time>2026-05-03T10:35:30Z</time></trkpt><trkpt lat="45.749596562721074" lon="9.332540224434329"><ele>354.7142857142857</ele><time>2026-05-03T10:35:31Z</time></trkpt><trkpt lat="45.7495905306389" lon="9.332630442266796"><ele>354.85714285714283</ele><time>2026-05-03T10:35:32Z</time></trkpt><trkpt lat="45.74958302423049" lon="9.33272009663645"><ele>355.0</ele><time>2026-05-03T10:35:33Z</time></trkpt><trkpt lat="45.749575444320726" lon="9.33281746758479"><ele>355.0</ele><time>2026-05-03T10:35:34Z</time></trkpt><trkpt lat="45.74955965764186" lon="9.332913793783234"><ele>355.0</ele><time>2026-05-03T10:35:35Z</time></trkpt><trkpt lat="45.74953907765019" lon="9.333017293576678"><ele>355.0</ele><time>2026-05-03T10:35:36Z</time></trkpt><trkpt lat="45.74951008726831" lon="9.333123649059338"><ele>355.0</ele><time>2026-05-03T10:35:37Z</time></trkpt><trkpt lat="45.749476548686644" lon="9.333225889224908"><ele>355.0</ele><time>2026-05-03T10:35:38Z</time></trkpt><trkpt lat="45.749463594280265" lon="9.333323877762718"><ele>355.0</ele><time>2026-05-03T10:35:39Z</time></trkpt><trkpt lat="45.749543321278196" lon="9.333466130684318"><ele>354.8</ele><time>2026-05-03T10:35:41Z</time></trkpt><trkpt lat="45.74961456635413" lon="9.333474295689118"><ele>354.6</ele><time>2026-05-03T10:35:42Z</time></trkpt><trkpt lat="45.74968225548833" lon="9.333428348782487"><ele>354.4</ele><time>2026-05-03T10:35:43Z</time></trkpt><trkpt lat="45.749741561909005" lon="9.333336561328291"><ele>354.2</ele><time>2026-05-03T10:35:44Z</time></trkpt><trkpt lat="45.749797122389296" lon="9.33321603484075"><ele>354.0</ele><time>2026-05-03T10:35:45Z</time></trkpt><trkpt lat="45.74987732727406" lon="9.33307618151255"><ele>354.3333333333333</ele><time>2026-05-03T10:35:46Z</time></trkpt><trkpt lat="45.74998544709692" lon="9.332905485122685"><ele>354.66666666666663</ele><time>2026-05-03T10:35:47Z</time></trkpt><trkpt lat="45.75008370167403" lon="9.332701946007319"><ele>355.0</ele><time>2026-05-03T10:35:48Z</time></trkpt><trkpt lat="45.75017587408232" lon="9.332462096980118"><ele>355.25</ele><time>2026-05-03T10:35:49Z</time></trkpt><trkpt lat="45.750264641860426" lon="9.332260827811233"><ele>355.5</ele><time>2026-05-03T10:35:50Z</time></trkpt><trkpt lat="45.750370500829156" lon="9.332138863363772"><ele>355.75</ele><time>2026-05-03T10:35:51Z</time></trkpt><trkpt lat="45.7504846388559" lon="9.332038925342314"><ele>356.0</ele><time>2026-05-03T10:35:52Z</time></trkpt><trkpt lat="45.75063747061571" lon="9.331939275856351"><ele>356.0</ele><time>2026-05-03T10:35:53Z</time></trkpt><trkpt lat="45.75081636804802" lon="9.331815879376604"><ele>356.0</ele><time>2026-05-03T10:35:54Z</time></trkpt><trkpt lat="45.7509915340422" lon="9.331719602108445"><ele>356.0</ele><time>2026-05-03T10:35:55Z</time></trkpt><trkpt lat="45.751129127841" lon="9.33162866018885"><ele>353.25</ele><time>2026-05-03T10:35:56Z</time></trkpt><trkpt lat="45.751238887926476" lon="9.331543292818335"><ele>350.5</ele><time>2026-05-03T10:35:57Z</time></trkpt><trkpt lat="45.751323829508" lon="9.331425777740613"><ele>347.75</ele><time>2026-05-03T10:35:58Z</time></trkpt><trkpt lat="45.751397249236035" lon="9.331261621682565"><ele>345.0</ele><time>2026-05-03T10:35:59Z</time></trkpt><trkpt lat="45.75143532469417" lon="9.331042597178813"><ele>345.0</ele><time>2026-05-03T10:36:00.001Z</time></trkpt><trkpt lat="45.75142894678559" lon="9.330822111802439"><ele>345.0</ele><time>2026-05-03T10:36:01.001Z</time></trkpt><trkpt lat="45.75140886745699" lon="9.330656032592325"><ele>345.0</ele><time>2026-05-03T10:36:02.001Z</time></trkpt><trkpt lat="45.75140874313273" lon="9.330534742086117"><ele>345.0</ele><time>2026-05-03T10:36:03.001Z</time></trkpt><trkpt lat="45.751436275754166" lon="9.33042931850869"><ele>345.0</ele><time>2026-05-03T10:36:04.001Z</time></trkpt><trkpt lat="45.75148699935976" lon="9.330357229348609"><ele>345.0</ele><time>2026-05-03T10:36:05.001Z</time></trkpt><trkpt lat="45.75155113974121" lon="9.330316362012951"><ele>345.0</ele><time>2026-05-03T10:36:06.001Z</time></trkpt><trkpt lat="45.751636814876605" lon="9.330328697840647"><ele>345.0</ele><time>2026-05-03T10:36:07.001Z</time></trkpt><trkpt lat="45.75169362294488" lon="9.330384545622305"><ele>345.0</ele><time>2026-05-03T10:36:08.001Z</time></trkpt><trkpt lat="45.7517711709299" lon="9.330430062780472"><ele>345.0</ele><time>2026-05-03T10:36:09.001Z</time></trkpt><trkpt lat="45.75177843082424" lon="9.330659479023705"><ele>345.0</ele><time>2026-05-03T10:36:10.001Z</time></trkpt><trkpt lat="45.751788113247876" lon="9.33089537428055"><ele>345.0</ele><time>2026-05-03T10:36:11.001Z</time></trkpt><trkpt lat="45.7518120180886" lon="9.331154179091254"><ele>345.0</ele><time>2026-05-03T10:36:12.001Z</time></trkpt><trkpt lat="45.751873463811854" lon="9.33141333878733"><ele>340.3333333333333</ele><time>2026-05-03T10:36:13.001Z</time></trkpt><trkpt lat="45.75193939266816" lon="9.331693973668369"><ele>335.66666666666663</ele><time>2026-05-03T10:36:14.001Z</time></trkpt><trkpt lat="45.75202269619856" lon="9.331945311928713"><ele>331.0</ele><time>2026-05-03T10:36:15.001Z</time></trkpt><trkpt lat="45.752121104661065" lon="9.33211088771702"><ele>331.3333333333333</ele><time>2026-05-03T10:36:16.001Z</time></trkpt><trkpt lat="45.75224669674594" lon="9.332276071683005"><ele>331.6666666666667</ele><time>2026-05-03T10:36:17.001Z</time></trkpt><trkpt lat="45.75238690255984" lon="9.332454063769584"><ele>332.0</ele><time>2026-05-03T10:36:18.001Z</time></trkpt><trkpt lat="45.7525455135113" lon="9.33260539215894"><ele>331.6666666666667</ele><time>2026-05-03T10:36:19.001Z</time></trkpt><trkpt lat="45.752710200637935" lon="9.332753030448663"><ele>331.3333333333333</ele><time>2026-05-03T10:36:20.001Z</time></trkpt><trkpt lat="45.75287027604205" lon="9.332894719342702"><ele>331.0</ele><time>2026-05-03T10:36:21.001Z</time></trkpt><trkpt lat="45.753016845151656" lon="9.333031069375831"><ele>331.3333333333333</ele><time>2026-05-03T10:36:22.001Z</time></trkpt><trkpt lat="45.753157034350394" lon="9.333161419211365"><ele>331.6666666666667</ele><time>2026-05-03T10:36:23.001Z</time></trkpt><trkpt lat="45.75329587492093" lon="9.333288931046358"><ele>332.0</ele><time>2026-05-03T10:36:24.001Z</time></trkpt><trkpt lat="45.75343236796011" lon="9.333416873052434"><ele>328.33333333333337</ele><time>2026-05-03T10:36:25.001Z</time></trkpt><trkpt lat="45.75356037521997" lon="9.3335574472814"><ele>324.6666666666667</ele><time>2026-05-03T10:36:26.001Z</time></trkpt><trkpt lat="45.753673555423234" lon="9.333708981343007"><ele>321.0</ele><time>2026-05-03T10:36:27.001Z</time></trkpt><trkpt lat="45.753785213379864" lon="9.333901298580296"><ele>321.0</ele><time>2026-05-03T10:36:28.001Z</time></trkpt><trkpt lat="45.75388978926301" lon="9.33407507606507"><ele>321.0</ele><time>2026-05-03T10:36:29.001Z</time></trkpt><trkpt lat="45.75398546082488" lon="9.334267068220313"><ele>321.0</ele><time>2026-05-03T10:36:30.001Z</time></trkpt><trkpt lat="45.75408170015922" lon="9.334456435401862"><ele>321.0</ele><time>2026-05-03T10:36:31.001Z</time></trkpt><trkpt lat="45.75417932451733" lon="9.334648639330425"><ele>321.0</ele><time>2026-05-03T10:36:32.001Z</time></trkpt><trkpt lat="45.754278637913295" lon="9.334837028728037"><ele>321.0</ele><time>2026-05-03T10:36:33.001Z</time></trkpt><trkpt lat="45.75437540419623" lon="9.335028841218662"><ele>317.3333333333333</ele><time>2026-05-03T10:36:34.001Z</time></trkpt><trkpt lat="45.75446618620043" lon="9.33521137477007"><ele>313.66666666666663</ele><time>2026-05-03T10:36:35.001Z</time></trkpt><trkpt lat="45.75455530635699" lon="9.335387229934126"><ele>310.0</ele><time>2026-05-03T10:36:36.001Z</time></trkpt><trkpt lat="45.75464760489595" lon="9.335564211099072"><ele>310.0</ele><time>2026-05-03T10:36:37.001Z</time></trkpt><trkpt lat="45.754742483300056" lon="9.335730159363557"><ele>310.0</ele><time>2026-05-03T10:36:38.001Z</time></trkpt><trkpt lat="45.7548403729183" lon="9.335894297726249"><ele>310.0</ele><time>2026-05-03T10:36:39.002Z</time></trkpt><trkpt lat="45.75495081518262" lon="9.336042894554875"><ele>310.0</ele><time>2026-05-03T10:36:40.002Z</time></trkpt><trkpt lat="45.75507507603418" lon="9.336173336673705"><ele>310.0</ele><time>2026-05-03T10:36:41.002Z</time></trkpt><trkpt lat="45.75521137359452" lon="9.336284088249826"><ele>310.0</ele><time>2026-05-03T10:36:42.002Z</time></trkpt><trkpt lat="45.755352298864956" lon="9.336384557887563"><ele>305.66666666666663</ele><time>2026-05-03T10:36:43.002Z</time></trkpt><trkpt lat="45.75550748387496" lon="9.33646682178192"><ele>301.3333333333333</ele><time>2026-05-03T10:36:44.002Z</time></trkpt><trkpt lat="45.7556667502069" lon="9.336531388105833"><ele>297.0</ele><time>2026-05-03T10:36:45.002Z</time></trkpt><trkpt lat="45.7558273909828" lon="9.336594465324318"><ele>297.0</ele><time>2026-05-03T10:36:46.002Z</time></trkpt><trkpt lat="45.75599115902886" lon="9.33666514416604"><ele>297.0</ele><time>2026-05-03T10:36:47.002Z</time></trkpt><trkpt lat="45.756154347008874" lon="9.336732379311997"><ele>297.0</ele><time>2026-05-03T10:36:48.002Z</time></trkpt><trkpt lat="45.756317569787896" lon="9.336803226879947"><ele>296.0</ele><time>2026-05-03T10:36:49.002Z</time></trkpt><trkpt lat="45.756482476597476" lon="9.336892041154579"><ele>295.0</ele><time>2026-05-03T10:36:50.002Z</time></trkpt><trkpt lat="45.75665840145041" lon="9.33696672764503"><ele>294.0</ele><time>2026-05-03T10:36:51.002Z</time></trkpt><trkpt lat="45.756829129370594" lon="9.337040979022047"><ele>293.0</ele><time>2026-05-03T10:36:52.002Z</time></trkpt><trkpt lat="45.756994858121175" lon="9.337114886476586"><ele>292.0</ele><time>2026-05-03T10:36:53.002Z</time></trkpt><trkpt lat="45.757153819102925" lon="9.337183911800155"><ele>291.0</ele><time>2026-05-03T10:36:54.002Z</time></trkpt><trkpt lat="45.757306093735124" lon="9.33726522100211"><ele>291.0</ele><time>2026-05-03T10:36:55.002Z</time></trkpt><trkpt lat="45.75745270482735" lon="9.337329962525326"><ele>291.0</ele><time>2026-05-03T10:36:56.002Z</time></trkpt><trkpt lat="45.75760548152167" lon="9.337393129616418"><ele>291.0</ele><time>2026-05-03T10:36:57.002Z</time></trkpt><trkpt lat="45.75776711981503" lon="9.337445627127282"><ele>290.3333333333333</ele><time>2026-05-03T10:36:58.002Z</time></trkpt><trkpt lat="45.75792975670928" lon="9.337484798247228"><ele>289.66666666666663</ele><time>2026-05-03T10:36:59.002Z</time></trkpt><trkpt lat="45.75809590008818" lon="9.337517114896338"><ele>289.0</ele><time>2026-05-03T10:37:00.002Z</time></trkpt><trkpt lat="45.75826298149494" lon="9.337537099109532"><ele>289.0</ele><time>2026-05-03T10:37:01.002Z</time></trkpt><trkpt lat="45.758431580164356" lon="9.33755944133933"><ele>289.0</ele><time>2026-05-03T10:37:02.002Z</time></trkpt><trkpt lat="45.75860307542371" lon="9.337582592196288"><ele>289.0</ele><time>2026-05-03T10:37:03.002Z</time></trkpt><trkpt lat="45.758776367087556" lon="9.337611608467734"><ele>288.3333333333333</ele><time>2026-05-03T10:37:04.002Z</time></trkpt><trkpt lat="45.758951890555984" lon="9.33763663003099"><ele>287.6666666666667</ele><time>2026-05-03T10:37:05.002Z</time></trkpt><trkpt lat="45.759132649181446" lon="9.337661653186316"><ele>287.0</ele><time>2026-05-03T10:37:06.002Z</time></trkpt><trkpt lat="45.75931479345083" lon="9.337688593019756"><ele>286.0</ele><time>2026-05-03T10:37:07.002Z</time></trkpt><trkpt lat="45.75949102456716" lon="9.33771041330589"><ele>285.0</ele><time>2026-05-03T10:37:08.002Z</time></trkpt><trkpt lat="45.75966661176355" lon="9.337735194025296"><ele>284.0</ele><time>2026-05-03T10:37:09.002Z</time></trkpt><trkpt lat="45.75984710281498" lon="9.337764643563787"><ele>284.0</ele><time>2026-05-03T10:37:10.002Z</time></trkpt><trkpt lat="45.760028064280284" lon="9.337793064455056"><ele>284.0</ele><time>2026-05-03T10:37:11.002Z</time></trkpt><trkpt lat="45.760200399665486" lon="9.337817000430322"><ele>284.0</ele><time>2026-05-03T10:37:12.002Z</time></trkpt><trkpt lat="45.76038750895364" lon="9.337842338116355"><ele>281.6666666666667</ele><time>2026-05-03T10:37:13.002Z</time></trkpt><trkpt lat="45.760567661342165" lon="9.337865686106456"><ele>279.3333333333333</ele><time>2026-05-03T10:37:14.002Z</time></trkpt><trkpt lat="45.760742925792485" lon="9.337893703283946"><ele>277.0</ele><time>2026-05-03T10:37:15.002Z</time></trkpt><trkpt lat="45.76092477524112" lon="9.337926017474643"><ele>277.3333333333333</ele><time>2026-05-03T10:37:16.002Z</time></trkpt><trkpt lat="45.76110275390451" lon="9.337945591649461"><ele>277.6666666666667</ele><time>2026-05-03T10:37:17.002Z</time></trkpt><trkpt lat="45.761270281523" lon="9.337968145801057"><ele>278.0</ele><time>2026-05-03T10:37:18Z</time></trkpt><trkpt lat="45.76143588993204" lon="9.337976993836087"><ele>278.0</ele><time>2026-05-03T10:37:19Z</time></trkpt><trkpt lat="45.76160719174143" lon="9.3379835747267"><ele>278.0</ele><time>2026-05-03T10:37:20Z</time></trkpt><trkpt lat="45.76178461428941" lon="9.338004694441567"><ele>278.0</ele><time>2026-05-03T10:37:21Z</time></trkpt><trkpt lat="45.76194000744955" lon="9.338026949721968"><ele>278.5</ele><time>2026-05-03T10:37:22Z</time></trkpt><trkpt lat="45.76209446559439" lon="9.338049197583713"><ele>279.0</ele><time>2026-05-03T10:37:23Z</time></trkpt><trkpt lat="45.762231653757304" lon="9.338063467152528"><ele>279.5</ele><time>2026-05-03T10:37:24Z</time></trkpt><trkpt lat="45.76235687195742" lon="9.33807810698628"><ele>280.0</ele><time>2026-05-03T10:37:25Z</time></trkpt><trkpt lat="45.76245673854263" lon="9.338096351142717"><ele>280.4</ele><time>2026-05-03T10:37:26Z</time></trkpt><trkpt lat="45.76254996339728" lon="9.338116813339218"><ele>280.8</ele><time>2026-05-03T10:37:27Z</time></trkpt><trkpt lat="45.76265281162514" lon="9.338119170492755"><ele>281.2</ele><time>2026-05-03T10:37:28Z</time></trkpt><trkpt lat="45.762752620955666" lon="9.338141452438467"><ele>281.6</ele><time>2026-05-03T10:37:29Z</time></trkpt><trkpt lat="45.7628429239051" lon="9.338208844982999"><ele>282.0</ele><time>2026-05-03T10:37:30Z</time></trkpt><trkpt lat="45.762955616161825" lon="9.338195182665801"><ele>282.0</ele><time>2026-05-03T10:37:31Z</time></trkpt><trkpt lat="45.76309796511933" lon="9.338175245592506"><ele>282.0</ele><time>2026-05-03T10:37:32Z</time></trkpt><trkpt lat="45.76325778451133" lon="9.33819031739959"><ele>282.0</ele><time>2026-05-03T10:37:33Z</time></trkpt><trkpt lat="45.76343618396136" lon="9.33823468071164"><ele>282.0</ele><time>2026-05-03T10:37:34Z</time></trkpt><trkpt lat="45.76363099282372" lon="9.338281438902076"><ele>282.0</ele><time>2026-05-03T10:37:35Z</time></trkpt><trkpt lat="45.76381675384261" lon="9.33831240023364"><ele>282.0</ele><time>2026-05-03T10:37:36Z</time></trkpt><trkpt lat="45.7640198757865" lon="9.338347812476572"><ele>282.0</ele><time>2026-05-03T10:37:37Z</time></trkpt><trkpt lat="45.76422887970768" lon="9.338380420788523"><ele>282.0</ele><time>2026-05-03T10:37:38Z</time></trkpt><trkpt lat="45.76443985591092" lon="9.338410804848557"><ele>282.0</ele><time>2026-05-03T10:37:39Z</time></trkpt><trkpt lat="45.764639493417604" lon="9.33843910856864"><ele>282.3333333333333</ele><time>2026-05-03T10:37:40Z</time></trkpt><trkpt lat="45.7648338537526" lon="9.33846794693933"><ele>282.66666666666663</ele><time>2026-05-03T10:37:41Z</time></trkpt><trkpt lat="45.76502515540212" lon="9.338499586261875"><ele>283.0</ele><time>2026-05-03T10:37:42Z</time></trkpt><trkpt lat="45.76521284261394" lon="9.338530576779723"><ele>283.3333333333333</ele><time>2026-05-03T10:37:43Z</time></trkpt><trkpt lat="45.76538857792916" lon="9.338562355757027"><ele>283.6666666666667</ele><time>2026-05-03T10:37:44Z</time></trkpt><trkpt lat="45.765549689183935" lon="9.338597788851866"><ele>284.0</ele><time>2026-05-03T10:37:45Z</time></trkpt><trkpt lat="45.765691096150626" lon="9.338625871697745"><ele>284.0</ele><time>2026-05-03T10:37:46Z</time></trkpt><trkpt lat="45.76582430412767" lon="9.338649986688699"><ele>284.0</ele><time>2026-05-03T10:37:47Z</time></trkpt><trkpt lat="45.76594452779748" lon="9.338677707284917"><ele>284.0</ele><time>2026-05-03T10:37:48Z</time></trkpt><trkpt lat="45.76604696780782" lon="9.338703557025873"><ele>284.0</ele><time>2026-05-03T10:37:49Z</time></trkpt><trkpt lat="45.7661287841851" lon="9.33872001531628"><ele>284.0</ele><time>2026-05-03T10:37:50Z</time></trkpt><trkpt lat="45.76620712776003" lon="9.338743150516098"><ele>284.0</ele><time>2026-05-03T10:37:51Z</time></trkpt><trkpt lat="45.766282273189304" lon="9.3387735222294"><ele>284.0</ele><time>2026-05-03T10:37:52Z</time></trkpt><trkpt lat="45.766358851080156" lon="9.338806232457415"><ele>284.0</ele><time>2026-05-03T10:37:53Z</time></trkpt><trkpt lat="45.766443932068924" lon="9.338826926170517"><ele>284.0</ele><time>2026-05-03T10:37:54Z</time></trkpt><trkpt lat="45.766548718645744" lon="9.338821940922113"><ele>284.0</ele><time>2026-05-03T10:37:55Z</time></trkpt><trkpt lat="45.76666863962785" lon="9.338800839439756"><ele>284.0</ele><time>2026-05-03T10:37:56Z</time></trkpt><trkpt lat="45.76679873841704" lon="9.33879156029384"><ele>284.0</ele><time>2026-05-03T10:37:57Z</time></trkpt><trkpt lat="45.76694320839111" lon="9.33879958211079"><ele>284.0</ele><time>2026-05-03T10:37:58Z</time></trkpt><trkpt lat="45.76710446777216" lon="9.338802159667424"><ele>284.0</ele><time>2026-05-03T10:37:59Z</time></trkpt><trkpt lat="45.7672795668269" lon="9.33881020227858"><ele>284.0</ele><time>2026-05-03T10:38:00.001Z</time></trkpt><trkpt lat="45.7674663252776" lon="9.338835105913054"><ele>284.0</ele><time>2026-05-03T10:38:01.001Z</time></trkpt><trkpt lat="45.76766602218301" lon="9.338877189042236"><ele>284.0</ele><time>2026-05-03T10:38:02.001Z</time></trkpt><trkpt lat="45.76786576146056" lon="9.338920577615603"><ele>285.33333333333337</ele><time>2026-05-03T10:38:03.001Z</time></trkpt><trkpt lat="45.76806762691301" lon="9.33894802241559"><ele>286.6666666666667</ele><time>2026-05-03T10:38:04.001Z</time></trkpt><trkpt lat="45.76828086861114" lon="9.338983048458333"><ele>288.0</ele><time>2026-05-03T10:38:05.001Z</time></trkpt><trkpt lat="45.76852354837444" lon="9.339008781591607"><ele>287.5</ele><time>2026-05-03T10:38:06.001Z</time></trkpt><trkpt lat="45.76877228333027" lon="9.339032144866216"><ele>287.0</ele><time>2026-05-03T10:38:07.001Z</time></trkpt><trkpt lat="45.769007405812275" lon="9.339035492653839"><ele>287.0</ele><time>2026-05-03T10:38:08.001Z</time></trkpt><trkpt lat="45.769258719306805" lon="9.339029357311121"><ele>287.0</ele><time>2026-05-03T10:38:09.001Z</time></trkpt><trkpt lat="45.769518379957404" lon="9.338995413718804"><ele>288.5</ele><time>2026-05-03T10:38:10.001Z</time></trkpt><trkpt lat="45.76978020017874" lon="9.338953289402493"><ele>290.0</ele><time>2026-05-03T10:38:11.001Z</time></trkpt><trkpt lat="45.77003181852975" lon="9.338913752237369"><ele>289.0</ele><time>2026-05-03T10:38:12.001Z</time></trkpt><trkpt lat="45.770248314351264" lon="9.33887650050414"><ele>288.0</ele><time>2026-05-03T10:38:13.001Z</time></trkpt><trkpt lat="45.77044666470576" lon="9.338855564520966"><ele>287.0</ele><time>2026-05-03T10:38:14.001Z</time></trkpt><trkpt lat="45.77063165518673" lon="9.338829999658945"><ele>287.0</ele><time>2026-05-03T10:38:15.001Z</time></trkpt><trkpt lat="45.77078978000471" lon="9.338808499917997"><ele>287.0</ele><time>2026-05-03T10:38:16.001Z</time></trkpt><trkpt lat="45.770921403976246" lon="9.338789882579722"><ele>287.0</ele><time>2026-05-03T10:38:17.001Z</time></trkpt><trkpt lat="45.77102649152904" lon="9.338772475778633"><ele>287.0</ele><time>2026-05-03T10:38:18.001Z</time></trkpt><trkpt lat="45.7711074528893" lon="9.338761752658652"><ele>286.6</ele><time>2026-05-03T10:38:19.001Z</time></trkpt><trkpt lat="45.77118521872758" lon="9.338774191403358"><ele>286.2</ele><time>2026-05-03T10:38:20.001Z</time></trkpt><trkpt lat="45.771259935936044" lon="9.33881492155639"><ele>285.8</ele><time>2026-05-03T10:38:21.001Z</time></trkpt><trkpt lat="45.77134378729502" lon="9.338836275038831"><ele>285.4</ele><time>2026-05-03T10:38:22.001Z</time></trkpt><trkpt lat="45.77144125768838" lon="9.338800668532148"><ele>285.0</ele><time>2026-05-03T10:38:23.001Z</time></trkpt><trkpt lat="45.77155027774983" lon="9.338723153188111"><ele>285.0</ele><time>2026-05-03T10:38:24.001Z</time></trkpt><trkpt lat="45.771667140264896" lon="9.338672693014383"><ele>285.0</ele><time>2026-05-03T10:38:25.001Z</time></trkpt><trkpt lat="45.77178768371924" lon="9.338660004260856"><ele>285.0</ele><time>2026-05-03T10:38:26.001Z</time></trkpt><trkpt lat="45.77191546976667" lon="9.338650352067482"><ele>285.0</ele><time>2026-05-03T10:38:27.001Z</time></trkpt><trkpt lat="45.77205291084681" lon="9.33863888529763"><ele>284.75</ele><time>2026-05-03T10:38:28.001Z</time></trkpt><trkpt lat="45.77219620027976" lon="9.338631617842006"><ele>284.5</ele><time>2026-05-03T10:38:29.001Z</time></trkpt><trkpt lat="45.77234379564607" lon="9.338634356181814"><ele>284.25</ele><time>2026-05-03T10:38:30.001Z</time></trkpt><trkpt lat="45.77248869825083" lon="9.33865531729571"><ele>284.0</ele><time>2026-05-03T10:38:31.001Z</time></trkpt><trkpt lat="45.77262199156774" lon="9.338695277316445"><ele>283.5</ele><time>2026-05-03T10:38:32.001Z</time></trkpt><trkpt lat="45.77274906236608" lon="9.338747095019917"><ele>283.0</ele><time>2026-05-03T10:38:33.001Z</time></trkpt><trkpt lat="45.77287302362641" lon="9.338801196815686"><ele>282.5</ele><time>2026-05-03T10:38:34.001Z</time></trkpt><trkpt lat="45.77299932574814" lon="9.338860850023613"><ele>282.0</ele><time>2026-05-03T10:38:35.001Z</time></trkpt><trkpt lat="45.773125694696915" lon="9.338922107320851"><ele>282.0</ele><time>2026-05-03T10:38:36.001Z</time></trkpt><trkpt lat="45.7732543754805" lon="9.338979994706639"><ele>282.0</ele><time>2026-05-03T10:38:37.001Z</time></trkpt><trkpt lat="45.77338776126437" lon="9.339034345463087"><ele>282.0</ele><time>2026-05-03T10:38:38.001Z</time></trkpt><trkpt lat="45.77352270413886" lon="9.339091186703833"><ele>282.0</ele><time>2026-05-03T10:38:39.002Z</time></trkpt><trkpt lat="45.773665039547865" lon="9.339154293095438"><ele>282.0</ele><time>2026-05-03T10:38:40.002Z</time></trkpt><trkpt lat="45.773805966710626" lon="9.339217209068103"><ele>282.0</ele><time>2026-05-03T10:38:41.002Z</time></trkpt><trkpt lat="45.77395355451703" lon="9.339281142031894"><ele>282.0</ele><time>2026-05-03T10:38:42.002Z</time></trkpt><trkpt lat="45.77410080260953" lon="9.339343039840886"><ele>282.0</ele><time>2026-05-03T10:38:43.002Z</time></trkpt><trkpt lat="45.7742486352266" lon="9.339405987693171"><ele>282.0</ele><time>2026-05-03T10:38:44.002Z</time></trkpt><trkpt lat="45.77440057650458" lon="9.339477900810365"><ele>282.0</ele><time>2026-05-03T10:38:45.002Z</time></trkpt><trkpt lat="45.77455177338443" lon="9.339551158139008"><ele>281.3333333333333</ele><time>2026-05-03T10:38:46.002Z</time></trkpt><trkpt lat="45.774712890754735" lon="9.339621685755926"><ele>280.66666666666663</ele><time>2026-05-03T10:38:47.002Z</time></trkpt><trkpt lat="45.77488969392206" lon="9.33969690009834"><ele>280.0</ele><time>2026-05-03T10:38:48.002Z</time></trkpt><trkpt lat="45.77505894757918" lon="9.339763852203077"><ele>278.66666666666663</ele><time>2026-05-03T10:38:49.002Z</time></trkpt><trkpt lat="45.77521730630056" lon="9.33983187507367"><ele>277.3333333333333</ele><time>2026-05-03T10:38:50.002Z</time></trkpt><trkpt lat="45.77537316205366" lon="9.339896806277734"><ele>276.0</ele><time>2026-05-03T10:38:51.002Z</time></trkpt><trkpt lat="45.77553024030296" lon="9.339944664469542"><ele>276.0</ele><time>2026-05-03T10:38:52.002Z</time></trkpt><trkpt lat="45.775682946939014" lon="9.339971618177207"><ele>276.0</ele><time>2026-05-03T10:38:53.002Z</time></trkpt><trkpt lat="45.77583333402679" lon="9.339968481482313"><ele>276.0</ele><time>2026-05-03T10:38:54.002Z</time></trkpt><trkpt lat="45.77598638923803" lon="9.339947961236547"><ele>274.3333333333333</ele><time>2026-05-03T10:38:55.002Z</time></trkpt><trkpt lat="45.776142429661775" lon="9.339900019932543"><ele>272.66666666666663</ele><time>2026-05-03T10:38:56.002Z</time></trkpt><trkpt lat="45.776301773770435" lon="9.339847823537637"><ele>271.0</ele><time>2026-05-03T10:38:57.002Z</time></trkpt><trkpt lat="45.77646358034616" lon="9.339764201055301"><ele>271.0</ele><time>2026-05-03T10:38:58.002Z</time></trkpt><trkpt lat="45.776618052531106" lon="9.339673614166617"><ele>271.0</ele><time>2026-05-03T10:38:59.002Z</time></trkpt><trkpt lat="45.77678030557285" lon="9.339587319550379"><ele>271.0</ele><time>2026-05-03T10:39:00.002Z</time></trkpt><trkpt lat="45.77694390699488" lon="9.339505804174724"><ele>271.3333333333333</ele><time>2026-05-03T10:39:01.002Z</time></trkpt><trkpt lat="45.777108463035056" lon="9.33942669264118"><ele>271.6666666666667</ele><time>2026-05-03T10:39:02.002Z</time></trkpt><trkpt lat="45.77727657202224" lon="9.339341493497296"><ele>272.0</ele><time>2026-05-03T10:39:03.002Z</time></trkpt><trkpt lat="45.777443515609484" lon="9.339253383528323"><ele>272.0</ele><time>2026-05-03T10:39:04.002Z</time></trkpt><trkpt lat="45.777615386627154" lon="9.339161573628022"><ele>272.0</ele><time>2026-05-03T10:39:05.002Z</time></trkpt><trkpt lat="45.77777765523872" lon="9.339081219439853"><ele>272.0</ele><time>2026-05-03T10:39:06.002Z</time></trkpt><trkpt lat="45.77793332263493" lon="9.339001835117928"><ele>271.6666666666667</ele><time>2026-05-03T10:39:07.002Z</time></trkpt><trkpt lat="45.778098336364486" lon="9.338916975780947"><ele>271.3333333333333</ele><time>2026-05-03T10:39:08.002Z</time></trkpt><trkpt lat="45.77826882406458" lon="9.338828085490716"><ele>271.0</ele><time>2026-05-03T10:39:09.002Z</time></trkpt><trkpt lat="45.7784569651307" lon="9.338731699603134"><ele>270.66666666666663</ele><time>2026-05-03T10:39:10.002Z</time></trkpt><trkpt lat="45.778629812702015" lon="9.338637344499173"><ele>270.3333333333333</ele><time>2026-05-03T10:39:11.002Z</time></trkpt><trkpt lat="45.77880373626104" lon="9.338545135979462"><ele>270.0</ele><time>2026-05-03T10:39:12.002Z</time></trkpt><trkpt lat="45.77897249065163" lon="9.338456519111478"><ele>270.0</ele><time>2026-05-03T10:39:13.002Z</time></trkpt><trkpt lat="45.77913712346273" lon="9.338373734719372"><ele>270.0</ele><time>2026-05-03T10:39:14.002Z</time></trkpt><trkpt lat="45.77931235353455" lon="9.338283904741266"><ele>270.0</ele><time>2026-05-03T10:39:15.002Z</time></trkpt><trkpt lat="45.779481287115935" lon="9.338200780721747"><ele>270.6666666666667</ele><time>2026-05-03T10:39:16.002Z</time></trkpt><trkpt lat="45.779646919350114" lon="9.338122209855351"><ele>271.33333333333337</ele><time>2026-05-03T10:39:17.002Z</time></trkpt><trkpt lat="45.779811900025784" lon="9.338036473386882"><ele>272.0</ele><time>2026-05-03T10:39:18.003Z</time></trkpt><trkpt lat="45.77998186838162" lon="9.337938974698032"><ele>272.0</ele><time>2026-05-03T10:39:19.003Z</time></trkpt><trkpt lat="45.78014684162074" lon="9.337846333050623"><ele>272.0</ele><time>2026-05-03T10:39:20.003Z</time></trkpt><trkpt lat="45.78030785182154" lon="9.337760507074442"><ele>272.0</ele><time>2026-05-03T10:39:21.003Z</time></trkpt><trkpt lat="45.78045862429116" lon="9.337687896037245"><ele>272.0</ele><time>2026-05-03T10:39:22.003Z</time></trkpt><trkpt lat="45.78060384950592" lon="9.33763088389695"><ele>272.0</ele><time>2026-05-03T10:39:23.003Z</time></trkpt><trkpt lat="45.78074072939197" lon="9.337595784027108"><ele>272.0</ele><time>2026-05-03T10:39:24Z</time></trkpt><trkpt lat="45.780882638251626" lon="9.337576275660586"><ele>272.0</ele><time>2026-05-03T10:39:25Z</time></trkpt><trkpt lat="45.78102508805502" lon="9.337577820803855"><ele>272.0</ele><time>2026-05-03T10:39:26Z</time></trkpt><trkpt lat="45.781171880514435" lon="9.337597011347532"><ele>272.0</ele><time>2026-05-03T10:39:27Z</time></trkpt><trkpt lat="45.78132855365214" lon="9.337641495295726"><ele>272.0</ele><time>2026-05-03T10:39:28Z</time></trkpt><trkpt lat="45.78147736045153" lon="9.337701442443905"><ele>272.0</ele><time>2026-05-03T10:39:29Z</time></trkpt><trkpt lat="45.781628121804864" lon="9.337792349110599"><ele>272.0</ele><time>2026-05-03T10:39:30Z</time></trkpt><trkpt lat="45.78177485021242" lon="9.337899724928613"><ele>272.0</ele><time>2026-05-03T10:39:31Z</time></trkpt><trkpt lat="45.78191508019419" lon="9.338028856103225"><ele>273.0</ele><time>2026-05-03T10:39:32Z</time></trkpt><trkpt lat="45.782048373866296" lon="9.33819339073181"><ele>274.0</ele><time>2026-05-03T10:39:33Z</time></trkpt><trkpt lat="45.782170828812085" lon="9.33836644071543"><ele>275.0</ele><time>2026-05-03T10:39:34Z</time></trkpt><trkpt lat="45.78228410777441" lon="9.33855626067915"><ele>275.0</ele><time>2026-05-03T10:39:35Z</time></trkpt><trkpt lat="45.78240040956633" lon="9.338755453398928"><ele>275.0</ele><time>2026-05-03T10:39:36Z</time></trkpt><trkpt lat="45.782515008477155" lon="9.338956605664176"><ele>275.0</ele><time>2026-05-03T10:39:37Z</time></trkpt><trkpt lat="45.78263546164757" lon="9.339151761714728"><ele>275.0</ele><time>2026-05-03T10:39:38Z</time></trkpt><trkpt lat="45.78275519122855" lon="9.339335451467258"><ele>275.0</ele><time>2026-05-03T10:39:39Z</time></trkpt><trkpt lat="45.782877194412094" lon="9.33953297200081"><ele>275.0</ele><time>2026-05-03T10:39:40Z</time></trkpt><trkpt lat="45.782994054925396" lon="9.339720357757036"><ele>274.75</ele><time>2026-05-03T10:39:41Z</time></trkpt><trkpt lat="45.78309867564999" lon="9.339889454837923"><ele>274.5</ele><time>2026-05-03T10:39:42Z</time></trkpt><trkpt lat="45.78320065538402" lon="9.340050930203269"><ele>274.25</ele><time>2026-05-03T10:39:43Z</time></trkpt><trkpt lat="45.78329192653976" lon="9.340197113894208"><ele>274.0</ele><time>2026-05-03T10:39:44Z</time></trkpt><trkpt lat="45.78337763658172" lon="9.340334649610215"><ele>274.0</ele><time>2026-05-03T10:39:45Z</time></trkpt><trkpt lat="45.78345894149498" lon="9.340468030176437"><ele>274.0</ele><time>2026-05-03T10:39:46Z</time></trkpt><trkpt lat="45.78353545058465" lon="9.340593185054761"><ele>274.0</ele><time>2026-05-03T10:39:47Z</time></trkpt><trkpt lat="45.78361176626242" lon="9.340719932660003"><ele>274.0</ele><time>2026-05-03T10:39:48Z</time></trkpt><trkpt lat="45.783684389404115" lon="9.340850012110739"><ele>274.0</ele><time>2026-05-03T10:39:49Z</time></trkpt><trkpt lat="45.78375137999329" lon="9.340986030003595"><ele>274.0</ele><time>2026-05-03T10:39:50Z</time></trkpt><trkpt lat="45.78381650483298" lon="9.341114723787623"><ele>274.0</ele><time>2026-05-03T10:39:51Z</time></trkpt><trkpt lat="45.783881091147016" lon="9.34122639097787"><ele>274.0</ele><time>2026-05-03T10:39:52Z</time></trkpt><trkpt lat="45.78394143533944" lon="9.341321443292781"><ele>274.0</ele><time>2026-05-03T10:39:53Z</time></trkpt><trkpt lat="45.78398930096122" lon="9.341396304969612"><ele>274.0</ele><time>2026-05-03T10:39:54Z</time></trkpt><trkpt lat="45.78403416278499" lon="9.341463578089101"><ele>274.0</ele><time>2026-05-03T10:39:55Z</time></trkpt><trkpt lat="45.784133723669214" lon="9.341558285797163"><ele>274.0</ele><time>2026-05-03T10:39:57Z</time></trkpt><trkpt lat="45.78422626204571" lon="9.341638814371898"><ele>274.0</ele><time>2026-05-03T10:39:59Z</time></trkpt><trkpt lat="45.78426955650774" lon="9.341707489676576"><ele>274.0</ele><time>2026-05-03T10:40:00Z</time></trkpt><trkpt lat="45.78431385791716" lon="9.341791728418881"><ele>274.0</ele><time>2026-05-03T10:40:01Z</time></trkpt><trkpt lat="45.78435648294719" lon="9.34187461256524"><ele>273.66666666666663</ele><time>2026-05-03T10:40:02Z</time></trkpt><trkpt lat="45.78440014883072" lon="9.341964612397135"><ele>273.3333333333333</ele><time>2026-05-03T10:40:03Z</time></trkpt><trkpt lat="45.78444664452503" lon="9.342059601889051"><ele>273.0</ele><time>2026-05-03T10:40:04.001Z</time></trkpt><trkpt lat="45.784498455484886" lon="9.34215617523925"><ele>272.6666666666667</ele><time>2026-05-03T10:40:05.001Z</time></trkpt><trkpt lat="45.78455514049999" lon="9.342253746189309"><ele>272.33333333333337</ele><time>2026-05-03T10:40:06.001Z</time></trkpt><trkpt lat="45.78461912159461" lon="9.342357774888786"><ele>272.0</ele><time>2026-05-03T10:40:07.001Z</time></trkpt><trkpt lat="45.784685607933746" lon="9.342463352338397"><ele>272.0</ele><time>2026-05-03T10:40:08.001Z</time></trkpt><trkpt lat="45.78475977144449" lon="9.342578071906033"><ele>272.0</ele><time>2026-05-03T10:40:09.001Z</time></trkpt><trkpt lat="45.78483516627461" lon="9.342697001758951"><ele>272.0</ele><time>2026-05-03T10:40:10.001Z</time></trkpt><trkpt lat="45.784913953321166" lon="9.342822273558674"><ele>272.0</ele><time>2026-05-03T10:40:11.001Z</time></trkpt><trkpt lat="45.784996471933376" lon="9.342950182451851"><ele>272.5</ele><time>2026-05-03T10:40:12.001Z</time></trkpt><trkpt lat="45.78507786118804" lon="9.343083678332167"><ele>273.0</ele><time>2026-05-03T10:40:13.001Z</time></trkpt><trkpt lat="45.78515707273963" lon="9.343211755097443"><ele>273.5</ele><time>2026-05-03T10:40:14.001Z</time></trkpt><trkpt lat="45.78523781504226" lon="9.343336639019926"><ele>274.0</ele><time>2026-05-03T10:40:15.001Z</time></trkpt><trkpt lat="45.78532016527741" lon="9.343466549055162"><ele>272.75</ele><time>2026-05-03T10:40:16.001Z</time></trkpt><trkpt lat="45.78540346346643" lon="9.343597937602198"><ele>271.5</ele><time>2026-05-03T10:40:17.001Z</time></trkpt><trkpt lat="45.78548619403334" lon="9.343733065649458"><ele>270.25</ele><time>2026-05-03T10:40:18.001Z</time></trkpt><trkpt lat="45.78556980789639" lon="9.343868682671998"><ele>269.0</ele><time>2026-05-03T10:40:19.001Z</time></trkpt><trkpt lat="45.785652218141266" lon="9.344001790604027"><ele>269.0</ele><time>2026-05-03T10:40:20.001Z</time></trkpt><trkpt lat="45.78573666767511" lon="9.344140098791177"><ele>269.0</ele><time>2026-05-03T10:40:21.001Z</time></trkpt><trkpt lat="45.78581537992896" lon="9.344273153790285"><ele>269.0</ele><time>2026-05-03T10:40:22.001Z</time></trkpt><trkpt lat="45.78589730163764" lon="9.344407366817904"><ele>269.0</ele><time>2026-05-03T10:40:23.001Z</time></trkpt><trkpt lat="45.78598064934135" lon="9.34453652789926"><ele>269.0</ele><time>2026-05-03T10:40:24.001Z</time></trkpt><trkpt lat="45.786069493897834" lon="9.344668061986617"><ele>269.0</ele><time>2026-05-03T10:40:25.001Z</time></trkpt><trkpt lat="45.78613546409334" lon="9.344814722872636"><ele>269.0</ele><time>2026-05-03T10:40:26.001Z</time></trkpt><trkpt lat="45.7862158956575" lon="9.344957630549443"><ele>269.0</ele><time>2026-05-03T10:40:27.001Z</time></trkpt><trkpt lat="45.78630915336191" lon="9.345075028051085"><ele>269.0</ele><time>2026-05-03T10:40:28.001Z</time></trkpt><trkpt lat="45.7864122459164" lon="9.345222379673801"><ele>269.0</ele><time>2026-05-03T10:40:29.001Z</time></trkpt><trkpt lat="45.78649516013642" lon="9.34536888006709"><ele>269.0</ele><time>2026-05-03T10:40:30.001Z</time></trkpt><trkpt lat="45.786590502284454" lon="9.345509719567257"><ele>269.0</ele><time>2026-05-03T10:40:31.001Z</time></trkpt><trkpt lat="45.786670443106175" lon="9.345643977848509"><ele>269.4</ele><time>2026-05-03T10:40:32.001Z</time></trkpt><trkpt lat="45.78674463540208" lon="9.345760593392711"><ele>269.79999999999995</ele><time>2026-05-03T10:40:33.001Z</time></trkpt><trkpt lat="45.78679494987609" lon="9.345853638855184"><ele>270.20000000000005</ele><time>2026-05-03T10:40:34.001Z</time></trkpt><trkpt lat="45.78685258781039" lon="9.345943380821943"><ele>270.6</ele><time>2026-05-03T10:40:35.001Z</time></trkpt><trkpt lat="45.78693218110323" lon="9.346090522195652"><ele>271.0</ele><time>2026-05-03T10:40:37.001Z</time></trkpt><trkpt lat="45.78699962347958" lon="9.346214723462975"><ele>271.0</ele><time>2026-05-03T10:40:39.001Z</time></trkpt><trkpt lat="45.78703767861198" lon="9.346324939963528"><ele>271.0</ele><time>2026-05-03T10:40:41.002Z</time></trkpt><trkpt lat="45.78709621969029" lon="9.346430709309013"><ele>271.0</ele><time>2026-05-03T10:40:43.002Z</time></trkpt><trkpt lat="45.787146957805525" lon="9.34648878925095"><ele>271.0</ele><time>2026-05-03T10:40:44.002Z</time></trkpt><trkpt lat="45.78720704519109" lon="9.346544349895696"><ele>271.0</ele><time>2026-05-03T10:40:45.002Z</time></trkpt><trkpt lat="45.7872716052539" lon="9.346606125773437"><ele>271.0</ele><time>2026-05-03T10:40:46.002Z</time></trkpt><trkpt lat="45.787328669270856" lon="9.346685124682054"><ele>271.0</ele><time>2026-05-03T10:40:47.002Z</time></trkpt><trkpt lat="45.78738513973883" lon="9.346776222348561"><ele>271.0</ele><time>2026-05-03T10:40:48.002Z</time></trkpt><trkpt lat="45.7874438980676" lon="9.346871165739792"><ele>271.0</ele><time>2026-05-03T10:40:49.002Z</time></trkpt><trkpt lat="45.787505322047856" lon="9.346974092996447"><ele>271.0</ele><time>2026-05-03T10:40:50.002Z</time></trkpt><trkpt lat="45.78757059343965" lon="9.347081987721237"><ele>271.0</ele><time>2026-05-03T10:40:51.002Z</time></trkpt><trkpt lat="45.78763795414305" lon="9.347193172413006"><ele>271.75</ele><time>2026-05-03T10:40:52.002Z</time></trkpt><trkpt lat="45.78770744638772" lon="9.34731636513774"><ele>272.5</ele><time>2026-05-03T10:40:53.002Z</time></trkpt><trkpt lat="45.78778286331133" lon="9.34744105778955"><ele>273.25</ele><time>2026-05-03T10:40:54.002Z</time></trkpt><trkpt lat="45.787858519098904" lon="9.34756759296004"><ele>274.0</ele><time>2026-05-03T10:40:55.002Z</time></trkpt><trkpt lat="45.787941782705325" lon="9.347692399795275"><ele>274.0</ele><time>2026-05-03T10:40:56.002Z</time></trkpt><trkpt lat="45.78802002717223" lon="9.347817561681913"><ele>274.0</ele><time>2026-05-03T10:40:57.002Z</time></trkpt><trkpt lat="45.78809446758632" lon="9.347935505740463"><ele>274.0</ele><time>2026-05-03T10:40:58.002Z</time></trkpt><trkpt lat="45.788152206597935" lon="9.348029493881405"><ele>274.0</ele><time>2026-05-03T10:40:59.002Z</time></trkpt><trkpt lat="45.78819877127749" lon="9.348141449984023"><ele>274.0</ele><time>2026-05-03T10:41:01.002Z</time></trkpt><trkpt lat="45.788285180900736" lon="9.348273935792648"><ele>274.0</ele><time>2026-05-03T10:41:03.002Z</time></trkpt><trkpt lat="45.78832952574237" lon="9.348341438008262"><ele>274.0</ele><time>2026-05-03T10:41:04.002Z</time></trkpt><trkpt lat="45.78836795865913" lon="9.34842367365303"><ele>274.0</ele><time>2026-05-03T10:41:05.002Z</time></trkpt><trkpt lat="45.78840663090734" lon="9.348536331637295"><ele>274.0</ele><time>2026-05-03T10:41:06.002Z</time></trkpt><trkpt lat="45.7884806862575" lon="9.348646550273877"><ele>274.0</ele><time>2026-05-03T10:41:07.002Z</time></trkpt><trkpt lat="45.78857734906047" lon="9.348746529645348"><ele>274.0</ele><time>2026-05-03T10:41:08.002Z</time></trkpt><trkpt lat="45.7886623853268" lon="9.348833745672065"><ele>274.0</ele><time>2026-05-03T10:41:09.002Z</time></trkpt><trkpt lat="45.788724327709986" lon="9.348955159315329"><ele>274.0</ele><time>2026-05-03T10:41:10.002Z</time></trkpt><trkpt lat="45.78880250751491" lon="9.349083712489158"><ele>274.0</ele><time>2026-05-03T10:41:11.002Z</time></trkpt><trkpt lat="45.78888725843844" lon="9.349215948555203"><ele>274.0</ele><time>2026-05-03T10:41:12.002Z</time></trkpt><trkpt lat="45.78897274185985" lon="9.349357035591519"><ele>274.0</ele><time>2026-05-03T10:41:13.002Z</time></trkpt><trkpt lat="45.789058763225015" lon="9.349502935080094"><ele>274.0</ele><time>2026-05-03T10:41:14.002Z</time></trkpt><trkpt lat="45.789152072831975" lon="9.349651553141163"><ele>274.0</ele><time>2026-05-03T10:41:15.002Z</time></trkpt><trkpt lat="45.7892442497073" lon="9.34979829755852"><ele>274.0</ele><time>2026-05-03T10:41:16.002Z</time></trkpt><trkpt lat="45.78934281433137" lon="9.349954792508944"><ele>274.3333333333333</ele><time>2026-05-03T10:41:17.002Z</time></trkpt><trkpt lat="45.78944349542816" lon="9.350121567510325"><ele>274.6666666666667</ele><time>2026-05-03T10:41:18.002Z</time></trkpt><trkpt lat="45.78955466372816" lon="9.350296000078204"><ele>275.0</ele><time>2026-05-03T10:41:19.002Z</time></trkpt><trkpt lat="45.78965555072816" lon="9.350455965045782"><ele>275.5</ele><time>2026-05-03T10:41:20.003Z</time></trkpt><trkpt lat="45.789745593770576" lon="9.350596074540823"><ele>276.0</ele><time>2026-05-03T10:41:21.003Z</time></trkpt><trkpt lat="45.78982702507554" lon="9.3507290499299"><ele>276.5</ele><time>2026-05-03T10:41:22.003Z</time></trkpt><trkpt lat="45.78990668180651" lon="9.35085511891131"><ele>277.0</ele><time>2026-05-03T10:41:23.003Z</time></trkpt><trkpt lat="45.78998612552127" lon="9.350986770855968"><ele>277.0</ele><time>2026-05-03T10:41:24.003Z</time></trkpt><trkpt lat="45.790067102406326" lon="9.351110390064132"><ele>277.0</ele><time>2026-05-03T10:41:25.003Z</time></trkpt><trkpt lat="45.790145021096436" lon="9.351229655737825"><ele>277.0</ele><time>2026-05-03T10:41:26.003Z</time></trkpt><trkpt lat="45.790227355749806" lon="9.351344041533816"><ele>277.0</ele><time>2026-05-03T10:41:27.003Z</time></trkpt><trkpt lat="45.790313650015754" lon="9.35144875193528"><ele>277.5</ele><time>2026-05-03T10:41:28.003Z</time></trkpt><trkpt lat="45.79040816344443" lon="9.351548553649483"><ele>278.0</ele><time>2026-05-03T10:41:29.003Z</time></trkpt><trkpt lat="45.79050920633364" lon="9.351641698577406"><ele>278.5</ele><time>2026-05-03T10:41:30Z</time></trkpt><trkpt lat="45.79061270732058" lon="9.351725452617991"><ele>279.0</ele><time>2026-05-03T10:41:31Z</time></trkpt><trkpt lat="45.79072874880569" lon="9.351802188965554"><ele>279.0</ele><time>2026-05-03T10:41:32Z</time></trkpt><trkpt lat="45.79084652572885" lon="9.351893284316306"><ele>279.0</ele><time>2026-05-03T10:41:33Z</time></trkpt><trkpt lat="45.79097447545236" lon="9.351975154772536"><ele>279.0</ele><time>2026-05-03T10:41:34Z</time></trkpt><trkpt lat="45.791110862398305" lon="9.3520386486367"><ele>279.0</ele><time>2026-05-03T10:41:35Z</time></trkpt><trkpt lat="45.791246317403576" lon="9.352097903641761"><ele>278.75</ele><time>2026-05-03T10:41:36Z</time></trkpt><trkpt lat="45.79137990162327" lon="9.35215769518665"><ele>278.5</ele><time>2026-05-03T10:41:37Z</time></trkpt><trkpt lat="45.791500060708145" lon="9.35222367551818"><ele>278.25</ele><time>2026-05-03T10:41:38Z</time></trkpt><trkpt lat="45.791607061032266" lon="9.35227684807098"><ele>278.0</ele><time>2026-05-03T10:41:39Z</time></trkpt><trkpt lat="45.791703246253405" lon="9.352319602562"><ele>279.0</ele><time>2026-05-03T10:41:40Z</time></trkpt><trkpt lat="45.791792425164054" lon="9.35235869896921"><ele>280.0</ele><time>2026-05-03T10:41:41Z</time></trkpt><trkpt lat="45.791872852361706" lon="9.352398489026207"><ele>281.0</ele><time>2026-05-03T10:41:42Z</time></trkpt><trkpt lat="45.79193971611217" lon="9.352434174714908"><ele>282.0</ele><time>2026-05-03T10:41:43Z</time></trkpt><trkpt lat="45.792000417764825" lon="9.352467237925314"><ele>283.0</ele><time>2026-05-03T10:41:44Z</time></trkpt><trkpt lat="45.79212905385278" lon="9.352508334553043"><ele>284.0</ele><time>2026-05-03T10:41:46Z</time></trkpt><trkpt lat="45.79223150022164" lon="9.352541114508327"><ele>284.0</ele><time>2026-05-03T10:41:47Z</time></trkpt><trkpt lat="45.79234241107342" lon="9.352593254195702"><ele>284.0</ele><time>2026-05-03T10:41:48Z</time></trkpt><trkpt lat="45.79247160908029" lon="9.352662591786437"><ele>284.0</ele><time>2026-05-03T10:41:49Z</time></trkpt><trkpt lat="45.792603855573674" lon="9.352743060018312"><ele>284.0</ele><time>2026-05-03T10:41:50Z</time></trkpt><trkpt lat="45.792735023718635" lon="9.352815163783033"><ele>284.2</ele><time>2026-05-03T10:41:51Z</time></trkpt><trkpt lat="45.79286445013845" lon="9.352875477573228"><ele>284.4</ele><time>2026-05-03T10:41:52Z</time></trkpt><trkpt lat="45.792981944027694" lon="9.352930450401024"><ele>284.6</ele><time>2026-05-03T10:41:53Z</time></trkpt><trkpt lat="45.79307357209668" lon="9.352975003016947"><ele>284.8</ele><time>2026-05-03T10:41:54Z</time></trkpt><trkpt lat="45.79314164710645" lon="9.353014932060947"><ele>285.0</ele><time>2026-05-03T10:41:55Z</time></trkpt><trkpt lat="45.79323167983058" lon="9.353088305399426"><ele>285.0</ele><time>2026-05-03T10:41:57Z</time></trkpt><trkpt lat="45.79329761693295" lon="9.353155256805524"><ele>285.0</ele><time>2026-05-03T10:41:59Z</time></trkpt><trkpt lat="45.79335626557452" lon="9.353248914970122"><ele>285.0</ele><time>2026-05-03T10:42:01Z</time></trkpt><trkpt lat="45.79342530210101" lon="9.353377897142801"><ele>285.0</ele><time>2026-05-03T10:42:03Z</time></trkpt><trkpt lat="45.793514478279185" lon="9.353398004730197"><ele>285.0</ele><time>2026-05-03T10:42:05Z</time></trkpt><trkpt lat="45.79362600490331" lon="9.353308046126111"><ele>285.0</ele><time>2026-05-03T10:42:07Z</time></trkpt><trkpt lat="45.79370834331322" lon="9.353268862507598"><ele>285.0</ele><time>2026-05-03T10:42:08Z</time></trkpt><trkpt lat="45.79378307372613" lon="9.35326382999865"><ele>285.0</ele><time>2026-05-03T10:42:09.001Z</time></trkpt><trkpt lat="45.79387102642453" lon="9.35327201562002"><ele>285.0</ele><time>2026-05-03T10:42:10.001Z</time></trkpt><trkpt lat="45.79394807919152" lon="9.353288644461223"><ele>285.0</ele><time>2026-05-03T10:42:11.001Z</time></trkpt><trkpt lat="45.79402449664555" lon="9.353303040387468"><ele>285.0</ele><time>2026-05-03T10:42:12.001Z</time></trkpt><trkpt lat="45.79410154292955" lon="9.353329369651687"><ele>285.0</ele><time>2026-05-03T10:42:13.001Z</time></trkpt><trkpt lat="45.79418117484675" lon="9.353349565351214"><ele>285.0</ele><time>2026-05-03T10:42:14.001Z</time></trkpt><trkpt lat="45.79425370305491" lon="9.353387967743462"><ele>285.0</ele><time>2026-05-03T10:42:15.001Z</time></trkpt><trkpt lat="45.79433475628329" lon="9.353438527340687"><ele>285.0</ele><time>2026-05-03T10:42:16.001Z</time></trkpt><trkpt lat="45.79441384639874" lon="9.35350504895808"><ele>285.0</ele><time>2026-05-03T10:42:17.001Z</time></trkpt><trkpt lat="45.79449019144091" lon="9.353585377381995"><ele>285.0</ele><time>2026-05-03T10:42:18.001Z</time></trkpt><trkpt lat="45.79456415434369" lon="9.35367589937673"><ele>283.4</ele><time>2026-05-03T10:42:19.001Z</time></trkpt><trkpt lat="45.79462933834248" lon="9.353792828622975"><ele>281.8</ele><time>2026-05-03T10:42:20.001Z</time></trkpt><trkpt lat="45.79468996922506" lon="9.353921644515664"><ele>280.2</ele><time>2026-05-03T10:42:21.001Z</time></trkpt><trkpt lat="45.79474027501267" lon="9.35405878114722"><ele>278.6</ele><time>2026-05-03T10:42:22.001Z</time></trkpt><trkpt lat="45.79477567679395" lon="9.354204792373466"><ele>277.0</ele><time>2026-05-03T10:42:23.001Z</time></trkpt><trkpt lat="45.79479979371766" lon="9.354359642232312"><ele>277.0</ele><time>2026-05-03T10:42:24.001Z</time></trkpt><trkpt lat="45.79481745059929" lon="9.35451915822841"><ele>277.0</ele><time>2026-05-03T10:42:25.001Z</time></trkpt><trkpt lat="45.79483044444471" lon="9.354685430949983"><ele>277.0</ele><time>2026-05-03T10:42:26.001Z</time></trkpt><trkpt lat="45.79484314623809" lon="9.354851524094357"><ele>277.0</ele><time>2026-05-03T10:42:27.001Z</time></trkpt><trkpt lat="45.79485920036402" lon="9.355007087569076"><ele>277.4</ele><time>2026-05-03T10:42:28.001Z</time></trkpt><trkpt lat="45.79487591594781" lon="9.35512486658819"><ele>277.79999999999995</ele><time>2026-05-03T10:42:29.001Z</time></trkpt><trkpt lat="45.794884272125024" lon="9.35525502654338"><ele>278.2</ele><time>2026-05-03T10:42:31.001Z</time></trkpt><trkpt lat="45.79488081288814" lon="9.355159528975594"><ele>278.59999999999997</ele><time>2026-05-03T10:42:39.001Z</time></trkpt><trkpt lat="45.794887470700466" lon="9.354970511764357"><ele>279.0</ele><time>2026-05-03T10:42:40.001Z</time></trkpt><trkpt lat="45.794877598769126" lon="9.354837329186159"><ele>278.59999999999997</ele><time>2026-05-03T10:42:41.001Z</time></trkpt><trkpt lat="45.79486671199233" lon="9.354682296144253"><ele>278.2</ele><time>2026-05-03T10:42:42.001Z</time></trkpt><trkpt lat="45.79485684599624" lon="9.354521485809496"><ele>277.79999999999995</ele><time>2026-05-03T10:42:43.001Z</time></trkpt><trkpt lat="45.79484006042194" lon="9.354369679399552"><ele>277.4</ele><time>2026-05-03T10:42:44.001Z</time></trkpt><trkpt lat="45.79481394213938" lon="9.354210256939776"><ele>277.0</ele><time>2026-05-03T10:42:45.001Z</time></trkpt><trkpt lat="45.79477443768943" lon="9.354054030329804"><ele>277.0</ele><time>2026-05-03T10:42:46.001Z</time></trkpt><trkpt lat="45.79471921190453" lon="9.353899378041952"><ele>277.0</ele><time>2026-05-03T10:42:47.002Z</time></trkpt><trkpt lat="45.79465141878842" lon="9.353754245651725"><ele>277.0</ele><time>2026-05-03T10:42:48.002Z</time></trkpt><trkpt lat="45.794568115642974" lon="9.353621629802937"><ele>277.0</ele><time>2026-05-03T10:42:49.002Z</time></trkpt><trkpt lat="45.79447011867189" lon="9.353505418631025"><ele>279.0</ele><time>2026-05-03T10:42:50.002Z</time></trkpt><trkpt lat="45.79436117477459" lon="9.353401759041589"><ele>281.0</ele><time>2026-05-03T10:42:51.002Z</time></trkpt><trkpt lat="45.794246093004915" lon="9.353325085435673"><ele>283.0</ele><time>2026-05-03T10:42:52.002Z</time></trkpt><trkpt lat="45.794121590451155" lon="9.353280152229072"><ele>285.0</ele><time>2026-05-03T10:42:53.002Z</time></trkpt><trkpt lat="45.79400635387268" lon="9.353255219741122"><ele>285.0</ele><time>2026-05-03T10:42:54.002Z</time></trkpt><trkpt lat="45.793906037189636" lon="9.353237757327431"><ele>285.0</ele><time>2026-05-03T10:42:55.002Z</time></trkpt><trkpt lat="45.793813551525496" lon="9.353229439837603"><ele>285.0</ele><time>2026-05-03T10:42:56.002Z</time></trkpt><trkpt lat="45.79373140062397" lon="9.353222730327502"><ele>285.0</ele><time>2026-05-03T10:42:57.002Z</time></trkpt><trkpt lat="45.79366146730693" lon="9.353213151688674"><ele>285.0</ele><time>2026-05-03T10:42:58.002Z</time></trkpt><trkpt lat="45.793593703658544" lon="9.35319484290856"><ele>285.0</ele><time>2026-05-03T10:42:59.002Z</time></trkpt><trkpt lat="45.79349170899038" lon="9.353180231977706"><ele>285.0</ele><time>2026-05-03T10:43:01.002Z</time></trkpt><trkpt lat="45.793421064713506" lon="9.353268008400633"><ele>285.0</ele><time>2026-05-03T10:43:03.002Z</time></trkpt><trkpt lat="45.79344642638203" lon="9.353434022478249"><ele>285.0</ele><time>2026-05-03T10:43:05.002Z</time></trkpt><trkpt lat="45.79349714163176" lon="9.3535194114757"><ele>285.0</ele><time>2026-05-03T10:43:06.002Z</time></trkpt><trkpt lat="45.79355945393012" lon="9.353599497018324"><ele>285.0</ele><time>2026-05-03T10:43:07.002Z</time></trkpt><trkpt lat="45.79363634403025" lon="9.353659547015448"><ele>285.0</ele><time>2026-05-03T10:43:08.002Z</time></trkpt><trkpt lat="45.79371926372309" lon="9.353716088145235"><ele>285.0</ele><time>2026-05-03T10:43:09.002Z</time></trkpt><trkpt lat="45.79380743776264" lon="9.353768257806626"><ele>285.0</ele><time>2026-05-03T10:43:10.002Z</time></trkpt><trkpt lat="45.79389899295483" lon="9.353822823750182"><ele>285.0</ele><time>2026-05-03T10:43:11.002Z</time></trkpt><trkpt lat="45.79400256346682" lon="9.353902077376114"><ele>285.0</ele><time>2026-05-03T10:43:12.002Z</time></trkpt><trkpt lat="45.79410686589627" lon="9.353991171872131"><ele>283.0</ele><time>2026-05-03T10:43:13.002Z</time></trkpt><trkpt lat="45.79419707536524" lon="9.35408878209548"><ele>281.0</ele><time>2026-05-03T10:43:14.002Z</time></trkpt><trkpt lat="45.794262383707974" lon="9.354232807719958"><ele>279.0</ele><time>2026-05-03T10:43:15.002Z</time></trkpt><trkpt lat="45.79435217085893" lon="9.354390776310012"><ele>277.0</ele><time>2026-05-03T10:43:16.002Z</time></trkpt><trkpt lat="45.79441514749746" lon="9.354575800242676"><ele>277.66666666666663</ele><time>2026-05-03T10:43:17.002Z</time></trkpt><trkpt lat="45.79445287473529" lon="9.354780384660422"><ele>278.3333333333333</ele><time>2026-05-03T10:43:18.002Z</time></trkpt><trkpt lat="45.79451435555424" lon="9.354983878013272"><ele>279.0</ele><time>2026-05-03T10:43:19.002Z</time></trkpt><trkpt lat="45.79454796746424" lon="9.355212487220738"><ele>279.0</ele><time>2026-05-03T10:43:20.002Z</time></trkpt><trkpt lat="45.794567452602784" lon="9.355454503981193"><ele>279.0</ele><time>2026-05-03T10:43:21.002Z</time></trkpt><trkpt lat="45.79457155724342" lon="9.355679051857624"><ele>279.0</ele><time>2026-05-03T10:43:22.002Z</time></trkpt><trkpt lat="45.79457407610133" lon="9.355887552942805"><ele>278.75</ele><time>2026-05-03T10:43:23.002Z</time></trkpt><trkpt lat="45.79457546042792" lon="9.356081163999688"><ele>278.5</ele><time>2026-05-03T10:43:24.002Z</time></trkpt><trkpt lat="45.79458185313271" lon="9.356260788573655"><ele>278.25</ele><time>2026-05-03T10:43:25.003Z</time></trkpt><trkpt lat="45.79460192707452" lon="9.356419465605127"><ele>278.0</ele><time>2026-05-03T10:43:26.003Z</time></trkpt><trkpt lat="45.79463994017042" lon="9.356554905005737"><ele>280.4</ele><time>2026-05-03T10:43:27.003Z</time></trkpt><trkpt lat="45.794693220873164" lon="9.356666625959779"><ele>282.8</ele><time>2026-05-03T10:43:28.003Z</time></trkpt><trkpt lat="45.79476917863398" lon="9.356750391738588"><ele>285.2</ele><time>2026-05-03T10:43:29.003Z</time></trkpt><trkpt lat="45.79487046731974" lon="9.356822565971475"><ele>287.6</ele><time>2026-05-03T10:43:30.003Z</time></trkpt><trkpt lat="45.7949890881926" lon="9.356871621788086"><ele>290.0</ele><time>2026-05-03T10:43:31.003Z</time></trkpt><trkpt lat="45.79512197942345" lon="9.356912514691762"><ele>289.5</ele><time>2026-05-03T10:43:32.003Z</time></trkpt><trkpt lat="45.79524748795303" lon="9.356984492229614"><ele>289.0</ele><time>2026-05-03T10:43:33.003Z</time></trkpt><trkpt lat="45.795387563920585" lon="9.35702661037776"><ele>288.5</ele><time>2026-05-03T10:43:34.003Z</time></trkpt><trkpt lat="45.79551195059002" lon="9.35710432918625"><ele>288.0</ele><time>2026-05-03T10:43:35.003Z</time></trkpt><trkpt lat="45.79561205998058" lon="9.357208859257282"><ele>290.25</ele><time>2026-05-03T10:43:36Z</time></trkpt><trkpt lat="45.7956963388974" lon="9.357314467513955"><ele>292.5</ele><time>2026-05-03T10:43:37Z</time></trkpt><trkpt lat="45.79576932859821" lon="9.357451759046826"><ele>294.75</ele><time>2026-05-03T10:43:38Z</time></trkpt><trkpt lat="45.79586465031862" lon="9.357589547646404"><ele>297.0</ele><time>2026-05-03T10:43:39Z</time></trkpt><trkpt lat="45.79596366744896" lon="9.357743414662416"><ele>296.25</ele><time>2026-05-03T10:43:40Z</time></trkpt><trkpt lat="45.79609015510095" lon="9.357867681532019"><ele>295.5</ele><time>2026-05-03T10:43:41Z</time></trkpt><trkpt lat="45.79622445692193" lon="9.35795425429049"><ele>294.75</ele><time>2026-05-03T10:43:42Z</time></trkpt><trkpt lat="45.79635992471578" lon="9.35800566350354"><ele>294.0</ele><time>2026-05-03T10:43:43Z</time></trkpt><trkpt lat="45.79650603746288" lon="9.35803053960851"><ele>295.0</ele><time>2026-05-03T10:43:44Z</time></trkpt><trkpt lat="45.796672772719575" lon="9.358048552309084"><ele>296.0</ele><time>2026-05-03T10:43:45Z</time></trkpt><trkpt lat="45.796816272639994" lon="9.35811785259603"><ele>297.0</ele><time>2026-05-03T10:43:46Z</time></trkpt><trkpt lat="45.79695404240865" lon="9.358211089227174"><ele>297.0</ele><time>2026-05-03T10:43:47Z</time></trkpt><trkpt lat="45.79709902859087" lon="9.358299723450568"><ele>297.0</ele><time>2026-05-03T10:43:48Z</time></trkpt><trkpt lat="45.797239832946715" lon="9.35841593631596"><ele>297.0</ele><time>2026-05-03T10:43:49Z</time></trkpt><trkpt lat="45.79737265338283" lon="9.358508644567639"><ele>297.0</ele><time>2026-05-03T10:43:50Z</time></trkpt><trkpt lat="45.797485127513305" lon="9.358590836931636"><ele>297.0</ele><time>2026-05-03T10:43:51Z</time></trkpt><trkpt lat="45.797586233144635" lon="9.358666147762921"><ele>297.0</ele><time>2026-05-03T10:43:52Z</time></trkpt><trkpt lat="45.79768014143847" lon="9.358734350791353"><ele>297.0</ele><time>2026-05-03T10:43:53Z</time></trkpt><trkpt lat="45.79777010343885" lon="9.358793699188876"><ele>297.0</ele><time>2026-05-03T10:43:54Z</time></trkpt><trkpt lat="45.79786218846889" lon="9.358860241082679"><ele>298.0</ele><time>2026-05-03T10:43:55Z</time></trkpt><trkpt lat="45.797942202696994" lon="9.35891558931745"><ele>299.0</ele><time>2026-05-03T10:43:56Z</time></trkpt><trkpt lat="45.79803245382581" lon="9.358981612806053"><ele>300.0</ele><time>2026-05-03T10:43:57Z</time></trkpt><trkpt lat="45.79812378972464" lon="9.359041587872017"><ele>301.0</ele><time>2026-05-03T10:43:58Z</time></trkpt><trkpt lat="45.798219578959575" lon="9.359108678254888"><ele>302.0</ele><time>2026-05-03T10:43:59Z</time></trkpt><trkpt lat="45.79831617852584" lon="9.359178399232496"><ele>302.0</ele><time>2026-05-03T10:44:00Z</time></trkpt><trkpt lat="45.798413579879174" lon="9.359250818542757"><ele>302.0</ele><time>2026-05-03T10:44:01Z</time></trkpt><trkpt lat="45.79850993996133" lon="9.359316872399676"><ele>302.0</ele><time>2026-05-03T10:44:02Z</time></trkpt><trkpt lat="45.79861457663276" lon="9.359383760929177"><ele>302.0</ele><time>2026-05-03T10:44:03Z</time></trkpt><trkpt lat="45.79871702560188" lon="9.35945206171907"><ele>302.0</ele><time>2026-05-03T10:44:04Z</time></trkpt><trkpt lat="45.798818014111525" lon="9.359518652418048"><ele>303.5</ele><time>2026-05-03T10:44:05Z</time></trkpt><trkpt lat="45.798922083296496" lon="9.35959098811649"><ele>305.0</ele><time>2026-05-03T10:44:06Z</time></trkpt><trkpt lat="45.799026459323386" lon="9.359664940696343"><ele>306.5</ele><time>2026-05-03T10:44:07Z</time></trkpt><trkpt lat="45.799131663353734" lon="9.359736863716604"><ele>308.0</ele><time>2026-05-03T10:44:08Z</time></trkpt><trkpt lat="45.79924264407285" lon="9.35981392621741"><ele>305.0</ele><time>2026-05-03T10:44:09.001Z</time></trkpt><trkpt lat="45.79935139236109" lon="9.359893198269265"><ele>302.0</ele><time>2026-05-03T10:44:10.001Z</time></trkpt><trkpt lat="45.799459959660105" lon="9.359968691554258"><ele>299.0</ele><time>2026-05-03T10:44:11.001Z</time></trkpt><trkpt lat="45.79956969128741" lon="9.360041177296715"><ele>296.0</ele><time>2026-05-03T10:44:12.001Z</time></trkpt><trkpt lat="45.79968192233088" lon="9.360115343124319"><ele>296.0</ele><time>2026-05-03T10:44:13.001Z</time></trkpt><trkpt lat="45.799792693141484" lon="9.360190647622142"><ele>296.0</ele><time>2026-05-03T10:44:14.001Z</time></trkpt><trkpt lat="45.79989596053954" lon="9.360264890749102"><ele>296.0</ele><time>2026-05-03T10:44:15.001Z</time></trkpt><trkpt lat="45.79998972273273" lon="9.360332070210832"><ele>296.0</ele><time>2026-05-03T10:44:16.001Z</time></trkpt><trkpt lat="45.800081106452346" lon="9.360394828825584"><ele>296.0</ele><time>2026-05-03T10:44:17.001Z</time></trkpt><trkpt lat="45.80017412161191" lon="9.360470231172304"><ele>296.8</ele><time>2026-05-03T10:44:18.001Z</time></trkpt><trkpt lat="45.80026621394043" lon="9.360548148942568"><ele>297.6</ele><time>2026-05-03T10:44:19.001Z</time></trkpt><trkpt lat="45.80036307828581" lon="9.360629930203826"><ele>298.4</ele><time>2026-05-03T10:44:20.001Z</time></trkpt><trkpt lat="45.8004572028765" lon="9.360708868143837"><ele>299.2</ele><time>2026-05-03T10:44:21.001Z</time></trkpt><trkpt lat="45.800550794968295" lon="9.360789752410431"><ele>300.0</ele><time>2026-05-03T10:44:22.001Z</time></trkpt><trkpt lat="45.8006484499225" lon="9.360870246449455"><ele>300.0</ele><time>2026-05-03T10:44:23.001Z</time></trkpt><trkpt lat="45.800745545938206" lon="9.360950639786134"><ele>300.0</ele><time>2026-05-03T10:44:24.001Z</time></trkpt><trkpt lat="45.800845988971304" lon="9.361025976634288"><ele>300.0</ele><time>2026-05-03T10:44:25.001Z</time></trkpt><trkpt lat="45.800938009280955" lon="9.361114573231456"><ele>300.0</ele><time>2026-05-03T10:44:26.001Z</time></trkpt><trkpt lat="45.80103326132035" lon="9.361192350794266"><ele>300.0</ele><time>2026-05-03T10:44:27.001Z</time></trkpt><trkpt lat="45.80112518371363" lon="9.361256310806871"><ele>300.1666666666667</ele><time>2026-05-03T10:44:28.001Z</time></trkpt><trkpt lat="45.80120505812235" lon="9.361319974512144"><ele>300.3333333333333</ele><time>2026-05-03T10:44:29.001Z</time></trkpt><trkpt lat="45.80128211736646" lon="9.361390783948536"><ele>300.5</ele><time>2026-05-03T10:44:30.001Z</time></trkpt><trkpt lat="45.80135883633957" lon="9.361458200105773"><ele>300.66666666666663</ele><time>2026-05-03T10:44:31.001Z</time></trkpt><trkpt lat="45.80143597583475" lon="9.361523635942934"><ele>300.8333333333333</ele><time>2026-05-03T10:44:32.001Z</time></trkpt><trkpt lat="45.80150802132011" lon="9.36158636994582"><ele>301.0</ele><time>2026-05-03T10:44:33.001Z</time></trkpt><trkpt lat="45.801572780292055" lon="9.361666891111987"><ele>301.0</ele><time>2026-05-03T10:44:34.001Z</time></trkpt><trkpt lat="45.801635168652986" lon="9.36176018020857"><ele>301.0</ele><time>2026-05-03T10:44:35.001Z</time></trkpt><trkpt lat="45.801692638766944" lon="9.361851546940313"><ele>301.0</ele><time>2026-05-03T10:44:36.001Z</time></trkpt><trkpt lat="45.80175399498533" lon="9.361947371161536"><ele>301.0</ele><time>2026-05-03T10:44:37.001Z</time></trkpt><trkpt lat="45.801818640389534" lon="9.362040926942296"><ele>301.0</ele><time>2026-05-03T10:44:38.001Z</time></trkpt><trkpt lat="45.80188613708467" lon="9.362144569951033"><ele>301.40000000000003</ele><time>2026-05-03T10:44:39.001Z</time></trkpt><trkpt lat="45.80195120523721" lon="9.36224347398289"><ele>301.8</ele><time>2026-05-03T10:44:40.001Z</time></trkpt><trkpt lat="45.80202003545404" lon="9.362346659245617"><ele>302.20000000000005</ele><time>2026-05-03T10:44:41.001Z</time></trkpt><trkpt lat="45.80208957624925" lon="9.362454527786731"><ele>302.6</ele><time>2026-05-03T10:44:42.001Z</time></trkpt><trkpt lat="45.802156352647245" lon="9.362557973640383"><ele>303.0</ele><time>2026-05-03T10:44:43.001Z</time></trkpt><trkpt lat="45.80222683154494" lon="9.36266155849912"><ele>303.0</ele><time>2026-05-03T10:44:44.001Z</time></trkpt><trkpt lat="45.80230711000664" lon="9.362774208782437"><ele>303.0</ele><time>2026-05-03T10:44:45.001Z</time></trkpt><trkpt lat="45.80240469925108" lon="9.362889467929941"><ele>303.0</ele><time>2026-05-03T10:44:46.001Z</time></trkpt><trkpt lat="45.80251594961651" lon="9.362999117681209"><ele>303.0</ele><time>2026-05-03T10:44:47.002Z</time></trkpt><trkpt lat="45.8026367132922" lon="9.363105029843064"><ele>306.0</ele><time>2026-05-03T10:44:48.002Z</time></trkpt><trkpt lat="45.80275347564318" lon="9.363210377311498"><ele>309.0</ele><time>2026-05-03T10:44:49.002Z</time></trkpt><trkpt lat="45.80287037901611" lon="9.363321912807136"><ele>312.0</ele><time>2026-05-03T10:44:50.002Z</time></trkpt><trkpt lat="45.80299576395836" lon="9.363439693299723"><ele>315.0</ele><time>2026-05-03T10:44:51.002Z</time></trkpt><trkpt lat="45.80311743059375" lon="9.363561036301883"><ele>315.0</ele><time>2026-05-03T10:44:52.002Z</time></trkpt><trkpt lat="45.803243923226326" lon="9.363674732690423"><ele>315.0</ele><time>2026-05-03T10:44:53.002Z</time></trkpt><trkpt lat="45.80335557258029" lon="9.36378187917869"><ele>315.0</ele><time>2026-05-03T10:44:54.002Z</time></trkpt><trkpt lat="45.80345215295415" lon="9.363876046590578"><ele>315.0</ele><time>2026-05-03T10:44:55.002Z</time></trkpt><trkpt lat="45.80354140980555" lon="9.363960345140233"><ele>315.0</ele><time>2026-05-03T10:44:56.002Z</time></trkpt><trkpt lat="45.80361746398237" lon="9.364036820704145"><ele>315.0</ele><time>2026-05-03T10:44:57.002Z</time></trkpt><trkpt lat="45.80368292585301" lon="9.364103437697802"><ele>315.0</ele><time>2026-05-03T10:44:58.002Z</time></trkpt><trkpt lat="45.80373581914338" lon="9.364156663471821"><ele>315.0</ele><time>2026-05-03T10:44:59.002Z</time></trkpt><trkpt lat="45.803768147267505" lon="9.36425460767143"><ele>315.0</ele><time>2026-05-03T10:45:01.002Z</time></trkpt><trkpt lat="45.80368610190922" lon="9.364303815234225"><ele>315.0</ele><time>2026-05-03T10:45:03.002Z</time></trkpt><trkpt lat="45.80363015733662" lon="9.364262348621809"><ele>315.0</ele><time>2026-05-03T10:45:04.002Z</time></trkpt><trkpt lat="45.80358197237483" lon="9.364140266278126"><ele>315.0</ele><time>2026-05-03T10:45:06.002Z</time></trkpt><trkpt lat="45.80352466533662" lon="9.364069056084299"><ele>315.0</ele><time>2026-05-03T10:45:08.002Z</time></trkpt><trkpt lat="45.803416384444525" lon="9.363987204067996"><ele>315.0</ele><time>2026-05-03T10:45:10.002Z</time></trkpt><trkpt lat="45.803341075551266" lon="9.363928008032804"><ele>315.0</ele><time>2026-05-03T10:45:11.002Z</time></trkpt><trkpt lat="45.803256753137084" lon="9.363854996442335"><ele>315.0</ele><time>2026-05-03T10:45:12.002Z</time></trkpt><trkpt lat="45.80317152944319" lon="9.36379210272458"><ele>315.0</ele><time>2026-05-03T10:45:13.002Z</time></trkpt><trkpt lat="45.80310408664583" lon="9.36373754020412"><ele>315.0</ele><time>2026-05-03T10:45:14.002Z</time></trkpt><trkpt lat="45.803042587200366" lon="9.36369091534813"><ele>315.0</ele><time>2026-05-03T10:45:15.002Z</time></trkpt><trkpt lat="45.80294674881479" lon="9.36361961823001"><ele>315.0</ele><time>2026-05-03T10:45:17.002Z</time></trkpt><trkpt lat="45.80284542126384" lon="9.363620075406619"><ele>315.0</ele><time>2026-05-03T10:45:19.002Z</time></trkpt><trkpt lat="45.80280333314269" lon="9.363757885832495"><ele>315.0</ele><time>2026-05-03T10:45:20.002Z</time></trkpt><trkpt lat="45.80275940890099" lon="9.363850045031052"><ele>315.0</ele><time>2026-05-03T10:45:21.002Z</time></trkpt><trkpt lat="45.80271102449141" lon="9.363940239109617"><ele>315.0</ele><time>2026-05-03T10:45:22.002Z</time></trkpt><trkpt lat="45.802664587826506" lon="9.36402717386859"><ele>315.0</ele><time>2026-05-03T10:45:23.002Z</time></trkpt><trkpt lat="45.80261700444756" lon="9.36412391713579"><ele>315.0</ele><time>2026-05-03T10:45:24.002Z</time></trkpt><trkpt lat="45.80257131295703" lon="9.364228962674545"><ele>316.4</ele><time>2026-05-03T10:45:25.003Z</time></trkpt><trkpt lat="45.802514251104036" lon="9.36433658424908"><ele>317.8</ele><time>2026-05-03T10:45:26.003Z</time></trkpt><trkpt lat="45.80245566811861" lon="9.364441087931171"><ele>319.20000000000005</ele><time>2026-05-03T10:45:27.003Z</time></trkpt><trkpt lat="45.80239225567459" lon="9.364556847521019"><ele>320.6</ele><time>2026-05-03T10:45:28.003Z</time></trkpt><trkpt lat="45.80233015210611" lon="9.364682126970138"><ele>322.0</ele><time>2026-05-03T10:45:29.003Z</time></trkpt><trkpt lat="45.80227668942127" lon="9.364792304455367"><ele>323.16666666666663</ele><time>2026-05-03T10:45:30.003Z</time></trkpt><trkpt lat="45.802234745878366" lon="9.364868749898946"><ele>324.3333333333333</ele><time>2026-05-03T10:45:31.003Z</time></trkpt><trkpt lat="45.80218276743152" lon="9.364970448591981"><ele>325.5</ele><time>2026-05-03T10:45:33.003Z</time></trkpt><trkpt lat="45.802127361021114" lon="9.365063717859927"><ele>326.6666666666667</ele><time>2026-05-03T10:45:37.003Z</time></trkpt><trkpt lat="45.80219742801721" lon="9.365153512815798"><ele>327.83333333333337</ele><time>2026-05-03T10:45:38.003Z</time></trkpt><trkpt lat="45.80225653542797" lon="9.365197426693081"><ele>329.0</ele><time>2026-05-03T10:45:39.003Z</time></trkpt><trkpt lat="45.80233102408358" lon="9.365274724860843"><ele>329.0</ele><time>2026-05-03T10:45:41.003Z</time></trkpt><trkpt lat="45.80240906562461" lon="9.365356034600314"><ele>329.0</ele><time>2026-05-03T10:45:43Z</time></trkpt><trkpt lat="45.80245421497345" lon="9.365435713628537"><ele>329.0</ele><time>2026-05-03T10:45:45Z</time></trkpt><trkpt lat="45.80243381003024" lon="9.3655265255281"><ele>329.0</ele><time>2026-05-03T10:45:47Z</time></trkpt><trkpt lat="45.80246060988993" lon="9.36542049649061"><ele>329.0</ele><time>2026-05-03T10:46:32.001Z</time></trkpt><trkpt lat="45.80238155924004" lon="9.365314686919572"><ele>329.0</ele><time>2026-05-03T10:46:34.001Z</time></trkpt><trkpt lat="45.80219979626438" lon="9.36511209665719"><ele>329.0</ele><time>2026-05-03T10:46:37.001Z</time></trkpt><trkpt lat="45.802172243264856" lon="9.364998355727609"><ele>329.0</ele><time>2026-05-03T10:46:39.001Z</time></trkpt><trkpt lat="45.802273717079515" lon="9.364835030556913"><ele>329.0</ele><time>2026-05-03T10:46:41.001Z</time></trkpt><trkpt lat="45.80234050223343" lon="9.364721042555738"><ele>329.0</ele><time>2026-05-03T10:46:42.001Z</time></trkpt><trkpt lat="45.80240606596186" lon="9.36457672845519"><ele>327.6</ele><time>2026-05-03T10:46:43.001Z</time></trkpt><trkpt lat="45.80247164919549" lon="9.36444186869957"><ele>326.2</ele><time>2026-05-03T10:46:44.001Z</time></trkpt><trkpt lat="45.80253544927355" lon="9.36432033288723"><ele>324.8</ele><time>2026-05-03T10:46:45.001Z</time></trkpt><trkpt lat="45.80259256663271" lon="9.364206097974455"><ele>323.40000000000003</ele><time>2026-05-03T10:46:46.001Z</time></trkpt><trkpt lat="45.80264033540715" lon="9.364100946967442"><ele>322.0</ele><time>2026-05-03T10:46:47.001Z</time></trkpt><trkpt lat="45.80268896242533" lon="9.364005381785063"><ele>322.0</ele><time>2026-05-03T10:46:48.001Z</time></trkpt><trkpt lat="45.80273319013167" lon="9.36391917330645"><ele>322.0</ele><time>2026-05-03T10:46:49.001Z</time></trkpt><trkpt lat="45.80277959032584" lon="9.363829807618137"><ele>322.0</ele><time>2026-05-03T10:46:50.001Z</time></trkpt><trkpt lat="45.802823573805235" lon="9.363748706979344"><ele>322.0</ele><time>2026-05-03T10:46:51.001Z</time></trkpt><trkpt lat="45.80290542060714" lon="9.363648228654885"><ele>322.0</ele><time>2026-05-03T10:46:53.002Z</time></trkpt><trkpt lat="45.80302272631752" lon="9.363688999394826"><ele>322.0</ele><time>2026-05-03T10:46:55.002Z</time></trkpt><trkpt lat="45.803099786080715" lon="9.363760176306435"><ele>322.0</ele><time>2026-05-03T10:46:56.002Z</time></trkpt><trkpt lat="45.803185747831826" lon="9.363825137000662"><ele>322.0</ele><time>2026-05-03T10:46:57.002Z</time></trkpt><trkpt lat="45.803293115527" lon="9.363912053477579"><ele>322.0</ele><time>2026-05-03T10:46:58.002Z</time></trkpt><trkpt lat="45.803402021982734" lon="9.364006031827588"><ele>322.0</ele><time>2026-05-03T10:46:59.002Z</time></trkpt><trkpt lat="45.803499605389064" lon="9.364085554232316"><ele>320.8333333333333</ele><time>2026-05-03T10:47:00.002Z</time></trkpt><trkpt lat="45.80357660142752" lon="9.364169829016408"><ele>319.66666666666663</ele><time>2026-05-03T10:47:01.002Z</time></trkpt><trkpt lat="45.80362191334221" lon="9.36425572280748"><ele>318.5</ele><time>2026-05-03T10:47:02.002Z</time></trkpt><trkpt lat="45.803700444743185" lon="9.364331631030101"><ele>317.3333333333333</ele><time>2026-05-03T10:47:04.002Z</time></trkpt><trkpt lat="45.80376803289475" lon="9.364308325493914"><ele>316.1666666666667</ele><time>2026-05-03T10:47:06.002Z</time></trkpt><trkpt lat="45.803826107551416" lon="9.364212712697553"><ele>315.0</ele><time>2026-05-03T10:47:09.002Z</time></trkpt><trkpt lat="45.80372247838381" lon="9.364093479292269"><ele>315.0</ele><time>2026-05-03T10:47:10.002Z</time></trkpt><trkpt lat="45.80363266987982" lon="9.364017968489247"><ele>315.0</ele><time>2026-05-03T10:47:11.002Z</time></trkpt><trkpt lat="45.803534700220695" lon="9.363920867718715"><ele>315.0</ele><time>2026-05-03T10:47:12.002Z</time></trkpt><trkpt lat="45.80343465098525" lon="9.363829052767773"><ele>315.0</ele><time>2026-05-03T10:47:13.002Z</time></trkpt><trkpt lat="45.803313140131145" lon="9.363719667165942"><ele>315.0</ele><time>2026-05-03T10:47:14.002Z</time></trkpt><trkpt lat="45.80318684194215" lon="9.363573171252261"><ele>315.0</ele><time>2026-05-03T10:47:15.002Z</time></trkpt><trkpt lat="45.80304655616196" lon="9.363468240409798"><ele>315.0</ele><time>2026-05-03T10:47:16.002Z</time></trkpt><trkpt lat="45.80291537430436" lon="9.36334363372192"><ele>315.0</ele><time>2026-05-03T10:47:17.002Z</time></trkpt><trkpt lat="45.80277557786189" lon="9.363185338354615"><ele>315.0</ele><time>2026-05-03T10:47:18.002Z</time></trkpt><trkpt lat="45.80263586405162" lon="9.363055057119407"><ele>315.0</ele><time>2026-05-03T10:47:19.002Z</time></trkpt><trkpt lat="45.80250816571316" lon="9.362935980192352"><ele>312.0</ele><time>2026-05-03T10:47:20.002Z</time></trkpt><trkpt lat="45.80238885890704" lon="9.362815785792025"><ele>309.0</ele><time>2026-05-03T10:47:21.002Z</time></trkpt><trkpt lat="45.80228308305682" lon="9.362682339354853"><ele>306.0</ele><time>2026-05-03T10:47:22.002Z</time></trkpt><trkpt lat="45.802183772836905" lon="9.362535851129469"><ele>303.0</ele><time>2026-05-03T10:47:23.002Z</time></trkpt><trkpt lat="45.80207290337869" lon="9.362366407663307"><ele>302.3333333333333</ele><time>2026-05-03T10:47:24.002Z</time></trkpt><trkpt lat="45.80194934451111" lon="9.36218071684135"><ele>301.66666666666663</ele><time>2026-05-03T10:47:25.002Z</time></trkpt><trkpt lat="45.80181501231066" lon="9.362013102841452"><ele>301.0</ele><time>2026-05-03T10:47:26.002Z</time></trkpt><trkpt lat="45.80171258605831" lon="9.361827047780173"><ele>301.0</ele><time>2026-05-03T10:47:27.002Z</time></trkpt><trkpt lat="45.80160517225139" lon="9.361695357545198"><ele>301.0</ele><time>2026-05-03T10:47:28.002Z</time></trkpt><trkpt lat="45.80150739760298" lon="9.361556749017382"><ele>301.0</ele><time>2026-05-03T10:47:29.002Z</time></trkpt><trkpt lat="45.80140486451829" lon="9.361441096863148"><ele>301.0</ele><time>2026-05-03T10:47:30.002Z</time></trkpt><trkpt lat="45.80128654159691" lon="9.361344268134449"><ele>300.75</ele><time>2026-05-03T10:47:31.003Z</time></trkpt><trkpt lat="45.80116552476031" lon="9.361256075780316"><ele>300.5</ele><time>2026-05-03T10:47:32.003Z</time></trkpt><trkpt lat="45.80104393485724" lon="9.36116020336082"><ele>300.25</ele><time>2026-05-03T10:47:33.003Z</time></trkpt><trkpt lat="45.80092697206865" lon="9.361063752413735"><ele>300.0</ele><time>2026-05-03T10:47:34.003Z</time></trkpt><trkpt lat="45.80082675293063" lon="9.36098219766816"><ele>300.0</ele><time>2026-05-03T10:47:35.003Z</time></trkpt><trkpt lat="45.80074101000511" lon="9.360912692409453"><ele>300.0</ele><time>2026-05-03T10:47:36.003Z</time></trkpt><trkpt lat="45.80066790425183" lon="9.36085808097821"><ele>300.0</ele><time>2026-05-03T10:47:37.003Z</time></trkpt><trkpt lat="45.800607164020136" lon="9.360783179976192"><ele>300.0</ele><time>2026-05-03T10:47:38.003Z</time></trkpt><trkpt lat="45.800535196644454" lon="9.360721732017023"><ele>300.0</ele><time>2026-05-03T10:47:39.003Z</time></trkpt><trkpt lat="45.8004550152314" lon="9.3606704944792"><ele>300.0</ele><time>2026-05-03T10:47:40.003Z</time></trkpt><trkpt lat="45.800374086548636" lon="9.360602613538854"><ele>299.2</ele><time>2026-05-03T10:47:41.003Z</time></trkpt><trkpt lat="45.80029493087364" lon="9.360532073959357"><ele>298.4</ele><time>2026-05-03T10:47:42.003Z</time></trkpt><trkpt lat="45.80020846245229" lon="9.360464296200155"><ele>297.6</ele><time>2026-05-03T10:47:43.003Z</time></trkpt><trkpt lat="45.80011808872793" lon="9.36039447863804"><ele>296.8</ele><time>2026-05-03T10:47:44.003Z</time></trkpt><trkpt lat="45.80002167089725" lon="9.36032590983185"><ele>296.0</ele><time>2026-05-03T10:47:45.003Z</time></trkpt><trkpt lat="45.799928416558515" lon="9.360256099878509"><ele>296.0</ele><time>2026-05-03T10:47:46.003Z</time></trkpt><trkpt lat="45.799830338503746" lon="9.360191850874063"><ele>296.0</ele><time>2026-05-03T10:47:47.003Z</time></trkpt><trkpt lat="45.799734911886816" lon="9.36012721688662"><ele>296.0</ele><time>2026-05-03T10:47:48.001Z</time></trkpt><trkpt lat="45.799639164042816" lon="9.360061300032507"><ele>296.0</ele><time>2026-05-03T10:47:49.001Z</time></trkpt><trkpt lat="45.79954794837071" lon="9.359995522145379"><ele>296.0</ele><time>2026-05-03T10:47:50.001Z</time></trkpt><trkpt lat="45.799460881123174" lon="9.359927778396063"><ele>296.0</ele><time>2026-05-03T10:47:51.001Z</time></trkpt><trkpt lat="45.799363918709865" lon="9.359864147944577"><ele>296.0</ele><time>2026-05-03T10:47:52.001Z</time></trkpt><trkpt lat="45.7992677091386" lon="9.359796252200802"><ele>296.0</ele><time>2026-05-03T10:47:53.001Z</time></trkpt><trkpt lat="45.79916970442556" lon="9.359727186740562"><ele>296.0</ele><time>2026-05-03T10:47:54.001Z</time></trkpt><trkpt lat="45.799068719264326" lon="9.359657539421617"><ele>296.0</ele><time>2026-05-03T10:47:55.001Z</time></trkpt><trkpt lat="45.798969706407405" lon="9.359586678195276"><ele>295.75</ele><time>2026-05-03T10:47:56.001Z</time></trkpt><trkpt lat="45.79886625895336" lon="9.359515640185291"><ele>295.5</ele><time>2026-05-03T10:47:57.001Z</time></trkpt><trkpt lat="45.798761767804315" lon="9.359443679143668"><ele>295.25</ele><time>2026-05-03T10:47:58.001Z</time></trkpt><trkpt lat="45.798657130964045" lon="9.359372062225646"><ele>295.0</ele><time>2026-05-03T10:47:59.001Z</time></trkpt><trkpt lat="45.79855070838014" lon="9.359297303761855"><ele>296.75</ele><time>2026-05-03T10:48:00.001Z</time></trkpt><trkpt lat="45.798440827046186" lon="9.359221929008946"><ele>298.5</ele><time>2026-05-03T10:48:01.001Z</time></trkpt><trkpt lat="45.7983354676862" lon="9.359147148356936"><ele>300.25</ele><time>2026-05-03T10:48:02.001Z</time></trkpt><trkpt lat="45.798231328923684" lon="9.359078702649978"><ele>302.0</ele><time>2026-05-03T10:48:03.001Z</time></trkpt><trkpt lat="45.79812822409057" lon="9.359007261503892"><ele>302.0</ele><time>2026-05-03T10:48:04.001Z</time></trkpt><trkpt lat="45.79802481455711" lon="9.358936455037572"><ele>302.0</ele><time>2026-05-03T10:48:05.001Z</time></trkpt><trkpt lat="45.79792266426841" lon="9.358862495990202"><ele>302.0</ele><time>2026-05-03T10:48:06.001Z</time></trkpt><trkpt lat="45.79781780374487" lon="9.358793620940757"><ele>302.0</ele><time>2026-05-03T10:48:07.001Z</time></trkpt><trkpt lat="45.79771478570342" lon="9.358724973979308"><ele>301.0</ele><time>2026-05-03T10:48:08.001Z</time></trkpt><trkpt lat="45.797616052812764" lon="9.358657276263367"><ele>300.0</ele><time>2026-05-03T10:48:09.001Z</time></trkpt><trkpt lat="45.797529181147155" lon="9.358596179071426"><ele>299.0</ele><time>2026-05-03T10:48:10.001Z</time></trkpt><trkpt lat="45.7974632781132" lon="9.358525739177079"><ele>298.0</ele><time>2026-05-03T10:48:11.001Z</time></trkpt><trkpt lat="45.797376609102386" lon="9.358463024188037"><ele>297.0</ele><time>2026-05-03T10:48:13.001Z</time></trkpt><trkpt lat="45.79728188290091" lon="9.358661883183242"><ele>297.0</ele><time>2026-05-03T10:48:14.001Z</time></trkpt><trkpt lat="45.79723291937076" lon="9.358773190768964"><ele>297.0</ele><time>2026-05-03T10:48:15.001Z</time></trkpt><trkpt lat="45.79717908629899" lon="9.358866894244942"><ele>297.0</ele><time>2026-05-03T10:48:16.001Z</time></trkpt><trkpt lat="45.79714372482728" lon="9.358947785912775"><ele>297.0</ele><time>2026-05-03T10:48:17.001Z</time></trkpt><trkpt lat="45.79710090342405" lon="9.359032587745624"><ele>297.0</ele><time>2026-05-03T10:48:18.001Z</time></trkpt><trkpt lat="45.797068047538104" lon="9.359121448563311"><ele>297.0</ele><time>2026-05-03T10:48:19.001Z</time></trkpt><trkpt lat="45.79703884202825" lon="9.359201441147873"><ele>297.0</ele><time>2026-05-03T10:48:20.001Z</time></trkpt><trkpt lat="45.797016671464746" lon="9.359296813916265"><ele>297.0</ele><time>2026-05-03T10:48:22.001Z</time></trkpt><trkpt lat="45.7971153913098" lon="9.359064134449627"><ele>297.0</ele><time>2026-05-03T10:48:46.001Z</time></trkpt><trkpt lat="45.797168075594435" lon="9.358940047907502"><ele>297.0</ele><time>2026-05-03T10:48:48.001Z</time></trkpt><trkpt lat="45.79723128829141" lon="9.358804272122"><ele>297.0</ele><time>2026-05-03T10:48:50.001Z</time></trkpt><trkpt lat="45.79731456867189" lon="9.358687837801018"><ele>297.0</ele><time>2026-05-03T10:48:52.002Z</time></trkpt><trkpt lat="45.79739327160072" lon="9.358619269375385"><ele>297.0</ele><time>2026-05-03T10:48:54.002Z</time></trkpt><trkpt lat="45.7974968276116" lon="9.35859489479283"><ele>297.0</ele><time>2026-05-03T10:49:20.002Z</time></trkpt><trkpt lat="45.79762217031287" lon="9.35868503463265"><ele>297.0</ele><time>2026-05-03T10:49:22.002Z</time></trkpt><trkpt lat="45.79768945758089" lon="9.358731417675509"><ele>297.0</ele><time>2026-05-03T10:49:23.002Z</time></trkpt><trkpt lat="45.797753989261324" lon="9.358772106579735"><ele>297.8333333333333</ele><time>2026-05-03T10:49:24.002Z</time></trkpt><trkpt lat="45.79782697790622" lon="9.358823905172308"><ele>298.6666666666667</ele><time>2026-05-03T10:49:25.002Z</time></trkpt><trkpt lat="45.79790541379433" lon="9.358881461788235"><ele>299.5</ele><time>2026-05-03T10:49:26.002Z</time></trkpt><trkpt lat="45.797989820333854" lon="9.358941933029959"><ele>300.33333333333337</ele><time>2026-05-03T10:49:27.002Z</time></trkpt><trkpt lat="45.798076674365284" lon="9.359002811278812"><ele>301.1666666666667</ele><time>2026-05-03T10:49:28.002Z</time></trkpt><trkpt lat="45.79815491425645" lon="9.35905990399379"><ele>302.0</ele><time>2026-05-03T10:49:29.002Z</time></trkpt><trkpt lat="45.798239609888675" lon="9.359120912569912"><ele>302.0</ele><time>2026-05-03T10:49:30.002Z</time></trkpt><trkpt lat="45.79832963648484" lon="9.359186403364838"><ele>302.0</ele><time>2026-05-03T10:49:31.002Z</time></trkpt><trkpt lat="45.79841789185749" lon="9.35924886668592"><ele>302.0</ele><time>2026-05-03T10:49:32.002Z</time></trkpt><trkpt lat="45.7985139620236" lon="9.359315573755527"><ele>302.0</ele><time>2026-05-03T10:49:33.003Z</time></trkpt><trkpt lat="45.79861511314437" lon="9.359381949321547"><ele>302.0</ele><time>2026-05-03T10:49:34.003Z</time></trkpt><trkpt lat="45.79871676701397" lon="9.359449902095507"><ele>303.5</ele><time>2026-05-03T10:49:35.003Z</time></trkpt><trkpt lat="45.79882087519349" lon="9.359524895262878"><ele>305.0</ele><time>2026-05-03T10:49:36.003Z</time></trkpt><trkpt lat="45.79893023636737" lon="9.359600394094368"><ele>306.5</ele><time>2026-05-03T10:49:37.003Z</time></trkpt><trkpt lat="45.79903645832987" lon="9.359675199732937"><ele>308.0</ele><time>2026-05-03T10:49:38.003Z</time></trkpt><trkpt lat="45.79914485979508" lon="9.359749568032658"><ele>308.0</ele><time>2026-05-03T10:49:39.003Z</time></trkpt><trkpt lat="45.799255066841596" lon="9.359824866552158"><ele>308.0</ele><time>2026-05-03T10:49:40.003Z</time></trkpt><trkpt lat="45.79936112463592" lon="9.359900835065313"><ele>308.0</ele><time>2026-05-03T10:49:41.003Z</time></trkpt><trkpt lat="45.79947345064722" lon="9.35997902095121"><ele>308.0</ele><time>2026-05-03T10:49:42.003Z</time></trkpt><trkpt lat="45.799590770519245" lon="9.360055677880426"><ele>305.0</ele><time>2026-05-03T10:49:43.003Z</time></trkpt><trkpt lat="45.799713231858284" lon="9.360135171488725"><ele>302.0</ele><time>2026-05-03T10:49:44.003Z</time></trkpt><trkpt lat="45.79983150767196" lon="9.360247185366998"><ele>299.0</ele><time>2026-05-03T10:49:45.003Z</time></trkpt><trkpt lat="45.799948592264535" lon="9.360310257811815"><ele>296.0</ele><time>2026-05-03T10:49:46.003Z</time></trkpt><trkpt lat="45.80006666766744" lon="9.360394377090163"><ele>297.0</ele><time>2026-05-03T10:49:47.003Z</time></trkpt><trkpt lat="45.800181130866356" lon="9.360486296348629"><ele>298.0</ele><time>2026-05-03T10:49:48.003Z</time></trkpt><trkpt lat="45.8002964392388" lon="9.360583161776251"><ele>299.0</ele><time>2026-05-03T10:49:49.003Z</time></trkpt><trkpt lat="45.8004100441554" lon="9.360674122952425"><ele>300.0</ele><time>2026-05-03T10:49:50.003Z</time></trkpt><trkpt lat="45.8005191573712" lon="9.360764351126921"><ele>300.0</ele><time>2026-05-03T10:49:51.003Z</time></trkpt><trkpt lat="45.80062637575264" lon="9.360855372854852"><ele>300.0</ele><time>2026-05-03T10:49:52.003Z</time></trkpt><trkpt lat="45.80070884522078" lon="9.360923121358585"><ele>300.0</ele><time>2026-05-03T10:49:53.003Z</time></trkpt><trkpt lat="45.800786550938135" lon="9.361000369496864"><ele>300.0</ele><time>2026-05-03T10:49:54.001Z</time></trkpt><trkpt lat="45.800874927388485" lon="9.361059294277023"><ele>300.0</ele><time>2026-05-03T10:49:55.001Z</time></trkpt><trkpt lat="45.80098110074586" lon="9.361145374744348"><ele>300.25</ele><time>2026-05-03T10:49:56.001Z</time></trkpt><trkpt lat="45.80109652922699" lon="9.361238917414692"><ele>300.5</ele><time>2026-05-03T10:49:57.001Z</time></trkpt><trkpt lat="45.80121330369351" lon="9.361333981120788"><ele>300.75</ele><time>2026-05-03T10:49:58.001Z</time></trkpt><trkpt lat="45.80132762976997" lon="9.361429857674311"><ele>301.0</ele><time>2026-05-03T10:49:59.001Z</time></trkpt><trkpt lat="45.801438126897715" lon="9.36152791915854"><ele>301.0</ele><time>2026-05-03T10:50:00.001Z</time></trkpt><trkpt lat="45.80153894820522" lon="9.361629804109887"><ele>301.0</ele><time>2026-05-03T10:50:01.001Z</time></trkpt><trkpt lat="45.80163369327429" lon="9.361746717755443"><ele>301.0</ele><time>2026-05-03T10:50:02.001Z</time></trkpt><trkpt lat="45.801719169180714" lon="9.361878928706957"><ele>301.0</ele><time>2026-05-03T10:50:03.001Z</time></trkpt><trkpt lat="45.8018031850962" lon="9.3620242331782"><ele>301.5</ele><time>2026-05-03T10:50:04.001Z</time></trkpt><trkpt lat="45.80189522025018" lon="9.362172451058706"><ele>302.0</ele><time>2026-05-03T10:50:05.001Z</time></trkpt><trkpt lat="45.801996391586044" lon="9.362319728310144"><ele>302.5</ele><time>2026-05-03T10:50:06.001Z</time></trkpt><trkpt lat="45.80210533635452" lon="9.362482063727006"><ele>303.0</ele><time>2026-05-03T10:50:07.001Z</time></trkpt><trkpt lat="45.80222438174053" lon="9.36265994738763"><ele>303.0</ele><time>2026-05-03T10:50:08.001Z</time></trkpt><trkpt lat="45.802352242005355" lon="9.362837595506482"><ele>303.0</ele><time>2026-05-03T10:50:09.001Z</time></trkpt><trkpt lat="45.802477018880296" lon="9.362980904812884"><ele>303.0</ele><time>2026-05-03T10:50:10.001Z</time></trkpt><trkpt lat="45.80262499275336" lon="9.363112771834304"><ele>307.0</ele><time>2026-05-03T10:50:11.001Z</time></trkpt><trkpt lat="45.80279090735551" lon="9.363247590092215"><ele>311.0</ele><time>2026-05-03T10:50:12.001Z</time></trkpt><trkpt lat="45.802956522071746" lon="9.363400752926921"><ele>315.0</ele><time>2026-05-03T10:50:13.001Z</time></trkpt><trkpt lat="45.803137026934635" lon="9.363565613009369"><ele>315.0</ele><time>2026-05-03T10:50:14.001Z</time></trkpt><trkpt lat="45.803300545635835" lon="9.363715145005195"><ele>315.0</ele><time>2026-05-03T10:50:15.001Z</time></trkpt><trkpt lat="45.803425967553046" lon="9.363849033965549"><ele>315.0</ele><time>2026-05-03T10:50:16.001Z</time></trkpt><trkpt lat="45.80354639581208" lon="9.363964167129305"><ele>315.0</ele><time>2026-05-03T10:50:17.001Z</time></trkpt><trkpt lat="45.80365779482667" lon="9.364076983284525"><ele>315.0</ele><time>2026-05-03T10:50:18.001Z</time></trkpt><trkpt lat="45.80375683086515" lon="9.364187676908212"><ele>315.0</ele><time>2026-05-03T10:50:19.001Z</time></trkpt><trkpt lat="45.803858538281006" lon="9.364290244080653"><ele>315.0</ele><time>2026-05-03T10:50:20.001Z</time></trkpt><trkpt lat="45.80398334221095" lon="9.36437331471068"><ele>315.0</ele><time>2026-05-03T10:50:21.001Z</time></trkpt><trkpt lat="45.80413671644103" lon="9.364426057780038"><ele>315.0</ele><time>2026-05-03T10:50:22.001Z</time></trkpt><trkpt lat="45.804304297493125" lon="9.364461213983999"><ele>315.0</ele><time>2026-05-03T10:50:23.001Z</time></trkpt><trkpt lat="45.804479376880295" lon="9.364486280468826"><ele>314.3333333333333</ele><time>2026-05-03T10:50:24.001Z</time></trkpt><trkpt lat="45.80466232143478" lon="9.36453298400187"><ele>313.66666666666663</ele><time>2026-05-03T10:50:25.001Z</time></trkpt><trkpt lat="45.8048414571506" lon="9.364596077764524"><ele>313.0</ele><time>2026-05-03T10:50:26.001Z</time></trkpt><trkpt lat="45.805001362381816" lon="9.364712937969232"><ele>315.66666666666663</ele><time>2026-05-03T10:50:27.001Z</time></trkpt><trkpt lat="45.80518495510298" lon="9.364835127042417"><ele>318.3333333333333</ele><time>2026-05-03T10:50:28.001Z</time></trkpt><trkpt lat="45.80538282430764" lon="9.364947246671294"><ele>321.0</ele><time>2026-05-03T10:50:29.001Z</time></trkpt><trkpt lat="45.8055800061957" lon="9.365082809964031"><ele>321.0</ele><time>2026-05-03T10:50:30.001Z</time></trkpt><trkpt lat="45.80579140511062" lon="9.365213953080067"><ele>321.0</ele><time>2026-05-03T10:50:31.001Z</time></trkpt><trkpt lat="45.80599443948289" lon="9.365339701558002"><ele>321.6666666666667</ele><time>2026-05-03T10:50:32.001Z</time></trkpt><trkpt lat="45.806163346623926" lon="9.365452228200562"><ele>322.33333333333337</ele><time>2026-05-03T10:50:33.001Z</time></trkpt><trkpt lat="45.80629999663541" lon="9.365551187091828"><ele>323.0</ele><time>2026-05-03T10:50:34.001Z</time></trkpt><trkpt lat="45.806414959699765" lon="9.365659371514157"><ele>323.0</ele><time>2026-05-03T10:50:35.001Z</time></trkpt><trkpt lat="45.8064923523292" lon="9.365817790100731"><ele>323.0</ele><time>2026-05-03T10:50:36.001Z</time></trkpt><trkpt lat="45.80655311296397" lon="9.365988731537634"><ele>323.0</ele><time>2026-05-03T10:50:37.001Z</time></trkpt><trkpt lat="45.80660830097299" lon="9.366177755724003"><ele>323.0</ele><time>2026-05-03T10:50:38.001Z</time></trkpt><trkpt lat="45.80667210503587" lon="9.366391782878509"><ele>323.75</ele><time>2026-05-03T10:50:39.001Z</time></trkpt><trkpt lat="45.806757198584435" lon="9.36656356151802"><ele>324.5</ele><time>2026-05-03T10:50:40.001Z</time></trkpt><trkpt lat="45.80684233010403" lon="9.366699746698513"><ele>325.25</ele><time>2026-05-03T10:50:41.001Z</time></trkpt><trkpt lat="45.80692317667238" lon="9.366813224022843"><ele>326.0</ele><time>2026-05-03T10:50:42.001Z</time></trkpt><trkpt lat="45.80699784831598" lon="9.366917398557694"><ele>326.0</ele><time>2026-05-03T10:50:43.001Z</time></trkpt><trkpt lat="45.80705950234938" lon="9.367020534439494"><ele>326.0</ele><time>2026-05-03T10:50:44.001Z</time></trkpt><trkpt lat="45.80711602647919" lon="9.367123159789774"><ele>326.0</ele><time>2026-05-03T10:50:45.001Z</time></trkpt><trkpt lat="45.807179091646596" lon="9.367221811715225"><ele>326.0</ele><time>2026-05-03T10:50:46.001Z</time></trkpt><trkpt lat="45.80726741943326" lon="9.367321332581007"><ele>326.0</ele><time>2026-05-03T10:50:47.001Z</time></trkpt><trkpt lat="45.8073898211437" lon="9.367394279679262"><ele>327.0</ele><time>2026-05-03T10:50:48.001Z</time></trkpt><trkpt lat="45.80752831928757" lon="9.36743184945068"><ele>328.0</ele><time>2026-05-03T10:50:49.001Z</time></trkpt><trkpt lat="45.80767945664004" lon="9.36746040671243"><ele>329.0</ele><time>2026-05-03T10:50:50.001Z</time></trkpt><trkpt lat="45.80782243894048" lon="9.367487329451006"><ele>330.0</ele><time>2026-05-03T10:50:51.001Z</time></trkpt><trkpt lat="45.80795179758609" lon="9.367515927105007"><ele>330.0</ele><time>2026-05-03T10:50:52.001Z</time></trkpt><trkpt lat="45.80806673192864" lon="9.367538460953837"><ele>330.0</ele><time>2026-05-03T10:50:53.001Z</time></trkpt><trkpt lat="45.80817160541065" lon="9.367554624222379"><ele>330.0</ele><time>2026-05-03T10:50:54.001Z</time></trkpt><trkpt lat="45.80826489044169" lon="9.367559775618997"><ele>330.0</ele><time>2026-05-03T10:50:55.001Z</time></trkpt><trkpt lat="45.80836631252599" lon="9.367562104977079"><ele>330.0</ele><time>2026-05-03T10:50:56.002Z</time></trkpt><trkpt lat="45.80846840749629" lon="9.367554130728896"><ele>330.6</ele><time>2026-05-03T10:50:57.002Z</time></trkpt><trkpt lat="45.80857229683694" lon="9.367534683055604"><ele>331.2</ele><time>2026-05-03T10:50:58.002Z</time></trkpt><trkpt lat="45.808676872745494" lon="9.36750978307314"><ele>331.79999999999995</ele><time>2026-05-03T10:50:59.002Z</time></trkpt><trkpt lat="45.808783757393535" lon="9.367476828292947"><ele>332.4</ele><time>2026-05-03T10:51:00.002Z</time></trkpt><trkpt lat="45.80889873175849" lon="9.367442830568521"><ele>333.0</ele><time>2026-05-03T10:51:01.002Z</time></trkpt><trkpt lat="45.80901747173825" lon="9.367410466731245"><ele>333.0</ele><time>2026-05-03T10:51:02.002Z</time></trkpt><trkpt lat="45.80914568622153" lon="9.367374328383512"><ele>333.0</ele><time>2026-05-03T10:51:03.002Z</time></trkpt><trkpt lat="45.80927806453117" lon="9.367337382556016"><ele>333.0</ele><time>2026-05-03T10:51:04.002Z</time></trkpt><trkpt lat="45.8094150089251" lon="9.367308387024663"><ele>333.0</ele><time>2026-05-03T10:51:05.002Z</time></trkpt><trkpt lat="45.80955443264087" lon="9.367293393790797"><ele>335.25</ele><time>2026-05-03T10:51:06.002Z</time></trkpt><trkpt lat="45.80969880962322" lon="9.367290321079341"><ele>337.5</ele><time>2026-05-03T10:51:07.002Z</time></trkpt><trkpt lat="45.80984780131179" lon="9.367289209272386"><ele>339.75</ele><time>2026-05-03T10:51:08.002Z</time></trkpt><trkpt lat="45.80999586674473" lon="9.367284268531831"><ele>342.0</ele><time>2026-05-03T10:51:09.002Z</time></trkpt><trkpt lat="45.810144115793264" lon="9.367274312760465"><ele>343.0</ele><time>2026-05-03T10:51:10.002Z</time></trkpt><trkpt lat="45.81029021748355" lon="9.367265900145771"><ele>344.0</ele><time>2026-05-03T10:51:11.002Z</time></trkpt><trkpt lat="45.81042038285163" lon="9.367257077909494"><ele>345.0</ele><time>2026-05-03T10:51:12.002Z</time></trkpt><trkpt lat="45.810542401455" lon="9.367252905652078"><ele>346.0</ele><time>2026-05-03T10:51:13.002Z</time></trkpt><trkpt lat="45.81066185197666" lon="9.367257162564009"><ele>346.0</ele><time>2026-05-03T10:51:14.002Z</time></trkpt><trkpt lat="45.810777739476414" lon="9.36726102500333"><ele>346.0</ele><time>2026-05-03T10:51:15.002Z</time></trkpt><trkpt lat="45.810891046616845" lon="9.367270819949418"><ele>346.0</ele><time>2026-05-03T10:51:16.002Z</time></trkpt><trkpt lat="45.81100140805811" lon="9.367304976490543"><ele>346.0</ele><time>2026-05-03T10:51:17.002Z</time></trkpt><trkpt lat="45.811112857069425" lon="9.367367145804808"><ele>345.25</ele><time>2026-05-03T10:51:18.002Z</time></trkpt><trkpt lat="45.81122717720489" lon="9.367445376823376"><ele>344.5</ele><time>2026-05-03T10:51:19.002Z</time></trkpt><trkpt lat="45.811339792331644" lon="9.367531400846191"><ele>343.75</ele><time>2026-05-03T10:51:20.002Z</time></trkpt><trkpt lat="45.81145038780289" lon="9.367623461481285"><ele>343.0</ele><time>2026-05-03T10:51:21.002Z</time></trkpt><trkpt lat="45.81156395199988" lon="9.367717229656781"><ele>343.0</ele><time>2026-05-03T10:51:22.002Z</time></trkpt><trkpt lat="45.81167630501432" lon="9.367811222173954"><ele>343.0</ele><time>2026-05-03T10:51:23.002Z</time></trkpt><trkpt lat="45.81178736085373" lon="9.367909108451807"><ele>343.0</ele><time>2026-05-03T10:51:24.002Z</time></trkpt><trkpt lat="45.81190083118732" lon="9.368008819445352"><ele>343.0</ele><time>2026-05-03T10:51:25.002Z</time></trkpt><trkpt lat="45.81201799736632" lon="9.36810996679525"><ele>343.5</ele><time>2026-05-03T10:51:26.002Z</time></trkpt><trkpt lat="45.812134227101424" lon="9.36821953548398"><ele>344.0</ele><time>2026-05-03T10:51:27.002Z</time></trkpt><trkpt lat="45.81225257734178" lon="9.368321619405668"><ele>344.5</ele><time>2026-05-03T10:51:28.002Z</time></trkpt><trkpt lat="45.81237312719072" lon="9.368422851649331"><ele>345.0</ele><time>2026-05-03T10:51:29.002Z</time></trkpt><trkpt lat="45.81248571211991" lon="9.368529306155972"><ele>345.0</ele><time>2026-05-03T10:51:30.002Z</time></trkpt><trkpt lat="45.812585593727015" lon="9.368621983247579"><ele>345.0</ele><time>2026-05-03T10:51:31.002Z</time></trkpt><trkpt lat="45.81267736907884" lon="9.3686968353317"><ele>345.0</ele><time>2026-05-03T10:51:32.002Z</time></trkpt><trkpt lat="45.81276920495496" lon="9.368782705576647"><ele>345.0</ele><time>2026-05-03T10:51:33.002Z</time></trkpt><trkpt lat="45.81285912651303" lon="9.36885581273653"><ele>345.0</ele><time>2026-05-03T10:51:34.002Z</time></trkpt><trkpt lat="45.81294817798999" lon="9.368946350508592"><ele>343.8</ele><time>2026-05-03T10:51:35.002Z</time></trkpt><trkpt lat="45.81303632262293" lon="9.36904154663912"><ele>342.6</ele><time>2026-05-03T10:51:36.002Z</time></trkpt><trkpt lat="45.81311926287257" lon="9.36914382033263"><ele>341.4</ele><time>2026-05-03T10:51:37.002Z</time></trkpt><trkpt lat="45.81320078649445" lon="9.369255011830704"><ele>340.2</ele><time>2026-05-03T10:51:38.002Z</time></trkpt><trkpt lat="45.81327062346026" lon="9.369376064506133"><ele>339.0</ele><time>2026-05-03T10:51:39.002Z</time></trkpt><trkpt lat="45.81333616773344" lon="9.369500298480464"><ele>339.0</ele><time>2026-05-03T10:51:40.003Z</time></trkpt><trkpt lat="45.813403087376294" lon="9.369617491655815"><ele>339.0</ele><time>2026-05-03T10:51:41.003Z</time></trkpt><trkpt lat="45.813461951779864" lon="9.369744234466134"><ele>339.0</ele><time>2026-05-03T10:51:42.003Z</time></trkpt><trkpt lat="45.81352657600837" lon="9.36987065602071"><ele>339.0</ele><time>2026-05-03T10:51:43.003Z</time></trkpt><trkpt lat="45.81359635332255" lon="9.369995424827152"><ele>339.0</ele><time>2026-05-03T10:51:44.003Z</time></trkpt><trkpt lat="45.81366409024214" lon="9.37011967126013"><ele>338.75</ele><time>2026-05-03T10:51:45.003Z</time></trkpt><trkpt lat="45.81373248559041" lon="9.370245476524417"><ele>338.5</ele><time>2026-05-03T10:51:46.003Z</time></trkpt><trkpt lat="45.81380187168261" lon="9.370370892768994"><ele>338.25</ele><time>2026-05-03T10:51:47.003Z</time></trkpt><trkpt lat="45.813871803979964" lon="9.370497746297527"><ele>338.0</ele><time>2026-05-03T10:51:48.003Z</time></trkpt><trkpt lat="45.81393677840839" lon="9.370634244047094"><ele>341.2</ele><time>2026-05-03T10:51:49.003Z</time></trkpt><trkpt lat="45.81400818721274" lon="9.370767483494848"><ele>344.4</ele><time>2026-05-03T10:51:50.003Z</time></trkpt><trkpt lat="45.81407851060393" lon="9.370905443764038"><ele>347.59999999999997</ele><time>2026-05-03T10:51:51.003Z</time></trkpt><trkpt lat="45.814142135776066" lon="9.371035912418035"><ele>350.79999999999995</ele><time>2026-05-03T10:51:52.003Z</time></trkpt><trkpt lat="45.81419111421684" lon="9.371158673391573"><ele>354.0</ele><time>2026-05-03T10:51:53.003Z</time></trkpt><trkpt lat="45.81422959024329" lon="9.3712804022847"><ele>354.3333333333333</ele><time>2026-05-03T10:51:54.003Z</time></trkpt><trkpt lat="45.814260971145984" lon="9.371406835820782"><ele>354.6666666666667</ele><time>2026-05-03T10:51:55.003Z</time></trkpt><trkpt lat="45.81428827060748" lon="9.371528374361128"><ele>355.0</ele><time>2026-05-03T10:51:56.003Z</time></trkpt><trkpt lat="45.814316528055976" lon="9.37164455876994"><ele>355.33333333333337</ele><time>2026-05-03T10:51:57.003Z</time></trkpt><trkpt lat="45.81433596980879" lon="9.371744253301465"><ele>355.6666666666667</ele><time>2026-05-03T10:51:58.003Z</time></trkpt><trkpt lat="45.81436535775942" lon="9.371842861923371"><ele>356.0</ele><time>2026-05-03T10:52:00.001Z</time></trkpt><trkpt lat="45.814329701960155" lon="9.371744713515302"><ele>353.8</ele><time>2026-05-03T10:52:05.001Z</time></trkpt><trkpt lat="45.81440071917251" lon="9.371633485506047"><ele>351.6</ele><time>2026-05-03T10:52:06.001Z</time></trkpt><trkpt lat="45.81441074543285" lon="9.371496987736322"><ele>349.4</ele><time>2026-05-03T10:52:08.001Z</time></trkpt><trkpt lat="45.814409943620866" lon="9.371345722687298"><ele>347.2</ele><time>2026-05-03T10:52:10.001Z</time></trkpt><trkpt lat="45.814397846435355" lon="9.371256371951631"><ele>345.0</ele><time>2026-05-03T10:52:11.001Z</time></trkpt><trkpt lat="45.8143951464946" lon="9.371079949176568"><ele>343.3333333333333</ele><time>2026-05-03T10:52:13.001Z</time></trkpt><trkpt lat="45.814396783228666" lon="9.3709889598207"><ele>341.6666666666667</ele><time>2026-05-03T10:52:14.001Z</time></trkpt><trkpt lat="45.81439781483757" lon="9.370892475847418"><ele>340.0</ele><time>2026-05-03T10:52:15.001Z</time></trkpt><trkpt lat="45.814398791974696" lon="9.370800948601033"><ele>338.33333333333337</ele><time>2026-05-03T10:52:16.001Z</time></trkpt><trkpt lat="45.81440306620424" lon="9.370703661747871"><ele>336.6666666666667</ele><time>2026-05-03T10:52:17.001Z</time></trkpt><trkpt lat="45.814378395950285" lon="9.370516370414174"><ele>335.0</ele><time>2026-05-03T10:52:19.001Z</time></trkpt><trkpt lat="45.814373733495636" lon="9.370420460153497"><ele>335.5</ele><time>2026-05-03T10:52:20.001Z</time></trkpt><trkpt lat="45.81433899487061" lon="9.37022652593213"><ele>336.0</ele><time>2026-05-03T10:52:22.001Z</time></trkpt><trkpt lat="45.814313518404376" lon="9.37012477910838"><ele>336.5</ele><time>2026-05-03T10:52:23.001Z</time></trkpt><trkpt lat="45.81427774086664" lon="9.370030115666989"><ele>337.0</ele><time>2026-05-03T10:52:24.001Z</time></trkpt><trkpt lat="45.81424079803501" lon="9.36993813567841"><ele>337.5</ele><time>2026-05-03T10:52:25.001Z</time></trkpt><trkpt lat="45.81420244707301" lon="9.36984377486949"><ele>338.0</ele><time>2026-05-03T10:52:26.001Z</time></trkpt><trkpt lat="45.8141484766489" lon="9.369766387249802"><ele>335.1666666666667</ele><time>2026-05-03T10:52:27.001Z</time></trkpt><trkpt lat="45.81411918920033" lon="9.369670218040573"><ele>332.33333333333337</ele><time>2026-05-03T10:52:28.001Z</time></trkpt><trkpt lat="45.81406859282507" lon="9.369581869716502"><ele>329.5</ele><time>2026-05-03T10:52:29.001Z</time></trkpt><trkpt lat="45.81400980447947" lon="9.36949188485525"><ele>326.6666666666667</ele><time>2026-05-03T10:52:30.001Z</time></trkpt><trkpt lat="45.81395329921463" lon="9.369413026545784"><ele>323.8333333333333</ele><time>2026-05-03T10:52:31.001Z</time></trkpt><trkpt lat="45.813894896260294" lon="9.369337044804887"><ele>321.0</ele><time>2026-05-03T10:52:32.001Z</time></trkpt><trkpt lat="45.813825938286946" lon="9.369274768336798"><ele>321.0</ele><time>2026-05-03T10:52:33.001Z</time></trkpt><trkpt lat="45.81376674562826" lon="9.369189920278636"><ele>321.0</ele><time>2026-05-03T10:52:34.001Z</time></trkpt><trkpt lat="45.81371294594267" lon="9.369116165982305"><ele>321.0</ele><time>2026-05-03T10:52:35.001Z</time></trkpt><trkpt lat="45.813675631595025" lon="9.369043088152404"><ele>321.0</ele><time>2026-05-03T10:52:36.001Z</time></trkpt><trkpt lat="45.81362444124927" lon="9.368898054585674"><ele>321.0</ele><time>2026-05-03T10:52:38.001Z</time></trkpt><trkpt lat="45.813590068718064" lon="9.368768141833486"><ele>321.0</ele><time>2026-05-03T10:52:40.001Z</time></trkpt><trkpt lat="45.81348672517868" lon="9.368672849652771"><ele>321.4</ele><time>2026-05-03T10:52:42.001Z</time></trkpt><trkpt lat="45.8134303125868" lon="9.368591477828657"><ele>321.8</ele><time>2026-05-03T10:52:43.001Z</time></trkpt><trkpt lat="45.813365095375964" lon="9.368516038080317"><ele>322.2</ele><time>2026-05-03T10:52:44.001Z</time></trkpt><trkpt lat="45.81328918511332" lon="9.368440216746658"><ele>322.59999999999997</ele><time>2026-05-03T10:52:45.001Z</time></trkpt><trkpt lat="45.813247553151776" lon="9.368311017005357"><ele>323.0</ele><time>2026-05-03T10:52:46.001Z</time></trkpt><trkpt lat="45.81319375101101" lon="9.36818323875075"><ele>323.0</ele><time>2026-05-03T10:52:47.001Z</time></trkpt><trkpt lat="45.81313375997839" lon="9.368074951607259"><ele>323.0</ele><time>2026-05-03T10:52:48.001Z</time></trkpt><trkpt lat="45.813057570574486" lon="9.367981597610864"><ele>323.0</ele><time>2026-05-03T10:52:49.001Z</time></trkpt><trkpt lat="45.81301036948854" lon="9.367878373747049"><ele>323.0</ele><time>2026-05-03T10:52:50.001Z</time></trkpt><trkpt lat="45.81296841548857" lon="9.367776008752115"><ele>323.0</ele><time>2026-05-03T10:52:51.001Z</time></trkpt><trkpt lat="45.81293091238588" lon="9.367682047224994"><ele>323.0</ele><time>2026-05-03T10:52:52.001Z</time></trkpt><trkpt lat="45.81288583200598" lon="9.367601674735457"><ele>322.83333333333337</ele><time>2026-05-03T10:52:53.001Z</time></trkpt><trkpt lat="45.81283090477" lon="9.367543489038978"><ele>322.6666666666667</ele><time>2026-05-03T10:52:54.001Z</time></trkpt><trkpt lat="45.81273638839081" lon="9.367457939814827"><ele>322.5</ele><time>2026-05-03T10:52:56.001Z</time></trkpt><trkpt lat="45.812621644186926" lon="9.3673842890296"><ele>322.3333333333333</ele><time>2026-05-03T10:52:58.001Z</time></trkpt><trkpt lat="45.81256317615171" lon="9.367336176702048"><ele>322.16666666666663</ele><time>2026-05-03T10:52:59.001Z</time></trkpt><trkpt lat="45.81250764881797" lon="9.367276472674789"><ele>322.0</ele><time>2026-05-03T10:53:00.001Z</time></trkpt><trkpt lat="45.81245229334346" lon="9.367205208753752"><ele>319.6</ele><time>2026-05-03T10:53:01.001Z</time></trkpt><trkpt lat="45.812381039354236" lon="9.367142369151212"><ele>317.20000000000005</ele><time>2026-05-03T10:53:02.001Z</time></trkpt><trkpt lat="45.812303817823135" lon="9.367050398152914"><ele>314.8</ele><time>2026-05-03T10:53:03.001Z</time></trkpt><trkpt lat="45.812235217243455" lon="9.366961619387467"><ele>312.4</ele><time>2026-05-03T10:53:04.001Z</time></trkpt><trkpt lat="45.8121503918102" lon="9.366852964996417"><ele>310.0</ele><time>2026-05-03T10:53:05.001Z</time></trkpt><trkpt lat="45.812049241868934" lon="9.366730477606474"><ele>310.0</ele><time>2026-05-03T10:53:06.001Z</time></trkpt><trkpt lat="45.81194810651581" lon="9.366621593037127"><ele>310.0</ele><time>2026-05-03T10:53:07.001Z</time></trkpt><trkpt lat="45.81185241297074" lon="9.366521912464611"><ele>310.0</ele><time>2026-05-03T10:53:08.001Z</time></trkpt><trkpt lat="45.811763498195425" lon="9.366424007839724"><ele>310.0</ele><time>2026-05-03T10:53:09.001Z</time></trkpt><trkpt lat="45.81168492978503" lon="9.36631434018034"><ele>308.25</ele><time>2026-05-03T10:53:10.001Z</time></trkpt><trkpt lat="45.811624434528554" lon="9.366188037380532"><ele>306.5</ele><time>2026-05-03T10:53:11.001Z</time></trkpt><trkpt lat="45.81158042702665" lon="9.366052240229026"><ele>304.75</ele><time>2026-05-03T10:53:12.002Z</time></trkpt><trkpt lat="45.811521060390284" lon="9.365916673938614"><ele>303.0</ele><time>2026-05-03T10:53:13.002Z</time></trkpt><trkpt lat="45.811436269022416" lon="9.365763854264605"><ele>303.0</ele><time>2026-05-03T10:53:14.002Z</time></trkpt><trkpt lat="45.81133625985849" lon="9.365570307231495"><ele>303.0</ele><time>2026-05-03T10:53:15.002Z</time></trkpt><trkpt lat="45.81123245287211" lon="9.365360753620555"><ele>303.0</ele><time>2026-05-03T10:53:16.002Z</time></trkpt><trkpt lat="45.81113596789548" lon="9.365173716688057"><ele>301.0</ele><time>2026-05-03T10:53:17.002Z</time></trkpt><trkpt lat="45.81104843717468" lon="9.365006567898197"><ele>299.0</ele><time>2026-05-03T10:53:18.002Z</time></trkpt><trkpt lat="45.810963346667855" lon="9.364855622921814"><ele>297.0</ele><time>2026-05-03T10:53:19.002Z</time></trkpt><trkpt lat="45.810884973885436" lon="9.364730406348139"><ele>295.0</ele><time>2026-05-03T10:53:20.002Z</time></trkpt><trkpt lat="45.81081138408364" lon="9.364623005065928"><ele>293.5</ele><time>2026-05-03T10:53:21.002Z</time></trkpt><trkpt lat="45.81073311268237" lon="9.364525577315222"><ele>292.0</ele><time>2026-05-03T10:53:22.002Z</time></trkpt><trkpt lat="45.81064260535175" lon="9.36441885838724"><ele>290.5</ele><time>2026-05-03T10:53:23.002Z</time></trkpt><trkpt lat="45.81052777153227" lon="9.364299076995469"><ele>289.0</ele><time>2026-05-03T10:53:24.002Z</time></trkpt><trkpt lat="45.81040156466296" lon="9.364191251730192"><ele>289.0</ele><time>2026-05-03T10:53:25.002Z</time></trkpt><trkpt lat="45.810281293930274" lon="9.364066011024345"><ele>289.0</ele><time>2026-05-03T10:53:26.002Z</time></trkpt><trkpt lat="45.810168783313614" lon="9.363956522665376"><ele>289.0</ele><time>2026-05-03T10:53:27.002Z</time></trkpt><trkpt lat="45.810063944246444" lon="9.363850406958875"><ele>289.0</ele><time>2026-05-03T10:53:28.002Z</time></trkpt><trkpt lat="45.8099599779788" lon="9.3637473247989"><ele>286.0</ele><time>2026-05-03T10:53:29.002Z</time></trkpt><trkpt lat="45.80986163290179" lon="9.363651810121265"><ele>283.0</ele><time>2026-05-03T10:53:30.002Z</time></trkpt><trkpt lat="45.80978646777304" lon="9.363555004779377"><ele>280.0</ele><time>2026-05-03T10:53:31.002Z</time></trkpt><trkpt lat="45.80971373965701" lon="9.363511641977757"><ele>277.0</ele><time>2026-05-03T10:53:32.002Z</time></trkpt><trkpt lat="45.80967958326361" lon="9.36343374957082"><ele>274.0</ele><time>2026-05-03T10:53:33.002Z</time></trkpt><trkpt lat="45.80966816755185" lon="9.363274651072265"><ele>274.0</ele><time>2026-05-03T10:53:35.002Z</time></trkpt><trkpt lat="45.80972420323792" lon="9.363205521933995"><ele>274.0</ele><time>2026-05-03T10:53:36.002Z</time></trkpt><trkpt lat="45.809814001755804" lon="9.363168324072063"><ele>274.0</ele><time>2026-05-03T10:53:37.002Z</time></trkpt><trkpt lat="45.809923030523514" lon="9.36317773343424"><ele>274.0</ele><time>2026-05-03T10:53:38.002Z</time></trkpt><trkpt lat="45.81001815645627" lon="9.363194819218672"><ele>274.0</ele><time>2026-05-03T10:53:39.002Z</time></trkpt><trkpt lat="45.81009308112222" lon="9.363205362073614"><ele>274.0</ele><time>2026-05-03T10:53:40.002Z</time></trkpt><trkpt lat="45.81020440121952" lon="9.363187114953543"><ele>274.0</ele><time>2026-05-03T10:53:42.002Z</time></trkpt><trkpt lat="45.810278330748055" lon="9.36305437661675"><ele>274.0</ele><time>2026-05-03T10:53:44.002Z</time></trkpt><trkpt lat="45.81025372598444" lon="9.362938552950993"><ele>274.0</ele><time>2026-05-03T10:53:45.002Z</time></trkpt><trkpt lat="45.81020885862795" lon="9.362859356638467"><ele>274.0</ele><time>2026-05-03T10:53:46.002Z</time></trkpt><trkpt lat="45.81013233802482" lon="9.362788132514204"><ele>274.0</ele><time>2026-05-03T10:53:47.002Z</time></trkpt><trkpt lat="45.81002627749392" lon="9.362760663888343"><ele>272.25</ele><time>2026-05-03T10:53:48.002Z</time></trkpt><trkpt lat="45.80990843143161" lon="9.362724223641555"><ele>270.5</ele><time>2026-05-03T10:53:49.002Z</time></trkpt><trkpt lat="45.80978243409014" lon="9.362691022005425"><ele>268.75</ele><time>2026-05-03T10:53:50.002Z</time></trkpt><trkpt lat="45.80964760985001" lon="9.362660509095322"><ele>267.0</ele><time>2026-05-03T10:53:51.002Z</time></trkpt><trkpt lat="45.80951761647582" lon="9.362631530497943"><ele>267.0</ele><time>2026-05-03T10:53:52.002Z</time></trkpt><trkpt lat="45.8093868463547" lon="9.362598866308492"><ele>267.0</ele><time>2026-05-03T10:53:53.002Z</time></trkpt><trkpt lat="45.80925285164682" lon="9.36256408227452"><ele>267.0</ele><time>2026-05-03T10:53:54.002Z</time></trkpt><trkpt lat="45.809118579479815" lon="9.362536712573855"><ele>267.0</ele><time>2026-05-03T10:53:55.002Z</time></trkpt><trkpt lat="45.80898942836936" lon="9.362534121885123"><ele>266.25</ele><time>2026-05-03T10:53:56.002Z</time></trkpt><trkpt lat="45.808866204021506" lon="9.362482378491773"><ele>265.5</ele><time>2026-05-03T10:53:57.002Z</time></trkpt><trkpt lat="45.80874506289529" lon="9.362452946559348"><ele>264.75</ele><time>2026-05-03T10:53:58.002Z</time></trkpt><trkpt lat="45.80863156543997" lon="9.36242571979467"><ele>264.0</ele><time>2026-05-03T10:53:59.003Z</time></trkpt><trkpt lat="45.80853461629907" lon="9.362404787579132"><ele>262.8</ele><time>2026-05-03T10:54:00.003Z</time></trkpt><trkpt lat="45.80846009053135" lon="9.362379675632113"><ele>261.59999999999997</ele><time>2026-05-03T10:54:01.003Z</time></trkpt><trkpt lat="45.80837029810717" lon="9.362316550985202"><ele>260.4</ele><time>2026-05-03T10:54:03.003Z</time></trkpt><trkpt lat="45.80837864484325" lon="9.362171629905568"><ele>259.2</ele><time>2026-05-03T10:54:05.003Z</time></trkpt><trkpt lat="45.808475533377965" lon="9.362053895871307"><ele>258.0</ele><time>2026-05-03T10:54:07Z</time></trkpt><trkpt lat="45.80854194624942" lon="9.362009294931575"><ele>256.8333333333333</ele><time>2026-05-03T10:54:08Z</time></trkpt><trkpt lat="45.8086138500856" lon="9.36196785723195"><ele>255.66666666666669</ele><time>2026-05-03T10:54:09Z</time></trkpt><trkpt lat="45.80868959798531" lon="9.361921135348064"><ele>254.5</ele><time>2026-05-03T10:54:10Z</time></trkpt><trkpt lat="45.8087720569472" lon="9.361863585599743"><ele>253.33333333333334</ele><time>2026-05-03T10:54:11Z</time></trkpt><trkpt lat="45.808858315856114" lon="9.36180665997969"><ele>252.16666666666669</ele><time>2026-05-03T10:54:12Z</time></trkpt><trkpt lat="45.8089520140929" lon="9.361748064480606"><ele>251.0</ele><time>2026-05-03T10:54:13Z</time></trkpt><trkpt lat="45.80903891542873" lon="9.36169096406556"><ele>251.00000000000003</ele><time>2026-05-03T10:54:14Z</time></trkpt><trkpt lat="45.80912116330334" lon="9.361634565451746"><ele>251.0</ele><time>2026-05-03T10:54:15Z</time></trkpt><trkpt lat="45.80919571410042" lon="9.361585489597068"><ele>251.0</ele><time>2026-05-03T10:54:16Z</time></trkpt><trkpt lat="45.80926639784775" lon="9.36154108990501"><ele>251.0</ele><time>2026-05-03T10:54:17Z</time></trkpt><trkpt lat="45.80932516413976" lon="9.361500262106619"><ele>251.00000000000003</ele><time>2026-05-03T10:54:18Z</time></trkpt><trkpt lat="45.809384570665074" lon="9.361381841051388"><ele>251.0</ele><time>2026-05-03T10:54:20Z</time></trkpt><trkpt lat="45.809367587281756" lon="9.361244227636984"><ele>248.0</ele><time>2026-05-03T10:54:22Z</time></trkpt><trkpt lat="45.80928653807469" lon="9.361134624015765"><ele>245.0</ele><time>2026-05-03T10:54:24Z</time></trkpt><trkpt lat="45.80918813901166" lon="9.36112179925246"><ele>242.0</ele><time>2026-05-03T10:54:25Z</time></trkpt><trkpt lat="45.80906649609202" lon="9.361153690771648"><ele>239.0</ele><time>2026-05-03T10:54:26Z</time></trkpt><trkpt lat="45.80892805066351" lon="9.361202431413309"><ele>239.0</ele><time>2026-05-03T10:54:27Z</time></trkpt><trkpt lat="45.80879937095457" lon="9.361251728278889"><ele>239.0</ele><time>2026-05-03T10:54:28Z</time></trkpt><trkpt lat="45.80867030586933" lon="9.361304721692829"><ele>239.0</ele><time>2026-05-03T10:54:29Z</time></trkpt><trkpt lat="45.80852792698842" lon="9.361355462412767"><ele>239.0</ele><time>2026-05-03T10:54:30Z</time></trkpt><trkpt lat="45.80840149314061" lon="9.36139601063109"><ele>238.39999999999998</ele><time>2026-05-03T10:54:31Z</time></trkpt><trkpt lat="45.80829193750591" lon="9.361429640368703"><ele>237.79999999999998</ele><time>2026-05-03T10:54:32Z</time></trkpt><trkpt lat="45.80820189350184" lon="9.3614705869456"><ele>237.20000000000002</ele><time>2026-05-03T10:54:33Z</time></trkpt><trkpt lat="45.8081336870778" lon="9.361465123289738"><ele>236.60000000000002</ele><time>2026-05-03T10:54:34Z</time></trkpt><trkpt lat="45.80804983975888" lon="9.361387293591228"><ele>236.0</ele><time>2026-05-03T10:54:36Z</time></trkpt><trkpt lat="45.808013158000136" lon="9.36122658952729"><ele>236.00000000000003</ele><time>2026-05-03T10:54:38Z</time></trkpt><trkpt lat="45.807988044126326" lon="9.36109420758217"><ele>236.0</ele><time>2026-05-03T10:54:40Z</time></trkpt><trkpt lat="45.807971090052355" lon="9.360996090966447"><ele>236.0</ele><time>2026-05-03T10:54:43.001Z</time></trkpt><trkpt lat="45.8078398327814" lon="9.360964052335218"><ele>236.0</ele><time>2026-05-03T10:54:46.001Z</time></trkpt><trkpt lat="45.80777955166021" lon="9.360991334942117"><ele>236.00000000000003</ele><time>2026-05-03T10:54:47.001Z</time></trkpt><trkpt lat="45.80770563228563" lon="9.361006745667181"><ele>236.0</ele><time>2026-05-03T10:54:49.001Z</time></trkpt><trkpt lat="45.80761693969092" lon="9.360995904946552"><ele>236.0</ele><time>2026-05-03T10:54:51.001Z</time></trkpt><trkpt lat="45.80749699021077" lon="9.360948273993806"><ele>236.00000000000003</ele><time>2026-05-03T10:54:53.001Z</time></trkpt><trkpt lat="45.80742202137183" lon="9.360913201393377"><ele>236.00000000000003</ele><time>2026-05-03T10:54:54.001Z</time></trkpt><trkpt lat="45.80733095389553" lon="9.360897092179828"><ele>236.0</ele><time>2026-05-03T10:54:55.001Z</time></trkpt><trkpt lat="45.80725609046227" lon="9.360836429452425"><ele>236.0</ele><time>2026-05-03T10:54:56.001Z</time></trkpt><trkpt lat="45.80718433945013" lon="9.360806975625435"><ele>236.0</ele><time>2026-05-03T10:54:57.001Z</time></trkpt><trkpt lat="45.807108562964345" lon="9.360789740668658"><ele>236.00000000000003</ele><time>2026-05-03T10:54:58.001Z</time></trkpt><trkpt lat="45.8070221974561" lon="9.360797992487237"><ele>236.00000000000003</ele><time>2026-05-03T10:54:59.001Z</time></trkpt><trkpt lat="45.806918559042145" lon="9.36085591374656"><ele>236.0</ele><time>2026-05-03T10:55:00.001Z</time></trkpt><trkpt lat="45.80680206143009" lon="9.360897988130962"><ele>236.0</ele><time>2026-05-03T10:55:01.001Z</time></trkpt><trkpt lat="45.80667566270678" lon="9.360936681886447"><ele>235.75</ele><time>2026-05-03T10:55:02.001Z</time></trkpt><trkpt lat="45.80657145671397" lon="9.360935284372546"><ele>235.5</ele><time>2026-05-03T10:55:03.001Z</time></trkpt><trkpt lat="45.80645034932474" lon="9.36097848761953"><ele>235.25</ele><time>2026-05-03T10:55:04.001Z</time></trkpt><trkpt lat="45.80633186787037" lon="9.361003369881974"><ele>235.0</ele><time>2026-05-03T10:55:05.001Z</time></trkpt><trkpt lat="45.806210240457695" lon="9.360990064344989"><ele>235.0</ele><time>2026-05-03T10:55:06.001Z</time></trkpt><trkpt lat="45.80608334299365" lon="9.361011603201812"><ele>235.0</ele><time>2026-05-03T10:55:07.001Z</time></trkpt><trkpt lat="45.805939451666525" lon="9.360982281238648"><ele>235.0</ele><time>2026-05-03T10:55:08.001Z</time></trkpt><trkpt lat="45.8058172716438" lon="9.361001087273985"><ele>235.0</ele><time>2026-05-03T10:55:09.001Z</time></trkpt><trkpt lat="45.80571767446845" lon="9.360961631484141"><ele>235.2</ele><time>2026-05-03T10:55:10.001Z</time></trkpt><trkpt lat="45.80562645054809" lon="9.360932505119255"><ele>235.4</ele><time>2026-05-03T10:55:11.001Z</time></trkpt><trkpt lat="45.80555573921417" lon="9.36088682093301"><ele>235.60000000000002</ele><time>2026-05-03T10:55:12.001Z</time></trkpt><trkpt lat="45.805469686902676" lon="9.360825317004883"><ele>235.8</ele><time>2026-05-03T10:55:13.001Z</time></trkpt><trkpt lat="45.80539384578264" lon="9.36076265379413"><ele>236.0</ele><time>2026-05-03T10:55:14.001Z</time></trkpt><trkpt lat="45.805314668573445" lon="9.360685526154363"><ele>236.0</ele><time>2026-05-03T10:55:15.001Z</time></trkpt><trkpt lat="45.805226577789426" lon="9.360601176525703"><ele>236.0</ele><time>2026-05-03T10:55:16.001Z</time></trkpt><trkpt lat="45.805129848479524" lon="9.360514714834288"><ele>236.0</ele><time>2026-05-03T10:55:17.001Z</time></trkpt><trkpt lat="45.80502943656109" lon="9.360426154847733"><ele>236.0</ele><time>2026-05-03T10:55:18.001Z</time></trkpt><trkpt lat="45.80491561884218" lon="9.360353060115656"><ele>235.33333333333334</ele><time>2026-05-03T10:55:19.001Z</time></trkpt><trkpt lat="45.80480211724985" lon="9.360220397707062"><ele>234.66666666666669</ele><time>2026-05-03T10:55:20.001Z</time></trkpt><trkpt lat="45.80466519835651" lon="9.360093626947135"><ele>234.0</ele><time>2026-05-03T10:55:21.001Z</time></trkpt><trkpt lat="45.80453472346944" lon="9.3599920416387"><ele>234.0</ele><time>2026-05-03T10:55:22.001Z</time></trkpt><trkpt lat="45.804432730629436" lon="9.359836525161702"><ele>234.0</ele><time>2026-05-03T10:55:23.001Z</time></trkpt><trkpt lat="45.80430759386551" lon="9.359665074324127"><ele>234.0</ele><time>2026-05-03T10:55:24.001Z</time></trkpt><trkpt lat="45.80414212957428" lon="9.359530001141744"><ele>234.5</ele><time>2026-05-03T10:55:25.001Z</time></trkpt><trkpt lat="45.80401901502864" lon="9.359343547541078"><ele>235.0</ele><time>2026-05-03T10:55:26.001Z</time></trkpt><trkpt lat="45.80391108473047" lon="9.359239701911454"><ele>235.5</ele><time>2026-05-03T10:55:27.001Z</time></trkpt><trkpt lat="45.8038345082679" lon="9.35915470730811"><ele>236.0</ele><time>2026-05-03T10:55:28.001Z</time></trkpt><trkpt lat="45.803737769883945" lon="9.35911163947799"><ele>236.00000000000003</ele><time>2026-05-03T10:55:29.001Z</time></trkpt><trkpt lat="45.80364810924289" lon="9.359093060487988"><ele>236.0</ele><time>2026-05-03T10:55:30.001Z</time></trkpt><trkpt lat="45.80356852322917" lon="9.359094011314074"><ele>236.0</ele><time>2026-05-03T10:55:31.001Z</time></trkpt><trkpt lat="45.803487232676076" lon="9.359126662257339"><ele>236.0</ele><time>2026-05-03T10:55:32.001Z</time></trkpt><trkpt lat="45.80341622461963" lon="9.359204833525757"><ele>236.00000000000003</ele><time>2026-05-03T10:55:33.001Z</time></trkpt><trkpt lat="45.803346591136574" lon="9.359274531797105"><ele>236.0</ele><time>2026-05-03T10:55:34.002Z</time></trkpt><trkpt lat="45.80329471172874" lon="9.359350132285211"><ele>237.8</ele><time>2026-05-03T10:55:35.002Z</time></trkpt><trkpt lat="45.80319788353848" lon="9.35937765788916"><ele>239.60000000000002</ele><time>2026-05-03T10:55:37.002Z</time></trkpt><trkpt lat="45.80315061921809" lon="9.359269289526967"><ele>241.4</ele><time>2026-05-03T10:55:39.002Z</time></trkpt><trkpt lat="45.803175068545805" lon="9.359157536724291"><ele>243.2</ele><time>2026-05-03T10:55:41.002Z</time></trkpt><trkpt lat="45.80329341721559" lon="9.359097806733049"><ele>245.0</ele><time>2026-05-03T10:55:43.002Z</time></trkpt><trkpt lat="45.8033643344211" lon="9.359068388522632"><ele>245.0</ele><time>2026-05-03T10:55:44.002Z</time></trkpt><trkpt lat="45.8034455100915" lon="9.35903272779691"><ele>245.0</ele><time>2026-05-03T10:55:45.002Z</time></trkpt><trkpt lat="45.80355373646639" lon="9.35899727759149"><ele>245.0</ele><time>2026-05-03T10:55:46.002Z</time></trkpt><trkpt lat="45.80366316862516" lon="9.358954298235885"><ele>245.0</ele><time>2026-05-03T10:55:47.002Z</time></trkpt><trkpt lat="45.80376644023258" lon="9.358911489003408"><ele>245.0</ele><time>2026-05-03T10:55:48.002Z</time></trkpt><trkpt lat="45.8038754213403" lon="9.358867253533642"><ele>241.5</ele><time>2026-05-03T10:55:49.002Z</time></trkpt><trkpt lat="45.80399219682423" lon="9.358824212198419"><ele>238.0</ele><time>2026-05-03T10:55:50.002Z</time></trkpt><trkpt lat="45.80411574773447" lon="9.358784162409084"><ele>234.5</ele><time>2026-05-03T10:55:51.002Z</time></trkpt><trkpt lat="45.804244314185894" lon="9.35875092143513"><ele>231.0</ele><time>2026-05-03T10:55:52.002Z</time></trkpt><trkpt lat="45.80437431388951" lon="9.358727426336122"><ele>231.0</ele><time>2026-05-03T10:55:53.002Z</time></trkpt><trkpt lat="45.80449865846313" lon="9.358721261691379"><ele>231.0</ele><time>2026-05-03T10:55:54.002Z</time></trkpt><trkpt lat="45.8046221789916" lon="9.358726189327777"><ele>231.0</ele><time>2026-05-03T10:55:55.002Z</time></trkpt><trkpt lat="45.80474900903422" lon="9.358745414149107"><ele>231.0</ele><time>2026-05-03T10:55:56.002Z</time></trkpt><trkpt lat="45.80487759869358" lon="9.35877574673651"><ele>231.0</ele><time>2026-05-03T10:55:57.002Z</time></trkpt><trkpt lat="45.80500429727614" lon="9.358808872440097"><ele>231.0</ele><time>2026-05-03T10:55:58.002Z</time></trkpt><trkpt lat="45.80513324369757" lon="9.358844032587372"><ele>231.0</ele><time>2026-05-03T10:55:59.002Z</time></trkpt><trkpt lat="45.8052627190546" lon="9.358870112096767"><ele>231.0</ele><time>2026-05-03T10:56:00.002Z</time></trkpt><trkpt lat="45.805392087018184" lon="9.358893588758995"><ele>230.25</ele><time>2026-05-03T10:56:01.002Z</time></trkpt><trkpt lat="45.80552710557257" lon="9.35891829564904"><ele>229.5</ele><time>2026-05-03T10:56:02.002Z</time></trkpt><trkpt lat="45.80565598837874" lon="9.35894194652304"><ele>228.75</ele><time>2026-05-03T10:56:03.002Z</time></trkpt><trkpt lat="45.80578568659224" lon="9.358969602122583"><ele>228.0</ele><time>2026-05-03T10:56:04.002Z</time></trkpt><trkpt lat="45.80591787678199" lon="9.35900008912806"><ele>228.0</ele><time>2026-05-03T10:56:05.002Z</time></trkpt><trkpt lat="45.806044399190846" lon="9.359028554419305"><ele>228.0</ele><time>2026-05-03T10:56:06.002Z</time></trkpt><trkpt lat="45.806177902645835" lon="9.359058301774718"><ele>228.0</ele><time>2026-05-03T10:56:07.002Z</time></trkpt><trkpt lat="45.806310741862724" lon="9.359088463026161"><ele>228.0</ele><time>2026-05-03T10:56:08.002Z</time></trkpt><trkpt lat="45.80644241905157" lon="9.35912020467411"><ele>228.0</ele><time>2026-05-03T10:56:09.002Z</time></trkpt><trkpt lat="45.8065754207792" lon="9.359149206051598"><ele>228.0</ele><time>2026-05-03T10:56:10.002Z</time></trkpt><trkpt lat="45.8067082082061" lon="9.359177068342163"><ele>228.0</ele><time>2026-05-03T10:56:11.002Z</time></trkpt><trkpt lat="45.806839677301184" lon="9.359198434203678"><ele>228.0</ele><time>2026-05-03T10:56:12Z</time></trkpt><trkpt lat="45.806977116155416" lon="9.359218553925238"><ele>227.33333333333331</ele><time>2026-05-03T10:56:13Z</time></trkpt><trkpt lat="45.807119480265946" lon="9.359245083533898"><ele>226.66666666666666</ele><time>2026-05-03T10:56:14Z</time></trkpt><trkpt lat="45.80727491079153" lon="9.359280660477154"><ele>226.0</ele><time>2026-05-03T10:56:15Z</time></trkpt><trkpt lat="45.80743335819342" lon="9.359316964334967"><ele>226.0</ele><time>2026-05-03T10:56:16Z</time></trkpt><trkpt lat="45.80760052272355" lon="9.359361535442753"><ele>226.0</ele><time>2026-05-03T10:56:17Z</time></trkpt><trkpt lat="45.80776491551736" lon="9.359400304343454"><ele>226.0</ele><time>2026-05-03T10:56:18Z</time></trkpt><trkpt lat="45.8079346139015" lon="9.35943133925074"><ele>226.66666666666666</ele><time>2026-05-03T10:56:19Z</time></trkpt><trkpt lat="45.8081214548286" lon="9.35946659964538"><ele>227.33333333333331</ele><time>2026-05-03T10:56:20Z</time></trkpt><trkpt lat="45.808326114065125" lon="9.359509024702136"><ele>228.0</ele><time>2026-05-03T10:56:21Z</time></trkpt><trkpt lat="45.80854805423495" lon="9.359556988031333"><ele>228.0</ele><time>2026-05-03T10:56:22Z</time></trkpt><trkpt lat="45.80876271910426" lon="9.359602175305907"><ele>228.0</ele><time>2026-05-03T10:56:23Z</time></trkpt><trkpt lat="45.80897520152364" lon="9.359646803440102"><ele>228.0</ele><time>2026-05-03T10:56:24Z</time></trkpt><trkpt lat="45.80919667826499" lon="9.359694819212896"><ele>228.5</ele><time>2026-05-03T10:56:25Z</time></trkpt><trkpt lat="45.809440070513766" lon="9.359748090483265"><ele>229.0</ele><time>2026-05-03T10:56:26Z</time></trkpt><trkpt lat="45.80966964427368" lon="9.359793787066554"><ele>229.0</ele><time>2026-05-03T10:56:27Z</time></trkpt><trkpt lat="45.80988276967683" lon="9.359842450028895"><ele>229.0</ele><time>2026-05-03T10:56:28Z</time></trkpt><trkpt lat="45.81011311970709" lon="9.359886976800729"><ele>229.0</ele><time>2026-05-03T10:56:29Z</time></trkpt><trkpt lat="45.81035443672192" lon="9.359935533617831"><ele>227.5</ele><time>2026-05-03T10:56:30Z</time></trkpt><trkpt lat="45.81059826591008" lon="9.359981850358862"><ele>226.0</ele><time>2026-05-03T10:56:31Z</time></trkpt><trkpt lat="45.81084826259725" lon="9.360016541949319"><ele>225.5</ele><time>2026-05-03T10:56:32Z</time></trkpt><trkpt lat="45.81110673053485" lon="9.36002648136099"><ele>225.0</ele><time>2026-05-03T10:56:33Z</time></trkpt><trkpt lat="45.81136380518756" lon="9.360013045950668"><ele>225.0</ele><time>2026-05-03T10:56:34Z</time></trkpt><trkpt lat="45.81161257778703" lon="9.359991067789496"><ele>225.0</ele><time>2026-05-03T10:56:35Z</time></trkpt><trkpt lat="45.811836210655336" lon="9.359973575063133"><ele>225.33333333333331</ele><time>2026-05-03T10:56:36Z</time></trkpt><trkpt lat="45.812045272316986" lon="9.359959170263814"><ele>225.66666666666666</ele><time>2026-05-03T10:56:37Z</time></trkpt><trkpt lat="45.81223738089361" lon="9.359946578125612"><ele>226.0</ele><time>2026-05-03T10:56:38Z</time></trkpt><trkpt lat="45.81242003135339" lon="9.359938642142957"><ele>226.0</ele><time>2026-05-03T10:56:39Z</time></trkpt><trkpt lat="45.812602478151504" lon="9.359928729392918"><ele>226.0</ele><time>2026-05-03T10:56:40Z</time></trkpt><trkpt lat="45.81278165082027" lon="9.359918805446824"><ele>226.0</ele><time>2026-05-03T10:56:41Z</time></trkpt><trkpt lat="45.812947046981044" lon="9.35990867926315"><ele>228.66666666666666</ele><time>2026-05-03T10:56:42Z</time></trkpt><trkpt lat="45.81311249850424" lon="9.359896321915055"><ele>231.33333333333331</ele><time>2026-05-03T10:56:43Z</time></trkpt><trkpt lat="45.813275593409735" lon="9.35988314722207"><ele>234.0</ele><time>2026-05-03T10:56:44Z</time></trkpt><trkpt lat="45.81343165518831" lon="9.359874644172521"><ele>232.66666666666669</ele><time>2026-05-03T10:56:45Z</time></trkpt><trkpt lat="45.81359868385722" lon="9.359863159182693"><ele>231.33333333333334</ele><time>2026-05-03T10:56:46Z</time></trkpt><trkpt lat="45.813767877816396" lon="9.359853190794372"><ele>230.0</ele><time>2026-05-03T10:56:47Z</time></trkpt><trkpt lat="45.81393081479593" lon="9.359842509481021"><ele>230.0</ele><time>2026-05-03T10:56:48Z</time></trkpt><trkpt lat="45.814094212545534" lon="9.359834486861335"><ele>230.0</ele><time>2026-05-03T10:56:49Z</time></trkpt><trkpt lat="45.81426648910074" lon="9.359821996586728"><ele>230.0</ele><time>2026-05-03T10:56:50Z</time></trkpt><trkpt lat="45.81442428093328" lon="9.359816889655741"><ele>229.33333333333334</ele><time>2026-05-03T10:56:51Z</time></trkpt><trkpt lat="45.814583532542734" lon="9.359806136561332"><ele>228.66666666666669</ele><time>2026-05-03T10:56:52Z</time></trkpt><trkpt lat="45.81473709392233" lon="9.359793055894745"><ele>228.0</ele><time>2026-05-03T10:56:53Z</time></trkpt><trkpt lat="45.81488622184213" lon="9.359784878285819"><ele>228.0</ele><time>2026-05-03T10:56:54Z</time></trkpt><trkpt lat="45.81503741910914" lon="9.359777972141188"><ele>228.0</ele><time>2026-05-03T10:56:55Z</time></trkpt><trkpt lat="45.81518492638152" lon="9.359773819940845"><ele>228.0</ele><time>2026-05-03T10:56:56Z</time></trkpt><trkpt lat="45.81532970970583" lon="9.359772239276559"><ele>228.0</ele><time>2026-05-03T10:56:57Z</time></trkpt><trkpt lat="45.81547617760662" lon="9.359778341694543"><ele>228.0</ele><time>2026-05-03T10:56:58Z</time></trkpt><trkpt lat="45.815620047316266" lon="9.359800904877439"><ele>228.0</ele><time>2026-05-03T10:56:59Z</time></trkpt><trkpt lat="45.815765077100345" lon="9.35984710328077"><ele>228.0</ele><time>2026-05-03T10:57:00Z</time></trkpt><trkpt lat="45.81592003610256" lon="9.359915628960277"><ele>227.0</ele><time>2026-05-03T10:57:01Z</time></trkpt><trkpt lat="45.81608579110821" lon="9.36000079119902"><ele>226.0</ele><time>2026-05-03T10:57:02.001Z</time></trkpt><trkpt lat="45.81625095995355" lon="9.360082404401988"><ele>225.0</ele><time>2026-05-03T10:57:03.001Z</time></trkpt><trkpt lat="45.816421561116485" lon="9.36015805686495"><ele>225.0</ele><time>2026-05-03T10:57:04.001Z</time></trkpt><trkpt lat="45.816596630583724" lon="9.360234661076621"><ele>225.0</ele><time>2026-05-03T10:57:05.001Z</time></trkpt><trkpt lat="45.816782223592334" lon="9.360312013855824"><ele>225.0</ele><time>2026-05-03T10:57:06.001Z</time></trkpt><trkpt lat="45.81695513145225" lon="9.360387619247806"><ele>225.0</ele><time>2026-05-03T10:57:07.001Z</time></trkpt><trkpt lat="45.81712601685828" lon="9.360470652523261"><ele>225.0</ele><time>2026-05-03T10:57:08.001Z</time></trkpt><trkpt lat="45.81728680501895" lon="9.360543353878455"><ele>225.0</ele><time>2026-05-03T10:57:09.001Z</time></trkpt><trkpt lat="45.8174392728056" lon="9.360614357218767"><ele>226.0</ele><time>2026-05-03T10:57:10.001Z</time></trkpt><trkpt lat="45.81759827466799" lon="9.360680023269929"><ele>227.0</ele><time>2026-05-03T10:57:11.001Z</time></trkpt><trkpt lat="45.81774875176187" lon="9.360740135548554"><ele>228.0</ele><time>2026-05-03T10:57:12.001Z</time></trkpt><trkpt lat="45.81790184971274" lon="9.360788060560385"><ele>228.0</ele><time>2026-05-03T10:57:13.001Z</time></trkpt><trkpt lat="45.81805268736438" lon="9.360819144782772"><ele>228.0</ele><time>2026-05-03T10:57:14.001Z</time></trkpt><trkpt lat="45.818202729294896" lon="9.360832315322215"><ele>228.0</ele><time>2026-05-03T10:57:15.001Z</time></trkpt><trkpt lat="45.81836123368833" lon="9.360822508986464"><ele>228.66666666666669</ele><time>2026-05-03T10:57:16.001Z</time></trkpt><trkpt lat="45.81851740220703" lon="9.360799621681005"><ele>229.33333333333334</ele><time>2026-05-03T10:57:17.001Z</time></trkpt><trkpt lat="45.81868190046973" lon="9.360755176408125"><ele>230.0</ele><time>2026-05-03T10:57:18.001Z</time></trkpt><trkpt lat="45.818837647033654" lon="9.360693982308604"><ele>230.0</ele><time>2026-05-03T10:57:19.001Z</time></trkpt><trkpt lat="45.81899067956204" lon="9.36060056555373"><ele>230.0</ele><time>2026-05-03T10:57:20.001Z</time></trkpt><trkpt lat="45.81914151825026" lon="9.360490542857976"><ele>230.0</ele><time>2026-05-03T10:57:21.001Z</time></trkpt><trkpt lat="45.819283851299744" lon="9.360373229136348"><ele>230.0</ele><time>2026-05-03T10:57:22.001Z</time></trkpt><trkpt lat="45.81942574960839" lon="9.36025030253308"><ele>230.0</ele><time>2026-05-03T10:57:23.001Z</time></trkpt><trkpt lat="45.819577595896725" lon="9.36012425871124"><ele>230.0</ele><time>2026-05-03T10:57:24.001Z</time></trkpt><trkpt lat="45.81972392180995" lon="9.359999543780226"><ele>230.0</ele><time>2026-05-03T10:57:25.001Z</time></trkpt><trkpt lat="45.81986888970416" lon="9.35987516392435"><ele>230.0</ele><time>2026-05-03T10:57:26.001Z</time></trkpt><trkpt lat="45.82001721602006" lon="9.359753574452881"><ele>230.0</ele><time>2026-05-03T10:57:27.001Z</time></trkpt><trkpt lat="45.82016653131945" lon="9.35963310533398"><ele>229.0</ele><time>2026-05-03T10:57:28.001Z</time></trkpt><trkpt lat="45.82031530845034" lon="9.359507382323706"><ele>228.0</ele><time>2026-05-03T10:57:29.001Z</time></trkpt><trkpt lat="45.82046372555199" lon="9.359379943884"><ele>227.0</ele><time>2026-05-03T10:57:30.001Z</time></trkpt><trkpt lat="45.82061163222225" lon="9.359249910953814"><ele>227.0</ele><time>2026-05-03T10:57:31.001Z</time></trkpt><trkpt lat="45.82076402509418" lon="9.359122689039886"><ele>227.0</ele><time>2026-05-03T10:57:32.001Z</time></trkpt><trkpt lat="45.820916423813415" lon="9.358994538125359"><ele>227.0</ele><time>2026-05-03T10:57:33.001Z</time></trkpt><trkpt lat="45.82106804874312" lon="9.358867005507436"><ele>227.0</ele><time>2026-05-03T10:57:34.001Z</time></trkpt><trkpt lat="45.82122349876223" lon="9.358747086360076"><ele>227.0</ele><time>2026-05-03T10:57:35.001Z</time></trkpt><trkpt lat="45.821381404811824" lon="9.358623715306985"><ele>227.0</ele><time>2026-05-03T10:57:36.001Z</time></trkpt><trkpt lat="45.821529971674344" lon="9.358499083732976"><ele>227.0</ele><time>2026-05-03T10:57:37.001Z</time></trkpt><trkpt lat="45.82168287830594" lon="9.358372793971208"><ele>227.0</ele><time>2026-05-03T10:57:38.001Z</time></trkpt><trkpt lat="45.821836126178816" lon="9.358239257176773"><ele>227.0</ele><time>2026-05-03T10:57:39.001Z</time></trkpt><trkpt lat="45.82199417793102" lon="9.358107562622825"><ele>227.33333333333334</ele><time>2026-05-03T10:57:40.001Z</time></trkpt><trkpt lat="45.82214118808537" lon="9.357980239462888"><ele>227.66666666666669</ele><time>2026-05-03T10:57:41.001Z</time></trkpt><trkpt lat="45.82229577114667" lon="9.357849832095944"><ele>228.0</ele><time>2026-05-03T10:57:42.001Z</time></trkpt><trkpt lat="45.82245194015672" lon="9.357721339043852"><ele>228.0</ele><time>2026-05-03T10:57:43.001Z</time></trkpt><trkpt lat="45.82260520564088" lon="9.357591216934981"><ele>228.0</ele><time>2026-05-03T10:57:44.001Z</time></trkpt><trkpt lat="45.82275422490278" lon="9.357466406583587"><ele>228.0</ele><time>2026-05-03T10:57:45.001Z</time></trkpt><trkpt lat="45.82289948278141" lon="9.35734360541657"><ele>228.0</ele><time>2026-05-03T10:57:46.001Z</time></trkpt><trkpt lat="45.823039975714345" lon="9.35723149179016"><ele>228.0</ele><time>2026-05-03T10:57:47.001Z</time></trkpt><trkpt lat="45.8231737591152" lon="9.357133598120567"><ele>228.0</ele><time>2026-05-03T10:57:48.001Z</time></trkpt><trkpt lat="45.82329810148426" lon="9.357049197218341"><ele>228.0</ele><time>2026-05-03T10:57:49.001Z</time></trkpt><trkpt lat="45.82342502727587" lon="9.356986321933194"><ele>228.25</ele><time>2026-05-03T10:57:50.001Z</time></trkpt><trkpt lat="45.8235471744399" lon="9.35693392772676"><ele>228.5</ele><time>2026-05-03T10:57:51.001Z</time></trkpt><trkpt lat="45.82368216666664" lon="9.356899840289318"><ele>228.75</ele><time>2026-05-03T10:57:52.002Z</time></trkpt><trkpt lat="45.82382405808441" lon="9.356866365231548"><ele>229.0</ele><time>2026-05-03T10:57:53.002Z</time></trkpt><trkpt lat="45.82396279784282" lon="9.356826388800743"><ele>229.0</ele><time>2026-05-03T10:57:54.002Z</time></trkpt><trkpt lat="45.8241074662491" lon="9.356781235628183"><ele>229.0</ele><time>2026-05-03T10:57:55.002Z</time></trkpt><trkpt lat="45.82425307136847" lon="9.356737801930871"><ele>229.0</ele><time>2026-05-03T10:57:56.002Z</time></trkpt><trkpt lat="45.82439819284316" lon="9.356692946871219"><ele>229.0</ele><time>2026-05-03T10:57:57.002Z</time></trkpt><trkpt lat="45.824547652650914" lon="9.3566453746614"><ele>231.0</ele><time>2026-05-03T10:57:58.002Z</time></trkpt><trkpt lat="45.824695150400224" lon="9.356600077253615"><ele>233.0</ele><time>2026-05-03T10:57:59.002Z</time></trkpt><trkpt lat="45.82483257437823" lon="9.356557991380914"><ele>235.0</ele><time>2026-05-03T10:58:00.002Z</time></trkpt><trkpt lat="45.82497672165445" lon="9.356514888380309"><ele>237.0</ele><time>2026-05-03T10:58:01.002Z</time></trkpt><trkpt lat="45.825121193675315" lon="9.356471355588718"><ele>233.66666666666669</ele><time>2026-05-03T10:58:02.002Z</time></trkpt><trkpt lat="45.82527013815582" lon="9.356426223528848"><ele>230.33333333333334</ele><time>2026-05-03T10:58:03.002Z</time></trkpt><trkpt lat="45.825416602143335" lon="9.356382729105789"><ele>227.0</ele><time>2026-05-03T10:58:04.002Z</time></trkpt><trkpt lat="45.825564436516814" lon="9.35634094287175"><ele>227.0</ele><time>2026-05-03T10:58:05.002Z</time></trkpt><trkpt lat="45.82571085585865" lon="9.35629529321224"><ele>227.0</ele><time>2026-05-03T10:58:06.002Z</time></trkpt><trkpt lat="45.825855617956336" lon="9.35624309445684"><ele>227.0</ele><time>2026-05-03T10:58:07.002Z</time></trkpt><trkpt lat="45.82599302835273" lon="9.35617282511297"><ele>227.0</ele><time>2026-05-03T10:58:08.002Z</time></trkpt><trkpt lat="45.826127080109956" lon="9.356094511916261"><ele>230.0</ele><time>2026-05-03T10:58:09.002Z</time></trkpt><trkpt lat="45.826252938512965" lon="9.356002786217035"><ele>233.0</ele><time>2026-05-03T10:58:10.002Z</time></trkpt><trkpt lat="45.82636903926253" lon="9.3559015688904"><ele>236.0</ele><time>2026-05-03T10:58:11.002Z</time></trkpt><trkpt lat="45.82647132018392" lon="9.355800268787904"><ele>239.0</ele><time>2026-05-03T10:58:12.002Z</time></trkpt><trkpt lat="45.82655889468938" lon="9.355694423711874"><ele>239.0</ele><time>2026-05-03T10:58:13.002Z</time></trkpt><trkpt lat="45.82663214148478" lon="9.355588763670804"><ele>238.99999999999997</ele><time>2026-05-03T10:58:14.002Z</time></trkpt><trkpt lat="45.82669928592272" lon="9.355488768305067"><ele>238.99999999999997</ele><time>2026-05-03T10:58:15.002Z</time></trkpt><trkpt lat="45.82676203806385" lon="9.355398326383602"><ele>239.0</ele><time>2026-05-03T10:58:16.002Z</time></trkpt><trkpt lat="45.82682760166806" lon="9.355318010894218"><ele>239.0</ele><time>2026-05-03T10:58:17.002Z</time></trkpt><trkpt lat="45.82690093320378" lon="9.355246689763918"><ele>239.6</ele><time>2026-05-03T10:58:18Z</time></trkpt><trkpt lat="45.82698176417064" lon="9.355168643232828"><ele>240.2</ele><time>2026-05-03T10:58:18.999Z</time></trkpt><trkpt lat="45.82706176488458" lon="9.35507781603763"><ele>240.79999999999998</ele><time>2026-05-03T10:58:20Z</time></trkpt><trkpt lat="45.827140680367634" lon="9.354970849212265"><ele>241.39999999999998</ele><time>2026-05-03T10:58:21Z</time></trkpt><trkpt lat="45.82722203982997" lon="9.354852391984938"><ele>242.0</ele><time>2026-05-03T10:58:21.999Z</time></trkpt><trkpt lat="45.82730941025415" lon="9.35473051328762"><ele>242.75</ele><time>2026-05-03T10:58:23Z</time></trkpt><trkpt lat="45.827401088216824" lon="9.354604509803465"><ele>243.5</ele><time>2026-05-03T10:58:24Z</time></trkpt><trkpt lat="45.82749485558881" lon="9.354468080362748"><ele>244.25</ele><time>2026-05-03T10:58:25Z</time></trkpt><trkpt lat="45.827589192625894" lon="9.354326383015856"><ele>245.0</ele><time>2026-05-03T10:58:26Z</time></trkpt><trkpt lat="45.827687115282906" lon="9.35417949062686"><ele>245.0</ele><time>2026-05-03T10:58:27Z</time></trkpt><trkpt lat="45.82778794833125" lon="9.354034878214282"><ele>245.0</ele><time>2026-05-03T10:58:28Z</time></trkpt><trkpt lat="45.82788545782263" lon="9.353895322983668"><ele>245.0</ele><time>2026-05-03T10:58:29Z</time></trkpt><trkpt lat="45.82797408005598" lon="9.353763788871692"><ele>245.0</ele><time>2026-05-03T10:58:30Z</time></trkpt><trkpt lat="45.82806067079504" lon="9.353636004793408"><ele>242.75</ele><time>2026-05-03T10:58:31Z</time></trkpt><trkpt lat="45.82814563321165" lon="9.353524842068337"><ele>240.5</ele><time>2026-05-03T10:58:32Z</time></trkpt><trkpt lat="45.828230988449185" lon="9.353369325993274"><ele>238.25</ele><time>2026-05-03T10:58:33Z</time></trkpt><trkpt lat="45.828305028852434" lon="9.353242055944252"><ele>236.0</ele><time>2026-05-03T10:58:34Z</time></trkpt><trkpt lat="45.82836290132838" lon="9.353118355191695"><ele>235.5</ele><time>2026-05-03T10:58:35Z</time></trkpt><trkpt lat="45.82842439812759" lon="9.352988464349076"><ele>235.0</ele><time>2026-05-03T10:58:36Z</time></trkpt><trkpt lat="45.82849881899007" lon="9.352855731696238"><ele>234.5</ele><time>2026-05-03T10:58:37Z</time></trkpt><trkpt lat="45.82858324099044" lon="9.352732452469285"><ele>234.0</ele><time>2026-05-03T10:58:38Z</time></trkpt><trkpt lat="45.82868933719953" lon="9.352644055774864"><ele>234.0</ele><time>2026-05-03T10:58:39Z</time></trkpt><trkpt lat="45.8288080219911" lon="9.352568125640898"><ele>234.0</ele><time>2026-05-03T10:58:40Z</time></trkpt><trkpt lat="45.82890109313074" lon="9.352456620322851"><ele>234.0</ele><time>2026-05-03T10:58:41Z</time></trkpt><trkpt lat="45.829000427245944" lon="9.352407631408868"><ele>234.0</ele><time>2026-05-03T10:58:42Z</time></trkpt><trkpt lat="45.829107455090394" lon="9.352349270736891"><ele>234.0</ele><time>2026-05-03T10:58:43Z</time></trkpt><trkpt lat="45.82923732891474" lon="9.352295453916138"><ele>234.0</ele><time>2026-05-03T10:58:44Z</time></trkpt><trkpt lat="45.82935180626137" lon="9.352265737182366"><ele>234.0</ele><time>2026-05-03T10:58:45Z</time></trkpt><trkpt lat="45.82945640555028" lon="9.352226960236647"><ele>234.0</ele><time>2026-05-03T10:58:46Z</time></trkpt><trkpt lat="45.829552077669504" lon="9.352157758325507"><ele>232.79999999999998</ele><time>2026-05-03T10:58:47Z</time></trkpt><trkpt lat="45.829638735441826" lon="9.352085474982752"><ele>231.59999999999997</ele><time>2026-05-03T10:58:48Z</time></trkpt><trkpt lat="45.82973182771804" lon="9.352018954670628"><ele>230.4</ele><time>2026-05-03T10:58:49Z</time></trkpt><trkpt lat="45.82982559247887" lon="9.351960179645948"><ele>229.2</ele><time>2026-05-03T10:58:50Z</time></trkpt><trkpt lat="45.82992569481236" lon="9.351908731402501"><ele>228.0</ele><time>2026-05-03T10:58:51Z</time></trkpt><trkpt lat="45.830030869636516" lon="9.351879156110103"><ele>227.75</ele><time>2026-05-03T10:58:52Z</time></trkpt><trkpt lat="45.83014520770487" lon="9.351874904894341"><ele>227.5</ele><time>2026-05-03T10:58:53Z</time></trkpt><trkpt lat="45.83026218961457" lon="9.3519006891797"><ele>227.25</ele><time>2026-05-03T10:58:54Z</time></trkpt><trkpt lat="45.83037476685785" lon="9.351934985313086"><ele>227.0</ele><time>2026-05-03T10:58:55Z</time></trkpt><trkpt lat="45.830483019586005" lon="9.351962202712562"><ele>227.0</ele><time>2026-05-03T10:58:56Z</time></trkpt><trkpt lat="45.83059318019167" lon="9.351968707815905"><ele>227.0</ele><time>2026-05-03T10:58:57Z</time></trkpt><trkpt lat="45.83069161571595" lon="9.351981002745479"><ele>227.0</ele><time>2026-05-03T10:58:58Z</time></trkpt><trkpt lat="45.8307855105059" lon="9.35198757656267"><ele>227.0</ele><time>2026-05-03T10:58:59Z</time></trkpt><trkpt lat="45.8308788834974" lon="9.35199407699096"><ele>227.0</ele><time>2026-05-03T10:59:00Z</time></trkpt><trkpt lat="45.83096582861846" lon="9.352005588074432"><ele>227.00000000000003</ele><time>2026-05-03T10:59:01Z</time></trkpt><trkpt lat="45.83105119189483" lon="9.35202762318634"><ele>227.0</ele><time>2026-05-03T10:59:02Z</time></trkpt><trkpt lat="45.831125622590406" lon="9.35205909040908"><ele>227.0</ele><time>2026-05-03T10:59:03Z</time></trkpt><trkpt lat="45.83119778071266" lon="9.352082886123473"><ele>227.0</ele><time>2026-05-03T10:59:04Z</time></trkpt><trkpt lat="45.83129987282853" lon="9.352080916176542"><ele>227.00000000000003</ele><time>2026-05-03T10:59:06Z</time></trkpt><trkpt lat="45.831391388481805" lon="9.351999542350706"><ele>227.0</ele><time>2026-05-03T10:59:09Z</time></trkpt><trkpt lat="45.831498533442705" lon="9.3519234766578"><ele>227.0</ele><time>2026-05-03T10:59:11Z</time></trkpt><trkpt lat="45.831573248173925" lon="9.351801380920428"><ele>227.0</ele><time>2026-05-03T10:59:13Z</time></trkpt><trkpt lat="45.83154602996725" lon="9.351653590509448"><ele>227.0</ele><time>2026-05-03T10:59:15Z</time></trkpt><trkpt lat="45.83145742114232" lon="9.351570790781325"><ele>227.0</ele><time>2026-05-03T10:59:17.001Z</time></trkpt><trkpt lat="45.83138419404787" lon="9.351637787516786"><ele>227.0</ele><time>2026-05-03T10:59:18.001Z</time></trkpt><trkpt lat="45.831308733272664" lon="9.35166719198957"><ele>227.0</ele><time>2026-05-03T10:59:19.001Z</time></trkpt><trkpt lat="45.83127193007732" lon="9.351750059601732"><ele>227.0</ele><time>2026-05-03T10:59:20.001Z</time></trkpt><trkpt lat="45.831194661787364" lon="9.351729120156861"><ele>227.0</ele><time>2026-05-03T10:59:21.001Z</time></trkpt><trkpt lat="45.8312997584799" lon="9.35199102216023"><ele>227.0</ele><time>2026-05-03T10:59:42.001Z</time></trkpt><trkpt lat="45.8312364470757" lon="9.352021186355389"><ele>227.0</ele><time>2026-05-03T10:59:43.001Z</time></trkpt><trkpt lat="45.83115103755852" lon="9.35201154883493"><ele>227.0</ele><time>2026-05-03T10:59:44.001Z</time></trkpt><trkpt lat="45.8310722435697" lon="9.351998430868695"><ele>227.0</ele><time>2026-05-03T10:59:45.001Z</time></trkpt><trkpt lat="45.83097380554505" lon="9.351972776073664"><ele>227.0</ele><time>2026-05-03T10:59:46.001Z</time></trkpt><trkpt lat="45.83084834406825" lon="9.351954458681856"><ele>227.0</ele><time>2026-05-03T10:59:47.001Z</time></trkpt><trkpt lat="45.83071352512871" lon="9.351947166370854"><ele>227.0</ele><time>2026-05-03T10:59:48.001Z</time></trkpt><trkpt lat="45.83055523286661" lon="9.351935622692679"><ele>227.0</ele><time>2026-05-03T10:59:49.001Z</time></trkpt><trkpt lat="45.830399123338736" lon="9.351897570948525"><ele>227.0</ele><time>2026-05-03T10:59:50.001Z</time></trkpt><trkpt lat="45.83022626790727" lon="9.351864695867036"><ele>227.0</ele><time>2026-05-03T10:59:51.001Z</time></trkpt><trkpt lat="45.83007682432569" lon="9.351855066993123"><ele>227.33333333333334</ele><time>2026-05-03T10:59:52.001Z</time></trkpt><trkpt lat="45.829950535681355" lon="9.351719707679168"><ele>227.66666666666669</ele><time>2026-05-03T10:59:53.001Z</time></trkpt><trkpt lat="45.829828536748" lon="9.351903904815847"><ele>228.0</ele><time>2026-05-03T10:59:54.001Z</time></trkpt><trkpt lat="45.82972119213713" lon="9.351970830604385"><ele>228.0</ele><time>2026-05-03T10:59:55.001Z</time></trkpt><trkpt lat="45.829625607944244" lon="9.352037704797944"><ele>228.0</ele><time>2026-05-03T10:59:56.001Z</time></trkpt><trkpt lat="45.82952717183176" lon="9.352100293365865"><ele>228.0</ele><time>2026-05-03T10:59:57.001Z</time></trkpt><trkpt lat="45.82942898169147" lon="9.352156607415306"><ele>228.0</ele><time>2026-05-03T10:59:58.001Z</time></trkpt><trkpt lat="45.82933136523989" lon="9.35221102995114"><ele>228.0</ele><time>2026-05-03T10:59:59.001Z</time></trkpt><trkpt lat="45.82922327340228" lon="9.352255316360813"><ele>229.5</ele><time>2026-05-03T11:00:00.001Z</time></trkpt><trkpt lat="45.8291046950455" lon="9.352278800884983"><ele>231.0</ele><time>2026-05-03T11:00:01.001Z</time></trkpt><trkpt lat="45.82896556593731" lon="9.352321417092389"><ele>232.5</ele><time>2026-05-03T11:00:02.001Z</time></trkpt><trkpt lat="45.82881324197917" lon="9.352420796903381"><ele>234.0</ele><time>2026-05-03T11:00:03.001Z</time></trkpt><trkpt lat="45.82867420773681" lon="9.352551316482733"><ele>234.0</ele><time>2026-05-03T11:00:04.002Z</time></trkpt><trkpt lat="45.82858235100197" lon="9.352659357217696"><ele>233.99999999999997</ele><time>2026-05-03T11:00:05.002Z</time></trkpt><trkpt lat="45.82851403940319" lon="9.352707097586775"><ele>233.99999999999997</ele><time>2026-05-03T11:00:06.002Z</time></trkpt><trkpt lat="45.82835913532716" lon="9.352800449283967"><ele>234.0</ele><time>2026-05-03T11:00:08.002Z</time></trkpt><trkpt lat="45.82829946984592" lon="9.352850560027372"><ele>234.0</ele><time>2026-05-03T11:00:09.002Z</time></trkpt><trkpt lat="45.82825004454742" lon="9.352935411302322"><ele>234.39999999999998</ele><time>2026-05-03T11:00:14.002Z</time></trkpt><trkpt lat="45.82822189791375" lon="9.353134881463768"><ele>234.79999999999998</ele><time>2026-05-03T11:00:16.002Z</time></trkpt><trkpt lat="45.828205623647094" lon="9.353230050881564"><ele>235.20000000000002</ele><time>2026-05-03T11:00:17.002Z</time></trkpt><trkpt lat="45.828174246065146" lon="9.353328569399496"><ele>235.60000000000002</ele><time>2026-05-03T11:00:18.002Z</time></trkpt><trkpt lat="45.82812944765686" lon="9.35344029801349"><ele>236.0</ele><time>2026-05-03T11:00:19.002Z</time></trkpt><trkpt lat="45.828048490307594" lon="9.35356238188372"><ele>236.0</ele><time>2026-05-03T11:00:20.002Z</time></trkpt><trkpt lat="45.82797840988301" lon="9.35367254428327"><ele>236.0</ele><time>2026-05-03T11:00:21.002Z</time></trkpt><trkpt lat="45.82790836698499" lon="9.353776239887267"><ele>236.0</ele><time>2026-05-03T11:00:22.002Z</time></trkpt><trkpt lat="45.8278244548118" lon="9.353878205076068"><ele>236.0</ele><time>2026-05-03T11:00:23.002Z</time></trkpt><trkpt lat="45.827710610057686" lon="9.354043714310725"><ele>234.75</ele><time>2026-05-03T11:00:24Z</time></trkpt><trkpt lat="45.827593483618486" lon="9.354195062631298"><ele>233.5</ele><time>2026-05-03T11:00:25Z</time></trkpt><trkpt lat="45.82748768137583" lon="9.354322635606481"><ele>232.25</ele><time>2026-05-03T11:00:26Z</time></trkpt><trkpt lat="45.82739227242435" lon="9.354449044043262"><ele>231.0</ele><time>2026-05-03T11:00:27Z</time></trkpt><trkpt lat="45.827334592852786" lon="9.354560650031543"><ele>231.0</ele><time>2026-05-03T11:00:28Z</time></trkpt><trkpt lat="45.82726819596689" lon="9.354653529220323"><ele>231.0</ele><time>2026-05-03T11:00:29Z</time></trkpt><trkpt lat="45.82720873666924" lon="9.354739970189849"><ele>231.0</ele><time>2026-05-03T11:00:30Z</time></trkpt><trkpt lat="45.827151984650406" lon="9.35481294527464"><ele>231.0</ele><time>2026-05-03T11:00:31Z</time></trkpt><trkpt lat="45.827095613302156" lon="9.354874283330231"><ele>231.0</ele><time>2026-05-03T11:00:32Z</time></trkpt><trkpt lat="45.8270141291242" lon="9.354907660638839"><ele>231.0</ele><time>2026-05-03T11:00:33Z</time></trkpt><trkpt lat="45.82693423698939" lon="9.354917668333416"><ele>230.0</ele><time>2026-05-03T11:00:34Z</time></trkpt><trkpt lat="45.826865292183435" lon="9.354917218341317"><ele>229.00000000000003</ele><time>2026-05-03T11:00:35Z</time></trkpt><trkpt lat="45.826755356131606" lon="9.354969869786364"><ele>228.00000000000003</ele><time>2026-05-03T11:00:37Z</time></trkpt><trkpt lat="45.82673141533521" lon="9.355133560053673"><ele>227.0</ele><time>2026-05-03T11:00:39Z</time></trkpt><trkpt lat="45.826751971816584" lon="9.355253456842958"><ele>226.0</ele><time>2026-05-03T11:00:41Z</time></trkpt><trkpt lat="45.82689201340669" lon="9.35524529886601"><ele>229.20000000000002</ele><time>2026-05-03T11:00:42Z</time></trkpt><trkpt lat="45.82696275304221" lon="9.35520272005605"><ele>232.40000000000003</ele><time>2026-05-03T11:00:43Z</time></trkpt><trkpt lat="45.827027913427166" lon="9.355129171910956"><ele>235.6</ele><time>2026-05-03T11:00:44Z</time></trkpt><trkpt lat="45.82709418183796" lon="9.355038040462796"><ele>238.8</ele><time>2026-05-03T11:00:45Z</time></trkpt><trkpt lat="45.827167889290614" lon="9.354939620242016"><ele>242.0</ele><time>2026-05-03T11:00:46Z</time></trkpt><trkpt lat="45.82724480890198" lon="9.354833021387112"><ele>242.0</ele><time>2026-05-03T11:00:47Z</time></trkpt><trkpt lat="45.82732487607215" lon="9.354718063973758"><ele>242.0</ele><time>2026-05-03T11:00:48Z</time></trkpt><trkpt lat="45.82740813445063" lon="9.354592986913639"><ele>242.0</ele><time>2026-05-03T11:00:49Z</time></trkpt><trkpt lat="45.82749328906348" lon="9.35446395217118"><ele>242.0</ele><time>2026-05-03T11:00:50Z</time></trkpt><trkpt lat="45.82758424086325" lon="9.354331291600092"><ele>243.0</ele><time>2026-05-03T11:00:51Z</time></trkpt><trkpt lat="45.827681476161736" lon="9.354195477522728"><ele>244.0</ele><time>2026-05-03T11:00:52Z</time></trkpt><trkpt lat="45.827791443306715" lon="9.354047100421855"><ele>245.0</ele><time>2026-05-03T11:00:53Z</time></trkpt><trkpt lat="45.82790837441242" lon="9.353874685629775"><ele>242.75</ele><time>2026-05-03T11:00:54Z</time></trkpt><trkpt lat="45.82801845476048" lon="9.353702197522333"><ele>240.5</ele><time>2026-05-03T11:00:55Z</time></trkpt><trkpt lat="45.82811545775286" lon="9.353555161123202"><ele>238.25</ele><time>2026-05-03T11:00:56Z</time></trkpt><trkpt lat="45.828185800315964" lon="9.353448702988372"><ele>236.0</ele><time>2026-05-03T11:00:57Z</time></trkpt><trkpt lat="45.828308101183225" lon="9.353302299216715"><ele>236.0</ele><time>2026-05-03T11:00:58Z</time></trkpt><trkpt lat="45.82843433277629" lon="9.353144654533024"><ele>236.0</ele><time>2026-05-03T11:00:59Z</time></trkpt><trkpt lat="45.82856898557988" lon="9.352988859682489"><ele>236.0</ele><time>2026-05-03T11:01:00Z</time></trkpt><trkpt lat="45.82868960649813" lon="9.352883497370918"><ele>235.5</ele><time>2026-05-03T11:01:01Z</time></trkpt><trkpt lat="45.828798310145125" lon="9.352817014218255"><ele>235.0</ele><time>2026-05-03T11:01:02Z</time></trkpt><trkpt lat="45.82893238911152" lon="9.352676679342908"><ele>234.5</ele><time>2026-05-03T11:01:03Z</time></trkpt><trkpt lat="45.829083435504366" lon="9.352607433905401"><ele>234.0</ele><time>2026-05-03T11:01:04Z</time></trkpt><trkpt lat="45.82922134370112" lon="9.352542055384069"><ele>232.25</ele><time>2026-05-03T11:01:05Z</time></trkpt><trkpt lat="45.829349754600706" lon="9.352502497776616"><ele>230.5</ele><time>2026-05-03T11:01:06Z</time></trkpt><trkpt lat="45.82948886081525" lon="9.352444225817557"><ele>228.75</ele><time>2026-05-03T11:01:07Z</time></trkpt><trkpt lat="45.82962427452769" lon="9.352403337101675"><ele>227.0</ele><time>2026-05-03T11:01:08Z</time></trkpt><trkpt lat="45.82975473265062" lon="9.35236932962691"><ele>227.0</ele><time>2026-05-03T11:01:09Z</time></trkpt><trkpt lat="45.82988471141722" lon="9.35234257959771"><ele>227.0</ele><time>2026-05-03T11:01:10Z</time></trkpt><trkpt lat="45.83002235333038" lon="9.352319478223416"><ele>227.0</ele><time>2026-05-03T11:01:11Z</time></trkpt><trkpt lat="45.830168700561" lon="9.352305658639644"><ele>227.0</ele><time>2026-05-03T11:01:12Z</time></trkpt><trkpt lat="45.830333209473906" lon="9.352316436666802"><ele>227.33333333333334</ele><time>2026-05-03T11:01:13Z</time></trkpt><trkpt lat="45.83050682522939" lon="9.352352943479495"><ele>227.66666666666669</ele><time>2026-05-03T11:01:14Z</time></trkpt><trkpt lat="45.83069439949043" lon="9.352405099971598"><ele>228.0</ele><time>2026-05-03T11:01:15Z</time></trkpt><trkpt lat="45.83089174022066" lon="9.35245024190377"><ele>229.0</ele><time>2026-05-03T11:01:16Z</time></trkpt><trkpt lat="45.83109853531175" lon="9.352496623331184"><ele>230.0</ele><time>2026-05-03T11:01:17Z</time></trkpt><trkpt lat="45.831308026338625" lon="9.352555366618512"><ele>231.0</ele><time>2026-05-03T11:01:18Z</time></trkpt><trkpt lat="45.831506248271154" lon="9.352603472053834"><ele>231.0</ele><time>2026-05-03T11:01:19.001Z</time></trkpt><trkpt lat="45.83169543114092" lon="9.352633040587937"><ele>231.0</ele><time>2026-05-03T11:01:20.001Z</time></trkpt><trkpt lat="45.83188992235063" lon="9.352637331797398"><ele>231.0</ele><time>2026-05-03T11:01:21.001Z</time></trkpt><trkpt lat="45.83209048394047" lon="9.35261076707494"><ele>230.66666666666669</ele><time>2026-05-03T11:01:22.001Z</time></trkpt><trkpt lat="45.83229294440457" lon="9.352565170838092"><ele>230.33333333333334</ele><time>2026-05-03T11:01:23.001Z</time></trkpt><trkpt lat="45.83249363712741" lon="9.352518379944303"><ele>230.0</ele><time>2026-05-03T11:01:24.001Z</time></trkpt><trkpt lat="45.832680224366385" lon="9.352479202174928"><ele>228.33333333333334</ele><time>2026-05-03T11:01:25.001Z</time></trkpt><trkpt lat="45.83285782256854" lon="9.352444337335399"><ele>226.66666666666669</ele><time>2026-05-03T11:01:26.001Z</time></trkpt><trkpt lat="45.83302441365387" lon="9.352427661490653"><ele>225.0</ele><time>2026-05-03T11:01:27.001Z</time></trkpt><trkpt lat="45.8331908616341" lon="9.35243369594246"><ele>225.0</ele><time>2026-05-03T11:01:28.001Z</time></trkpt><trkpt lat="45.83335717125286" lon="9.352466925863542"><ele>225.0</ele><time>2026-05-03T11:01:29.001Z</time></trkpt><trkpt lat="45.83352383272777" lon="9.352522333310162"><ele>225.0</ele><time>2026-05-03T11:01:30.001Z</time></trkpt><trkpt lat="45.83368804352013" lon="9.352588983780366"><ele>223.66666666666669</ele><time>2026-05-03T11:01:31.001Z</time></trkpt><trkpt lat="45.83385177034605" lon="9.352668448898283"><ele>222.33333333333334</ele><time>2026-05-03T11:01:32.001Z</time></trkpt><trkpt lat="45.834016634468256" lon="9.352777761805031"><ele>221.0</ele><time>2026-05-03T11:01:33.001Z</time></trkpt><trkpt lat="45.83418958156251" lon="9.352919395650085"><ele>221.0</ele><time>2026-05-03T11:01:34.001Z</time></trkpt><trkpt lat="45.83436197485331" lon="9.353075130071511"><ele>221.0</ele><time>2026-05-03T11:01:35.001Z</time></trkpt><trkpt lat="45.834542698853795" lon="9.35324924466979"><ele>221.0</ele><time>2026-05-03T11:01:36.001Z</time></trkpt><trkpt lat="45.8347208299435" lon="9.353436006736207"><ele>221.0</ele><time>2026-05-03T11:01:37.001Z</time></trkpt><trkpt lat="45.83489999157071" lon="9.353628290477404"><ele>221.0</ele><time>2026-05-03T11:01:38.001Z</time></trkpt><trkpt lat="45.83508857820046" lon="9.353817933093996"><ele>220.5</ele><time>2026-05-03T11:01:39.001Z</time></trkpt><trkpt lat="45.83527870106053" lon="9.354011675216423"><ele>220.0</ele><time>2026-05-03T11:01:40.001Z</time></trkpt><trkpt lat="45.83546389447088" lon="9.354209380716943"><ele>220.0</ele><time>2026-05-03T11:01:41.001Z</time></trkpt><trkpt lat="45.835665921371046" lon="9.354408526435842"><ele>220.0</ele><time>2026-05-03T11:01:42.001Z</time></trkpt><trkpt lat="45.83585399317064" lon="9.354609509468107"><ele>220.5</ele><time>2026-05-03T11:01:43.001Z</time></trkpt><trkpt lat="45.83605490246236" lon="9.354821247810092"><ele>221.0</ele><time>2026-05-03T11:01:44.001Z</time></trkpt><trkpt lat="45.83625642027984" lon="9.355040210268047"><ele>221.0</ele><time>2026-05-03T11:01:45.001Z</time></trkpt><trkpt lat="45.836468536729754" lon="9.355261418139328"><ele>221.0</ele><time>2026-05-03T11:01:46.001Z</time></trkpt><trkpt lat="45.836691242543786" lon="9.355484896337824"><ele>223.0</ele><time>2026-05-03T11:01:47.001Z</time></trkpt><trkpt lat="45.836905436866516" lon="9.355704267622887"><ele>225.0</ele><time>2026-05-03T11:01:48.001Z</time></trkpt><trkpt lat="45.83711668002892" lon="9.355923199990539"><ele>225.0</ele><time>2026-05-03T11:01:49.001Z</time></trkpt><trkpt lat="45.83732813247257" lon="9.356142531268969"><ele>225.0</ele><time>2026-05-03T11:01:50.001Z</time></trkpt><trkpt lat="45.83753773945013" lon="9.356357583410128"><ele>224.0</ele><time>2026-05-03T11:01:51.001Z</time></trkpt><trkpt lat="45.83775386740473" lon="9.356581405319337"><ele>223.0</ele><time>2026-05-03T11:01:52.001Z</time></trkpt><trkpt lat="45.837979926033945" lon="9.356813413877482"><ele>223.0</ele><time>2026-05-03T11:01:53.001Z</time></trkpt><trkpt lat="45.83821028447454" lon="9.357049604035572"><ele>223.0</ele><time>2026-05-03T11:01:54.001Z</time></trkpt><trkpt lat="45.838443143522866" lon="9.357291450905478"><ele>223.0</ele><time>2026-05-03T11:01:55.001Z</time></trkpt><trkpt lat="45.83867733958196" lon="9.35754281271264"><ele>223.0</ele><time>2026-05-03T11:01:56.001Z</time></trkpt><trkpt lat="45.83892074395147" lon="9.35778309740484"><ele>223.0</ele><time>2026-05-03T11:01:57.001Z</time></trkpt><trkpt lat="45.839180226064904" lon="9.357989155510486"><ele>223.0</ele><time>2026-05-03T11:01:58.001Z</time></trkpt><trkpt lat="45.83944712855734" lon="9.358170700228376"><ele>223.0</ele><time>2026-05-03T11:01:59.001Z</time></trkpt><trkpt lat="45.83970889241937" lon="9.35835188057277"><ele>223.0</ele><time>2026-05-03T11:02:00.001Z</time></trkpt><trkpt lat="45.83993467721232" lon="9.358524835095833"><ele>223.0</ele><time>2026-05-03T11:02:01.001Z</time></trkpt><trkpt lat="45.84014834570398" lon="9.358684624341597"><ele>223.0</ele><time>2026-05-03T11:02:02.001Z</time></trkpt><trkpt lat="45.84035108256195" lon="9.358869224449545"><ele>223.0</ele><time>2026-05-03T11:02:03.001Z</time></trkpt><trkpt lat="45.84054528786605" lon="9.359117154570455"><ele>223.0</ele><time>2026-05-03T11:02:04.001Z</time></trkpt><trkpt lat="45.84071780455929" lon="9.359402366010436"><ele>222.5</ele><time>2026-05-03T11:02:05.001Z</time></trkpt><trkpt lat="45.84088283422867" lon="9.359710510337052"><ele>222.0</ele><time>2026-05-03T11:02:06.001Z</time></trkpt><trkpt lat="45.84105028809515" lon="9.360019627565999"><ele>222.0</ele><time>2026-05-03T11:02:07.002Z</time></trkpt><trkpt lat="45.841227952524925" lon="9.360328269628399"><ele>222.0</ele><time>2026-05-03T11:02:08.002Z</time></trkpt><trkpt lat="45.84141503330535" lon="9.36064167886913"><ele>222.5</ele><time>2026-05-03T11:02:09.002Z</time></trkpt><trkpt lat="45.841611731885735" lon="9.360945195035587"><ele>223.0</ele><time>2026-05-03T11:02:10.002Z</time></trkpt><trkpt lat="45.84182274790515" lon="9.361225336642603"><ele>222.0</ele><time>2026-05-03T11:02:11.002Z</time></trkpt><trkpt lat="45.84205104693556" lon="9.36149373102428"><ele>221.0</ele><time>2026-05-03T11:02:12.002Z</time></trkpt><trkpt lat="45.842283102729695" lon="9.36177009899078"><ele>221.0</ele><time>2026-05-03T11:02:13.002Z</time></trkpt><trkpt lat="45.84249201869695" lon="9.362045125808217"><ele>221.0</ele><time>2026-05-03T11:02:14.002Z</time></trkpt><trkpt lat="45.84270385375321" lon="9.362313041747447"><ele>220.5</ele><time>2026-05-03T11:02:15.002Z</time></trkpt><trkpt lat="45.84290182086477" lon="9.362590601366364"><ele>220.0</ele><time>2026-05-03T11:02:16.002Z</time></trkpt><trkpt lat="45.84309204467086" lon="9.362877154998726"><ele>220.0</ele><time>2026-05-03T11:02:17.002Z</time></trkpt><trkpt lat="45.843254502631254" lon="9.363176674424741"><ele>220.0</ele><time>2026-05-03T11:02:18.002Z</time></trkpt><trkpt lat="45.8434067788446" lon="9.36349888949554"><ele>219.5</ele><time>2026-05-03T11:02:19.002Z</time></trkpt><trkpt lat="45.84354396172919" lon="9.36384097504942"><ele>219.0</ele><time>2026-05-03T11:02:20.002Z</time></trkpt><trkpt lat="45.84367610297187" lon="9.364197112937074"><ele>219.0</ele><time>2026-05-03T11:02:21.002Z</time></trkpt><trkpt lat="45.84379849377456" lon="9.364553787475787"><ele>219.0</ele><time>2026-05-03T11:02:22.002Z</time></trkpt><trkpt lat="45.84391296457954" lon="9.36488139103663"><ele>218.5</ele><time>2026-05-03T11:02:23.002Z</time></trkpt><trkpt lat="45.844030728683904" lon="9.365186332726845"><ele>218.0</ele><time>2026-05-03T11:02:24.002Z</time></trkpt><trkpt lat="45.84417865863751" lon="9.365482383210606"><ele>220.5</ele><time>2026-05-03T11:02:25.002Z</time></trkpt><trkpt lat="45.84435820842742" lon="9.365762810045327"><ele>223.0</ele><time>2026-05-03T11:02:26.002Z</time></trkpt><trkpt lat="45.84457074875825" lon="9.366003895571978"><ele>223.0</ele><time>2026-05-03T11:02:27.002Z</time></trkpt><trkpt lat="45.84480279745736" lon="9.366209934366161"><ele>223.0</ele><time>2026-05-03T11:02:28.002Z</time></trkpt><trkpt lat="45.845048784944325" lon="9.366386811268175"><ele>224.0</ele><time>2026-05-03T11:02:29.002Z</time></trkpt><trkpt lat="45.84529158307816" lon="9.366578506408938"><ele>225.0</ele><time>2026-05-03T11:02:29.999Z</time></trkpt><trkpt lat="45.845531168355336" lon="9.366804345066711"><ele>225.0</ele><time>2026-05-03T11:02:30.999Z</time></trkpt><trkpt lat="45.8457578420112" lon="9.367044149459685"><ele>225.0</ele><time>2026-05-03T11:02:31.999Z</time></trkpt><trkpt lat="45.845978644591696" lon="9.367280617222377"><ele>225.5</ele><time>2026-05-03T11:02:32.999Z</time></trkpt><trkpt lat="45.84619585766291" lon="9.367512884804999"><ele>226.0</ele><time>2026-05-03T11:02:33.999Z</time></trkpt><trkpt lat="45.84640524447121" lon="9.367739732942475"><ele>226.0</ele><time>2026-05-03T11:02:34.999Z</time></trkpt><trkpt lat="45.84660647653244" lon="9.3679644457617"><ele>226.0</ele><time>2026-05-03T11:02:35.999Z</time></trkpt><trkpt lat="45.84678593637798" lon="9.36818179261515"><ele>227.0</ele><time>2026-05-03T11:02:36.999Z</time></trkpt><trkpt lat="45.84694363599878" lon="9.368397400776235"><ele>228.0</ele><time>2026-05-03T11:02:37.999Z</time></trkpt><trkpt lat="45.84706467276782" lon="9.368621767521342"><ele>229.0</ele><time>2026-05-03T11:02:38.999Z</time></trkpt><trkpt lat="45.84716819997188" lon="9.368845651006161"><ele>229.33333333333331</ele><time>2026-05-03T11:02:39.999Z</time></trkpt><trkpt lat="45.8472571030707" lon="9.369069629485637"><ele>229.66666666666669</ele><time>2026-05-03T11:02:40.999Z</time></trkpt><trkpt lat="45.847345597116856" lon="9.369300730995851"><ele>230.0</ele><time>2026-05-03T11:02:41.999Z</time></trkpt><trkpt lat="45.84743142713316" lon="9.36950185271182"><ele>230.0</ele><time>2026-05-03T11:02:42.999Z</time></trkpt><trkpt lat="45.84749960455561" lon="9.369671114875896"><ele>230.0</ele><time>2026-05-03T11:02:43.999Z</time></trkpt><trkpt lat="45.84755685394889" lon="9.369808802896742"><ele>230.0</ele><time>2026-05-03T11:02:44.999Z</time></trkpt><trkpt lat="45.84760139022991" lon="9.369913538009884"><ele>230.0</ele><time>2026-05-03T11:02:45.999Z</time></trkpt><trkpt lat="45.84763542947392" lon="9.36999106239258"><ele>230.0</ele><time>2026-05-03T11:02:46.999Z</time></trkpt><trkpt lat="45.84769270992973" lon="9.37014262584437"><ele>229.83333333333334</ele><time>2026-05-03T11:02:48.999Z</time></trkpt><trkpt lat="45.84771919724271" lon="9.37023644599903"><ele>229.66666666666669</ele><time>2026-05-03T11:02:49.999Z</time></trkpt><trkpt lat="45.847752800972906" lon="9.370350734785497"><ele>229.5</ele><time>2026-05-03T11:02:50.999Z</time></trkpt><trkpt lat="45.8477870250501" lon="9.370468271318142"><ele>229.33333333333331</ele><time>2026-05-03T11:02:51.999Z</time></trkpt><trkpt lat="45.84782016610887" lon="9.370596680809976"><ele>229.16666666666666</ele><time>2026-05-03T11:02:53Z</time></trkpt><trkpt lat="45.84784808408401" lon="9.370739463668954"><ele>229.0</ele><time>2026-05-03T11:02:54Z</time></trkpt><trkpt lat="45.84787861920107" lon="9.370876065623237"><ele>229.0</ele><time>2026-05-03T11:02:55Z</time></trkpt><trkpt lat="45.84791743939793" lon="9.371012736038852"><ele>229.0</ele><time>2026-05-03T11:02:56Z</time></trkpt><trkpt lat="45.84796255931926" lon="9.37115877792344"><ele>229.0</ele><time>2026-05-03T11:02:57Z</time></trkpt><trkpt lat="45.84801111883244" lon="9.371324853423491"><ele>229.0</ele><time>2026-05-03T11:02:58Z</time></trkpt><trkpt lat="45.84806218144531" lon="9.371508188671259"><ele>229.5</ele><time>2026-05-03T11:02:59Z</time></trkpt><trkpt lat="45.848113140406255" lon="9.37169201533073"><ele>230.0</ele><time>2026-05-03T11:03:00Z</time></trkpt><trkpt lat="45.84816811618588" lon="9.371876517781358"><ele>230.5</ele><time>2026-05-03T11:03:01Z</time></trkpt><trkpt lat="45.848219100349695" lon="9.372069072941471"><ele>231.0</ele><time>2026-05-03T11:03:02Z</time></trkpt><trkpt lat="45.84827117123306" lon="9.372261958642568"><ele>231.0</ele><time>2026-05-03T11:03:03Z</time></trkpt><trkpt lat="45.84832685500196" lon="9.37246683226947"><ele>231.0</ele><time>2026-05-03T11:03:04Z</time></trkpt><trkpt lat="45.848382717141554" lon="9.372676897859519"><ele>231.0</ele><time>2026-05-03T11:03:05Z</time></trkpt><trkpt lat="45.848440593032635" lon="9.372891985734677"><ele>232.0</ele><time>2026-05-03T11:03:06Z</time></trkpt><trkpt lat="45.848501535838494" lon="9.373122051008016"><ele>233.0</ele><time>2026-05-03T11:03:07Z</time></trkpt><trkpt lat="45.84856907553833" lon="9.373349714222437"><ele>234.0</ele><time>2026-05-03T11:03:08Z</time></trkpt><trkpt lat="45.84865681936412" lon="9.373582060282065"><ele>234.0</ele><time>2026-05-03T11:03:09Z</time></trkpt><trkpt lat="45.848746701021334" lon="9.37385386296735"><ele>234.0</ele><time>2026-05-03T11:03:10Z</time></trkpt><trkpt lat="45.84882342360447" lon="9.37415311581542"><ele>234.0</ele><time>2026-05-03T11:03:11Z</time></trkpt><trkpt lat="45.84889995979152" lon="9.374436761567072"><ele>234.33333333333331</ele><time>2026-05-03T11:03:12Z</time></trkpt><trkpt lat="45.84897612154392" lon="9.374728036422749"><ele>234.66666666666666</ele><time>2026-05-03T11:03:13Z</time></trkpt><trkpt lat="45.84905258208707" lon="9.375014767227448"><ele>235.0</ele><time>2026-05-03T11:03:14Z</time></trkpt><trkpt lat="45.849121787699296" lon="9.375288239250356"><ele>234.33333333333331</ele><time>2026-05-03T11:03:15Z</time></trkpt><trkpt lat="45.84918807875385" lon="9.375534425553143"><ele>233.66666666666669</ele><time>2026-05-03T11:03:16Z</time></trkpt><trkpt lat="45.84924524101381" lon="9.375772619825744"><ele>233.0</ele><time>2026-05-03T11:03:17Z</time></trkpt><trkpt lat="45.84929445664248" lon="9.376009042771523"><ele>233.0</ele><time>2026-05-03T11:03:18Z</time></trkpt><trkpt lat="45.84934131357921" lon="9.376257511435794"><ele>233.0</ele><time>2026-05-03T11:03:19Z</time></trkpt><trkpt lat="45.84938077152612" lon="9.376506686193744"><ele>233.0</ele><time>2026-05-03T11:03:20Z</time></trkpt><trkpt lat="45.849412936356245" lon="9.376752350277775"><ele>233.0</ele><time>2026-05-03T11:03:21Z</time></trkpt><trkpt lat="45.84944390526096" lon="9.377002422713188"><ele>233.0</ele><time>2026-05-03T11:03:22Z</time></trkpt><trkpt lat="45.84947113127963" lon="9.37725287404353"><ele>233.0</ele><time>2026-05-03T11:03:23Z</time></trkpt><trkpt lat="45.84949190596377" lon="9.377495751572386"><ele>232.66666666666669</ele><time>2026-05-03T11:03:24Z</time></trkpt><trkpt lat="45.84951274653938" lon="9.377731930476603"><ele>232.33333333333331</ele><time>2026-05-03T11:03:25Z</time></trkpt><trkpt lat="45.849532870787115" lon="9.377962911492608"><ele>232.0</ele><time>2026-05-03T11:03:26Z</time></trkpt><trkpt lat="45.84955514264541" lon="9.378196835343449"><ele>232.0</ele><time>2026-05-03T11:03:27Z</time></trkpt><trkpt lat="45.84957717683218" lon="9.378421708859397"><ele>232.0</ele><time>2026-05-03T11:03:28Z</time></trkpt><trkpt lat="45.84959488422419" lon="9.378659325351949"><ele>232.0</ele><time>2026-05-03T11:03:29Z</time></trkpt><trkpt lat="45.84959771577203" lon="9.378890404776767"><ele>231.0</ele><time>2026-05-03T11:03:30Z</time></trkpt><trkpt lat="45.84958119994403" lon="9.379138809604985"><ele>230.0</ele><time>2026-05-03T11:03:31Z</time></trkpt><trkpt lat="45.84953295108114" lon="9.379389203418091"><ele>229.0</ele><time>2026-05-03T11:03:32Z</time></trkpt><trkpt lat="45.84946647205471" lon="9.379639839579449"><ele>229.66666666666666</ele><time>2026-05-03T11:03:33Z</time></trkpt><trkpt lat="45.8493809196315" lon="9.379898766528768"><ele>230.33333333333331</ele><time>2026-05-03T11:03:34Z</time></trkpt><trkpt lat="45.84928778898491" lon="9.38017046022891"><ele>231.0</ele><time>2026-05-03T11:03:35.001Z</time></trkpt><trkpt lat="45.84919387569687" lon="9.380444735167785"><ele>231.0</ele><time>2026-05-03T11:03:36.001Z</time></trkpt><trkpt lat="45.84911144884155" lon="9.380729647344303"><ele>231.0</ele><time>2026-05-03T11:03:37.001Z</time></trkpt><trkpt lat="45.84903344670725" lon="9.381041662143623"><ele>231.0</ele><time>2026-05-03T11:03:38.001Z</time></trkpt><trkpt lat="45.84896230965693" lon="9.381351966171563"><ele>228.33333333333331</ele><time>2026-05-03T11:03:39.001Z</time></trkpt><trkpt lat="45.848886606281866" lon="9.381639197683686"><ele>225.66666666666666</ele><time>2026-05-03T11:03:40.001Z</time></trkpt><trkpt lat="45.848820814373745" lon="9.381905887446031"><ele>223.0</ele><time>2026-05-03T11:03:41.001Z</time></trkpt><trkpt lat="45.84875671278672" lon="9.382169759958748"><ele>220.33333333333331</ele><time>2026-05-03T11:03:42.001Z</time></trkpt><trkpt lat="45.84869007274893" lon="9.382453553520554"><ele>217.66666666666669</ele><time>2026-05-03T11:03:43.001Z</time></trkpt><trkpt lat="45.84863204966854" lon="9.382726135584205"><ele>215.0</ele><time>2026-05-03T11:03:44.001Z</time></trkpt><trkpt lat="45.84859518092889" lon="9.382994896079115"><ele>211.66666666666669</ele><time>2026-05-03T11:03:45.001Z</time></trkpt><trkpt lat="45.84856376504981" lon="9.383255899356511"><ele>208.33333333333331</ele><time>2026-05-03T11:03:46.001Z</time></trkpt><trkpt lat="45.84852750338671" lon="9.383495868561727"><ele>205.0</ele><time>2026-05-03T11:03:47.001Z</time></trkpt><trkpt lat="45.84849624813397" lon="9.383737421562005"><ele>202.66666666666666</ele><time>2026-05-03T11:03:48.001Z</time></trkpt><trkpt lat="45.84847027282554" lon="9.383976184319833"><ele>200.33333333333331</ele><time>2026-05-03T11:03:49.001Z</time></trkpt><trkpt lat="45.848445494893255" lon="9.384231484746934"><ele>198.0</ele><time>2026-05-03T11:03:50.001Z</time></trkpt><trkpt lat="45.848418810667816" lon="9.38448699015644"><ele>201.33333333333331</ele><time>2026-05-03T11:03:51.001Z</time></trkpt><trkpt lat="45.848390434966085" lon="9.384726125438835"><ele>204.66666666666666</ele><time>2026-05-03T11:03:52.001Z</time></trkpt><trkpt lat="45.84836168301609" lon="9.384952238411229"><ele>208.0</ele><time>2026-05-03T11:03:53.001Z</time></trkpt><trkpt lat="45.84832953379548" lon="9.385184116797365"><ele>208.0</ele><time>2026-05-03T11:03:54.001Z</time></trkpt><trkpt lat="45.848296402422726" lon="9.385397321504183"><ele>208.0</ele><time>2026-05-03T11:03:55.001Z</time></trkpt><trkpt lat="45.84825657623789" lon="9.38562108488704"><ele>208.0</ele><time>2026-05-03T11:03:56.001Z</time></trkpt><trkpt lat="45.84822610476628" lon="9.38584163944749"><ele>207.25</ele><time>2026-05-03T11:03:57.001Z</time></trkpt><trkpt lat="45.84818738769747" lon="9.38606510494328"><ele>206.5</ele><time>2026-05-03T11:03:58.001Z</time></trkpt><trkpt lat="45.84813996587497" lon="9.386261093630292"><ele>205.75</ele><time>2026-05-03T11:03:59.001Z</time></trkpt><trkpt lat="45.84808289317588" lon="9.386434109172212"><ele>205.0</ele><time>2026-05-03T11:04:00.001Z</time></trkpt><trkpt lat="45.84802989316986" lon="9.386577688510775"><ele>204.66666666666666</ele><time>2026-05-03T11:04:01.001Z</time></trkpt><trkpt lat="45.84798996280706" lon="9.386694206181446"><ele>204.33333333333331</ele><time>2026-05-03T11:04:02.001Z</time></trkpt><trkpt lat="45.8479582624301" lon="9.38679263012893"><ele>204.0</ele><time>2026-05-03T11:04:03.001Z</time></trkpt><trkpt lat="45.847930006947884" lon="9.38688807322656"><ele>203.66666666666669</ele><time>2026-05-03T11:04:04.001Z</time></trkpt><trkpt lat="45.8478974777783" lon="9.386988436329027"><ele>203.33333333333334</ele><time>2026-05-03T11:04:05.001Z</time></trkpt><trkpt lat="45.84786400160879" lon="9.387089222647097"><ele>203.0</ele><time>2026-05-03T11:04:06.001Z</time></trkpt><trkpt lat="45.84784293703988" lon="9.387179561626422"><ele>202.50000000000003</ele><time>2026-05-03T11:04:07.001Z</time></trkpt><trkpt lat="45.84783686722919" lon="9.387270918437785"><ele>202.0</ele><time>2026-05-03T11:04:08.001Z</time></trkpt><trkpt lat="45.8478772629094" lon="9.387420246094884"><ele>201.5</ele><time>2026-05-03T11:04:10.001Z</time></trkpt><trkpt lat="45.84792006411925" lon="9.38749323426778"><ele>201.0</ele><time>2026-05-03T11:04:11.001Z</time></trkpt><trkpt lat="45.84801996829341" lon="9.387489902989207"><ele>200.50000000000003</ele><time>2026-05-03T11:04:12.001Z</time></trkpt><trkpt lat="45.848092804223114" lon="9.387464203488607"><ele>200.0</ele><time>2026-05-03T11:04:13.001Z</time></trkpt><trkpt lat="45.848168332654886" lon="9.387421822504932"><ele>200.00000000000003</ele><time>2026-05-03T11:04:14.001Z</time></trkpt><trkpt lat="45.848235920124395" lon="9.387384651654447"><ele>200.0</ele><time>2026-05-03T11:04:15.001Z</time></trkpt><trkpt lat="45.848320128733256" lon="9.38738626694955"><ele>200.0</ele><time>2026-05-03T11:04:16.001Z</time></trkpt><trkpt lat="45.84838789963337" lon="9.387409928531929"><ele>200.0</ele><time>2026-05-03T11:04:17.001Z</time></trkpt><trkpt lat="45.84845625946077" lon="9.38744313647539"><ele>200.00000000000003</ele><time>2026-05-03T11:04:18.001Z</time></trkpt><trkpt lat="45.84852210839827" lon="9.387474687188561"><ele>200.0</ele><time>2026-05-03T11:04:19.001Z</time></trkpt><trkpt lat="45.848631512251984" lon="9.38751949917376"><ele>199.66666666666669</ele><time>2026-05-03T11:04:21.002Z</time></trkpt><trkpt lat="45.848750354056435" lon="9.387562668026737"><ele>199.33333333333334</ele><time>2026-05-03T11:04:23.002Z</time></trkpt><trkpt lat="45.84881910236005" lon="9.387590629634685"><ele>199.0</ele><time>2026-05-03T11:04:24.002Z</time></trkpt><trkpt lat="45.848888920719915" lon="9.38761694406917"><ele>198.66666666666669</ele><time>2026-05-03T11:04:25.002Z</time></trkpt><trkpt lat="45.84896676313523" lon="9.387644889915839"><ele>198.33333333333334</ele><time>2026-05-03T11:04:26.002Z</time></trkpt><trkpt lat="45.849039683082104" lon="9.387670507717798"><ele>198.0</ele><time>2026-05-03T11:04:27.002Z</time></trkpt><trkpt lat="45.84911873515478" lon="9.387699726873276"><ele>198.0</ele><time>2026-05-03T11:04:28.002Z</time></trkpt><trkpt lat="45.8491974386406" lon="9.387730350167713"><ele>198.0</ele><time>2026-05-03T11:04:29.002Z</time></trkpt><trkpt lat="45.84926303068917" lon="9.387755121448176"><ele>198.0</ele><time>2026-05-03T11:04:30.002Z</time></trkpt><trkpt lat="45.84932416690554" lon="9.387778414544627"><ele>198.0</ele><time>2026-05-03T11:04:31.002Z</time></trkpt><trkpt lat="45.84938537094273" lon="9.387800500528073"><ele>198.0</ele><time>2026-05-03T11:04:32.002Z</time></trkpt><trkpt lat="45.84945355550742" lon="9.387823368235738"><ele>198.0</ele><time>2026-05-03T11:04:33.002Z</time></trkpt><trkpt lat="45.849523326508546" lon="9.387847400770587"><ele>198.0</ele><time>2026-05-03T11:04:34.002Z</time></trkpt><trkpt lat="45.84958762807011" lon="9.387882152101445"><ele>198.16666666666666</ele><time>2026-05-03T11:04:35.002Z</time></trkpt><trkpt lat="45.849644347056746" lon="9.387934752188734"><ele>198.33333333333331</ele><time>2026-05-03T11:04:35.999Z</time></trkpt><trkpt lat="45.84974976489012" lon="9.388029159443885"><ele>198.5</ele><time>2026-05-03T11:04:37.999Z</time></trkpt><trkpt lat="45.84982251910901" lon="9.388048974997286"><ele>198.66666666666666</ele><time>2026-05-03T11:04:38.999Z</time></trkpt><trkpt lat="45.849910192432446" lon="9.38805441318352"><ele>198.83333333333331</ele><time>2026-05-03T11:04:39.999Z</time></trkpt><trkpt lat="45.8499931347465" lon="9.388048990697106"><ele>199.0</ele><time>2026-05-03T11:04:40.999Z</time></trkpt><trkpt lat="45.85008159432598" lon="9.38805264996106"><ele>200.39999999999998</ele><time>2026-05-03T11:04:41.999Z</time></trkpt><trkpt lat="45.85017196465794" lon="9.38807644210651"><ele>201.8</ele><time>2026-05-03T11:04:42.999Z</time></trkpt><trkpt lat="45.850257903939045" lon="9.388119110715333"><ele>203.2</ele><time>2026-05-03T11:04:43.999Z</time></trkpt><trkpt lat="45.85034733460329" lon="9.388160901203133"><ele>204.60000000000002</ele><time>2026-05-03T11:04:44.999Z</time></trkpt><trkpt lat="45.85043845483798" lon="9.388193129512318"><ele>206.0</ele><time>2026-05-03T11:04:45.999Z</time></trkpt><trkpt lat="45.85053627308239" lon="9.388228412245233"><ele>206.0</ele><time>2026-05-03T11:04:46.999Z</time></trkpt><trkpt lat="45.8506341007416" lon="9.388260946035913"><ele>206.0</ele><time>2026-05-03T11:04:47.999Z</time></trkpt><trkpt lat="45.85073769819725" lon="9.388299815085904"><ele>206.0</ele><time>2026-05-03T11:04:48.999Z</time></trkpt><trkpt lat="45.85084124996064" lon="9.388352743575096"><ele>206.0</ele><time>2026-05-03T11:04:49.999Z</time></trkpt><trkpt lat="45.85097644817993" lon="9.388399059844112"><ele>206.0</ele><time>2026-05-03T11:04:50.999Z</time></trkpt><trkpt lat="45.85110610038961" lon="9.388429913804968"><ele>206.0</ele><time>2026-05-03T11:04:51.999Z</time></trkpt><trkpt lat="45.85123672605716" lon="9.388480923282886"><ele>206.0</ele><time>2026-05-03T11:04:52.999Z</time></trkpt><trkpt lat="45.85136508969049" lon="9.388538708573769"><ele>206.0</ele><time>2026-05-03T11:04:53.999Z</time></trkpt><trkpt lat="45.85151718329072" lon="9.388601715220311"><ele>206.0</ele><time>2026-05-03T11:04:54.999Z</time></trkpt><trkpt lat="45.85168586027939" lon="9.388666000577206"><ele>206.0</ele><time>2026-05-03T11:04:55.999Z</time></trkpt><trkpt lat="45.85187460957343" lon="9.388723253713717"><ele>206.0</ele><time>2026-05-03T11:04:56.999Z</time></trkpt><trkpt lat="45.85199074836058" lon="9.38875972670742"><ele>206.25</ele><time>2026-05-03T11:04:57.999Z</time></trkpt><trkpt lat="45.852132027347714" lon="9.388816910931459"><ele>206.5</ele><time>2026-05-03T11:04:58.999Z</time></trkpt><trkpt lat="45.85221771973961" lon="9.388854461943176"><ele>206.75</ele><time>2026-05-03T11:04:59.999Z</time></trkpt><trkpt lat="45.85234328910947" lon="9.38892696351799"><ele>207.0</ele><time>2026-05-03T11:05:01.999Z</time></trkpt><trkpt lat="45.85242588512265" lon="9.388983466512647"><ele>207.0</ele><time>2026-05-03T11:05:02.999Z</time></trkpt><trkpt lat="45.852493937657684" lon="9.38903441743213"><ele>207.0</ele><time>2026-05-03T11:05:03.999Z</time></trkpt><trkpt lat="45.85253570110408" lon="9.388907721043804"><ele>207.0</ele><time>2026-05-03T11:05:07Z</time></trkpt><trkpt lat="45.85252957331989" lon="9.388704819564644"><ele>207.0</ele><time>2026-05-03T11:05:09Z</time></trkpt><trkpt lat="45.85252595351998" lon="9.388565788660639"><ele>207.0</ele><time>2026-05-03T11:05:10Z</time></trkpt><trkpt lat="45.85254226518406" lon="9.388417176063237"><ele>207.0</ele><time>2026-05-03T11:05:11Z</time></trkpt><trkpt lat="45.852579485602924" lon="9.388208440545188"><ele>207.0</ele><time>2026-05-03T11:05:12Z</time></trkpt><trkpt lat="45.85262578136614" lon="9.388083011748826"><ele>207.0</ele><time>2026-05-03T11:05:13Z</time></trkpt><trkpt lat="45.852693699864545" lon="9.387997105167042"><ele>207.0</ele><time>2026-05-03T11:05:14Z</time></trkpt><trkpt lat="45.852806138549546" lon="9.387941352451062"><ele>206.75</ele><time>2026-05-03T11:05:16Z</time></trkpt><trkpt lat="45.85294655876162" lon="9.388005215512601"><ele>206.5</ele><time>2026-05-03T11:05:17Z</time></trkpt><trkpt lat="45.85306159381741" lon="9.388070839202904"><ele>206.25</ele><time>2026-05-03T11:05:18Z</time></trkpt><trkpt lat="45.853169291881805" lon="9.388148261905549"><ele>206.0</ele><time>2026-05-03T11:05:19Z</time></trkpt><trkpt lat="45.853279407220896" lon="9.388220294404926"><ele>206.0</ele><time>2026-05-03T11:05:20Z</time></trkpt><trkpt lat="45.85341802952554" lon="9.388350589585992"><ele>206.0</ele><time>2026-05-03T11:05:21Z</time></trkpt><trkpt lat="45.85354407867904" lon="9.38844626564322"><ele>206.0</ele><time>2026-05-03T11:05:22Z</time></trkpt><trkpt lat="45.853690361506196" lon="9.388558953403658"><ele>206.75</ele><time>2026-05-03T11:05:23Z</time></trkpt><trkpt lat="45.85382276597418" lon="9.38866519977164"><ele>207.5</ele><time>2026-05-03T11:05:24Z</time></trkpt><trkpt lat="45.85396830866466" lon="9.388779435814383"><ele>208.25</ele><time>2026-05-03T11:05:25Z</time></trkpt><trkpt lat="45.85407355731437" lon="9.3888548406706"><ele>209.0</ele><time>2026-05-03T11:05:26Z</time></trkpt><trkpt lat="45.854153704037834" lon="9.388922706803427"><ele>209.0</ele><time>2026-05-03T11:05:27Z</time></trkpt><trkpt lat="45.85422563511298" lon="9.388958702271234"><ele>209.0</ele><time>2026-05-03T11:05:28Z</time></trkpt><trkpt lat="45.85430887927851" lon="9.389005025286519"><ele>209.0</ele><time>2026-05-03T11:05:30Z</time></trkpt><trkpt lat="45.85441521808282" lon="9.389085534423995"><ele>209.0</ele><time>2026-05-03T11:05:32Z</time></trkpt><trkpt lat="45.854476730111074" lon="9.389107684471496"><ele>209.0</ele><time>2026-05-03T11:05:33Z</time></trkpt><trkpt lat="45.85460009322618" lon="9.389173126895704"><ele>208.33333333333334</ele><time>2026-05-03T11:05:35Z</time></trkpt><trkpt lat="45.85467735872441" lon="9.389203609678262"><ele>207.66666666666669</ele><time>2026-05-03T11:05:36Z</time></trkpt><trkpt lat="45.85479233528985" lon="9.389228370166572"><ele>207.0</ele><time>2026-05-03T11:05:38Z</time></trkpt><trkpt lat="45.85491056458298" lon="9.389236820683577"><ele>206.33333333333331</ele><time>2026-05-03T11:05:40Z</time></trkpt><trkpt lat="45.85497509755512" lon="9.389223809272453"><ele>205.66666666666666</ele><time>2026-05-03T11:05:41Z</time></trkpt><trkpt lat="45.855038898139036" lon="9.389225898985261"><ele>205.0</ele><time>2026-05-03T11:05:42Z</time></trkpt><trkpt lat="45.85512468419813" lon="9.389198174731417"><ele>205.0</ele><time>2026-05-03T11:05:43Z</time></trkpt><trkpt lat="45.8552211981784" lon="9.389154340677734"><ele>205.0</ele><time>2026-05-03T11:05:44Z</time></trkpt><trkpt lat="45.855322199664485" lon="9.389089606489298"><ele>205.0</ele><time>2026-05-03T11:05:45Z</time></trkpt><trkpt lat="45.855405767782244" lon="9.38901547379591"><ele>205.0</ele><time>2026-05-03T11:05:46.001Z</time></trkpt><trkpt lat="45.85548431238637" lon="9.388953105059057"><ele>205.0</ele><time>2026-05-03T11:05:47.001Z</time></trkpt><trkpt lat="45.855568551666195" lon="9.388847244444595"><ele>204.0</ele><time>2026-05-03T11:05:48.001Z</time></trkpt><trkpt lat="45.855636545539376" lon="9.388728536070895"><ele>203.0</ele><time>2026-05-03T11:05:49.001Z</time></trkpt><trkpt lat="45.85570133481118" lon="9.388614382967175"><ele>202.0</ele><time>2026-05-03T11:05:50.001Z</time></trkpt><trkpt lat="45.8557548685952" lon="9.388499873470398"><ele>201.0</ele><time>2026-05-03T11:05:51.001Z</time></trkpt><trkpt lat="45.85578914955391" lon="9.388395809406633"><ele>200.0</ele><time>2026-05-03T11:05:52.001Z</time></trkpt><trkpt lat="45.855841790476084" lon="9.38823024321465"><ele>200.0</ele><time>2026-05-03T11:05:54.001Z</time></trkpt><trkpt lat="45.85589444103276" lon="9.38808141498818"><ele>200.0</ele><time>2026-05-03T11:05:55.001Z</time></trkpt><trkpt lat="45.855925866419895" lon="9.38789989636812"><ele>200.0</ele><time>2026-05-03T11:05:56.001Z</time></trkpt><trkpt lat="45.855938214631315" lon="9.387692266451406"><ele>200.0</ele><time>2026-05-03T11:05:57.001Z</time></trkpt><trkpt lat="45.85594057050357" lon="9.387513493677686"><ele>200.16666666666669</ele><time>2026-05-03T11:05:58.001Z</time></trkpt><trkpt lat="45.85594733745805" lon="9.3873751389201"><ele>200.33333333333334</ele><time>2026-05-03T11:05:59.001Z</time></trkpt><trkpt lat="45.85596511705276" lon="9.387261672516697"><ele>200.5</ele><time>2026-05-03T11:06:00.001Z</time></trkpt><trkpt lat="45.85597394175615" lon="9.387147951208334"><ele>200.66666666666669</ele><time>2026-05-03T11:06:01.001Z</time></trkpt><trkpt lat="45.85599395050377" lon="9.387031978944256"><ele>200.83333333333334</ele><time>2026-05-03T11:06:02.001Z</time></trkpt><trkpt lat="45.85601841305587" lon="9.386915886371348"><ele>201.0</ele><time>2026-05-03T11:06:03.001Z</time></trkpt><trkpt lat="45.85605391046983" lon="9.38680936148126"><ele>201.8</ele><time>2026-05-03T11:06:04.001Z</time></trkpt><trkpt lat="45.85609528684396" lon="9.386692414882742"><ele>202.60000000000002</ele><time>2026-05-03T11:06:05.001Z</time></trkpt><trkpt lat="45.85614531498136" lon="9.386553409924074"><ele>203.4</ele><time>2026-05-03T11:06:06.001Z</time></trkpt><trkpt lat="45.85620278517006" lon="9.386394178538554"><ele>204.2</ele><time>2026-05-03T11:06:07.001Z</time></trkpt><trkpt lat="45.85626159727795" lon="9.386239779877775"><ele>205.0</ele><time>2026-05-03T11:06:08.001Z</time></trkpt><trkpt lat="45.856326547727" lon="9.386077947239006"><ele>205.0</ele><time>2026-05-03T11:06:09.001Z</time></trkpt><trkpt lat="45.856391643464235" lon="9.38590972080146"><ele>205.0</ele><time>2026-05-03T11:06:10.001Z</time></trkpt><trkpt lat="45.85645899288861" lon="9.385736265151191"><ele>205.0</ele><time>2026-05-03T11:06:11.001Z</time></trkpt><trkpt lat="45.85652254488907" lon="9.385557900943436"><ele>205.0</ele><time>2026-05-03T11:06:12.001Z</time></trkpt><trkpt lat="45.8565819045265" lon="9.38539280427236"><ele>203.75</ele><time>2026-05-03T11:06:13.001Z</time></trkpt><trkpt lat="45.85664295796302" lon="9.38524167759409"><ele>202.5</ele><time>2026-05-03T11:06:14.001Z</time></trkpt><trkpt lat="45.85669940032052" lon="9.38509246788235"><ele>201.25</ele><time>2026-05-03T11:06:15.001Z</time></trkpt><trkpt lat="45.85677426168234" lon="9.384930822064737"><ele>200.0</ele><time>2026-05-03T11:06:16.001Z</time></trkpt><trkpt lat="45.856847060532594" lon="9.384797732044216"><ele>200.0</ele><time>2026-05-03T11:06:17.001Z</time></trkpt><trkpt lat="45.856928481406484" lon="9.384698065778961"><ele>200.0</ele><time>2026-05-03T11:06:18.001Z</time></trkpt><trkpt lat="45.857027845660525" lon="9.384619710436185"><ele>200.0</ele><time>2026-05-03T11:06:19.001Z</time></trkpt><trkpt lat="45.85713499002445" lon="9.384554967542924"><ele>200.0</ele><time>2026-05-03T11:06:20.001Z</time></trkpt><trkpt lat="45.857253696864966" lon="9.384516641856285"><ele>199.5</ele><time>2026-05-03T11:06:21.001Z</time></trkpt><trkpt lat="45.85738430048542" lon="9.384506055413791"><ele>199.0</ele><time>2026-05-03T11:06:22.001Z</time></trkpt><trkpt lat="45.8575163515948" lon="9.384529679483062"><ele>198.5</ele><time>2026-05-03T11:06:23.001Z</time></trkpt><trkpt lat="45.85763707056959" lon="9.384594922033996"><ele>198.0</ele><time>2026-05-03T11:06:24.001Z</time></trkpt><trkpt lat="45.85774958478945" lon="9.384685308456651"><ele>199.0</ele><time>2026-05-03T11:06:25.001Z</time></trkpt><trkpt lat="45.857850869299675" lon="9.384793046378341"><ele>200.0</ele><time>2026-05-03T11:06:26.001Z</time></trkpt><trkpt lat="45.85794244468863" lon="9.384923276203205"><ele>201.0</ele><time>2026-05-03T11:06:27.001Z</time></trkpt><trkpt lat="45.85803340948041" lon="9.385059062384451"><ele>202.0</ele><time>2026-05-03T11:06:28.001Z</time></trkpt><trkpt lat="45.858141869332655" lon="9.385188948699328"><ele>202.0</ele><time>2026-05-03T11:06:29.001Z</time></trkpt><trkpt lat="45.85824262219396" lon="9.385293653103567"><ele>202.0</ele><time>2026-05-03T11:06:30.002Z</time></trkpt><trkpt lat="45.85832794433996" lon="9.385381469280007"><ele>202.0</ele><time>2026-05-03T11:06:31.002Z</time></trkpt><trkpt lat="45.85843316912005" lon="9.385430609497385"><ele>202.0</ele><time>2026-05-03T11:06:32.002Z</time></trkpt><trkpt lat="45.85854282714898" lon="9.385455168341773"><ele>203.5</ele><time>2026-05-03T11:06:33.002Z</time></trkpt><trkpt lat="45.858653645867804" lon="9.385449617927986"><ele>205.0</ele><time>2026-05-03T11:06:34.002Z</time></trkpt><trkpt lat="45.858763068650035" lon="9.38541225279246"><ele>206.5</ele><time>2026-05-03T11:06:35.002Z</time></trkpt><trkpt lat="45.8588724041883" lon="9.385331439397742"><ele>208.0</ele><time>2026-05-03T11:06:36.002Z</time></trkpt><trkpt lat="45.85898917421662" lon="9.385221040314859"><ele>208.0</ele><time>2026-05-03T11:06:37.002Z</time></trkpt><trkpt lat="45.859114037645874" lon="9.38508767319031"><ele>208.0</ele><time>2026-05-03T11:06:38.002Z</time></trkpt><trkpt lat="45.85924111615267" lon="9.38496433133411"><ele>208.0</ele><time>2026-05-03T11:06:39.002Z</time></trkpt><trkpt lat="45.859361176205475" lon="9.384832887210196"><ele>207.25</ele><time>2026-05-03T11:06:40.002Z</time></trkpt><trkpt lat="45.859482400034864" lon="9.384713767386357"><ele>206.5</ele><time>2026-05-03T11:06:41.002Z</time></trkpt><trkpt lat="45.859588725894476" lon="9.384593290280165"><ele>205.75</ele><time>2026-05-03T11:06:41.999Z</time></trkpt><trkpt lat="45.85968304959877" lon="9.384479015500279"><ele>205.0</ele><time>2026-05-03T11:06:42.999Z</time></trkpt><trkpt lat="45.85976176585436" lon="9.384372060527722"><ele>205.0</ele><time>2026-05-03T11:06:43.999Z</time></trkpt><trkpt lat="45.85982373623732" lon="9.384266428265038"><ele>205.0</ele><time>2026-05-03T11:06:44.999Z</time></trkpt><trkpt lat="45.859899307923484" lon="9.384162452841803"><ele>205.0</ele><time>2026-05-03T11:06:45.999Z</time></trkpt><trkpt lat="45.8599634915871" lon="9.384056207336528"><ele>205.0</ele><time>2026-05-03T11:06:46.999Z</time></trkpt><trkpt lat="45.86002528331248" lon="9.383937099650526"><ele>205.0</ele><time>2026-05-03T11:06:47.999Z</time></trkpt><trkpt lat="45.86008631165771" lon="9.383828748522406"><ele>204.49999999999997</ele><time>2026-05-03T11:06:48.999Z</time></trkpt><trkpt lat="45.860152125718855" lon="9.383730429417875"><ele>204.0</ele><time>2026-05-03T11:06:49.999Z</time></trkpt><trkpt lat="45.860209572557125" lon="9.38364585568778"><ele>203.5</ele><time>2026-05-03T11:06:50.999Z</time></trkpt><trkpt lat="45.86028850212911" lon="9.383575977309372"><ele>203.0</ele><time>2026-05-03T11:06:52.999Z</time></trkpt><trkpt lat="45.86036758146556" lon="9.383508595300128"><ele>202.49999999999997</ele><time>2026-05-03T11:06:55.999Z</time></trkpt><trkpt lat="45.86042944783291" lon="9.383480760371443"><ele>202.0</ele><time>2026-05-03T11:06:57.999Z</time></trkpt><trkpt lat="45.86049205726216" lon="9.38345989976896"><ele>201.99999999999997</ele><time>2026-05-03T11:06:59.999Z</time></trkpt><trkpt lat="45.86056867221909" lon="9.383413550094755"><ele>202.0</ele><time>2026-05-03T11:07:01.999Z</time></trkpt><trkpt lat="45.860670595608376" lon="9.38336057707163"><ele>202.0</ele><time>2026-05-03T11:07:03.999Z</time></trkpt><trkpt lat="45.86077525252076" lon="9.38330280598387"><ele>202.0</ele><time>2026-05-03T11:07:05.999Z</time></trkpt><trkpt lat="45.86083689152381" lon="9.38327508658303"><ele>201.99999999999997</ele><time>2026-05-03T11:07:06.999Z</time></trkpt><trkpt lat="45.86089610179939" lon="9.38323934350823"><ele>202.0</ele><time>2026-05-03T11:07:07.999Z</time></trkpt><trkpt lat="45.86095887013074" lon="9.383215925640814"><ele>201.39999999999998</ele><time>2026-05-03T11:07:08.999Z</time></trkpt><trkpt lat="45.86108304257567" lon="9.383147853771549"><ele>200.79999999999998</ele><time>2026-05-03T11:07:10.999Z</time></trkpt><trkpt lat="45.86118353218656" lon="9.383101479509694"><ele>200.2</ele><time>2026-05-03T11:07:13Z</time></trkpt><trkpt lat="45.86128329386941" lon="9.383068205433553"><ele>199.6</ele><time>2026-05-03T11:07:15Z</time></trkpt><trkpt lat="45.861372843639096" lon="9.383033606316193"><ele>199.0</ele><time>2026-05-03T11:07:17Z</time></trkpt><trkpt lat="45.86146074142777" lon="9.383013087334296"><ele>199.0</ele><time>2026-05-03T11:07:19Z</time></trkpt><trkpt lat="45.86154045081281" lon="9.382984357873356"><ele>199.0</ele><time>2026-05-03T11:07:20Z</time></trkpt><trkpt lat="45.861641913472646" lon="9.382953085597281"><ele>199.0</ele><time>2026-05-03T11:07:21Z</time></trkpt><trkpt lat="45.86173768001713" lon="9.38292604789817"><ele>199.0</ele><time>2026-05-03T11:07:22Z</time></trkpt><trkpt lat="45.86185261770614" lon="9.382899018912022"><ele>199.0</ele><time>2026-05-03T11:07:23Z</time></trkpt><trkpt lat="45.86197560025405" lon="9.382852718300498"><ele>199.6</ele><time>2026-05-03T11:07:24Z</time></trkpt><trkpt lat="45.86206178934898" lon="9.382817849574025"><ele>200.2</ele><time>2026-05-03T11:07:25Z</time></trkpt><trkpt lat="45.862141961939734" lon="9.382794984266686"><ele>200.79999999999998</ele><time>2026-05-03T11:07:26Z</time></trkpt><trkpt lat="45.86224465287407" lon="9.382766217537942"><ele>201.39999999999998</ele><time>2026-05-03T11:07:27Z</time></trkpt><trkpt lat="45.862350163041356" lon="9.382726390617522"><ele>202.0</ele><time>2026-05-03T11:07:28Z</time></trkpt><trkpt lat="45.86243889441964" lon="9.382700687071848"><ele>202.0</ele><time>2026-05-03T11:07:29Z</time></trkpt><trkpt lat="45.862537468270936" lon="9.382670767405713"><ele>202.0</ele><time>2026-05-03T11:07:30Z</time></trkpt><trkpt lat="45.862655371645026" lon="9.382634428702634"><ele>202.0</ele><time>2026-05-03T11:07:31Z</time></trkpt><trkpt lat="45.86278305164365" lon="9.382596516811425"><ele>202.0</ele><time>2026-05-03T11:07:32Z</time></trkpt><trkpt lat="45.86290024819377" lon="9.382562571288528"><ele>203.2</ele><time>2026-05-03T11:07:33Z</time></trkpt><trkpt lat="45.862997392441684" lon="9.382531003224793"><ele>204.39999999999998</ele><time>2026-05-03T11:07:34Z</time></trkpt><trkpt lat="45.86309930534314" lon="9.38250209374723"><ele>205.60000000000002</ele><time>2026-05-03T11:07:35Z</time></trkpt><trkpt lat="45.86320530171796" lon="9.382468469414096"><ele>206.8</ele><time>2026-05-03T11:07:36Z</time></trkpt><trkpt lat="45.863312753592126" lon="9.382436232887846"><ele>208.0</ele><time>2026-05-03T11:07:37Z</time></trkpt><trkpt lat="45.863413399020516" lon="9.382412090972576"><ele>207.85714285714286</ele><time>2026-05-03T11:07:38Z</time></trkpt><trkpt lat="45.863486597326485" lon="9.382381129179457"><ele>207.71428571428572</ele><time>2026-05-03T11:07:39Z</time></trkpt><trkpt lat="45.8635565829633" lon="9.38235440760298"><ele>207.57142857142858</ele><time>2026-05-03T11:07:40Z</time></trkpt><trkpt lat="45.86361941082631" lon="9.382336333212287"><ele>207.42857142857144</ele><time>2026-05-03T11:07:41Z</time></trkpt><trkpt lat="45.863682083816194" lon="9.382318104936237"><ele>207.28571428571428</ele><time>2026-05-03T11:07:42Z</time></trkpt><trkpt lat="45.863752022793136" lon="9.382301916069574"><ele>207.14285714285717</ele><time>2026-05-03T11:07:43Z</time></trkpt><trkpt lat="45.863822939840574" lon="9.38228831928499"><ele>207.0</ele><time>2026-05-03T11:07:44Z</time></trkpt><trkpt lat="45.863892740408325" lon="9.382280778460036"><ele>207.0</ele><time>2026-05-03T11:07:45Z</time></trkpt><trkpt lat="45.86396639774867" lon="9.382271168037015"><ele>207.0</ele><time>2026-05-03T11:07:46Z</time></trkpt><trkpt lat="45.864033990492715" lon="9.382272848821843"><ele>207.0</ele><time>2026-05-03T11:07:47Z</time></trkpt><trkpt lat="45.86411301356461" lon="9.38227788156344"><ele>207.0</ele><time>2026-05-03T11:07:48Z</time></trkpt><trkpt lat="45.864198362801716" lon="9.382272463891816"><ele>207.0</ele><time>2026-05-03T11:07:49Z</time></trkpt><trkpt lat="45.864287887617806" lon="9.382272289067341"><ele>207.0</ele><time>2026-05-03T11:07:50.001Z</time></trkpt><trkpt lat="45.864378492073406" lon="9.382270194629353"><ele>207.39999999999998</ele><time>2026-05-03T11:07:51.001Z</time></trkpt><trkpt lat="45.8644723293941" lon="9.382268597431963"><ele>207.79999999999998</ele><time>2026-05-03T11:07:52.001Z</time></trkpt><trkpt lat="45.864568809202716" lon="9.382271824085912"><ele>208.2</ele><time>2026-05-03T11:07:53.001Z</time></trkpt><trkpt lat="45.86466917042332" lon="9.382280466083992"><ele>208.6</ele><time>2026-05-03T11:07:54.001Z</time></trkpt><trkpt lat="45.86478462418984" lon="9.382292033736181"><ele>209.0</ele><time>2026-05-03T11:07:55.001Z</time></trkpt><trkpt lat="45.86492142458507" lon="9.38229895271554"><ele>209.0</ele><time>2026-05-03T11:07:56.001Z</time></trkpt><trkpt lat="45.865070235337555" lon="9.382295051957824"><ele>209.0</ele><time>2026-05-03T11:07:57.001Z</time></trkpt><trkpt lat="45.86522087532611" lon="9.382273848435556"><ele>209.0</ele><time>2026-05-03T11:07:58.001Z</time></trkpt><trkpt lat="45.865367271900304" lon="9.382234845814967"><ele>209.0</ele><time>2026-05-03T11:07:59.001Z</time></trkpt><trkpt lat="45.8655016773952" lon="9.382187194343766"><ele>209.0</ele><time>2026-05-03T11:08:00.001Z</time></trkpt><trkpt lat="45.865616958171145" lon="9.382142801990696"><ele>209.0</ele><time>2026-05-03T11:08:01.001Z</time></trkpt><trkpt lat="45.86572897134201" lon="9.382087495099075"><ele>209.0</ele><time>2026-05-03T11:08:02.001Z</time></trkpt><trkpt lat="45.865840105625225" lon="9.382023426332367"><ele>209.0</ele><time>2026-05-03T11:08:03.001Z</time></trkpt><trkpt lat="45.86594835823974" lon="9.381947506123632"><ele>209.0</ele><time>2026-05-03T11:08:04.001Z</time></trkpt><trkpt lat="45.86605502562281" lon="9.381868079455113"><ele>209.0</ele><time>2026-05-03T11:08:05.001Z</time></trkpt><trkpt lat="45.86616575319355" lon="9.381771334083512"><ele>209.0</ele><time>2026-05-03T11:08:06.001Z</time></trkpt><trkpt lat="45.86626785801417" lon="9.381661143892835"><ele>209.0</ele><time>2026-05-03T11:08:07.001Z</time></trkpt><trkpt lat="45.86636887095906" lon="9.381541405339284"><ele>209.0</ele><time>2026-05-03T11:08:08.001Z</time></trkpt><trkpt lat="45.86646685046359" lon="9.381407314677471"><ele>209.0</ele><time>2026-05-03T11:08:09.001Z</time></trkpt><trkpt lat="45.866562114735316" lon="9.381265959248402"><ele>209.0</ele><time>2026-05-03T11:08:10.001Z</time></trkpt><trkpt lat="45.866657751102544" lon="9.381117993214533"><ele>209.0</ele><time>2026-05-03T11:08:11.001Z</time></trkpt><trkpt lat="45.86675248031995" lon="9.380966958406006"><ele>208.75</ele><time>2026-05-03T11:08:12.001Z</time></trkpt><trkpt lat="45.866845414046374" lon="9.380805996437841"><ele>208.5</ele><time>2026-05-03T11:08:13.001Z</time></trkpt><trkpt lat="45.86692659542841" lon="9.380634665389419"><ele>208.25</ele><time>2026-05-03T11:08:14.001Z</time></trkpt><trkpt lat="45.86700275268234" lon="9.380444642291804"><ele>208.0</ele><time>2026-05-03T11:08:15.001Z</time></trkpt><trkpt lat="45.867073714616495" lon="9.380261013022043"><ele>208.0</ele><time>2026-05-03T11:08:16.001Z</time></trkpt><trkpt lat="45.86714147309175" lon="9.380078837345966"><ele>208.0</ele><time>2026-05-03T11:08:17.001Z</time></trkpt><trkpt lat="45.86720869349703" lon="9.379891675756513"><ele>208.0</ele><time>2026-05-03T11:08:18.001Z</time></trkpt><trkpt lat="45.867273270299975" lon="9.379712517802085"><ele>208.0</ele><time>2026-05-03T11:08:19.001Z</time></trkpt><trkpt lat="45.867342457870755" lon="9.379535550753086"><ele>209.0</ele><time>2026-05-03T11:08:20.001Z</time></trkpt><trkpt lat="45.86741999011177" lon="9.379368406687586"><ele>210.0</ele><time>2026-05-03T11:08:21.001Z</time></trkpt><trkpt lat="45.8675058678605" lon="9.379210593870964"><ele>211.0</ele><time>2026-05-03T11:08:22.001Z</time></trkpt><trkpt lat="45.86760216363607" lon="9.379055939074462"><ele>212.0</ele><time>2026-05-03T11:08:23.001Z</time></trkpt><trkpt lat="45.867710981074595" lon="9.37891512361805"><ele>209.5</ele><time>2026-05-03T11:08:24.001Z</time></trkpt><trkpt lat="45.86782850307821" lon="9.378784302384606"><ele>207.0</ele><time>2026-05-03T11:08:25.001Z</time></trkpt><trkpt lat="45.86795432985563" lon="9.378673270609866"><ele>204.5</ele><time>2026-05-03T11:08:26.001Z</time></trkpt><trkpt lat="45.868083329474736" lon="9.378585889714465"><ele>202.0</ele><time>2026-05-03T11:08:27.001Z</time></trkpt><trkpt lat="45.86822765907693" lon="9.378506370489438"><ele>202.0</ele><time>2026-05-03T11:08:28.001Z</time></trkpt><trkpt lat="45.8683775191132" lon="9.378436370498"><ele>202.0</ele><time>2026-05-03T11:08:29.001Z</time></trkpt><trkpt lat="45.86853479607646" lon="9.378383204877558"><ele>202.0</ele><time>2026-05-03T11:08:30.001Z</time></trkpt><trkpt lat="45.868695881276295" lon="9.378340735072245"><ele>205.0</ele><time>2026-05-03T11:08:31.002Z</time></trkpt><trkpt lat="45.86888478419101" lon="9.378294542520381"><ele>208.0</ele><time>2026-05-03T11:08:32.002Z</time></trkpt><trkpt lat="45.86909158790732" lon="9.378272182432312"><ele>211.0</ele><time>2026-05-03T11:08:33.002Z</time></trkpt><trkpt lat="45.86931121996071" lon="9.378216328706017"><ele>216.0</ele><time>2026-05-03T11:08:34.002Z</time></trkpt><trkpt lat="45.869549029705965" lon="9.37820218858752"><ele>221.0</ele><time>2026-05-03T11:08:35.002Z</time></trkpt><trkpt lat="45.869797849672686" lon="9.378187089441976"><ele>221.0</ele><time>2026-05-03T11:08:36.002Z</time></trkpt><trkpt lat="45.870055997263385" lon="9.378173301189703"><ele>221.0</ele><time>2026-05-03T11:08:37.002Z</time></trkpt><trkpt lat="45.87032147540553" lon="9.378182979843045"><ele>221.5</ele><time>2026-05-03T11:08:38.002Z</time></trkpt><trkpt lat="45.87058756862892" lon="9.378199403073065"><ele>222.0</ele><time>2026-05-03T11:08:39.002Z</time></trkpt><trkpt lat="45.870861297420596" lon="9.378172356688644"><ele>224.5</ele><time>2026-05-03T11:08:40.002Z</time></trkpt><trkpt lat="45.87114008006205" lon="9.378117625014779"><ele>227.0</ele><time>2026-05-03T11:08:41.002Z</time></trkpt><trkpt lat="45.87141443405368" lon="9.3780260953131"><ele>215.0</ele><time>2026-05-03T11:08:42.002Z</time></trkpt><trkpt lat="45.87168821084264" lon="9.377926415706186"><ele>203.0</ele><time>2026-05-03T11:08:43.002Z</time></trkpt><trkpt lat="45.87196644970663" lon="9.377829396172013"><ele>203.0</ele><time>2026-05-03T11:08:44.002Z</time></trkpt><trkpt lat="45.87225135849981" lon="9.377759081615574"><ele>203.0</ele><time>2026-05-03T11:08:45.002Z</time></trkpt><trkpt lat="45.872537091160034" lon="9.377731450039732"><ele>204.5</ele><time>2026-05-03T11:08:46.002Z</time></trkpt><trkpt lat="45.87282651468641" lon="9.377717055330862"><ele>206.0</ele><time>2026-05-03T11:08:47.002Z</time></trkpt><trkpt lat="45.873115019394135" lon="9.377692328205509"><ele>206.0</ele><time>2026-05-03T11:08:47.998Z</time></trkpt><trkpt lat="45.873404925188595" lon="9.377654612179168"><ele>206.0</ele><time>2026-05-03T11:08:48.998Z</time></trkpt><trkpt lat="45.87369426283901" lon="9.37759451458735"><ele>210.0</ele><time>2026-05-03T11:08:49.998Z</time></trkpt><trkpt lat="45.873979543744305" lon="9.377507775999904"><ele>214.0</ele><time>2026-05-03T11:08:50.998Z</time></trkpt><trkpt lat="45.874263480375966" lon="9.377399811333929"><ele>209.0</ele><time>2026-05-03T11:08:51.998Z</time></trkpt><trkpt lat="45.87454242135985" lon="9.377267470605652"><ele>204.0</ele><time>2026-05-03T11:08:52.998Z</time></trkpt><trkpt lat="45.87480507474511" lon="9.377121293749363"><ele>204.0</ele><time>2026-05-03T11:08:53.998Z</time></trkpt><trkpt lat="45.875040220084536" lon="9.376988009608718"><ele>204.0</ele><time>2026-05-03T11:08:54.998Z</time></trkpt><trkpt lat="45.875226370936865" lon="9.376862632409402"><ele>205.66666666666669</ele><time>2026-05-03T11:08:55.998Z</time></trkpt><trkpt lat="45.875408219530165" lon="9.37670939803363"><ele>207.33333333333334</ele><time>2026-05-03T11:08:56.998Z</time></trkpt><trkpt lat="45.87557455330186" lon="9.376470265477346"><ele>209.0</ele><time>2026-05-03T11:08:57.998Z</time></trkpt><trkpt lat="45.875733125145324" lon="9.376197232641568"><ele>209.0</ele><time>2026-05-03T11:08:58.999Z</time></trkpt><trkpt lat="45.87589960617013" lon="9.375909648742462"><ele>209.0</ele><time>2026-05-03T11:08:59.999Z</time></trkpt><trkpt lat="45.87604004632129" lon="9.375590393937397"><ele>213.5</ele><time>2026-05-03T11:09:00.999Z</time></trkpt><trkpt lat="45.87620781794467" lon="9.375291495349346"><ele>218.0</ele><time>2026-05-03T11:09:01.999Z</time></trkpt><trkpt lat="45.87640609653119" lon="9.37502366028109"><ele>218.0</ele><time>2026-05-03T11:09:02.999Z</time></trkpt><trkpt lat="45.87661661449326" lon="9.374766188960205"><ele>218.0</ele><time>2026-05-03T11:09:03.999Z</time></trkpt><trkpt lat="45.87682036210099" lon="9.374485283473744"><ele>221.5</ele><time>2026-05-03T11:09:04.999Z</time></trkpt><trkpt lat="45.87699702911513" lon="9.374174758420754"><ele>225.0</ele><time>2026-05-03T11:09:05.999Z</time></trkpt><trkpt lat="45.87715170281446" lon="9.373837620847253"><ele>218.0</ele><time>2026-05-03T11:09:06.999Z</time></trkpt><trkpt lat="45.877280021000765" lon="9.373471967649316"><ele>211.0</ele><time>2026-05-03T11:09:07.999Z</time></trkpt><trkpt lat="45.87740409647873" lon="9.373102416964235"><ele>208.0</ele><time>2026-05-03T11:09:08.999Z</time></trkpt><trkpt lat="45.877527525967174" lon="9.372762868272416"><ele>205.0</ele><time>2026-05-03T11:09:09.999Z</time></trkpt><trkpt lat="45.87766122265698" lon="9.372471798886078"><ele>206.33333333333331</ele><time>2026-05-03T11:09:10.999Z</time></trkpt><trkpt lat="45.87776867378216" lon="9.372256566924102"><ele>207.66666666666669</ele><time>2026-05-03T11:09:11.999Z</time></trkpt><trkpt lat="45.87788659432459" lon="9.372067200335914"><ele>209.0</ele><time>2026-05-03T11:09:12.999Z</time></trkpt><trkpt lat="45.87802902590329" lon="9.371910447805028"><ele>209.0</ele><time>2026-05-03T11:09:13.999Z</time></trkpt><trkpt lat="45.878182295986136" lon="9.371787184692316"><ele>209.0</ele><time>2026-05-03T11:09:14.999Z</time></trkpt><trkpt lat="45.87834325373925" lon="9.371692001096534"><ele>209.0</ele><time>2026-05-03T11:09:15.999Z</time></trkpt><trkpt lat="45.87851363883882" lon="9.371610625910943"><ele>208.33333333333334</ele><time>2026-05-03T11:09:16.999Z</time></trkpt><trkpt lat="45.87870065970362" lon="9.37152798841617"><ele>207.66666666666669</ele><time>2026-05-03T11:09:17.999Z</time></trkpt><trkpt lat="45.87888355668925" lon="9.371440595378031"><ele>207.0</ele><time>2026-05-03T11:09:18.999Z</time></trkpt><trkpt lat="45.879055265275014" lon="9.371354925138363"><ele>207.0</ele><time>2026-05-03T11:09:19.999Z</time></trkpt><trkpt lat="45.87921768673691" lon="9.371256404667225"><ele>207.0</ele><time>2026-05-03T11:09:20.999Z</time></trkpt><trkpt lat="45.879375090255344" lon="9.371137321085717"><ele>207.0</ele><time>2026-05-03T11:09:21.999Z</time></trkpt><trkpt lat="45.879541381925115" lon="9.371002504436236"><ele>209.0</ele><time>2026-05-03T11:09:22.999Z</time></trkpt><trkpt lat="45.879707042935316" lon="9.370829766599869"><ele>211.0</ele><time>2026-05-03T11:09:24Z</time></trkpt><trkpt lat="45.87986726410333" lon="9.370645563488681"><ele>213.0</ele><time>2026-05-03T11:09:25Z</time></trkpt><trkpt lat="45.88002106017011" lon="9.37043946967243"><ele>216.0</ele><time>2026-05-03T11:09:26Z</time></trkpt><trkpt lat="45.88016093429302" lon="9.3702113093246"><ele>219.0</ele><time>2026-05-03T11:09:27Z</time></trkpt><trkpt lat="45.880288460482355" lon="9.36995202904524"><ele>222.0</ele><time>2026-05-03T11:09:28Z</time></trkpt><trkpt lat="45.88041985435404" lon="9.36967853976612"><ele>222.0</ele><time>2026-05-03T11:09:29Z</time></trkpt><trkpt lat="45.88055609979196" lon="9.369404559442772"><ele>222.0</ele><time>2026-05-03T11:09:30Z</time></trkpt><trkpt lat="45.88069093098228" lon="9.369140609666069"><ele>222.0</ele><time>2026-05-03T11:09:31Z</time></trkpt><trkpt lat="45.88084106260392" lon="9.368874800312541"><ele>222.0</ele><time>2026-05-03T11:09:32Z</time></trkpt><trkpt lat="45.88099575606566" lon="9.368600299946873"><ele>220.0</ele><time>2026-05-03T11:09:33Z</time></trkpt><trkpt lat="45.881151040706776" lon="9.36830384398309"><ele>218.0</ele><time>2026-05-03T11:09:34Z</time></trkpt><trkpt lat="45.88130921711141" lon="9.367995304914064"><ele>218.0</ele><time>2026-05-03T11:09:35Z</time></trkpt><trkpt lat="45.88146885396147" lon="9.367681939117285"><ele>218.0</ele><time>2026-05-03T11:09:36Z</time></trkpt><trkpt lat="45.88163581221998" lon="9.367368982841525"><ele>225.5</ele><time>2026-05-03T11:09:37Z</time></trkpt><trkpt lat="45.881771936272074" lon="9.367062398517513"><ele>233.0</ele><time>2026-05-03T11:09:38Z</time></trkpt><trkpt lat="45.88193674571731" lon="9.36678904367084"><ele>233.0</ele><time>2026-05-03T11:09:39Z</time></trkpt><trkpt lat="45.88207982352297" lon="9.366480687566186"><ele>233.0</ele><time>2026-05-03T11:09:40Z</time></trkpt><trkpt lat="45.88223721271124" lon="9.366170180541287"><ele>226.0</ele><time>2026-05-03T11:09:41Z</time></trkpt><trkpt lat="45.882391357291596" lon="9.365884174026995"><ele>219.0</ele><time>2026-05-03T11:09:42Z</time></trkpt><trkpt lat="45.882536017600856" lon="9.365611638337844"><ele>230.5</ele><time>2026-05-03T11:09:43Z</time></trkpt><trkpt lat="45.88267672546648" lon="9.365347488967954"><ele>242.0</ele><time>2026-05-03T11:09:44Z</time></trkpt><trkpt lat="45.88281016177551" lon="9.365084735116797"><ele>242.0</ele><time>2026-05-03T11:09:45Z</time></trkpt><trkpt lat="45.88293672313044" lon="9.36481798866911"><ele>242.0</ele><time>2026-05-03T11:09:46Z</time></trkpt><trkpt lat="45.883057104020246" lon="9.364535148203196"><ele>235.5</ele><time>2026-05-03T11:09:47Z</time></trkpt><trkpt lat="45.88318370385525" lon="9.36426033672932"><ele>229.0</ele><time>2026-05-03T11:09:48Z</time></trkpt><trkpt lat="45.8833144392773" lon="9.363984323051119"><ele>223.33333333333331</ele><time>2026-05-03T11:09:49Z</time></trkpt><trkpt lat="45.88343014301832" lon="9.363723692610991"><ele>217.66666666666669</ele><time>2026-05-03T11:09:50Z</time></trkpt><trkpt lat="45.88355023663711" lon="9.363469038121577"><ele>212.0</ele><time>2026-05-03T11:09:51Z</time></trkpt><trkpt lat="45.88368588537442" lon="9.363205320976531"><ele>217.5</ele><time>2026-05-03T11:09:52Z</time></trkpt><trkpt lat="45.883820911934826" lon="9.362951252802292"><ele>223.0</ele><time>2026-05-03T11:09:53Z</time></trkpt><trkpt lat="45.88402171755676" lon="9.362755111420443"><ele>223.0</ele><time>2026-05-03T11:09:54Z</time></trkpt><trkpt lat="45.88417958538739" lon="9.362491855481128"><ele>223.0</ele><time>2026-05-03T11:09:55Z</time></trkpt><trkpt lat="45.88433326213106" lon="9.362243264325604"><ele>226.33333333333331</ele><time>2026-05-03T11:09:56Z</time></trkpt><trkpt lat="45.884483641069544" lon="9.362008064294242"><ele>229.66666666666669</ele><time>2026-05-03T11:09:57Z</time></trkpt><trkpt lat="45.884638965162694" lon="9.361777708095703"><ele>233.0</ele><time>2026-05-03T11:09:58.001Z</time></trkpt><trkpt lat="45.88479088825229" lon="9.361555120332921"><ele>229.66666666666669</ele><time>2026-05-03T11:09:59.001Z</time></trkpt><trkpt lat="45.884949106721955" lon="9.361344083254544"><ele>226.33333333333331</ele><time>2026-05-03T11:10:00.001Z</time></trkpt><trkpt lat="45.88510705058417" lon="9.361145657164009"><ele>223.0</ele><time>2026-05-03T11:10:01.001Z</time></trkpt><trkpt lat="45.88525814954164" lon="9.360999209568519"><ele>223.0</ele><time>2026-05-03T11:10:02.001Z</time></trkpt><trkpt lat="45.88541825864578" lon="9.360846817667573"><ele>223.0</ele><time>2026-05-03T11:10:03.001Z</time></trkpt><trkpt lat="45.88561735789701" lon="9.360705751460957"><ele>223.0</ele><time>2026-05-03T11:10:04.001Z</time></trkpt><trkpt lat="45.885860087873425" lon="9.360616541263488"><ele>218.0</ele><time>2026-05-03T11:10:05.001Z</time></trkpt><trkpt lat="45.88606282787649" lon="9.360475400367173"><ele>213.0</ele><time>2026-05-03T11:10:06.001Z</time></trkpt><trkpt lat="45.88626715159262" lon="9.360318811085708"><ele>213.0</ele><time>2026-05-03T11:10:07.001Z</time></trkpt><trkpt lat="45.886475346911816" lon="9.360167244642646"><ele>213.0</ele><time>2026-05-03T11:10:08.001Z</time></trkpt><trkpt lat="45.88668493321741" lon="9.360017579060889"><ele>220.5</ele><time>2026-05-03T11:10:09.001Z</time></trkpt><trkpt lat="45.88689389742303" lon="9.359865536142873"><ele>228.0</ele><time>2026-05-03T11:10:10.001Z</time></trkpt><trkpt lat="45.88710085446587" lon="9.359711681987028"><ele>217.5</ele><time>2026-05-03T11:10:11.001Z</time></trkpt><trkpt lat="45.887310211080084" lon="9.359563604311315"><ele>207.0</ele><time>2026-05-03T11:10:12.001Z</time></trkpt><trkpt lat="45.88752536950908" lon="9.359419312958025"><ele>214.5</ele><time>2026-05-03T11:10:13.001Z</time></trkpt><trkpt lat="45.88774118747938" lon="9.359287073514517"><ele>222.0</ele><time>2026-05-03T11:10:14.001Z</time></trkpt><trkpt lat="45.88796155206515" lon="9.359167830097343"><ele>222.0</ele><time>2026-05-03T11:10:15.001Z</time></trkpt><trkpt lat="45.88818813771753" lon="9.359066307278491"><ele>222.0</ele><time>2026-05-03T11:10:16.001Z</time></trkpt><trkpt lat="45.88841604582237" lon="9.358970448066056"><ele>216.0</ele><time>2026-05-03T11:10:17.001Z</time></trkpt><trkpt lat="45.888653590429584" lon="9.358859987872753"><ele>210.0</ele><time>2026-05-03T11:10:18.001Z</time></trkpt><trkpt lat="45.888873237786015" lon="9.358757918573298"><ele>210.0</ele><time>2026-05-03T11:10:19.001Z</time></trkpt><trkpt lat="45.88909801834416" lon="9.35864300245224"><ele>210.0</ele><time>2026-05-03T11:10:20.001Z</time></trkpt><trkpt lat="45.88931938161098" lon="9.358515550672973"><ele>218.5</ele><time>2026-05-03T11:10:21.001Z</time></trkpt><trkpt lat="45.88953781011274" lon="9.358370417975266"><ele>227.0</ele><time>2026-05-03T11:10:22.001Z</time></trkpt><trkpt lat="45.889746753565774" lon="9.358208343160692"><ele>227.0</ele><time>2026-05-03T11:10:23.001Z</time></trkpt><trkpt lat="45.88994628250926" lon="9.35801741884234"><ele>227.0</ele><time>2026-05-03T11:10:24.001Z</time></trkpt><trkpt lat="45.8901325673375" lon="9.357810919590886"><ele>227.0</ele><time>2026-05-03T11:10:25.001Z</time></trkpt><trkpt lat="45.89031144216694" lon="9.357590914015715"><ele>227.0</ele><time>2026-05-03T11:10:26.001Z</time></trkpt><trkpt lat="45.890475284637894" lon="9.357346694409554"><ele>219.0</ele><time>2026-05-03T11:10:27.001Z</time></trkpt><trkpt lat="45.890629163491376" lon="9.357089734376908"><ele>211.0</ele><time>2026-05-03T11:10:28.001Z</time></trkpt><trkpt lat="45.8907696815261" lon="9.356819977849652"><ele>211.0</ele><time>2026-05-03T11:10:29.001Z</time></trkpt><trkpt lat="45.890897139345704" lon="9.356541034628165"><ele>211.0</ele><time>2026-05-03T11:10:30.001Z</time></trkpt><trkpt lat="45.89102061966623" lon="9.356260275016984"><ele>214.5</ele><time>2026-05-03T11:10:31.001Z</time></trkpt><trkpt lat="45.89114510542102" lon="9.35598827341364"><ele>218.0</ele><time>2026-05-03T11:10:32.001Z</time></trkpt><trkpt lat="45.89126925983415" lon="9.355719184019945"><ele>214.66666666666669</ele><time>2026-05-03T11:10:33.001Z</time></trkpt><trkpt lat="45.891397917345415" lon="9.35544872826155"><ele>211.33333333333331</ele><time>2026-05-03T11:10:34.001Z</time></trkpt><trkpt lat="45.89153632759445" lon="9.355201642037107"><ele>208.0</ele><time>2026-05-03T11:10:35.001Z</time></trkpt><trkpt lat="45.89168448440228" lon="9.354969240115443"><ele>209.0</ele><time>2026-05-03T11:10:36.002Z</time></trkpt><trkpt lat="45.89184421920967" lon="9.35476251612742"><ele>210.0</ele><time>2026-05-03T11:10:37.002Z</time></trkpt><trkpt lat="45.89201235143218" lon="9.354574441025258"><ele>211.0</ele><time>2026-05-03T11:10:38.002Z</time></trkpt><trkpt lat="45.89217728507424" lon="9.354394320703015"><ele>211.0</ele><time>2026-05-03T11:10:39.002Z</time></trkpt><trkpt lat="45.89234195155608" lon="9.354223767354062"><ele>211.0</ele><time>2026-05-03T11:10:40.002Z</time></trkpt><trkpt lat="45.89250032025605" lon="9.354048768146072"><ele>211.0</ele><time>2026-05-03T11:10:41.002Z</time></trkpt><trkpt lat="45.892653518301195" lon="9.3538758104636"><ele>216.33333333333331</ele><time>2026-05-03T11:10:42.002Z</time></trkpt><trkpt lat="45.89279611845513" lon="9.353695391083821"><ele>221.66666666666669</ele><time>2026-05-03T11:10:43.002Z</time></trkpt><trkpt lat="45.89292579300167" lon="9.353500140716086"><ele>227.0</ele><time>2026-05-03T11:10:44.002Z</time></trkpt><trkpt lat="45.89305444277155" lon="9.353297281026256"><ele>227.0</ele><time>2026-05-03T11:10:45.002Z</time></trkpt><trkpt lat="45.893185977539446" lon="9.35308606535624"><ele>227.0</ele><time>2026-05-03T11:10:46.002Z</time></trkpt><trkpt lat="45.89330726555288" lon="9.352867174319153"><ele>227.0</ele><time>2026-05-03T11:10:47.002Z</time></trkpt><trkpt lat="45.8934160843542" lon="9.35263042267618"><ele>229.0</ele><time>2026-05-03T11:10:48.002Z</time></trkpt><trkpt lat="45.89350891700433" lon="9.352385390940286"><ele>231.0</ele><time>2026-05-03T11:10:49.002Z</time></trkpt><trkpt lat="45.8935925844932" lon="9.352146044986773"><ele>233.0</ele><time>2026-05-03T11:10:50.002Z</time></trkpt><trkpt lat="45.893669096554994" lon="9.35192051274825"><ele>233.0</ele><time>2026-05-03T11:10:51.002Z</time></trkpt><trkpt lat="45.89373807738556" lon="9.351695452768777"><ele>233.0</ele><time>2026-05-03T11:10:52.002Z</time></trkpt><trkpt lat="45.89380467813328" lon="9.351480465173186"><ele>233.0</ele><time>2026-05-03T11:10:53.002Z</time></trkpt><trkpt lat="45.89386691973462" lon="9.351272771546522"><ele>226.33333333333334</ele><time>2026-05-03T11:10:53.999Z</time></trkpt><trkpt lat="45.89393326309368" lon="9.351052405447255"><ele>219.66666666666669</ele><time>2026-05-03T11:10:54.999Z</time></trkpt><trkpt lat="45.89399188685693" lon="9.350840439561791"><ele>213.0</ele><time>2026-05-03T11:10:55.999Z</time></trkpt><trkpt lat="45.89405504031784" lon="9.350621214313493"><ele>210.66666666666669</ele><time>2026-05-03T11:10:56.999Z</time></trkpt><trkpt lat="45.89411924579721" lon="9.350416093121323"><ele>208.33333333333334</ele><time>2026-05-03T11:10:57.999Z</time></trkpt><trkpt lat="45.89419086573735" lon="9.350209149655841"><ele>206.0</ele><time>2026-05-03T11:10:58.999Z</time></trkpt><trkpt lat="45.8942665969174" lon="9.350025023234036"><ele>211.25</ele><time>2026-05-03T11:10:59.999Z</time></trkpt><trkpt lat="45.89434301227264" lon="9.349837706838015"><ele>216.5</ele><time>2026-05-03T11:11:00.999Z</time></trkpt><trkpt lat="45.894413610369305" lon="9.349647682496366"><ele>221.75</ele><time>2026-05-03T11:11:01.999Z</time></trkpt><trkpt lat="45.89447013519214" lon="9.34946667933313"><ele>227.0</ele><time>2026-05-03T11:11:02.999Z</time></trkpt><trkpt lat="45.894524291589924" lon="9.349303399613584"><ele>227.0</ele><time>2026-05-03T11:11:03.999Z</time></trkpt><trkpt lat="45.89457410291412" lon="9.34915193405664"><ele>227.0</ele><time>2026-05-03T11:11:04.999Z</time></trkpt><trkpt lat="45.894626591870654" lon="9.349012814909518"><ele>227.0</ele><time>2026-05-03T11:11:05.999Z</time></trkpt><trkpt lat="45.89467509377448" lon="9.348868184959418"><ele>227.0</ele><time>2026-05-03T11:11:06.999Z</time></trkpt><trkpt lat="45.89472939658727" lon="9.34873886161978"><ele>227.0</ele><time>2026-05-03T11:11:07.999Z</time></trkpt><trkpt lat="45.89473396801793" lon="9.348574248214822"><ele>223.0</ele><time>2026-05-03T11:11:08.999Z</time></trkpt><trkpt lat="45.894834129575706" lon="9.348482898043459"><ele>219.0</ele><time>2026-05-03T11:11:09.999Z</time></trkpt><trkpt lat="45.89489261496091" lon="9.348360276564415"><ele>215.0</ele><time>2026-05-03T11:11:10.999Z</time></trkpt><trkpt lat="45.89499428170459" lon="9.348213178547487"><ele>211.0</ele><time>2026-05-03T11:11:11.999Z</time></trkpt><trkpt lat="45.89508041115228" lon="9.34805900255437"><ele>215.0</ele><time>2026-05-03T11:11:12.999Z</time></trkpt><trkpt lat="45.895143587111" lon="9.347871572968666"><ele>219.0</ele><time>2026-05-03T11:11:13.999Z</time></trkpt><trkpt lat="45.895217925036626" lon="9.34770104639778"><ele>223.0</ele><time>2026-05-03T11:11:14.999Z</time></trkpt><trkpt lat="45.89526989464227" lon="9.347507310560024"><ele>227.0</ele><time>2026-05-03T11:11:15.999Z</time></trkpt><trkpt lat="45.89533376146944" lon="9.347326204800464"><ele>220.66666666666669</ele><time>2026-05-03T11:11:16.999Z</time></trkpt><trkpt lat="45.89539206315625" lon="9.34714354537051"><ele>214.33333333333331</ele><time>2026-05-03T11:11:17.999Z</time></trkpt><trkpt lat="45.89542325598802" lon="9.34692544743753"><ele>208.0</ele><time>2026-05-03T11:11:18.999Z</time></trkpt><trkpt lat="45.89547960055782" lon="9.346695187830306"><ele>208.0</ele><time>2026-05-03T11:11:19.999Z</time></trkpt><trkpt lat="45.89555533404994" lon="9.346506260493106"><ele>208.0</ele><time>2026-05-03T11:11:21Z</time></trkpt><trkpt lat="45.895602474718174" lon="9.346305718645384"><ele>208.0</ele><time>2026-05-03T11:11:22Z</time></trkpt><trkpt lat="45.89568622060976" lon="9.346135034815862"><ele>208.0</ele><time>2026-05-03T11:11:23Z</time></trkpt><trkpt lat="45.89575706414893" lon="9.34597795460314"><ele>204.66666666666666</ele><time>2026-05-03T11:11:24Z</time></trkpt><trkpt lat="45.89582657766562" lon="9.34579567723208"><ele>201.33333333333331</ele><time>2026-05-03T11:11:25Z</time></trkpt><trkpt lat="45.895947217548915" lon="9.345638552185267"><ele>198.0</ele><time>2026-05-03T11:11:26Z</time></trkpt><trkpt lat="45.89604142076625" lon="9.345465008995166"><ele>198.0</ele><time>2026-05-03T11:11:27Z</time></trkpt><trkpt lat="45.896118226041615" lon="9.345279555910258"><ele>198.0</ele><time>2026-05-03T11:11:28Z</time></trkpt><trkpt lat="45.89618532317004" lon="9.345103280388795"><ele>198.0</ele><time>2026-05-03T11:11:29Z</time></trkpt><trkpt lat="45.89626298525061" lon="9.34491965409761"><ele>198.0</ele><time>2026-05-03T11:11:30Z</time></trkpt><trkpt lat="45.89631730451632" lon="9.344770099211573"><ele>198.0</ele><time>2026-05-03T11:11:31Z</time></trkpt><trkpt lat="45.89638178085869" lon="9.344585934812374"><ele>198.0</ele><time>2026-05-03T11:11:32Z</time></trkpt><trkpt lat="45.8964517167138" lon="9.344390062217803"><ele>198.0</ele><time>2026-05-03T11:11:33.036Z</time></trkpt><trkpt lat="45.89637660249299" lon="9.343609372901815"><ele>214.0</ele><time>2026-05-03T11:11:36.802Z</time></trkpt><trkpt lat="45.89632253668661" lon="9.3434132629796"><ele>230.0</ele><time>2026-05-03T11:11:37.802Z</time></trkpt><trkpt lat="45.896260780106935" lon="9.343221580072806"><ele>246.0</ele><time>2026-05-03T11:11:38.803Z</time></trkpt><trkpt lat="45.89618877997651" lon="9.343037864620115"><ele>262.0</ele><time>2026-05-03T11:11:39.802Z</time></trkpt><trkpt lat="45.89610118883304" lon="9.342868377542473"><ele>262.0</ele><time>2026-05-03T11:11:40.802Z</time></trkpt><trkpt lat="45.896003567735605" lon="9.34271046186579"><ele>262.0</ele><time>2026-05-03T11:11:41.802Z</time></trkpt><trkpt lat="45.89589696978341" lon="9.342565016328171"><ele>262.0</ele><time>2026-05-03T11:11:42.802Z</time></trkpt><trkpt lat="45.89570115228153" lon="9.34225015501569"><ele>250.5</ele><time>2026-05-03T11:11:46Z</time></trkpt><trkpt lat="45.895655057968355" lon="9.342122005400011"><ele>239.0</ele><time>2026-05-03T11:11:47Z</time></trkpt><trkpt lat="45.895537761692076" lon="9.342005970700802"><ele>227.5</ele><time>2026-05-03T11:11:48Z</time></trkpt><trkpt lat="45.89540162751302" lon="9.341934585249597"><ele>216.0</ele><time>2026-05-03T11:11:49Z</time></trkpt><trkpt lat="45.89532460292972" lon="9.341842894946481"><ele>216.0</ele><time>2026-05-03T11:11:50Z</time></trkpt><trkpt lat="45.895259592321246" lon="9.341749725864586"><ele>216.0</ele><time>2026-05-03T11:11:51Z</time></trkpt><trkpt lat="45.895202750266286" lon="9.341695084769611"><ele>216.0</ele><time>2026-05-03T11:11:52Z</time></trkpt><trkpt lat="45.89512912539225" lon="9.341607873179306"><ele>216.0</ele><time>2026-05-03T11:11:53Z</time></trkpt><trkpt lat="45.895068972779086" lon="9.341514569740687"><ele>216.0</ele><time>2026-05-03T11:11:54Z</time></trkpt><trkpt lat="45.89500306257533" lon="9.341410742147112"><ele>216.0</ele><time>2026-05-03T11:11:55.001Z</time></trkpt><trkpt lat="45.89494105821439" lon="9.341315602577316"><ele>214.75</ele><time>2026-05-03T11:11:56.001Z</time></trkpt><trkpt lat="45.894867835490075" lon="9.341198667414794"><ele>213.5</ele><time>2026-05-03T11:11:57.001Z</time></trkpt><trkpt lat="45.89478717439631" lon="9.341048052013281"><ele>212.25</ele><time>2026-05-03T11:11:58.001Z</time></trkpt><trkpt lat="45.894716627747385" lon="9.340875427203287"><ele>211.0</ele><time>2026-05-03T11:11:59.001Z</time></trkpt><trkpt lat="45.8946591144222" lon="9.340701911852895"><ele>211.75</ele><time>2026-05-03T11:12:00.001Z</time></trkpt><trkpt lat="45.89462057877714" lon="9.340525711674871"><ele>212.5</ele><time>2026-05-03T11:12:01.001Z</time></trkpt><trkpt lat="45.89458501390288" lon="9.340363894990288"><ele>213.25</ele><time>2026-05-03T11:12:02.001Z</time></trkpt><trkpt lat="45.89455671702762" lon="9.340209457369706"><ele>214.0</ele><time>2026-05-03T11:12:03.001Z</time></trkpt><trkpt lat="45.89453718514336" lon="9.34006663701312"><ele>214.0</ele><time>2026-05-03T11:12:04.001Z</time></trkpt><trkpt lat="45.89452135045833" lon="9.339928473687602"><ele>213.99999999999997</ele><time>2026-05-03T11:12:05.001Z</time></trkpt><trkpt lat="45.894510335293134" lon="9.339791082017587"><ele>213.99999999999997</ele><time>2026-05-03T11:12:06.001Z</time></trkpt><trkpt lat="45.89450242274007" lon="9.339654060572155"><ele>214.0</ele><time>2026-05-03T11:12:07.001Z</time></trkpt><trkpt lat="45.89449155011659" lon="9.339517077568278"><ele>214.0</ele><time>2026-05-03T11:12:08.001Z</time></trkpt><trkpt lat="45.89447988640873" lon="9.339380499412488"><ele>213.79999999999998</ele><time>2026-05-03T11:12:09.001Z</time></trkpt><trkpt lat="45.89446748097433" lon="9.339241720687044"><ele>213.59999999999997</ele><time>2026-05-03T11:12:10.001Z</time></trkpt><trkpt lat="45.894464102621974" lon="9.339089233894425"><ele>213.4</ele><time>2026-05-03T11:12:11.001Z</time></trkpt><trkpt lat="45.89446664274413" lon="9.338932238693626"><ele>213.2</ele><time>2026-05-03T11:12:12.001Z</time></trkpt><trkpt lat="45.894478276058976" lon="9.338774202798174"><ele>213.0</ele><time>2026-05-03T11:12:13.001Z</time></trkpt><trkpt lat="45.89449602934581" lon="9.338614154949259"><ele>212.75</ele><time>2026-05-03T11:12:14.001Z</time></trkpt><trkpt lat="45.89451977657025" lon="9.338448309918604"><ele>212.5</ele><time>2026-05-03T11:12:15.001Z</time></trkpt><trkpt lat="45.894547114620856" lon="9.338280143358986"><ele>212.25</ele><time>2026-05-03T11:12:16.001Z</time></trkpt><trkpt lat="45.89458098294541" lon="9.338112520894231"><ele>212.0</ele><time>2026-05-03T11:12:17.001Z</time></trkpt><trkpt lat="45.89461494226848" lon="9.337942940776482"><ele>212.0</ele><time>2026-05-03T11:12:18.001Z</time></trkpt><trkpt lat="45.89464851272053" lon="9.337771553674209"><ele>212.0</ele><time>2026-05-03T11:12:19.001Z</time></trkpt><trkpt lat="45.894679649625886" lon="9.337598732315458"><ele>212.0</ele><time>2026-05-03T11:12:20.001Z</time></trkpt><trkpt lat="45.894709784007006" lon="9.337426195855395"><ele>212.0</ele><time>2026-05-03T11:12:21.001Z</time></trkpt><trkpt lat="45.89473763775225" lon="9.337257000662797"><ele>211.75</ele><time>2026-05-03T11:12:22.001Z</time></trkpt><trkpt lat="45.89476877602431" lon="9.337093859586968"><ele>211.5</ele><time>2026-05-03T11:12:23.001Z</time></trkpt><trkpt lat="45.89480220186047" lon="9.336933516285168"><ele>211.25</ele><time>2026-05-03T11:12:24.001Z</time></trkpt><trkpt lat="45.8948309553932" lon="9.336774942532163"><ele>211.0</ele><time>2026-05-03T11:12:25.001Z</time></trkpt><trkpt lat="45.89485894319467" lon="9.33661118099813"><ele>211.0</ele><time>2026-05-03T11:12:26.001Z</time></trkpt><trkpt lat="45.89489079111309" lon="9.33644706967984"><ele>211.0</ele><time>2026-05-03T11:12:27.001Z</time></trkpt><trkpt lat="45.894919804249746" lon="9.336284823722792"><ele>211.0</ele><time>2026-05-03T11:12:28.001Z</time></trkpt><trkpt lat="45.894949050489664" lon="9.336119404364023"><ele>211.0</ele><time>2026-05-03T11:12:29.001Z</time></trkpt><trkpt lat="45.894979910012054" lon="9.3359521031351"><ele>211.20000000000002</ele><time>2026-05-03T11:12:30.001Z</time></trkpt><trkpt lat="45.895008713036574" lon="9.335783156532614"><ele>211.4</ele><time>2026-05-03T11:12:31.002Z</time></trkpt><trkpt lat="45.89503643270017" lon="9.33562699858284"><ele>211.6</ele><time>2026-05-03T11:12:32.002Z</time></trkpt><trkpt lat="45.89506464496223" lon="9.335482675100941"><ele>211.8</ele><time>2026-05-03T11:12:33.002Z</time></trkpt><trkpt lat="45.895090078314226" lon="9.335342398231127"><ele>212.0</ele><time>2026-05-03T11:12:34.002Z</time></trkpt><trkpt lat="45.895114190068426" lon="9.3352042690053"><ele>212.39999999999998</ele><time>2026-05-03T11:12:35.002Z</time></trkpt><trkpt lat="45.895144095991284" lon="9.335075559004638"><ele>212.79999999999998</ele><time>2026-05-03T11:12:36.002Z</time></trkpt><trkpt lat="45.89518087825772" lon="9.334946724061929"><ele>213.2</ele><time>2026-05-03T11:12:37.002Z</time></trkpt><trkpt lat="45.89522349518652" lon="9.334815315757648"><ele>213.6</ele><time>2026-05-03T11:12:38.002Z</time></trkpt><trkpt lat="45.89527792609791" lon="9.334692101509711"><ele>214.0</ele><time>2026-05-03T11:12:39.002Z</time></trkpt><trkpt lat="45.89534126522332" lon="9.334577800825585"><ele>214.0</ele><time>2026-05-03T11:12:40.002Z</time></trkpt><trkpt lat="45.89541312465014" lon="9.334472003191252"><ele>213.99999999999997</ele><time>2026-05-03T11:12:41.002Z</time></trkpt><trkpt lat="45.895491437851106" lon="9.334373159617368"><ele>213.99999999999997</ele><time>2026-05-03T11:12:42.002Z</time></trkpt><trkpt lat="45.8955684222994" lon="9.33429125407397"><ele>214.0</ele><time>2026-05-03T11:12:43.002Z</time></trkpt><trkpt lat="45.895636137350344" lon="9.334224359322386"><ele>214.0</ele><time>2026-05-03T11:12:44.002Z</time></trkpt><trkpt lat="45.895716331551334" lon="9.334152798233893"><ele>213.99999999999997</ele><time>2026-05-03T11:12:46.002Z</time></trkpt><trkpt lat="45.895773268743376" lon="9.334107593806477"><ele>214.0</ele><time>2026-05-03T11:12:48.002Z</time></trkpt><trkpt lat="45.89586173174607" lon="9.334025841116912"><ele>214.0</ele><time>2026-05-03T11:12:50.002Z</time></trkpt><trkpt lat="45.895922311080035" lon="9.333972563929807"><ele>214.0</ele><time>2026-05-03T11:12:51.002Z</time></trkpt><trkpt lat="45.89599088588918" lon="9.333914366235177"><ele>213.99999999999997</ele><time>2026-05-03T11:12:52.002Z</time></trkpt><trkpt lat="45.896064309122245" lon="9.333851940740255"><ele>214.0</ele><time>2026-05-03T11:12:53.002Z</time></trkpt><trkpt lat="45.89615210645848" lon="9.333774864947024"><ele>213.75</ele><time>2026-05-03T11:12:54.002Z</time></trkpt><trkpt lat="45.89625328237266" lon="9.333688959568478"><ele>213.5</ele><time>2026-05-03T11:12:55.002Z</time></trkpt><trkpt lat="45.89636399353197" lon="9.333594537879899"><ele>213.25</ele><time>2026-05-03T11:12:56.002Z</time></trkpt><trkpt lat="45.89647328801485" lon="9.333506735636222"><ele>213.0</ele><time>2026-05-03T11:12:57.002Z</time></trkpt><trkpt lat="45.89657286737233" lon="9.33342632545453"><ele>213.0</ele><time>2026-05-03T11:12:58.002Z</time></trkpt><trkpt lat="45.89667331089955" lon="9.333347861446574"><ele>213.0</ele><time>2026-05-03T11:12:59.002Z</time></trkpt><trkpt lat="45.89677472453727" lon="9.333271801459157"><ele>213.0</ele><time>2026-05-03T11:13:00Z</time></trkpt><trkpt lat="45.89687932590162" lon="9.333198233280356"><ele>213.0</ele><time>2026-05-03T11:13:01Z</time></trkpt><trkpt lat="45.89698825198182" lon="9.333131804114803"><ele>213.25</ele><time>2026-05-03T11:13:02.001Z</time></trkpt><trkpt lat="45.89709997370012" lon="9.333072654675613"><ele>213.5</ele><time>2026-05-03T11:13:03.001Z</time></trkpt><trkpt lat="45.8972087226247" lon="9.333017191429729"><ele>213.75</ele><time>2026-05-03T11:13:04.001Z</time></trkpt><trkpt lat="45.89731302810498" lon="9.332963233861996"><ele>214.0</ele><time>2026-05-03T11:13:05.001Z</time></trkpt><trkpt lat="45.89741982241247" lon="9.332913820277545"><ele>213.39999999999998</ele><time>2026-05-03T11:13:06.001Z</time></trkpt><trkpt lat="45.89752682929433" lon="9.332868528692272"><ele>212.79999999999998</ele><time>2026-05-03T11:13:07.001Z</time></trkpt><trkpt lat="45.8976341192829" lon="9.33282882317502"><ele>212.2</ele><time>2026-05-03T11:13:08.001Z</time></trkpt><trkpt lat="45.89774293574495" lon="9.332793439690796"><ele>211.60000000000002</ele><time>2026-05-03T11:13:09.001Z</time></trkpt><trkpt lat="45.897853673460475" lon="9.332758002402036"><ele>211.0</ele><time>2026-05-03T11:13:10.001Z</time></trkpt><trkpt lat="45.89796400426153" lon="9.332721641194185"><ele>211.0</ele><time>2026-05-03T11:13:11.001Z</time></trkpt><trkpt lat="45.89807416593055" lon="9.332682873898857"><ele>211.0</ele><time>2026-05-03T11:13:12.001Z</time></trkpt><trkpt lat="45.898185983331146" lon="9.332643194636326"><ele>211.0</ele><time>2026-05-03T11:13:13.001Z</time></trkpt><trkpt lat="45.89829323116056" lon="9.332608466872495"><ele>211.0</ele><time>2026-05-03T11:13:14.001Z</time></trkpt><trkpt lat="45.89839199840132" lon="9.332576282286308"><ele>211.0</ele><time>2026-05-03T11:13:15.001Z</time></trkpt><trkpt lat="45.89848519931163" lon="9.332544653605176"><ele>210.99999999999997</ele><time>2026-05-03T11:13:16.001Z</time></trkpt><trkpt lat="45.89857169855975" lon="9.332513246721712"><ele>211.0</ele><time>2026-05-03T11:13:17.001Z</time></trkpt><trkpt lat="45.89865314202782" lon="9.332484516700026"><ele>211.0</ele><time>2026-05-03T11:13:18.001Z</time></trkpt><trkpt lat="45.89873141659313" lon="9.332456823228322"><ele>211.0</ele><time>2026-05-03T11:13:19.001Z</time></trkpt><trkpt lat="45.8988086410494" lon="9.332430041404626"><ele>210.99999999999997</ele><time>2026-05-03T11:13:20.001Z</time></trkpt><trkpt lat="45.898878206724554" lon="9.332404744992331"><ele>211.0</ele><time>2026-05-03T11:13:21.001Z</time></trkpt><trkpt lat="45.89894417834705" lon="9.332381808652213"><ele>211.0</ele><time>2026-05-03T11:13:22.001Z</time></trkpt><trkpt lat="45.899009049907434" lon="9.332357379718728"><ele>211.0</ele><time>2026-05-03T11:13:23.001Z</time></trkpt><trkpt lat="45.89907526854386" lon="9.33233296779822"><ele>211.0</ele><time>2026-05-03T11:13:24.001Z</time></trkpt><trkpt lat="45.8991413907253" lon="9.33230881207477"><ele>211.0</ele><time>2026-05-03T11:13:25.001Z</time></trkpt><trkpt lat="45.899213415517636" lon="9.332285918095174"><ele>211.0</ele><time>2026-05-03T11:13:26.001Z</time></trkpt><trkpt lat="45.899285049791025" lon="9.332263992020753"><ele>211.0</ele><time>2026-05-03T11:13:27.001Z</time></trkpt><trkpt lat="45.89935720280704" lon="9.332235370824723"><ele>211.0</ele><time>2026-05-03T11:13:28.001Z</time></trkpt><trkpt lat="45.89943511508125" lon="9.33220403183993"><ele>209.99999999999997</ele><time>2026-05-03T11:13:29.001Z</time></trkpt><trkpt lat="45.89951419483362" lon="9.332175670469939"><ele>209.0</ele><time>2026-05-03T11:13:30.001Z</time></trkpt><trkpt lat="45.89958770794016" lon="9.332148148579702"><ele>208.0</ele><time>2026-05-03T11:13:31.001Z</time></trkpt><trkpt lat="45.89966678899814" lon="9.332120630489197"><ele>207.0</ele><time>2026-05-03T11:13:32.001Z</time></trkpt><trkpt lat="45.899752636585966" lon="9.33208824153607"><ele>205.99999999999997</ele><time>2026-05-03T11:13:33.001Z</time></trkpt><trkpt lat="45.89984469957975" lon="9.332051954040967"><ele>205.0</ele><time>2026-05-03T11:13:34.001Z</time></trkpt><trkpt lat="45.89994324265911" lon="9.33202160415626"><ele>205.0</ele><time>2026-05-03T11:13:35.001Z</time></trkpt><trkpt lat="45.90004456878764" lon="9.331989944042192"><ele>205.0</ele><time>2026-05-03T11:13:36.001Z</time></trkpt><trkpt lat="45.90014994265349" lon="9.33195787491262"><ele>205.0</ele><time>2026-05-03T11:13:37.001Z</time></trkpt><trkpt lat="45.90026230601409" lon="9.331938706540896"><ele>205.0</ele><time>2026-05-03T11:13:38.001Z</time></trkpt><trkpt lat="45.90037358848125" lon="9.33193193618803"><ele>205.0</ele><time>2026-05-03T11:13:39.001Z</time></trkpt><trkpt lat="45.9004835460535" lon="9.331937611288422"><ele>205.0</ele><time>2026-05-03T11:13:40.001Z</time></trkpt><trkpt lat="45.900592595831384" lon="9.331944324752355"><ele>205.0</ele><time>2026-05-03T11:13:41.001Z</time></trkpt><trkpt lat="45.90069954806504" lon="9.331949773652736"><ele>205.0</ele><time>2026-05-03T11:13:42.001Z</time></trkpt><trkpt lat="45.90080335486119" lon="9.331965192217108"><ele>205.0</ele><time>2026-05-03T11:13:43.001Z</time></trkpt><trkpt lat="45.900905478584086" lon="9.331983785347557"><ele>205.0</ele><time>2026-05-03T11:13:44.001Z</time></trkpt><trkpt lat="45.90100667247732" lon="9.332000033404672"><ele>204.8</ele><time>2026-05-03T11:13:45.001Z</time></trkpt><trkpt lat="45.901106423322844" lon="9.332024506280575"><ele>204.6</ele><time>2026-05-03T11:13:46.001Z</time></trkpt><trkpt lat="45.90120554152843" lon="9.332043519186811"><ele>204.39999999999998</ele><time>2026-05-03T11:13:47.002Z</time></trkpt><trkpt lat="45.90130718965209" lon="9.33206727414843"><ele>204.2</ele><time>2026-05-03T11:13:48.002Z</time></trkpt><trkpt lat="45.901408652918214" lon="9.332090598269266"><ele>204.0</ele><time>2026-05-03T11:13:49.002Z</time></trkpt><trkpt lat="45.9015117280553" lon="9.332112328927774"><ele>204.0</ele><time>2026-05-03T11:13:50.002Z</time></trkpt><trkpt lat="45.901615931446344" lon="9.332131484514125"><ele>204.0</ele><time>2026-05-03T11:13:51.002Z</time></trkpt><trkpt lat="45.901724681048165" lon="9.332138060871879"><ele>204.0</ele><time>2026-05-03T11:13:52.002Z</time></trkpt><trkpt lat="45.90183676249278" lon="9.332135918088273"><ele>204.0</ele><time>2026-05-03T11:13:53.002Z</time></trkpt><trkpt lat="45.90194875514864" lon="9.332117692292133"><ele>204.0</ele><time>2026-05-03T11:13:54.002Z</time></trkpt><trkpt lat="45.902050598092146" lon="9.332094800454193"><ele>204.66666666666666</ele><time>2026-05-03T11:13:55.002Z</time></trkpt><trkpt lat="45.902143719087" lon="9.332069605557002"><ele>205.33333333333331</ele><time>2026-05-03T11:13:56.002Z</time></trkpt><trkpt lat="45.90222203838052" lon="9.332046225923712"><ele>206.0</ele><time>2026-05-03T11:13:57.002Z</time></trkpt><trkpt lat="45.90230080389634" lon="9.332015816301098"><ele>206.66666666666666</ele><time>2026-05-03T11:13:58.002Z</time></trkpt><trkpt lat="45.902364975744554" lon="9.331989564286353"><ele>207.33333333333331</ele><time>2026-05-03T11:13:59.002Z</time></trkpt><trkpt lat="45.9024766807864" lon="9.331943525283119"><ele>208.0</ele><time>2026-05-03T11:14:01.002Z</time></trkpt><trkpt lat="45.90256867212298" lon="9.331909759263938"><ele>208.2</ele><time>2026-05-03T11:14:03.002Z</time></trkpt><trkpt lat="45.90267901303858" lon="9.331913499706182"><ele>208.4</ele><time>2026-05-03T11:14:05.002Z</time></trkpt><trkpt lat="45.902791545231175" lon="9.331885871214777"><ele>208.6</ele><time>2026-05-03T11:14:07.002Z</time></trkpt><trkpt lat="45.90290265539862" lon="9.331785795712598"><ele>208.79999999999998</ele><time>2026-05-03T11:14:09.002Z</time></trkpt><trkpt lat="45.90296849263837" lon="9.331744754790137"><ele>209.0</ele><time>2026-05-03T11:14:10.002Z</time></trkpt><trkpt lat="45.9030472373625" lon="9.331721526630533"><ele>209.0</ele><time>2026-05-03T11:14:11.002Z</time></trkpt><trkpt lat="45.903135470771126" lon="9.331699527492894"><ele>209.0</ele><time>2026-05-03T11:14:12.002Z</time></trkpt><trkpt lat="45.90322878205536" lon="9.331667916144465"><ele>209.0</ele><time>2026-05-03T11:14:13.002Z</time></trkpt><trkpt lat="45.903328464392686" lon="9.331627285422545"><ele>209.0</ele><time>2026-05-03T11:14:14.002Z</time></trkpt><trkpt lat="45.903431349543276" lon="9.331586487674162"><ele>209.0</ele><time>2026-05-03T11:14:15.002Z</time></trkpt><trkpt lat="45.90353690379457" lon="9.331534769344229"><ele>209.25</ele><time>2026-05-03T11:14:16.002Z</time></trkpt><trkpt lat="45.90363880529452" lon="9.331462623560656"><ele>209.5</ele><time>2026-05-03T11:14:17.002Z</time></trkpt><trkpt lat="45.903728977364096" lon="9.33138069618591"><ele>209.75</ele><time>2026-05-03T11:14:18.002Z</time></trkpt><trkpt lat="45.90381309776444" lon="9.331281586823051"><ele>210.0</ele><time>2026-05-03T11:14:19.002Z</time></trkpt><trkpt lat="45.90390866120364" lon="9.331155937299084"><ele>210.0</ele><time>2026-05-03T11:14:20.002Z</time></trkpt><trkpt lat="45.90400258721831" lon="9.331029435119312"><ele>210.0</ele><time>2026-05-03T11:14:21.002Z</time></trkpt><trkpt lat="45.90408529003094" lon="9.330892487360169"><ele>210.0</ele><time>2026-05-03T11:14:22.002Z</time></trkpt><trkpt lat="45.90417579310654" lon="9.330774654558121"><ele>210.0</ele><time>2026-05-03T11:14:23.002Z</time></trkpt><trkpt lat="45.904258319302635" lon="9.33067058470548"><ele>209.8</ele><time>2026-05-03T11:14:24.003Z</time></trkpt><trkpt lat="45.90432814317099" lon="9.330580233030194"><ele>209.6</ele><time>2026-05-03T11:14:25.003Z</time></trkpt><trkpt lat="45.90440499035095" lon="9.33046124492714"><ele>209.39999999999998</ele><time>2026-05-03T11:14:26.003Z</time></trkpt><trkpt lat="45.90448380249555" lon="9.330351830129356"><ele>209.2</ele><time>2026-05-03T11:14:27.003Z</time></trkpt><trkpt lat="45.90456441975123" lon="9.330236005823663"><ele>209.0</ele><time>2026-05-03T11:14:28.003Z</time></trkpt><trkpt lat="45.904650098178216" lon="9.330107629826726"><ele>209.0</ele><time>2026-05-03T11:14:29.003Z</time></trkpt><trkpt lat="45.90474305220294" lon="9.329976918894436"><ele>209.0</ele><time>2026-05-03T11:14:30.003Z</time></trkpt><trkpt lat="45.90482862243927" lon="9.329860105405553"><ele>209.0</ele><time>2026-05-03T11:14:31.003Z</time></trkpt><trkpt lat="45.90491124986141" lon="9.329754006714163"><ele>209.0</ele><time>2026-05-03T11:14:32.003Z</time></trkpt><trkpt lat="45.90499090134531" lon="9.329646612592601"><ele>209.0</ele><time>2026-05-03T11:14:33.003Z</time></trkpt><trkpt lat="45.9050702334565" lon="9.329537149825104"><ele>209.0</ele><time>2026-05-03T11:14:34.003Z</time></trkpt><trkpt lat="45.90515439020881" lon="9.329436076651412"><ele>209.0</ele><time>2026-05-03T11:14:35.003Z</time></trkpt><trkpt lat="45.90524129120107" lon="9.329330239893446"><ele>209.0</ele><time>2026-05-03T11:14:36.003Z</time></trkpt><trkpt lat="45.90533739405613" lon="9.329223695943437"><ele>209.0</ele><time>2026-05-03T11:14:37.003Z</time></trkpt><trkpt lat="45.90543980990384" lon="9.329120548172773"><ele>209.0</ele><time>2026-05-03T11:14:38.003Z</time></trkpt><trkpt lat="45.90554905724432" lon="9.329018556759504"><ele>209.0</ele><time>2026-05-03T11:14:39.003Z</time></trkpt><trkpt lat="45.90565975044817" lon="9.328932641018683"><ele>209.0</ele><time>2026-05-03T11:14:40.003Z</time></trkpt><trkpt lat="45.9057748817074" lon="9.328860326370025"><ele>208.25</ele><time>2026-05-03T11:14:41.003Z</time></trkpt><trkpt lat="45.90589561740639" lon="9.328792185304746"><ele>207.5</ele><time>2026-05-03T11:14:42.003Z</time></trkpt><trkpt lat="45.906024098968835" lon="9.328732780959617"><ele>206.75</ele><time>2026-05-03T11:14:43.003Z</time></trkpt><trkpt lat="45.90615449780008" lon="9.328677636208665"><ele>206.0</ele><time>2026-05-03T11:14:44.003Z</time></trkpt><trkpt lat="45.906289710990436" lon="9.328626651056739"><ele>206.0</ele><time>2026-05-03T11:14:45.003Z</time></trkpt><trkpt lat="45.90642316121169" lon="9.328573762876216"><ele>206.0</ele><time>2026-05-03T11:14:46.003Z</time></trkpt><trkpt lat="45.90655656832832" lon="9.328522827375918"><ele>206.0</ele><time>2026-05-03T11:14:47.003Z</time></trkpt><trkpt lat="45.90669043394196" lon="9.328477481381368"><ele>206.0</ele><time>2026-05-03T11:14:48.003Z</time></trkpt><trkpt lat="45.906823566161734" lon="9.328429003387491"><ele>207.75</ele><time>2026-05-03T11:14:49.003Z</time></trkpt><trkpt lat="45.906957085325004" lon="9.32837791569201"><ele>209.5</ele><time>2026-05-03T11:14:50.003Z</time></trkpt><trkpt lat="45.90709082978028" lon="9.328326849059575"><ele>211.25</ele><time>2026-05-03T11:14:51.003Z</time></trkpt><trkpt lat="45.90722507547768" lon="9.328278178988626"><ele>213.0</ele><time>2026-05-03T11:14:52.003Z</time></trkpt><trkpt lat="45.90735535609589" lon="9.32822833194634"><ele>213.0</ele><time>2026-05-03T11:14:53.003Z</time></trkpt><trkpt lat="45.90747523931742" lon="9.328181157704362"><ele>213.0</ele><time>2026-05-03T11:14:54.003Z</time></trkpt><trkpt lat="45.907585178488134" lon="9.328115390595894"><ele>213.0</ele><time>2026-05-03T11:14:55.003Z</time></trkpt><trkpt lat="45.90769397777749" lon="9.328040178790141"><ele>213.0</ele><time>2026-05-03T11:14:56.003Z</time></trkpt><trkpt lat="45.9077926851016" lon="9.327947133087696"><ele>210.75</ele><time>2026-05-03T11:14:57.003Z</time></trkpt><trkpt lat="45.90789127663918" lon="9.327849660586626"><ele>208.5</ele><time>2026-05-03T11:14:58.003Z</time></trkpt><trkpt lat="45.90799393360184" lon="9.327753507124214"><ele>206.25</ele><time>2026-05-03T11:14:59.003Z</time></trkpt><trkpt lat="45.90810147179408" lon="9.327668111249745"><ele>204.0</ele><time>2026-05-03T11:15:00.003Z</time></trkpt><trkpt lat="45.90821343549985" lon="9.3275919343488"><ele>204.0</ele><time>2026-05-03T11:15:01.004Z</time></trkpt><trkpt lat="45.908330243383254" lon="9.327533820112192"><ele>204.0</ele><time>2026-05-03T11:15:02.004Z</time></trkpt><trkpt lat="45.90847061135704" lon="9.327486340383539"><ele>204.0</ele><time>2026-05-03T11:15:03.004Z</time></trkpt><trkpt lat="45.908605398829245" lon="9.327454758030779"><ele>204.0</ele><time>2026-05-03T11:15:04.004Z</time></trkpt><trkpt lat="45.90873220228268" lon="9.327419909756546"><ele>203.25</ele><time>2026-05-03T11:15:05.004Z</time></trkpt><trkpt lat="45.90885519706707" lon="9.327369399084755"><ele>202.5</ele><time>2026-05-03T11:15:06Z</time></trkpt><trkpt lat="45.9089702334179" lon="9.327300212948133"><ele>201.75</ele><time>2026-05-03T11:15:07Z</time></trkpt><trkpt lat="45.90908036410113" lon="9.327217200159058"><ele>201.0</ele><time>2026-05-03T11:15:08Z</time></trkpt><trkpt lat="45.909183620478714" lon="9.327120879917908"><ele>202.75</ele><time>2026-05-03T11:15:09Z</time></trkpt><trkpt lat="45.90928312319122" lon="9.327016410493208"><ele>204.5</ele><time>2026-05-03T11:15:10Z</time></trkpt><trkpt lat="45.909383918756795" lon="9.326909771726896"><ele>206.25</ele><time>2026-05-03T11:15:11Z</time></trkpt><trkpt lat="45.90948643639415" lon="9.326804663341823"><ele>208.0</ele><time>2026-05-03T11:15:12Z</time></trkpt><trkpt lat="45.90958995674324" lon="9.326708096229478"><ele>208.0</ele><time>2026-05-03T11:15:13Z</time></trkpt><trkpt lat="45.909696654235155" lon="9.326618583473675"><ele>208.0</ele><time>2026-05-03T11:15:14Z</time></trkpt><trkpt lat="45.909805907902744" lon="9.326537748148189"><ele>208.0</ele><time>2026-05-03T11:15:15Z</time></trkpt><trkpt lat="45.90991710190884" lon="9.326476857637696"><ele>208.0</ele><time>2026-05-03T11:15:16Z</time></trkpt><trkpt lat="45.91003460470058" lon="9.326436172921891"><ele>209.0</ele><time>2026-05-03T11:15:17Z</time></trkpt><trkpt lat="45.91015885372516" lon="9.326406100543608"><ele>210.0</ele><time>2026-05-03T11:15:18Z</time></trkpt><trkpt lat="45.91028350379984" lon="9.326368615393651"><ele>211.0</ele><time>2026-05-03T11:15:19Z</time></trkpt><trkpt lat="45.91041155508364" lon="9.326327842362021"><ele>212.0</ele><time>2026-05-03T11:15:20Z</time></trkpt><trkpt lat="45.91052669310302" lon="9.326288622411376"><ele>212.0</ele><time>2026-05-03T11:15:21Z</time></trkpt><trkpt lat="45.91063719795011" lon="9.326245959746323"><ele>212.0</ele><time>2026-05-03T11:15:22Z</time></trkpt><trkpt lat="45.91073773934171" lon="9.326186724479152"><ele>212.0</ele><time>2026-05-03T11:15:23Z</time></trkpt><trkpt lat="45.9108295874847" lon="9.326108518011376"><ele>212.0</ele><time>2026-05-03T11:15:24Z</time></trkpt><trkpt lat="45.91091480471474" lon="9.326008759101612"><ele>212.0</ele><time>2026-05-03T11:15:25.001Z</time></trkpt><trkpt lat="45.910987344441864" lon="9.325888976885693"><ele>212.8</ele><time>2026-05-03T11:15:26.001Z</time></trkpt><trkpt lat="45.91104665636177" lon="9.325754799841508"><ele>213.6</ele><time>2026-05-03T11:15:27.001Z</time></trkpt><trkpt lat="45.9110981688676" lon="9.325612948423915"><ele>214.40000000000003</ele><time>2026-05-03T11:15:28.001Z</time></trkpt><trkpt lat="45.91114703966621" lon="9.325468518498939"><ele>215.20000000000002</ele><time>2026-05-03T11:15:29.001Z</time></trkpt><trkpt lat="45.91119490770063" lon="9.325327691246914"><ele>216.0</ele><time>2026-05-03T11:15:30.001Z</time></trkpt><trkpt lat="45.9112465891077" lon="9.325183901682431"><ele>216.0</ele><time>2026-05-03T11:15:31.001Z</time></trkpt><trkpt lat="45.911294980742596" lon="9.325038957652126"><ele>216.0</ele><time>2026-05-03T11:15:32.001Z</time></trkpt><trkpt lat="45.91135603754945" lon="9.324906772441276"><ele>216.0</ele><time>2026-05-03T11:15:33.001Z</time></trkpt><trkpt lat="45.911418841920444" lon="9.324765925916832"><ele>216.0</ele><time>2026-05-03T11:15:34.001Z</time></trkpt><trkpt lat="45.911492945096924" lon="9.324634380873803"><ele>213.25</ele><time>2026-05-03T11:15:35.001Z</time></trkpt><trkpt lat="45.91158185010351" lon="9.324525620764774"><ele>210.5</ele><time>2026-05-03T11:15:36.001Z</time></trkpt><trkpt lat="45.91168288772681" lon="9.324431990335112"><ele>207.75</ele><time>2026-05-03T11:15:37.001Z</time></trkpt><trkpt lat="45.911806918373074" lon="9.32437192236856"><ele>205.0</ele><time>2026-05-03T11:15:38.001Z</time></trkpt><trkpt lat="45.91193608813344" lon="9.324313616060799"><ele>205.0</ele><time>2026-05-03T11:15:39.001Z</time></trkpt><trkpt lat="45.91205713362223" lon="9.324251351353292"><ele>205.0</ele><time>2026-05-03T11:15:40.001Z</time></trkpt><trkpt lat="45.91217452491758" lon="9.324189058681085"><ele>205.0</ele><time>2026-05-03T11:15:41.001Z</time></trkpt><trkpt lat="45.912288211427224" lon="9.324124724539772"><ele>205.0</ele><time>2026-05-03T11:15:42.001Z</time></trkpt><trkpt lat="45.91240180782211" lon="9.324060783148584"><ele>205.0</ele><time>2026-05-03T11:15:43.001Z</time></trkpt><trkpt lat="45.912515835486474" lon="9.323999642614336"><ele>205.0</ele><time>2026-05-03T11:15:44.001Z</time></trkpt><trkpt lat="45.91262705610988" lon="9.323940593591335"><ele>205.0</ele><time>2026-05-03T11:15:45.001Z</time></trkpt><trkpt lat="45.912740807471806" lon="9.323880779491223"><ele>205.0</ele><time>2026-05-03T11:15:46.001Z</time></trkpt><trkpt lat="45.91285712837032" lon="9.323820998571493"><ele>205.0</ele><time>2026-05-03T11:15:47.001Z</time></trkpt><trkpt lat="45.91297422280651" lon="9.32376249190669"><ele>205.0</ele><time>2026-05-03T11:15:48.001Z</time></trkpt><trkpt lat="45.9130906874516" lon="9.323701085187672"><ele>205.0</ele><time>2026-05-03T11:15:49.001Z</time></trkpt><trkpt lat="45.913207320691896" lon="9.323641305070975"><ele>205.0</ele><time>2026-05-03T11:15:50.001Z</time></trkpt><trkpt lat="45.91332178486782" lon="9.323580775526032"><ele>206.5</ele><time>2026-05-03T11:15:51.001Z</time></trkpt><trkpt lat="45.91343190593087" lon="9.323523016051817"><ele>208.0</ele><time>2026-05-03T11:15:52.001Z</time></trkpt><trkpt lat="45.91354101916153" lon="9.323465818442354"><ele>209.5</ele><time>2026-05-03T11:15:53.001Z</time></trkpt><trkpt lat="45.91364696283883" lon="9.323407354417263"><ele>211.0</ele><time>2026-05-03T11:15:54.001Z</time></trkpt><trkpt lat="45.913748895841294" lon="9.323358002254635"><ele>211.0</ele><time>2026-05-03T11:15:55.001Z</time></trkpt><trkpt lat="45.913829169663195" lon="9.323315343565218"><ele>211.0</ele><time>2026-05-03T11:15:56.001Z</time></trkpt><trkpt lat="45.9138937434071" lon="9.323279246998649"><ele>211.0</ele><time>2026-05-03T11:15:57.001Z</time></trkpt><trkpt lat="45.913996174080154" lon="9.323227468500287"><ele>211.0</ele><time>2026-05-03T11:15:59.001Z</time></trkpt><trkpt lat="45.91409657799101" lon="9.32321442841153"><ele>211.0</ele><time>2026-05-03T11:16:01.002Z</time></trkpt><trkpt lat="45.91420153019466" lon="9.323230688211394"><ele>211.20000000000002</ele><time>2026-05-03T11:16:03.002Z</time></trkpt><trkpt lat="45.91428184729475" lon="9.323217947872097"><ele>211.4</ele><time>2026-05-03T11:16:05.002Z</time></trkpt><trkpt lat="45.91434199796657" lon="9.323137287024474"><ele>211.6</ele><time>2026-05-03T11:16:07.002Z</time></trkpt><trkpt lat="45.914340239151755" lon="9.322977132841888"><ele>211.8</ele><time>2026-05-03T11:16:09.002Z</time></trkpt><trkpt lat="45.914448218371916" lon="9.322932575661746"><ele>212.0</ele><time>2026-05-03T11:16:11.002Z</time></trkpt><trkpt lat="45.914387097872144" lon="9.322712120420913"><ele>212.00000000000003</ele><time>2026-05-03T11:16:12.002Z</time></trkpt><trkpt lat="45.914434585234105" lon="9.322618421779712"><ele>212.0</ele><time>2026-05-03T11:16:13.002Z</time></trkpt><trkpt lat="45.91448437984427" lon="9.322521006093487"><ele>212.0</ele><time>2026-05-03T11:16:14.002Z</time></trkpt><trkpt lat="45.91453932295175" lon="9.322414396622525"><ele>212.0</ele><time>2026-05-03T11:16:15.002Z</time></trkpt><trkpt lat="45.914594223458536" lon="9.322308678955814"><ele>212.00000000000003</ele><time>2026-05-03T11:16:16.002Z</time></trkpt><trkpt lat="45.91465086320164" lon="9.322201148322316"><ele>212.0</ele><time>2026-05-03T11:16:17.002Z</time></trkpt><trkpt lat="45.914710439914714" lon="9.322095444909788"><ele>212.33333333333334</ele><time>2026-05-03T11:16:18.002Z</time></trkpt><trkpt lat="45.914767935815995" lon="9.32199155784971"><ele>212.66666666666669</ele><time>2026-05-03T11:16:19.002Z</time></trkpt><trkpt lat="45.91482500670816" lon="9.321891486643034"><ele>213.0</ele><time>2026-05-03T11:16:20.002Z</time></trkpt><trkpt lat="45.91487907959729" lon="9.3217944629819"><ele>213.33333333333331</ele><time>2026-05-03T11:16:21.002Z</time></trkpt><trkpt lat="45.914931558384225" lon="9.321696986948648"><ele>213.66666666666666</ele><time>2026-05-03T11:16:22.002Z</time></trkpt><trkpt lat="45.91498326274271" lon="9.321594674747782"><ele>214.0</ele><time>2026-05-03T11:16:23.002Z</time></trkpt><trkpt lat="45.915034251236996" lon="9.321489287298705"><ele>213.83333333333331</ele><time>2026-05-03T11:16:24.002Z</time></trkpt><trkpt lat="45.91508313016498" lon="9.321390802167834"><ele>213.66666666666666</ele><time>2026-05-03T11:16:25.002Z</time></trkpt><trkpt lat="45.91513036118485" lon="9.321297570145395"><ele>213.5</ele><time>2026-05-03T11:16:26.002Z</time></trkpt><trkpt lat="45.915180287522695" lon="9.321202609301316"><ele>213.33333333333331</ele><time>2026-05-03T11:16:27.002Z</time></trkpt><trkpt lat="45.91522742504929" lon="9.321105381975833"><ele>213.16666666666666</ele><time>2026-05-03T11:16:28.002Z</time></trkpt><trkpt lat="45.91528585831246" lon="9.321005475650248"><ele>213.0</ele><time>2026-05-03T11:16:29.002Z</time></trkpt><trkpt lat="45.915356282728986" lon="9.3208982433047"><ele>213.0</ele><time>2026-05-03T11:16:30.002Z</time></trkpt><trkpt lat="45.915420956007125" lon="9.320770249984731"><ele>213.0</ele><time>2026-05-03T11:16:31.002Z</time></trkpt><trkpt lat="45.91551241706601" lon="9.320639490270093"><ele>213.0</ele><time>2026-05-03T11:16:32.002Z</time></trkpt><trkpt lat="45.91560153052108" lon="9.320471303546494"><ele>213.0</ele><time>2026-05-03T11:16:33.002Z</time></trkpt><trkpt lat="45.91570404606205" lon="9.32027646378902"><ele>213.0</ele><time>2026-05-03T11:16:34.002Z</time></trkpt><trkpt lat="45.91580470258116" lon="9.320081314738985"><ele>213.0</ele><time>2026-05-03T11:16:35.002Z</time></trkpt><trkpt lat="45.91589069862661" lon="9.319896207417791"><ele>213.0</ele><time>2026-05-03T11:16:36.002Z</time></trkpt><trkpt lat="45.91597376796905" lon="9.319744629580393"><ele>213.4</ele><time>2026-05-03T11:16:37.003Z</time></trkpt><trkpt lat="45.91604433693209" lon="9.31960463711202"><ele>213.8</ele><time>2026-05-03T11:16:38.003Z</time></trkpt><trkpt lat="45.916101995466526" lon="9.319490867137826"><ele>214.2</ele><time>2026-05-03T11:16:39.003Z</time></trkpt><trkpt lat="45.91615509298261" lon="9.319391714653904"><ele>214.6</ele><time>2026-05-03T11:16:41.003Z</time></trkpt><trkpt lat="45.916242116535834" lon="9.319242301698683"><ele>215.0</ele><time>2026-05-03T11:17:12Z</time></trkpt><trkpt lat="45.91630587975054" lon="9.31911606609403"><ele>215.0</ele><time>2026-05-03T11:17:13Z</time></trkpt><trkpt lat="45.916384756451535" lon="9.318970175104699"><ele>215.0</ele><time>2026-05-03T11:17:14Z</time></trkpt><trkpt lat="45.91646514425611" lon="9.318850353217323"><ele>215.0</ele><time>2026-05-03T11:17:15Z</time></trkpt><trkpt lat="45.9165742010321" lon="9.318734159460426"><ele>215.0</ele><time>2026-05-03T11:17:16Z</time></trkpt><trkpt lat="45.9167103293604" lon="9.318617194449153"><ele>216.0</ele><time>2026-05-03T11:17:17Z</time></trkpt><trkpt lat="45.91684523706414" lon="9.318504336251571"><ele>217.0</ele><time>2026-05-03T11:17:18Z</time></trkpt><trkpt lat="45.91697802259487" lon="9.318387174008757"><ele>218.0</ele><time>2026-05-03T11:17:19Z</time></trkpt><trkpt lat="45.91710978244541" lon="9.31824921782784"><ele>218.0</ele><time>2026-05-03T11:17:20Z</time></trkpt><trkpt lat="45.917239451859786" lon="9.318074603783932"><ele>218.0</ele><time>2026-05-03T11:17:21Z</time></trkpt><trkpt lat="45.917362146688276" lon="9.317864019512431"><ele>218.0</ele><time>2026-05-03T11:17:22Z</time></trkpt><trkpt lat="45.917477216971896" lon="9.317648574404426"><ele>217.66666666666669</ele><time>2026-05-03T11:17:23Z</time></trkpt><trkpt lat="45.917586804367204" lon="9.317443568596888"><ele>217.33333333333331</ele><time>2026-05-03T11:17:24Z</time></trkpt><trkpt lat="45.91770638044986" lon="9.317225679807407"><ele>217.0</ele><time>2026-05-03T11:17:25Z</time></trkpt><trkpt lat="45.91783574101071" lon="9.317002173830783"><ele>217.0</ele><time>2026-05-03T11:17:26Z</time></trkpt><trkpt lat="45.917965081537716" lon="9.316789330299905"><ele>217.0</ele><time>2026-05-03T11:17:27Z</time></trkpt><trkpt lat="45.91809031518338" lon="9.316595451382327"><ele>217.0</ele><time>2026-05-03T11:17:28Z</time></trkpt><trkpt lat="45.918207244326595" lon="9.316416541553567"><ele>216.75</ele><time>2026-05-03T11:17:29Z</time></trkpt><trkpt lat="45.918317298401725" lon="9.31625317224543"><ele>216.5</ele><time>2026-05-03T11:17:30Z</time></trkpt><trkpt lat="45.918420409114525" lon="9.316104591994495"><ele>216.25</ele><time>2026-05-03T11:17:31Z</time></trkpt><trkpt lat="45.91850908503181" lon="9.315953405350005"><ele>216.0</ele><time>2026-05-03T11:17:32Z</time></trkpt><trkpt lat="45.91861562567194" lon="9.315844154688685"><ele>215.60000000000002</ele><time>2026-05-03T11:17:33Z</time></trkpt><trkpt lat="45.91870119505866" lon="9.31572903367648"><ele>215.20000000000002</ele><time>2026-05-03T11:17:34Z</time></trkpt><trkpt lat="45.91877090452237" lon="9.315618255140807"><ele>214.79999999999998</ele><time>2026-05-03T11:17:35Z</time></trkpt><trkpt lat="45.91882292169338" lon="9.315503083706854"><ele>214.39999999999998</ele><time>2026-05-03T11:17:36Z</time></trkpt><trkpt lat="45.9189088009101" lon="9.315388576291337"><ele>214.0</ele><time>2026-05-03T11:17:37Z</time></trkpt><trkpt lat="45.91901453632691" lon="9.315276044476537"><ele>214.0</ele><time>2026-05-03T11:17:38Z</time></trkpt><trkpt lat="45.919140857449655" lon="9.315183571961532"><ele>214.0</ele><time>2026-05-03T11:17:39Z</time></trkpt><trkpt lat="45.91926553800921" lon="9.315064336161964"><ele>214.0</ele><time>2026-05-03T11:17:40Z</time></trkpt><trkpt lat="45.91938934774056" lon="9.314911478179669"><ele>214.33333333333331</ele><time>2026-05-03T11:17:41.001Z</time></trkpt><trkpt lat="45.91953093511791" lon="9.314762510339868"><ele>214.66666666666669</ele><time>2026-05-03T11:17:42.001Z</time></trkpt><trkpt lat="45.91969355601109" lon="9.31460166935263"><ele>215.0</ele><time>2026-05-03T11:17:43.001Z</time></trkpt><trkpt lat="45.919856426388094" lon="9.31444594777139"><ele>215.0</ele><time>2026-05-03T11:17:44.001Z</time></trkpt><trkpt lat="45.92003608779951" lon="9.314283988531258"><ele>215.0</ele><time>2026-05-03T11:17:45.001Z</time></trkpt><trkpt lat="45.920219263483915" lon="9.314115665217152"><ele>215.0</ele><time>2026-05-03T11:17:46.001Z</time></trkpt><trkpt lat="45.92038667077426" lon="9.313958086932251"><ele>215.33333333333334</ele><time>2026-05-03T11:17:47.001Z</time></trkpt><trkpt lat="45.92054348447383" lon="9.313809348333127"><ele>215.66666666666669</ele><time>2026-05-03T11:17:48.001Z</time></trkpt><trkpt lat="45.9207069605164" lon="9.313654927238849"><ele>216.0</ele><time>2026-05-03T11:17:49.001Z</time></trkpt><trkpt lat="45.92088306670194" lon="9.313500590142645"><ele>217.33333333333331</ele><time>2026-05-03T11:17:50.001Z</time></trkpt><trkpt lat="45.9210500329389" lon="9.313360865715183"><ele>218.66666666666666</ele><time>2026-05-03T11:17:51.001Z</time></trkpt><trkpt lat="45.921221241927604" lon="9.3132696443604"><ele>220.0</ele><time>2026-05-03T11:17:52.001Z</time></trkpt><trkpt lat="45.92137444133688" lon="9.313157377617063"><ele>220.0</ele><time>2026-05-03T11:17:53.001Z</time></trkpt><trkpt lat="45.921533153627216" lon="9.313088818222928"><ele>220.0</ele><time>2026-05-03T11:17:54.001Z</time></trkpt><trkpt lat="45.921694684633835" lon="9.313034285301166"><ele>220.0</ele><time>2026-05-03T11:17:55.001Z</time></trkpt><trkpt lat="45.92185233278751" lon="9.312996687138039"><ele>219.0</ele><time>2026-05-03T11:17:56.001Z</time></trkpt><trkpt lat="45.9220144159387" lon="9.312961574773153"><ele>218.0</ele><time>2026-05-03T11:17:57.001Z</time></trkpt><trkpt lat="45.92219123736865" lon="9.312915455056539"><ele>217.0</ele><time>2026-05-03T11:17:58.001Z</time></trkpt><trkpt lat="45.922368725691406" lon="9.312868615281856"><ele>217.0</ele><time>2026-05-03T11:17:59.001Z</time></trkpt><trkpt lat="45.922546217588774" lon="9.31283087836044"><ele>217.0</ele><time>2026-05-03T11:18:00.001Z</time></trkpt><trkpt lat="45.92272616637329" lon="9.312779311895065"><ele>217.0</ele><time>2026-05-03T11:18:01.001Z</time></trkpt><trkpt lat="45.92290732386951" lon="9.312732471650024"><ele>217.66666666666666</ele><time>2026-05-03T11:18:02.001Z</time></trkpt><trkpt lat="45.923096538300285" lon="9.312685771045112"><ele>218.33333333333331</ele><time>2026-05-03T11:18:03.001Z</time></trkpt><trkpt lat="45.92327703007593" lon="9.312631770527059"><ele>219.0</ele><time>2026-05-03T11:18:04.001Z</time></trkpt><trkpt lat="45.923455342833265" lon="9.312586091086146"><ele>219.33333333333331</ele><time>2026-05-03T11:18:05.001Z</time></trkpt><trkpt lat="45.923615965030976" lon="9.312545091381027"><ele>219.66666666666666</ele><time>2026-05-03T11:18:06.001Z</time></trkpt><trkpt lat="45.92377484376967" lon="9.312505458030321"><ele>220.0</ele><time>2026-05-03T11:18:07.001Z</time></trkpt><trkpt lat="45.92394218390708" lon="9.312462208929897"><ele>220.0</ele><time>2026-05-03T11:18:08.001Z</time></trkpt><trkpt lat="45.92409402209472" lon="9.31241864565477"><ele>220.0</ele><time>2026-05-03T11:18:09.001Z</time></trkpt><trkpt lat="45.924258784942595" lon="9.312376330344854"><ele>220.0</ele><time>2026-05-03T11:18:10.001Z</time></trkpt><trkpt lat="45.92440670128833" lon="9.312339174655229"><ele>220.33333333333331</ele><time>2026-05-03T11:18:11.001Z</time></trkpt><trkpt lat="45.92456780597857" lon="9.312293706726404"><ele>220.66666666666669</ele><time>2026-05-03T11:18:12.001Z</time></trkpt><trkpt lat="45.924727096467905" lon="9.31224555515923"><ele>221.0</ele><time>2026-05-03T11:18:13.001Z</time></trkpt><trkpt lat="45.92488161956056" lon="9.312204063290523"><ele>219.66666666666669</ele><time>2026-05-03T11:18:14.002Z</time></trkpt><trkpt lat="45.925051277354235" lon="9.312162793004862"><ele>218.33333333333331</ele><time>2026-05-03T11:18:15.002Z</time></trkpt><trkpt lat="45.92520499449213" lon="9.312121929536893"><ele>217.0</ele><time>2026-05-03T11:18:16.002Z</time></trkpt><trkpt lat="45.92537240516607" lon="9.312080103411095"><ele>217.0</ele><time>2026-05-03T11:18:17.002Z</time></trkpt><trkpt lat="45.92552602872206" lon="9.312046546673972"><ele>217.0</ele><time>2026-05-03T11:18:18.002Z</time></trkpt><trkpt lat="45.92568662267658" lon="9.312005369852793"><ele>217.0</ele><time>2026-05-03T11:18:19.002Z</time></trkpt><trkpt lat="45.92584687440518" lon="9.31197999709245"><ele>215.66666666666666</ele><time>2026-05-03T11:18:20.002Z</time></trkpt><trkpt lat="45.92600423848171" lon="9.311962355214508"><ele>214.33333333333331</ele><time>2026-05-03T11:18:21.002Z</time></trkpt><trkpt lat="45.926162722096564" lon="9.311943843010079"><ele>213.0</ele><time>2026-05-03T11:18:22.002Z</time></trkpt><trkpt lat="45.92632687816109" lon="9.311932048575594"><ele>213.0</ele><time>2026-05-03T11:18:23.002Z</time></trkpt><trkpt lat="45.926497402553885" lon="9.311920359748234"><ele>213.0</ele><time>2026-05-03T11:18:24.002Z</time></trkpt><trkpt lat="45.92665553810127" lon="9.311918445651436"><ele>213.0</ele><time>2026-05-03T11:18:25.002Z</time></trkpt><trkpt lat="45.92682283222334" lon="9.311912517354065"><ele>211.33333333333331</ele><time>2026-05-03T11:18:26.002Z</time></trkpt><trkpt lat="45.9269834041679" lon="9.311918974198305"><ele>209.66666666666666</ele><time>2026-05-03T11:18:27.002Z</time></trkpt><trkpt lat="45.92714377824664" lon="9.311935328106534"><ele>208.0</ele><time>2026-05-03T11:18:28.002Z</time></trkpt><trkpt lat="45.92730181979814" lon="9.31196694516659"><ele>208.0</ele><time>2026-05-03T11:18:29.002Z</time></trkpt><trkpt lat="45.92745293018313" lon="9.312006373017713"><ele>208.0</ele><time>2026-05-03T11:18:30.002Z</time></trkpt><trkpt lat="45.92760715464582" lon="9.312052269509012"><ele>208.0</ele><time>2026-05-03T11:18:31.002Z</time></trkpt><trkpt lat="45.927761316276666" lon="9.312109240494333"><ele>206.33333333333331</ele><time>2026-05-03T11:18:32.002Z</time></trkpt><trkpt lat="45.927914262319305" lon="9.31217304211013"><ele>204.66666666666669</ele><time>2026-05-03T11:18:33.002Z</time></trkpt><trkpt lat="45.92806631225416" lon="9.312242786962257"><ele>203.0</ele><time>2026-05-03T11:18:34.002Z</time></trkpt><trkpt lat="45.928212976290034" lon="9.312298869451965"><ele>205.0</ele><time>2026-05-03T11:18:35.002Z</time></trkpt><trkpt lat="45.92833830413649" lon="9.312362318669893"><ele>207.0</ele><time>2026-05-03T11:18:36.002Z</time></trkpt><trkpt lat="45.92849663009271" lon="9.312426900087514"><ele>209.0</ele><time>2026-05-03T11:18:37.002Z</time></trkpt><trkpt lat="45.92864552016911" lon="9.312490005962395"><ele>209.0</ele><time>2026-05-03T11:18:38.002Z</time></trkpt><trkpt lat="45.92879202224498" lon="9.312557086979387"><ele>209.0</ele><time>2026-05-03T11:18:39.002Z</time></trkpt><trkpt lat="45.92894316725399" lon="9.312616804938996"><ele>209.0</ele><time>2026-05-03T11:18:40.002Z</time></trkpt><trkpt lat="45.92909178066213" lon="9.312681028576092"><ele>210.25</ele><time>2026-05-03T11:18:41.002Z</time></trkpt><trkpt lat="45.92923472438172" lon="9.312741209364908"><ele>211.5</ele><time>2026-05-03T11:18:42.002Z</time></trkpt><trkpt lat="45.929367705385374" lon="9.312783747244746"><ele>212.75</ele><time>2026-05-03T11:18:43.002Z</time></trkpt><trkpt lat="45.9294954520963" lon="9.312809679714512"><ele>214.0</ele><time>2026-05-03T11:18:44.002Z</time></trkpt><trkpt lat="45.92962360964307" lon="9.312795617448593"><ele>214.0</ele><time>2026-05-03T11:18:45.002Z</time></trkpt><trkpt lat="45.929755921831806" lon="9.31275387259036"><ele>214.0</ele><time>2026-05-03T11:18:46.002Z</time></trkpt><trkpt lat="45.929884789433224" lon="9.312684958840642"><ele>214.0</ele><time>2026-05-03T11:18:47.002Z</time></trkpt><trkpt lat="45.93000726380826" lon="9.312588480685438"><ele>214.0</ele><time>2026-05-03T11:18:48.002Z</time></trkpt><trkpt lat="45.930122637693" lon="9.312475512070103"><ele>212.0</ele><time>2026-05-03T11:18:49.003Z</time></trkpt><trkpt lat="45.93023065641466" lon="9.312353164455217"><ele>210.0</ele><time>2026-05-03T11:18:50.003Z</time></trkpt><trkpt lat="45.93033337949609" lon="9.312233919291465"><ele>208.0</ele><time>2026-05-03T11:18:51.003Z</time></trkpt><trkpt lat="45.93043816608321" lon="9.312133636097505"><ele>206.0</ele><time>2026-05-03T11:18:52.003Z</time></trkpt><trkpt lat="45.93054001173917" lon="9.312048514918557"><ele>206.0</ele><time>2026-05-03T11:18:53.003Z</time></trkpt><trkpt lat="45.93065016998599" lon="9.311981372638252"><ele>206.0</ele><time>2026-05-03T11:18:54.003Z</time></trkpt><trkpt lat="45.93075831387939" lon="9.311928965434221"><ele>206.0</ele><time>2026-05-03T11:18:55.003Z</time></trkpt><trkpt lat="45.93087068395688" lon="9.311878542251463"><ele>206.0</ele><time>2026-05-03T11:18:56.003Z</time></trkpt><trkpt lat="45.93098227136294" lon="9.311825692856544"><ele>207.25</ele><time>2026-05-03T11:18:57.003Z</time></trkpt><trkpt lat="45.931091027734205" lon="9.311775346960342"><ele>208.5</ele><time>2026-05-03T11:18:58.003Z</time></trkpt><trkpt lat="45.93120186485964" lon="9.311719888427698"><ele>209.75</ele><time>2026-05-03T11:18:59.003Z</time></trkpt><trkpt lat="45.93131384565901" lon="9.311670472455916"><ele>211.0</ele><time>2026-05-03T11:19:00.003Z</time></trkpt><trkpt lat="45.93142878493864" lon="9.311642428108122"><ele>211.0</ele><time>2026-05-03T11:19:01.003Z</time></trkpt><trkpt lat="45.93154539521644" lon="9.31164402932834"><ele>211.0</ele><time>2026-05-03T11:19:02.003Z</time></trkpt><trkpt lat="45.93166005500858" lon="9.311677753521085"><ele>211.0</ele><time>2026-05-03T11:19:03.003Z</time></trkpt><trkpt lat="45.93177096442272" lon="9.311730038113636"><ele>211.0</ele><time>2026-05-03T11:19:04.003Z</time></trkpt><trkpt lat="45.93187930853611" lon="9.311811372080944"><ele>212.0</ele><time>2026-05-03T11:19:05.003Z</time></trkpt><trkpt lat="45.93197066851548" lon="9.311915305571421"><ele>213.0</ele><time>2026-05-03T11:19:06.003Z</time></trkpt><trkpt lat="45.93205563056889" lon="9.312040602908487"><ele>214.0</ele><time>2026-05-03T11:19:07.003Z</time></trkpt><trkpt lat="45.93214725203805" lon="9.312158764355003"><ele>215.0</ele><time>2026-05-03T11:19:08.003Z</time></trkpt><trkpt lat="45.93224955380271" lon="9.312270147529105"><ele>215.0</ele><time>2026-05-03T11:19:09.003Z</time></trkpt><trkpt lat="45.93235474938793" lon="9.312376580546651"><ele>215.0</ele><time>2026-05-03T11:19:10.003Z</time></trkpt><trkpt lat="45.932464957025" lon="9.312465605365126"><ele>215.0</ele><time>2026-05-03T11:19:11.003Z</time></trkpt><trkpt lat="45.93258517896028" lon="9.312528756110899"><ele>215.0</ele><time>2026-05-03T11:19:12.003Z</time></trkpt><trkpt lat="45.93271414837145" lon="9.31256583947146"><ele>213.0</ele><time>2026-05-03T11:19:13.003Z</time></trkpt><trkpt lat="45.93285423717626" lon="9.312585920779831"><ele>211.0</ele><time>2026-05-03T11:19:14.003Z</time></trkpt><trkpt lat="45.93300848320808" lon="9.31258331453483"><ele>209.0</ele><time>2026-05-03T11:19:15.003Z</time></trkpt><trkpt lat="45.93316486258927" lon="9.312577954347077"><ele>209.0</ele><time>2026-05-03T11:19:16.003Z</time></trkpt><trkpt lat="45.933323535700474" lon="9.312560596933823"><ele>209.0</ele><time>2026-05-03T11:19:17.003Z</time></trkpt><trkpt lat="45.93348897451782" lon="9.312560900035118"><ele>209.0</ele><time>2026-05-03T11:19:17.999Z</time></trkpt><trkpt lat="45.93365527170082" lon="9.312566031577765"><ele>208.66666666666669</ele><time>2026-05-03T11:19:18.999Z</time></trkpt><trkpt lat="45.93382371117464" lon="9.31257404607586"><ele>208.33333333333331</ele><time>2026-05-03T11:19:19.999Z</time></trkpt><trkpt lat="45.93398457397195" lon="9.312586509780518"><ele>208.0</ele><time>2026-05-03T11:19:20.999Z</time></trkpt><trkpt lat="45.93414923822046" lon="9.312615735530798"><ele>206.0</ele><time>2026-05-03T11:19:21.999Z</time></trkpt><trkpt lat="45.93430934460936" lon="9.3126523385842"><ele>204.0</ele><time>2026-05-03T11:19:22.999Z</time></trkpt><trkpt lat="45.93447625719345" lon="9.312688443048698"><ele>202.0</ele><time>2026-05-03T11:19:23.999Z</time></trkpt><trkpt lat="45.93464353151861" lon="9.31272608044491"><ele>202.0</ele><time>2026-05-03T11:19:24.999Z</time></trkpt><trkpt lat="45.934798767307406" lon="9.31275701645564"><ele>202.0</ele><time>2026-05-03T11:19:26Z</time></trkpt><trkpt lat="45.93496035325041" lon="9.312794829321843"><ele>202.0</ele><time>2026-05-03T11:19:27Z</time></trkpt><trkpt lat="45.93512385713079" lon="9.312829335263148"><ele>201.33333333333331</ele><time>2026-05-03T11:19:28Z</time></trkpt><trkpt lat="45.93528736654958" lon="9.31286566359505"><ele>200.66666666666669</ele><time>2026-05-03T11:19:29Z</time></trkpt><trkpt lat="45.9354414856957" lon="9.312893176866277"><ele>200.0</ele><time>2026-05-03T11:19:30Z</time></trkpt><trkpt lat="45.93559809052773" lon="9.31291958840367"><ele>200.0</ele><time>2026-05-03T11:19:31Z</time></trkpt><trkpt lat="45.93575749678813" lon="9.312924107252167"><ele>200.0</ele><time>2026-05-03T11:19:32Z</time></trkpt><trkpt lat="45.93591155090502" lon="9.31291716835487"><ele>200.0</ele><time>2026-05-03T11:19:33Z</time></trkpt><trkpt lat="45.93606856687732" lon="9.312902868326061"><ele>200.33333333333334</ele><time>2026-05-03T11:19:34Z</time></trkpt><trkpt lat="45.93622737588629" lon="9.312885878583451"><ele>200.66666666666669</ele><time>2026-05-03T11:19:35Z</time></trkpt><trkpt lat="45.93638183525416" lon="9.312871705499967"><ele>201.0</ele><time>2026-05-03T11:19:36Z</time></trkpt><trkpt lat="45.936530651844585" lon="9.312859786356434"><ele>201.0</ele><time>2026-05-03T11:19:37Z</time></trkpt><trkpt lat="45.93668171374854" lon="9.312852053873923"><ele>201.0</ele><time>2026-05-03T11:19:38Z</time></trkpt><trkpt lat="45.93683003264629" lon="9.312841957579057"><ele>201.0</ele><time>2026-05-03T11:19:39Z</time></trkpt><trkpt lat="45.936978285427955" lon="9.312829921710525"><ele>201.0</ele><time>2026-05-03T11:19:40Z</time></trkpt><trkpt lat="45.93711898396178" lon="9.312819218603174"><ele>201.0</ele><time>2026-05-03T11:19:41Z</time></trkpt><trkpt lat="45.93724218972545" lon="9.312813183861536"><ele>201.0</ele><time>2026-05-03T11:19:42Z</time></trkpt><trkpt lat="45.93734452456243" lon="9.312809254417877"><ele>201.0</ele><time>2026-05-03T11:19:43Z</time></trkpt><trkpt lat="45.93742684504453" lon="9.31280691407749"><ele>201.0</ele><time>2026-05-03T11:19:44Z</time></trkpt><trkpt lat="45.937490919493" lon="9.312804917508508"><ele>201.0</ele><time>2026-05-03T11:19:45Z</time></trkpt><trkpt lat="45.93756567656843" lon="9.312801439433269"><ele>201.0</ele><time>2026-05-03T11:19:47Z</time></trkpt><trkpt lat="45.93763050675753" lon="9.31280151337696"><ele>201.75</ele><time>2026-05-03T11:19:51Z</time></trkpt><trkpt lat="45.93776261750325" lon="9.31278971835667"><ele>202.5</ele><time>2026-05-03T11:20:20.001Z</time></trkpt><trkpt lat="45.937875614130064" lon="9.312784170545788"><ele>203.25</ele><time>2026-05-03T11:20:21.001Z</time></trkpt><trkpt lat="45.938021309367464" lon="9.312766140058441"><ele>204.0</ele><time>2026-05-03T11:20:22.001Z</time></trkpt><trkpt lat="45.93817790881799" lon="9.312739571455104"><ele>204.0</ele><time>2026-05-03T11:20:23.001Z</time></trkpt><trkpt lat="45.93835585785546" lon="9.312712971158462"><ele>204.0</ele><time>2026-05-03T11:20:24.002Z</time></trkpt><trkpt lat="45.93855021628742" lon="9.312687751044614"><ele>204.0</ele><time>2026-05-03T11:20:25.002Z</time></trkpt><trkpt lat="45.938761575780525" lon="9.312656148763699"><ele>204.0</ele><time>2026-05-03T11:20:26.002Z</time></trkpt><trkpt lat="45.93897603006009" lon="9.312630635141836"><ele>204.0</ele><time>2026-05-03T11:20:27.002Z</time></trkpt><trkpt lat="45.93917650859357" lon="9.312613354891015"><ele>204.0</ele><time>2026-05-03T11:20:28.002Z</time></trkpt><trkpt lat="45.9393576102936" lon="9.312592201626789"><ele>204.0</ele><time>2026-05-03T11:20:29.002Z</time></trkpt><trkpt lat="45.9395238320716" lon="9.312599195997151"><ele>204.0</ele><time>2026-05-03T11:20:30.002Z</time></trkpt><trkpt lat="45.939683957571624" lon="9.312624482337052"><ele>204.0</ele><time>2026-05-03T11:20:31.002Z</time></trkpt><trkpt lat="45.93984984628417" lon="9.312660004393598"><ele>204.0</ele><time>2026-05-03T11:20:32.002Z</time></trkpt><trkpt lat="45.93999711819499" lon="9.31269357181679"><ele>204.0</ele><time>2026-05-03T11:20:33.002Z</time></trkpt><trkpt lat="45.9401209449447" lon="9.312704432348522"><ele>204.0</ele><time>2026-05-03T11:20:34.002Z</time></trkpt><trkpt lat="45.94027182376964" lon="9.312662810261237"><ele>204.0</ele><time>2026-05-03T11:20:35.002Z</time></trkpt><trkpt lat="45.94043684534245" lon="9.312567964186343"><ele>210.0</ele><time>2026-05-03T11:20:36.002Z</time></trkpt><trkpt lat="45.94059464960795" lon="9.312441210414455"><ele>216.0</ele><time>2026-05-03T11:20:37.002Z</time></trkpt><trkpt lat="45.940748872451714" lon="9.312296195230887"><ele>222.0</ele><time>2026-05-03T11:20:38.002Z</time></trkpt><trkpt lat="45.94091220063747" lon="9.312142958868636"><ele>222.0</ele><time>2026-05-03T11:20:39.002Z</time></trkpt><trkpt lat="45.941091750848734" lon="9.311987757087483"><ele>222.0</ele><time>2026-05-03T11:20:40.002Z</time></trkpt><trkpt lat="45.94127892075407" lon="9.311824456589962"><ele>222.0</ele><time>2026-05-03T11:20:41.002Z</time></trkpt><trkpt lat="45.941456178880344" lon="9.31166665354833"><ele>222.0</ele><time>2026-05-03T11:20:42.002Z</time></trkpt><trkpt lat="45.94163770098494" lon="9.311505192596414"><ele>222.0</ele><time>2026-05-03T11:20:43.002Z</time></trkpt><trkpt lat="45.941827593558884" lon="9.31134114252715"><ele>222.0</ele><time>2026-05-03T11:20:44.002Z</time></trkpt><trkpt lat="45.94201848146044" lon="9.311164129829079"><ele>222.0</ele><time>2026-05-03T11:20:45.002Z</time></trkpt><trkpt lat="45.942220884800044" lon="9.310986888498153"><ele>222.0</ele><time>2026-05-03T11:20:46.002Z</time></trkpt><trkpt lat="45.94242175171896" lon="9.310814443543029"><ele>221.33333333333331</ele><time>2026-05-03T11:20:47.002Z</time></trkpt><trkpt lat="45.94260108716616" lon="9.310657743579204"><ele>220.66666666666666</ele><time>2026-05-03T11:20:48.002Z</time></trkpt><trkpt lat="45.94275911395197" lon="9.310513789639474"><ele>220.0</ele><time>2026-05-03T11:20:49.002Z</time></trkpt><trkpt lat="45.94291654081367" lon="9.310373634694633"><ele>220.0</ele><time>2026-05-03T11:20:50.002Z</time></trkpt><trkpt lat="45.943069344128325" lon="9.31023547340786"><ele>220.0</ele><time>2026-05-03T11:20:51.002Z</time></trkpt><trkpt lat="45.94321046832748" lon="9.31010280728673"><ele>220.0</ele><time>2026-05-03T11:20:52.002Z</time></trkpt><trkpt lat="45.943351822603915" lon="9.309971454737077"><ele>221.66666666666666</ele><time>2026-05-03T11:20:53.002Z</time></trkpt><trkpt lat="45.94348887164982" lon="9.30985437828815"><ele>223.33333333333331</ele><time>2026-05-03T11:20:54.002Z</time></trkpt><trkpt lat="45.94363394942397" lon="9.309727369984753"><ele>225.0</ele><time>2026-05-03T11:20:55.002Z</time></trkpt><trkpt lat="45.943784385052176" lon="9.309599368805292"><ele>225.0</ele><time>2026-05-03T11:20:56.002Z</time></trkpt><trkpt lat="45.94392925524941" lon="9.309462995689039"><ele>225.0</ele><time>2026-05-03T11:20:57.003Z</time></trkpt><trkpt lat="45.94407761486081" lon="9.30935913601463"><ele>225.0</ele><time>2026-05-03T11:20:58.003Z</time></trkpt><trkpt lat="45.94421405166809" lon="9.309250529643656"><ele>228.25</ele><time>2026-05-03T11:20:59.003Z</time></trkpt><trkpt lat="45.94433182180836" lon="9.309136707001858"><ele>231.5</ele><time>2026-05-03T11:21:00.003Z</time></trkpt><trkpt lat="45.94445304431603" lon="9.309053394854816"><ele>234.75</ele><time>2026-05-03T11:21:01.003Z</time></trkpt><trkpt lat="45.9445495361242" lon="9.308947209631953"><ele>238.0</ele><time>2026-05-03T11:21:02.003Z</time></trkpt><trkpt lat="45.944653378324425" lon="9.308796698480123"><ele>238.0</ele><time>2026-05-03T11:21:03.003Z</time></trkpt><trkpt lat="45.94473987301904" lon="9.308606947161843"><ele>238.0</ele><time>2026-05-03T11:21:04.003Z</time></trkpt><trkpt lat="45.944810729990195" lon="9.308432947318817"><ele>238.0</ele><time>2026-05-03T11:21:05.003Z</time></trkpt><trkpt lat="45.9448780445332" lon="9.308256377312315"><ele>238.0</ele><time>2026-05-03T11:21:06.003Z</time></trkpt><trkpt lat="45.94493886515905" lon="9.308109222760605"><ele>230.8</ele><time>2026-05-03T11:21:07.003Z</time></trkpt><trkpt lat="45.94498012197175" lon="9.30802150806937"><ele>223.60000000000002</ele><time>2026-05-03T11:21:08.003Z</time></trkpt><trkpt lat="45.94505844397781" lon="9.307882256215654"><ele>216.39999999999998</ele><time>2026-05-03T11:21:09.003Z</time></trkpt><trkpt lat="45.94512789740389" lon="9.30777898578406"><ele>209.2</ele><time>2026-05-03T11:21:10.003Z</time></trkpt><trkpt lat="45.945219558010756" lon="9.307671187500466"><ele>202.0</ele><time>2026-05-03T11:21:11.003Z</time></trkpt><trkpt lat="45.94533315978478" lon="9.307546090775647"><ele>215.25</ele><time>2026-05-03T11:21:12.003Z</time></trkpt><trkpt lat="45.94544219517944" lon="9.307426522172031"><ele>228.5</ele><time>2026-05-03T11:21:13.003Z</time></trkpt><trkpt lat="45.94554558415573" lon="9.307312094676153"><ele>241.75</ele><time>2026-05-03T11:21:14.003Z</time></trkpt><trkpt lat="45.945641776305834" lon="9.307199193875006"><ele>255.0</ele><time>2026-05-03T11:21:15.003Z</time></trkpt><trkpt lat="45.945713587957556" lon="9.307065802055172"><ele>255.0</ele><time>2026-05-03T11:21:16.003Z</time></trkpt><trkpt lat="45.94582013413825" lon="9.306910832472251"><ele>255.0</ele><time>2026-05-03T11:21:17.003Z</time></trkpt><trkpt lat="45.94589210501193" lon="9.306745253521454"><ele>255.0</ele><time>2026-05-03T11:21:18.003Z</time></trkpt><trkpt lat="45.94594385051173" lon="9.306536485987712"><ele>255.0</ele><time>2026-05-03T11:21:19.003Z</time></trkpt><trkpt lat="45.945988874269695" lon="9.306385471348376"><ele>260.75</ele><time>2026-05-03T11:21:20.003Z</time></trkpt><trkpt lat="45.94606240603728" lon="9.306217485674159"><ele>266.5</ele><time>2026-05-03T11:21:21.003Z</time></trkpt><trkpt lat="45.946125074970475" lon="9.306056740854997"><ele>272.25</ele><time>2026-05-03T11:21:22.003Z</time></trkpt><trkpt lat="45.94618578986336" lon="9.30587855866164"><ele>278.0</ele><time>2026-05-03T11:21:23.003Z</time></trkpt><trkpt lat="45.94621993262447" lon="9.305691943698156"><ele>265.0</ele><time>2026-05-03T11:21:24Z</time></trkpt><trkpt lat="45.946339453846754" lon="9.305536503782355"><ele>252.0</ele><time>2026-05-03T11:21:25Z</time></trkpt><trkpt lat="45.94640910681734" lon="9.305373078078107"><ele>239.0</ele><time>2026-05-03T11:21:26Z</time></trkpt><trkpt lat="45.946505700560685" lon="9.305246899213097"><ele>226.0</ele><time>2026-05-03T11:21:27Z</time></trkpt><trkpt lat="45.946665583614916" lon="9.305130842243083"><ele>243.66666666666666</ele><time>2026-05-03T11:21:28Z</time></trkpt><trkpt lat="45.94686260537541" lon="9.305061578138979"><ele>261.3333333333333</ele><time>2026-05-03T11:21:29Z</time></trkpt><trkpt lat="45.94704315943537" lon="9.304945822318452"><ele>279.0</ele><time>2026-05-03T11:21:30Z</time></trkpt><trkpt lat="45.94720785311621" lon="9.304842807656467"><ele>272.0</ele><time>2026-05-03T11:21:31Z</time></trkpt><trkpt lat="45.947364108250405" lon="9.304745354790386"><ele>265.0</ele><time>2026-05-03T11:21:32Z</time></trkpt><trkpt lat="45.94751506326939" lon="9.304646157913282"><ele>258.0</ele><time>2026-05-03T11:21:33Z</time></trkpt><trkpt lat="45.9476352552718" lon="9.304553513183368"><ele>258.0</ele><time>2026-05-03T11:21:34Z</time></trkpt><trkpt lat="45.94773830800929" lon="9.304432038686878"><ele>258.0</ele><time>2026-05-03T11:21:35Z</time></trkpt><trkpt lat="45.947839460130545" lon="9.304292030214183"><ele>258.0</ele><time>2026-05-03T11:21:36Z</time></trkpt><trkpt lat="45.94789384007774" lon="9.304147527234187"><ele>258.0</ele><time>2026-05-03T11:21:37Z</time></trkpt><trkpt lat="45.948028031682746" lon="9.303881860084783"><ele>246.0</ele><time>2026-05-03T11:21:38Z</time></trkpt><trkpt lat="45.948144951977774" lon="9.303712980934902"><ele>234.0</ele><time>2026-05-03T11:21:39Z</time></trkpt><trkpt lat="45.9482846340434" lon="9.303509550505387"><ele>222.0</ele><time>2026-05-03T11:21:40Z</time></trkpt><trkpt lat="45.948410719843174" lon="9.303325258852654"><ele>222.0</ele><time>2026-05-03T11:21:41Z</time></trkpt><trkpt lat="45.948529401280815" lon="9.303182827513252"><ele>222.0</ele><time>2026-05-03T11:21:42Z</time></trkpt><trkpt lat="45.94866161938119" lon="9.303057160603768"><ele>222.0</ele><time>2026-05-03T11:21:43Z</time></trkpt><trkpt lat="45.948826001120715" lon="9.302956497021222"><ele>219.33333333333331</ele><time>2026-05-03T11:21:44Z</time></trkpt><trkpt lat="45.94898304407375" lon="9.302850614858011"><ele>216.66666666666666</ele><time>2026-05-03T11:21:45Z</time></trkpt><trkpt lat="45.94912859985814" lon="9.302675776131283"><ele>214.0</ele><time>2026-05-03T11:21:46.001Z</time></trkpt><trkpt lat="45.94927717623534" lon="9.30248457792476"><ele>214.0</ele><time>2026-05-03T11:21:47.001Z</time></trkpt><trkpt lat="45.9494097954523" lon="9.302296074790286"><ele>214.0</ele><time>2026-05-03T11:21:48.001Z</time></trkpt><trkpt lat="45.94951926204888" lon="9.302145427962978"><ele>214.0</ele><time>2026-05-03T11:21:49.001Z</time></trkpt><trkpt lat="45.94962246932047" lon="9.302025111189558"><ele>212.5</ele><time>2026-05-03T11:21:50.001Z</time></trkpt><trkpt lat="45.94974037465148" lon="9.301921504377757"><ele>211.0</ele><time>2026-05-03T11:21:51.001Z</time></trkpt><trkpt lat="45.94985107408844" lon="9.301846283756252"><ele>209.5</ele><time>2026-05-03T11:21:52.001Z</time></trkpt><trkpt lat="45.94995709865535" lon="9.301789497794946"><ele>208.0</ele><time>2026-05-03T11:21:53.001Z</time></trkpt><trkpt lat="45.950032826655914" lon="9.301741587261871"><ele>208.83333333333331</ele><time>2026-05-03T11:21:54.001Z</time></trkpt><trkpt lat="45.950127840248754" lon="9.301682302534358"><ele>209.66666666666666</ele><time>2026-05-03T11:21:56.001Z</time></trkpt><trkpt lat="45.9501837077174" lon="9.30162642983969"><ele>210.5</ele><time>2026-05-03T11:21:58.001Z</time></trkpt><trkpt lat="45.95024525912773" lon="9.301589207314214"><ele>211.33333333333331</ele><time>2026-05-03T11:22:00.001Z</time></trkpt><trkpt lat="45.950326708622335" lon="9.301540216186702"><ele>212.16666666666666</ele><time>2026-05-03T11:22:03.001Z</time></trkpt><trkpt lat="45.95041013351328" lon="9.301503139875324"><ele>213.0</ele><time>2026-05-03T11:22:06.001Z</time></trkpt><trkpt lat="45.95047721263397" lon="9.301493748893265"><ele>213.0</ele><time>2026-05-03T11:22:09.001Z</time></trkpt><trkpt lat="45.95061427113092" lon="9.30144827919298"><ele>213.0</ele><time>2026-05-03T11:22:55.003Z</time></trkpt><trkpt lat="45.95071376799901" lon="9.301418269912164"><ele>213.0</ele><time>2026-05-03T11:22:56.003Z</time></trkpt><trkpt lat="45.95083823966494" lon="9.301391032623531"><ele>213.0</ele><time>2026-05-03T11:22:57.003Z</time></trkpt><trkpt lat="45.95098571473445" lon="9.301368369723988"><ele>210.0</ele><time>2026-05-03T11:22:58.003Z</time></trkpt><trkpt lat="45.951148240935396" lon="9.301343191350217"><ele>207.0</ele><time>2026-05-03T11:22:59.003Z</time></trkpt><trkpt lat="45.95132756704118" lon="9.301307140870698"><ele>204.0</ele><time>2026-05-03T11:23:00.003Z</time></trkpt><trkpt lat="45.951520160444" lon="9.301278688885192"><ele>204.0</ele><time>2026-05-03T11:23:01.003Z</time></trkpt><trkpt lat="45.95171389415942" lon="9.30125114748132"><ele>204.0</ele><time>2026-05-03T11:23:02.003Z</time></trkpt><trkpt lat="45.9519186065967" lon="9.301214153315884"><ele>204.0</ele><time>2026-05-03T11:23:03.003Z</time></trkpt><trkpt lat="45.95210246870965" lon="9.301179320944707"><ele>204.0</ele><time>2026-05-03T11:23:04.003Z</time></trkpt><trkpt lat="45.952266075556615" lon="9.301144504994555"><ele>204.0</ele><time>2026-05-03T11:23:05.003Z</time></trkpt><trkpt lat="45.95240901478936" lon="9.30112827119759"><ele>204.0</ele><time>2026-05-03T11:23:06.003Z</time></trkpt><trkpt lat="45.95253859865424" lon="9.301130204979799"><ele>204.0</ele><time>2026-05-03T11:23:07.003Z</time></trkpt><trkpt lat="45.95267257722405" lon="9.30115983005066"><ele>203.33333333333331</ele><time>2026-05-03T11:23:08.003Z</time></trkpt><trkpt lat="45.95282357913993" lon="9.301221836572209"><ele>202.66666666666666</ele><time>2026-05-03T11:23:09.003Z</time></trkpt><trkpt lat="45.952987300040164" lon="9.301311605490433"><ele>202.0</ele><time>2026-05-03T11:23:10.003Z</time></trkpt><trkpt lat="45.95315213881254" lon="9.301387632067078"><ele>205.66666666666666</ele><time>2026-05-03T11:23:11.003Z</time></trkpt><trkpt lat="45.95334123053686" lon="9.301474990083353"><ele>209.33333333333331</ele><time>2026-05-03T11:23:12.003Z</time></trkpt><trkpt lat="45.95353857811157" lon="9.301560759855798"><ele>213.0</ele><time>2026-05-03T11:23:13.003Z</time></trkpt><trkpt lat="45.9537311870867" lon="9.301646391407749"><ele>213.0</ele><time>2026-05-03T11:23:14.003Z</time></trkpt><trkpt lat="45.953904435220274" lon="9.301716718770399"><ele>213.0</ele><time>2026-05-03T11:23:15.003Z</time></trkpt><trkpt lat="45.954068812507586" lon="9.301787518588787"><ele>213.0</ele><time>2026-05-03T11:23:16.003Z</time></trkpt><trkpt lat="45.95422126169613" lon="9.301843919361044"><ele>211.0</ele><time>2026-05-03T11:23:17.003Z</time></trkpt><trkpt lat="45.95438623460858" lon="9.301879126101994"><ele>209.0</ele><time>2026-05-03T11:23:18.003Z</time></trkpt><trkpt lat="45.95456923987773" lon="9.301889568814497"><ele>207.0</ele><time>2026-05-03T11:23:19.003Z</time></trkpt><trkpt lat="45.95475433059127" lon="9.30187942968276"><ele>207.0</ele><time>2026-05-03T11:23:20.003Z</time></trkpt><trkpt lat="45.954934218401625" lon="9.301863398531632"><ele>207.0</ele><time>2026-05-03T11:23:21.003Z</time></trkpt><trkpt lat="45.95509672026657" lon="9.301856978870273"><ele>207.0</ele><time>2026-05-03T11:23:22.004Z</time></trkpt><trkpt lat="45.9552430224337" lon="9.301865219648587"><ele>206.0</ele><time>2026-05-03T11:23:23.004Z</time></trkpt><trkpt lat="45.95539368305411" lon="9.301899929552699"><ele>205.0</ele><time>2026-05-03T11:23:24.004Z</time></trkpt><trkpt lat="45.955532915762774" lon="9.30193351458508"><ele>204.0</ele><time>2026-05-03T11:23:25.004Z</time></trkpt><trkpt lat="45.95567818652246" lon="9.301965103582674"><ele>203.0</ele><time>2026-05-03T11:23:26.004Z</time></trkpt><trkpt lat="45.95581703457023" lon="9.301992017755456"><ele>202.25</ele><time>2026-05-03T11:23:27.004Z</time></trkpt><trkpt lat="45.95594508511897" lon="9.302012025235681"><ele>201.5</ele><time>2026-05-03T11:23:28.004Z</time></trkpt><trkpt lat="45.95606655215724" lon="9.302029803998378"><ele>200.75</ele><time>2026-05-03T11:23:29.004Z</time></trkpt><trkpt lat="45.95618208428108" lon="9.302045769733292"><ele>200.0</ele><time>2026-05-03T11:23:30.001Z</time></trkpt><trkpt lat="45.95629276354057" lon="9.302057336874206"><ele>200.0</ele><time>2026-05-03T11:23:31.001Z</time></trkpt><trkpt lat="45.95640274607686" lon="9.302057968542613"><ele>200.0</ele><time>2026-05-03T11:23:32.001Z</time></trkpt><trkpt lat="45.95651739586765" lon="9.302044438435004"><ele>200.0</ele><time>2026-05-03T11:23:33.001Z</time></trkpt><trkpt lat="45.95663244229173" lon="9.302035335707213"><ele>200.0</ele><time>2026-05-03T11:23:34.001Z</time></trkpt><trkpt lat="45.956745729272725" lon="9.30202518897286"><ele>202.5</ele><time>2026-05-03T11:23:35.001Z</time></trkpt><trkpt lat="45.9568567123016" lon="9.302017935926614"><ele>205.0</ele><time>2026-05-03T11:23:36.001Z</time></trkpt><trkpt lat="45.95697049536958" lon="9.302005760976376"><ele>207.5</ele><time>2026-05-03T11:23:37.001Z</time></trkpt><trkpt lat="45.95708264579666" lon="9.301995359659927"><ele>210.0</ele><time>2026-05-03T11:23:38.001Z</time></trkpt><trkpt lat="45.95719749519484" lon="9.301986068216134"><ele>210.0</ele><time>2026-05-03T11:23:39.001Z</time></trkpt><trkpt lat="45.957309356311455" lon="9.301975165692065"><ele>210.0</ele><time>2026-05-03T11:23:40.001Z</time></trkpt><trkpt lat="45.95742469680855" lon="9.301965060745317"><ele>210.0</ele><time>2026-05-03T11:23:41.001Z</time></trkpt><trkpt lat="45.95754807003667" lon="9.301954723209288"><ele>210.0</ele><time>2026-05-03T11:23:42.001Z</time></trkpt><trkpt lat="45.957671713132996" lon="9.3019341467784"><ele>209.0</ele><time>2026-05-03T11:23:43.001Z</time></trkpt><trkpt lat="45.957798113288845" lon="9.301906811617874"><ele>208.0</ele><time>2026-05-03T11:23:44.001Z</time></trkpt><trkpt lat="45.957929049369" lon="9.301885234694105"><ele>207.0</ele><time>2026-05-03T11:23:45.001Z</time></trkpt><trkpt lat="45.958071170431325" lon="9.3018686814656"><ele>206.0</ele><time>2026-05-03T11:23:46.001Z</time></trkpt><trkpt lat="45.958221292651096" lon="9.301840858755869"><ele>206.0</ele><time>2026-05-03T11:23:47.001Z</time></trkpt><trkpt lat="45.95836220127145" lon="9.301806672911248"><ele>206.0</ele><time>2026-05-03T11:23:48.001Z</time></trkpt><trkpt lat="45.958511550147826" lon="9.30178362473786"><ele>206.0</ele><time>2026-05-03T11:23:49.001Z</time></trkpt><trkpt lat="45.95866127315523" lon="9.30175649777484"><ele>206.0</ele><time>2026-05-03T11:23:50.001Z</time></trkpt><trkpt lat="45.958808872978345" lon="9.301727388576525"><ele>207.5</ele><time>2026-05-03T11:23:51.001Z</time></trkpt><trkpt lat="45.95895737158209" lon="9.301692671975747"><ele>209.0</ele><time>2026-05-03T11:23:52.001Z</time></trkpt><trkpt lat="45.95910428554246" lon="9.301671362752232"><ele>210.5</ele><time>2026-05-03T11:23:53.001Z</time></trkpt><trkpt lat="45.95925469030075" lon="9.301648481836155"><ele>212.0</ele><time>2026-05-03T11:23:54.001Z</time></trkpt><trkpt lat="45.95939102609783" lon="9.301630221416008"><ele>212.0</ele><time>2026-05-03T11:23:55.001Z</time></trkpt><trkpt lat="45.95952216382465" lon="9.301602487657245"><ele>212.0</ele><time>2026-05-03T11:23:56.001Z</time></trkpt><trkpt lat="45.959651574042404" lon="9.301594525189852"><ele>212.0</ele><time>2026-05-03T11:23:57.001Z</time></trkpt><trkpt lat="45.95979135879074" lon="9.301606167059116"><ele>212.0</ele><time>2026-05-03T11:23:58.001Z</time></trkpt><trkpt lat="45.95994044060658" lon="9.301618525316487"><ele>212.0</ele><time>2026-05-03T11:23:59.001Z</time></trkpt><trkpt lat="45.96009388453583" lon="9.301634579873284"><ele>212.0</ele><time>2026-05-03T11:24:00.001Z</time></trkpt><trkpt lat="45.96024694514946" lon="9.301646240795115"><ele>212.0</ele><time>2026-05-03T11:24:01.001Z</time></trkpt><trkpt lat="45.96039806866162" lon="9.301647288573207"><ele>212.0</ele><time>2026-05-03T11:24:02.001Z</time></trkpt><trkpt lat="45.96053656559848" lon="9.30164381741542"><ele>212.0</ele><time>2026-05-03T11:24:03.001Z</time></trkpt><trkpt lat="45.96067023402179" lon="9.301642271393574"><ele>212.0</ele><time>2026-05-03T11:24:04.001Z</time></trkpt><trkpt lat="45.960819470616784" lon="9.301623076047104"><ele>212.0</ele><time>2026-05-03T11:24:05.001Z</time></trkpt><trkpt lat="45.96096506863725" lon="9.301600870939728"><ele>213.0</ele><time>2026-05-03T11:24:06.001Z</time></trkpt><trkpt lat="45.96109976794082" lon="9.30157796167389"><ele>214.0</ele><time>2026-05-03T11:24:07.001Z</time></trkpt><trkpt lat="45.96122787257785" lon="9.301559115044611"><ele>215.0</ele><time>2026-05-03T11:24:08.001Z</time></trkpt><trkpt lat="45.96135287376147" lon="9.30154154949438"><ele>216.0</ele><time>2026-05-03T11:24:09.001Z</time></trkpt><trkpt lat="45.961470935255434" lon="9.301523429926078"><ele>216.0</ele><time>2026-05-03T11:24:10.001Z</time></trkpt><trkpt lat="45.96158646825628" lon="9.301507993644481"><ele>216.0</ele><time>2026-05-03T11:24:11.001Z</time></trkpt><trkpt lat="45.96170025186151" lon="9.301497448906176"><ele>216.0</ele><time>2026-05-03T11:24:12.001Z</time></trkpt><trkpt lat="45.9618126220771" lon="9.301477060405553"><ele>216.0</ele><time>2026-05-03T11:24:13.001Z</time></trkpt><trkpt lat="45.961924492254134" lon="9.301462368469457"><ele>217.20000000000002</ele><time>2026-05-03T11:24:14.001Z</time></trkpt><trkpt lat="45.96202913680117" lon="9.301455123713708"><ele>218.40000000000003</ele><time>2026-05-03T11:24:15.001Z</time></trkpt><trkpt lat="45.96213383784025" lon="9.301452116148164"><ele>219.6</ele><time>2026-05-03T11:24:16.001Z</time></trkpt><trkpt lat="45.96224501871046" lon="9.301459494901808"><ele>220.8</ele><time>2026-05-03T11:24:17.001Z</time></trkpt><trkpt lat="45.962359694632404" lon="9.30148230859562"><ele>222.0</ele><time>2026-05-03T11:24:18.001Z</time></trkpt><trkpt lat="45.96248790901282" lon="9.301519890694074"><ele>221.5</ele><time>2026-05-03T11:24:19.001Z</time></trkpt><trkpt lat="45.962616922388776" lon="9.301570943964181"><ele>221.0</ele><time>2026-05-03T11:24:20.001Z</time></trkpt><trkpt lat="45.962760390949356" lon="9.301628754947801"><ele>220.5</ele><time>2026-05-03T11:24:21.001Z</time></trkpt><trkpt lat="45.96291020419581" lon="9.30168825985725"><ele>220.0</ele><time>2026-05-03T11:24:22.001Z</time></trkpt><trkpt lat="45.96306570077705" lon="9.301743794627859"><ele>220.0</ele><time>2026-05-03T11:24:23.001Z</time></trkpt><trkpt lat="45.96323609316563" lon="9.301808854419964"><ele>220.0</ele><time>2026-05-03T11:24:24.002Z</time></trkpt><trkpt lat="45.96341623398479" lon="9.301876175143951"><ele>220.0</ele><time>2026-05-03T11:24:25.002Z</time></trkpt><trkpt lat="45.9636034865698" lon="9.301945914451881"><ele>217.0</ele><time>2026-05-03T11:24:26.002Z</time></trkpt><trkpt lat="45.96380125211186" lon="9.302008350997532"><ele>214.0</ele><time>2026-05-03T11:24:27.002Z</time></trkpt><trkpt lat="45.96400883386455" lon="9.302080098696148"><ele>211.0</ele><time>2026-05-03T11:24:28.002Z</time></trkpt><trkpt lat="45.96422303297202" lon="9.302148915395142"><ele>211.33333333333331</ele><time>2026-05-03T11:24:29.002Z</time></trkpt><trkpt lat="45.96440757005462" lon="9.302228035786689"><ele>211.66666666666669</ele><time>2026-05-03T11:24:30.002Z</time></trkpt><trkpt lat="45.964577312598934" lon="9.302290802831742"><ele>212.0</ele><time>2026-05-03T11:24:31.002Z</time></trkpt><trkpt lat="45.96473113091017" lon="9.302350665878484"><ele>212.0</ele><time>2026-05-03T11:24:32.002Z</time></trkpt><trkpt lat="45.9648693968333" lon="9.302428076299304"><ele>212.0</ele><time>2026-05-03T11:24:33.002Z</time></trkpt><trkpt lat="45.96500256251056" lon="9.302516744696705"><ele>212.0</ele><time>2026-05-03T11:24:34.002Z</time></trkpt><trkpt lat="45.96514182946551" lon="9.302631594854189"><ele>210.75</ele><time>2026-05-03T11:24:35.002Z</time></trkpt><trkpt lat="45.96526923544722" lon="9.302739383698887"><ele>209.5</ele><time>2026-05-03T11:24:36.002Z</time></trkpt><trkpt lat="45.96539224277726" lon="9.302846775564372"><ele>208.25</ele><time>2026-05-03T11:24:37.002Z</time></trkpt><trkpt lat="45.96551678940947" lon="9.302937352602314"><ele>207.0</ele><time>2026-05-03T11:24:38.002Z</time></trkpt><trkpt lat="45.965624837917396" lon="9.303027595022284"><ele>206.5</ele><time>2026-05-03T11:24:39.002Z</time></trkpt><trkpt lat="45.96573723038135" lon="9.303121369119667"><ele>206.0</ele><time>2026-05-03T11:24:40.002Z</time></trkpt><trkpt lat="45.9658543027158" lon="9.303218486619318"><ele>205.5</ele><time>2026-05-03T11:24:41.002Z</time></trkpt><trkpt lat="45.965976271315135" lon="9.303315353975277"><ele>205.0</ele><time>2026-05-03T11:24:42.002Z</time></trkpt><trkpt lat="45.96610150504304" lon="9.30341651148243"><ele>205.0</ele><time>2026-05-03T11:24:43.002Z</time></trkpt><trkpt lat="45.966238478511286" lon="9.303525242818896"><ele>205.0</ele><time>2026-05-03T11:24:44.002Z</time></trkpt><trkpt lat="45.966382582407455" lon="9.303634597051202"><ele>205.0</ele><time>2026-05-03T11:24:45.002Z</time></trkpt><trkpt lat="45.966524574991254" lon="9.303707951834136"><ele>205.0</ele><time>2026-05-03T11:24:46.002Z</time></trkpt><trkpt lat="45.966673560701416" lon="9.303749369541652"><ele>205.0</ele><time>2026-05-03T11:24:47.002Z</time></trkpt><trkpt lat="45.96684442150448" lon="9.303756961240742"><ele>205.0</ele><time>2026-05-03T11:24:48.002Z</time></trkpt><trkpt lat="45.967016610676055" lon="9.30372646892432"><ele>206.0</ele><time>2026-05-03T11:24:49.002Z</time></trkpt><trkpt lat="45.96719338754119" lon="9.30366175232114"><ele>207.0</ele><time>2026-05-03T11:24:50.002Z</time></trkpt><trkpt lat="45.967368958047665" lon="9.303566723533844"><ele>208.0</ele><time>2026-05-03T11:24:51.002Z</time></trkpt><trkpt lat="45.96754882802051" lon="9.303443700214634"><ele>207.33333333333331</ele><time>2026-05-03T11:24:52.002Z</time></trkpt><trkpt lat="45.967732409350674" lon="9.303282712972738"><ele>206.66666666666669</ele><time>2026-05-03T11:24:53.002Z</time></trkpt><trkpt lat="45.96792017494913" lon="9.30310430297228"><ele>206.0</ele><time>2026-05-03T11:24:54.002Z</time></trkpt><trkpt lat="45.96812055446519" lon="9.302920963992323"><ele>206.0</ele><time>2026-05-03T11:24:55.002Z</time></trkpt><trkpt lat="45.96831811589329" lon="9.30275739041695"><ele>206.0</ele><time>2026-05-03T11:24:56.002Z</time></trkpt><trkpt lat="45.96849961070885" lon="9.302619757053186"><ele>206.0</ele><time>2026-05-03T11:24:57.002Z</time></trkpt><trkpt lat="45.96867290336478" lon="9.302495583267552"><ele>206.0</ele><time>2026-05-03T11:24:58.002Z</time></trkpt><trkpt lat="45.968844386862806" lon="9.302380707995269"><ele>206.0</ele><time>2026-05-03T11:24:59.002Z</time></trkpt><trkpt lat="45.96900932361127" lon="9.302267067809645"><ele>206.0</ele><time>2026-05-03T11:25:00.002Z</time></trkpt><trkpt lat="45.96917322471243" lon="9.302128498171392"><ele>211.0</ele><time>2026-05-03T11:25:01.002Z</time></trkpt><trkpt lat="45.969334076451766" lon="9.301945586832776"><ele>216.0</ele><time>2026-05-03T11:25:02.003Z</time></trkpt><trkpt lat="45.969489182640594" lon="9.301754152924893"><ele>221.0</ele><time>2026-05-03T11:25:03.003Z</time></trkpt><trkpt lat="45.96962595975562" lon="9.301589722085964"><ele>221.0</ele><time>2026-05-03T11:25:04.003Z</time></trkpt><trkpt lat="45.96975448034823" lon="9.301443440322624"><ele>221.0</ele><time>2026-05-03T11:25:05.003Z</time></trkpt><trkpt lat="45.969869955022574" lon="9.301318845380042"><ele>221.0</ele><time>2026-05-03T11:25:06.003Z</time></trkpt><trkpt lat="45.96998088006413" lon="9.301194558287632"><ele>221.0</ele><time>2026-05-03T11:25:07.003Z</time></trkpt><trkpt lat="45.97008459998929" lon="9.301082723131215"><ele>219.0</ele><time>2026-05-03T11:25:08.003Z</time></trkpt><trkpt lat="45.97020148856576" lon="9.301002273531637"><ele>217.0</ele><time>2026-05-03T11:25:09.003Z</time></trkpt><trkpt lat="45.97033380394367" lon="9.300954088781602"><ele>215.0</ele><time>2026-05-03T11:25:10.003Z</time></trkpt><trkpt lat="45.970483537471225" lon="9.300920393448658"><ele>213.0</ele><time>2026-05-03T11:25:11.003Z</time></trkpt><trkpt lat="45.97064215788257" lon="9.300882746296322"><ele>213.0</ele><time>2026-05-03T11:25:12.003Z</time></trkpt><trkpt lat="45.970791960968356" lon="9.300815634511231"><ele>213.0</ele><time>2026-05-03T11:25:13.003Z</time></trkpt><trkpt lat="45.9709426068441" lon="9.300707108700902"><ele>213.0</ele><time>2026-05-03T11:25:14.003Z</time></trkpt><trkpt lat="45.97108889560627" lon="9.300574874737288"><ele>211.33333333333331</ele><time>2026-05-03T11:25:15.003Z</time></trkpt><trkpt lat="45.971248522339394" lon="9.300443488380566"><ele>209.66666666666666</ele><time>2026-05-03T11:25:16.003Z</time></trkpt><trkpt lat="45.97141361757901" lon="9.300317718295137"><ele>208.0</ele><time>2026-05-03T11:25:17.003Z</time></trkpt><trkpt lat="45.971594103045796" lon="9.300187797313738"><ele>214.0</ele><time>2026-05-03T11:25:18.003Z</time></trkpt><trkpt lat="45.97177649575852" lon="9.300050567061007"><ele>220.0</ele><time>2026-05-03T11:25:19.003Z</time></trkpt><trkpt lat="45.97195556265244" lon="9.29991660533831"><ele>226.0</ele><time>2026-05-03T11:25:20.003Z</time></trkpt><trkpt lat="45.97213704818379" lon="9.299781064677171"><ele>223.0</ele><time>2026-05-03T11:25:21.003Z</time></trkpt><trkpt lat="45.97232498471214" lon="9.299631760450524"><ele>220.0</ele><time>2026-05-03T11:25:22.003Z</time></trkpt><trkpt lat="45.97250398177014" lon="9.299488250486261"><ele>217.0</ele><time>2026-05-03T11:25:23.003Z</time></trkpt><trkpt lat="45.97266698638907" lon="9.29935453760455"><ele>217.0</ele><time>2026-05-03T11:25:24.003Z</time></trkpt><trkpt lat="45.972825629029906" lon="9.299227344428038"><ele>217.0</ele><time>2026-05-03T11:25:25.003Z</time></trkpt><trkpt lat="45.972983804626885" lon="9.299109037193077"><ele>217.0</ele><time>2026-05-03T11:25:26.003Z</time></trkpt><trkpt lat="45.97314128402454" lon="9.29900218055664"><ele>214.0</ele><time>2026-05-03T11:25:27.003Z</time></trkpt><trkpt lat="45.973304933125846" lon="9.298897756050055"><ele>211.0</ele><time>2026-05-03T11:25:28.003Z</time></trkpt><trkpt lat="45.97347357495464" lon="9.298807111162212"><ele>208.0</ele><time>2026-05-03T11:25:29.003Z</time></trkpt><trkpt lat="45.973644790667834" lon="9.298730654095195"><ele>208.0</ele><time>2026-05-03T11:25:30.003Z</time></trkpt><trkpt lat="45.97381273469047" lon="9.298655900920144"><ele>208.0</ele><time>2026-05-03T11:25:31.003Z</time></trkpt><trkpt lat="45.97397654162712" lon="9.298580171192086"><ele>208.0</ele><time>2026-05-03T11:25:32.003Z</time></trkpt><trkpt lat="45.9741202441247" lon="9.298510796620523"><ele>214.25</ele><time>2026-05-03T11:25:33.003Z</time></trkpt><trkpt lat="45.97425743562812" lon="9.298443809657359"><ele>220.5</ele><time>2026-05-03T11:25:34.003Z</time></trkpt><trkpt lat="45.974385988818625" lon="9.298387966351145"><ele>226.75</ele><time>2026-05-03T11:25:35.003Z</time></trkpt><trkpt lat="45.97451072251829" lon="9.298323882119877"><ele>233.0</ele><time>2026-05-03T11:25:36Z</time></trkpt><trkpt lat="45.974620511069894" lon="9.298232443693193"><ele>233.0</ele><time>2026-05-03T11:25:37Z</time></trkpt><trkpt lat="45.97472712518062" lon="9.298110226482358"><ele>233.0</ele><time>2026-05-03T11:25:38Z</time></trkpt><trkpt lat="45.97482597202593" lon="9.297968034469172"><ele>233.0</ele><time>2026-05-03T11:25:39Z</time></trkpt><trkpt lat="45.974917339704604" lon="9.297798432351625"><ele>233.0</ele><time>2026-05-03T11:25:40Z</time></trkpt><trkpt lat="45.97500420381044" lon="9.297617325598328"><ele>236.66666666666669</ele><time>2026-05-03T11:25:41Z</time></trkpt><trkpt lat="45.97511482207377" lon="9.297456177587971"><ele>240.33333333333331</ele><time>2026-05-03T11:25:42Z</time></trkpt><trkpt lat="45.975240971878506" lon="9.297342281460672"><ele>244.0</ele><time>2026-05-03T11:25:43Z</time></trkpt><trkpt lat="45.97538568179181" lon="9.297249095570963"><ele>233.0</ele><time>2026-05-03T11:25:44Z</time></trkpt><trkpt lat="45.975538559180265" lon="9.297169610037598"><ele>222.0</ele><time>2026-05-03T11:25:45Z</time></trkpt><trkpt lat="45.9756950275392" lon="9.297087782756414"><ele>211.0</ele><time>2026-05-03T11:25:46Z</time></trkpt><trkpt lat="45.97585326354784" lon="9.29699476028412"><ele>219.0</ele><time>2026-05-03T11:25:47Z</time></trkpt><trkpt lat="45.97601131734414" lon="9.2968716112345"><ele>227.0</ele><time>2026-05-03T11:25:48Z</time></trkpt><trkpt lat="45.97615900725089" lon="9.296724926590477"><ele>235.0</ele><time>2026-05-03T11:25:49Z</time></trkpt><trkpt lat="45.976316581210895" lon="9.296564972285584"><ele>235.0</ele><time>2026-05-03T11:25:50Z</time></trkpt><trkpt lat="45.976463191771465" lon="9.296427272260813"><ele>235.0</ele><time>2026-05-03T11:25:51Z</time></trkpt><trkpt lat="45.97659658690015" lon="9.296301518898046"><ele>235.0</ele><time>2026-05-03T11:25:52Z</time></trkpt><trkpt lat="45.97672731955128" lon="9.29618853882123"><ele>229.75</ele><time>2026-05-03T11:25:53.001Z</time></trkpt><trkpt lat="45.97685198774435" lon="9.296113800686621"><ele>224.5</ele><time>2026-05-03T11:25:54.001Z</time></trkpt><trkpt lat="45.976985898685456" lon="9.296084878667601"><ele>219.25</ele><time>2026-05-03T11:25:55.001Z</time></trkpt><trkpt lat="45.977136229414434" lon="9.296094770895412"><ele>214.0</ele><time>2026-05-03T11:25:56.001Z</time></trkpt><trkpt lat="45.977288022537536" lon="9.296146262820784"><ele>214.0</ele><time>2026-05-03T11:25:57.001Z</time></trkpt><trkpt lat="45.9774327659728" lon="9.29624028488651"><ele>214.0</ele><time>2026-05-03T11:25:58.001Z</time></trkpt><trkpt lat="45.9775730212933" lon="9.296371951527583"><ele>214.0</ele><time>2026-05-03T11:25:59.001Z</time></trkpt><trkpt lat="45.9777001164894" lon="9.2964819374453"><ele>212.75</ele><time>2026-05-03T11:26:00.001Z</time></trkpt><trkpt lat="45.97781304481534" lon="9.296593709733108"><ele>211.5</ele><time>2026-05-03T11:26:01.001Z</time></trkpt><trkpt lat="45.97791174222463" lon="9.296715031104519"><ele>210.25</ele><time>2026-05-03T11:26:02.001Z</time></trkpt><trkpt lat="45.97800320695126" lon="9.296858421147725"><ele>209.0</ele><time>2026-05-03T11:26:03.001Z</time></trkpt><trkpt lat="45.978081189703374" lon="9.297003632649663"><ele>209.0</ele><time>2026-05-03T11:26:04.001Z</time></trkpt><trkpt lat="45.97815951559598" lon="9.297136994357883"><ele>209.0</ele><time>2026-05-03T11:26:05.001Z</time></trkpt><trkpt lat="45.978254992436746" lon="9.297244075008342"><ele>209.0</ele><time>2026-05-03T11:26:06.001Z</time></trkpt><trkpt lat="45.97837849196726" lon="9.297329536959834"><ele>209.0</ele><time>2026-05-03T11:26:07.001Z</time></trkpt><trkpt lat="45.97852098171205" lon="9.297384787401741"><ele>214.33333333333334</ele><time>2026-05-03T11:26:08.001Z</time></trkpt><trkpt lat="45.978677485549454" lon="9.297404793082023"><ele>219.66666666666669</ele><time>2026-05-03T11:26:09.001Z</time></trkpt><trkpt lat="45.978844961725294" lon="9.297403413918634"><ele>225.0</ele><time>2026-05-03T11:26:10.001Z</time></trkpt><trkpt lat="45.979009547914956" lon="9.297377627284654"><ele>225.0</ele><time>2026-05-03T11:26:11.001Z</time></trkpt><trkpt lat="45.97919165602994" lon="9.297362978415897"><ele>225.0</ele><time>2026-05-03T11:26:12.001Z</time></trkpt><trkpt lat="45.97937209225181" lon="9.297350477706956"><ele>225.0</ele><time>2026-05-03T11:26:13.001Z</time></trkpt><trkpt lat="45.97955571194931" lon="9.29733986524756"><ele>225.0</ele><time>2026-05-03T11:26:14.001Z</time></trkpt><trkpt lat="45.97974405429045" lon="9.297332899066095"><ele>225.0</ele><time>2026-05-03T11:26:15.001Z</time></trkpt><trkpt lat="45.97992791710934" lon="9.29733153216878"><ele>225.0</ele><time>2026-05-03T11:26:16.001Z</time></trkpt><trkpt lat="45.98011747994395" lon="9.297332937536044"><ele>226.0</ele><time>2026-05-03T11:26:17.001Z</time></trkpt><trkpt lat="45.98029505229945" lon="9.29735173286666"><ele>227.0</ele><time>2026-05-03T11:26:18.001Z</time></trkpt><trkpt lat="45.980469500522766" lon="9.297366272612312"><ele>228.0</ele><time>2026-05-03T11:26:19.001Z</time></trkpt><trkpt lat="45.980641907356414" lon="9.297354620907369"><ele>228.0</ele><time>2026-05-03T11:26:20.001Z</time></trkpt><trkpt lat="45.98081682826585" lon="9.297309661015127"><ele>228.0</ele><time>2026-05-03T11:26:21.001Z</time></trkpt><trkpt lat="45.98099963874308" lon="9.29722756973816"><ele>228.0</ele><time>2026-05-03T11:26:22.001Z</time></trkpt><trkpt lat="45.98118008383946" lon="9.297132014400836"><ele>223.0</ele><time>2026-05-03T11:26:23.001Z</time></trkpt><trkpt lat="45.98134255699307" lon="9.297017428159213"><ele>218.0</ele><time>2026-05-03T11:26:24.001Z</time></trkpt><trkpt lat="45.98150672521474" lon="9.296912381335346"><ele>213.0</ele><time>2026-05-03T11:26:25.001Z</time></trkpt><trkpt lat="45.98167681725073" lon="9.296819181684308"><ele>221.25</ele><time>2026-05-03T11:26:26.001Z</time></trkpt><trkpt lat="45.98181252169374" lon="9.296715684436812"><ele>229.5</ele><time>2026-05-03T11:26:27.001Z</time></trkpt><trkpt lat="45.9819477754487" lon="9.29661765547125"><ele>237.75</ele><time>2026-05-03T11:26:28.001Z</time></trkpt><trkpt lat="45.98208125658268" lon="9.29655682743478"><ele>246.0</ele><time>2026-05-03T11:26:29.001Z</time></trkpt><trkpt lat="45.982219050722094" lon="9.296493345501222"><ele>246.0</ele><time>2026-05-03T11:26:30.001Z</time></trkpt><trkpt lat="45.98235571318906" lon="9.296426484461188"><ele>246.0</ele><time>2026-05-03T11:26:31.002Z</time></trkpt><trkpt lat="45.98247732473218" lon="9.29636379843364"><ele>246.0</ele><time>2026-05-03T11:26:32.002Z</time></trkpt><trkpt lat="45.98258734754409" lon="9.296297645157333"><ele>246.0</ele><time>2026-05-03T11:26:33.002Z</time></trkpt><trkpt lat="45.98269248453897" lon="9.296207842642453"><ele>247.0</ele><time>2026-05-03T11:26:34.002Z</time></trkpt><trkpt lat="45.982793393004954" lon="9.296081285589931"><ele>248.0</ele><time>2026-05-03T11:26:35.002Z</time></trkpt><trkpt lat="45.98288255767383" lon="9.295944268725535"><ele>249.0</ele><time>2026-05-03T11:26:36.002Z</time></trkpt><trkpt lat="45.982969235041935" lon="9.295812987041812"><ele>250.0</ele><time>2026-05-03T11:26:37.002Z</time></trkpt><trkpt lat="45.983055020274115" lon="9.29568322639195"><ele>243.25</ele><time>2026-05-03T11:26:38.002Z</time></trkpt><trkpt lat="45.98314492081907" lon="9.295562844315056"><ele>236.5</ele><time>2026-05-03T11:26:39.002Z</time></trkpt><trkpt lat="45.98323211805024" lon="9.295450314905917"><ele>229.75</ele><time>2026-05-03T11:26:40.002Z</time></trkpt><trkpt lat="45.98331829905946" lon="9.295343595323201"><ele>223.0</ele><time>2026-05-03T11:26:41.002Z</time></trkpt><trkpt lat="45.983411310345645" lon="9.29525462625479"><ele>223.0</ele><time>2026-05-03T11:26:42.002Z</time></trkpt><trkpt lat="45.98350602100089" lon="9.295191628121742"><ele>223.0</ele><time>2026-05-03T11:26:43.002Z</time></trkpt><trkpt lat="45.98362308695538" lon="9.295145850504458"><ele>223.0</ele><time>2026-05-03T11:26:44.002Z</time></trkpt><trkpt lat="45.983746684107274" lon="9.295134065857988"><ele>223.0</ele><time>2026-05-03T11:26:45.002Z</time></trkpt><trkpt lat="45.98386860890281" lon="9.295123877019137"><ele>223.0</ele><time>2026-05-03T11:26:46.002Z</time></trkpt><trkpt lat="45.98397990854712" lon="9.295101609164684"><ele>223.0</ele><time>2026-05-03T11:26:47.002Z</time></trkpt><trkpt lat="45.984086879017966" lon="9.295067189445934"><ele>223.0</ele><time>2026-05-03T11:26:48.002Z</time></trkpt><trkpt lat="45.98419698403382" lon="9.295026886797277"><ele>223.0</ele><time>2026-05-03T11:26:49.002Z</time></trkpt><trkpt lat="45.984311616349714" lon="9.294988529642673"><ele>231.0</ele><time>2026-05-03T11:26:50.002Z</time></trkpt><trkpt lat="45.984423593709074" lon="9.294946543035168"><ele>239.0</ele><time>2026-05-03T11:26:51.002Z</time></trkpt><trkpt lat="45.98453427166529" lon="9.294900057083284"><ele>247.0</ele><time>2026-05-03T11:26:52.002Z</time></trkpt><trkpt lat="45.98464583169217" lon="9.294849630824624"><ele>255.0</ele><time>2026-05-03T11:26:53.002Z</time></trkpt><trkpt lat="45.984751754497" lon="9.29479722821967"><ele>255.5</ele><time>2026-05-03T11:26:54.002Z</time></trkpt><trkpt lat="45.984857663412484" lon="9.294739228478404"><ele>256.0</ele><time>2026-05-03T11:26:55.002Z</time></trkpt><trkpt lat="45.98496835977264" lon="9.29465578104081"><ele>256.5</ele><time>2026-05-03T11:26:56.002Z</time></trkpt><trkpt lat="45.98506931074296" lon="9.294544814848566"><ele>257.0</ele><time>2026-05-03T11:26:57.002Z</time></trkpt><trkpt lat="45.98516672421762" lon="9.294412083297402"><ele>257.0</ele><time>2026-05-03T11:26:58.002Z</time></trkpt><trkpt lat="45.98526306357225" lon="9.294277441137153"><ele>257.0</ele><time>2026-05-03T11:26:59.002Z</time></trkpt><trkpt lat="45.985358375268405" lon="9.294131548199378"><ele>257.0</ele><time>2026-05-03T11:27:00.002Z</time></trkpt><trkpt lat="45.985440339807845" lon="9.293990835032375"><ele>257.0</ele><time>2026-05-03T11:27:01.002Z</time></trkpt><trkpt lat="45.98551783177796" lon="9.29387566955819"><ele>255.5</ele><time>2026-05-03T11:27:02.003Z</time></trkpt><trkpt lat="45.98559738554305" lon="9.293748108230542"><ele>254.0</ele><time>2026-05-03T11:27:03.002Z</time></trkpt><trkpt lat="45.98567992046954" lon="9.29362239886047"><ele>252.5</ele><time>2026-05-03T11:27:04.002Z</time></trkpt><trkpt lat="45.985768134583864" lon="9.293504356842936"><ele>251.0</ele><time>2026-05-03T11:27:05.002Z</time></trkpt><trkpt lat="45.98587019482044" lon="9.293406061217095"><ele>251.0</ele><time>2026-05-03T11:27:06.002Z</time></trkpt><trkpt lat="45.98598379086752" lon="9.293329159103171"><ele>251.0</ele><time>2026-05-03T11:27:07.002Z</time></trkpt><trkpt lat="45.98609904300106" lon="9.293264342974075"><ele>251.0</ele><time>2026-05-03T11:27:08.002Z</time></trkpt><trkpt lat="45.98620706319772" lon="9.293189099791636"><ele>251.0</ele><time>2026-05-03T11:27:09.003Z</time></trkpt><trkpt lat="45.98630521772655" lon="9.293090618625383"><ele>242.0</ele><time>2026-05-03T11:27:10.003Z</time></trkpt><trkpt lat="45.98639736166991" lon="9.29298158346531"><ele>233.0</ele><time>2026-05-03T11:27:11.003Z</time></trkpt><trkpt lat="45.98648346037476" lon="9.292870126951772"><ele>224.0</ele><time>2026-05-03T11:27:12.003Z</time></trkpt><trkpt lat="45.98656544487436" lon="9.292746059886428"><ele>215.0</ele><time>2026-05-03T11:27:13.003Z</time></trkpt><trkpt lat="45.986649779139434" lon="9.292628839645984"><ele>217.5</ele><time>2026-05-03T11:27:14.003Z</time></trkpt><trkpt lat="45.98674083563447" lon="9.292526526681629"><ele>220.0</ele><time>2026-05-03T11:27:15.003Z</time></trkpt><trkpt lat="45.98684215580503" lon="9.292448778273474"><ele>222.5</ele><time>2026-05-03T11:27:16.003Z</time></trkpt><trkpt lat="45.98695344360654" lon="9.29239179596899"><ele>225.0</ele><time>2026-05-03T11:27:17.003Z</time></trkpt><trkpt lat="45.98706968530795" lon="9.292354943473917"><ele>225.0</ele><time>2026-05-03T11:27:18.003Z</time></trkpt><trkpt lat="45.98719488922839" lon="9.292338716570802"><ele>225.0</ele><time>2026-05-03T11:27:19.003Z</time></trkpt><trkpt lat="45.98732876586944" lon="9.292326847593914"><ele>225.0</ele><time>2026-05-03T11:27:20.003Z</time></trkpt><trkpt lat="45.98747133353275" lon="9.29231591236246"><ele>225.0</ele><time>2026-05-03T11:27:21.003Z</time></trkpt><trkpt lat="45.98761332512995" lon="9.29229936647287"><ele>223.5</ele><time>2026-05-03T11:27:22.003Z</time></trkpt><trkpt lat="45.98774889649255" lon="9.292282065058558"><ele>222.0</ele><time>2026-05-03T11:27:23.003Z</time></trkpt><trkpt lat="45.987885951348176" lon="9.292265938105906"><ele>220.5</ele><time>2026-05-03T11:27:24.003Z</time></trkpt><trkpt lat="45.98802331539257" lon="9.292255868350287"><ele>219.0</ele><time>2026-05-03T11:27:25.003Z</time></trkpt><trkpt lat="45.988159608322896" lon="9.29224628454434"><ele>213.75</ele><time>2026-05-03T11:27:26.003Z</time></trkpt><trkpt lat="45.98829636324557" lon="9.292233903456985"><ele>208.5</ele><time>2026-05-03T11:27:27.003Z</time></trkpt><trkpt lat="45.98843672862715" lon="9.292222648209897"><ele>203.25</ele><time>2026-05-03T11:27:28.003Z</time></trkpt><trkpt lat="45.98857555953734" lon="9.292208001437567"><ele>198.0</ele><time>2026-05-03T11:27:29.003Z</time></trkpt><trkpt lat="45.988705570561066" lon="9.292193211436768"><ele>198.0</ele><time>2026-05-03T11:27:30.003Z</time></trkpt><trkpt lat="45.98882807937124" lon="9.292179698242883"><ele>198.0</ele><time>2026-05-03T11:27:31.003Z</time></trkpt><trkpt lat="45.988945129989624" lon="9.292175488688978"><ele>198.0</ele><time>2026-05-03T11:27:32.003Z</time></trkpt><trkpt lat="45.98906507680883" lon="9.292174078154114"><ele>198.0</ele><time>2026-05-03T11:27:33.003Z</time></trkpt><trkpt lat="45.98918538219472" lon="9.292175131150554"><ele>198.25</ele><time>2026-05-03T11:27:34.003Z</time></trkpt><trkpt lat="45.989309553180526" lon="9.292183653214435"><ele>198.5</ele><time>2026-05-03T11:27:35.003Z</time></trkpt><trkpt lat="45.98943117129667" lon="9.292193089684226"><ele>198.75</ele><time>2026-05-03T11:27:36.003Z</time></trkpt><trkpt lat="45.98954830040198" lon="9.292197271235445"><ele>199.0</ele><time>2026-05-03T11:27:37.003Z</time></trkpt><trkpt lat="45.98965352501123" lon="9.292197841212923"><ele>199.0</ele><time>2026-05-03T11:27:38.003Z</time></trkpt><trkpt lat="45.989755215501475" lon="9.292203965101082"><ele>199.0</ele><time>2026-05-03T11:27:39.003Z</time></trkpt><trkpt lat="45.989861025986485" lon="9.292214906902146"><ele>199.0</ele><time>2026-05-03T11:27:40.003Z</time></trkpt><trkpt lat="45.98997499505167" lon="9.29222277389772"><ele>199.0</ele><time>2026-05-03T11:27:41.003Z</time></trkpt><trkpt lat="45.99009802247697" lon="9.292223614974173"><ele>199.0</ele><time>2026-05-03T11:27:42.001Z</time></trkpt><trkpt lat="45.99022567000218" lon="9.292214736427951"><ele>199.5</ele><time>2026-05-03T11:27:43.001Z</time></trkpt><trkpt lat="45.990353690528856" lon="9.292187826626169"><ele>200.0</ele><time>2026-05-03T11:27:44.001Z</time></trkpt><trkpt lat="45.99048829723477" lon="9.292157415233223"><ele>200.5</ele><time>2026-05-03T11:27:45.001Z</time></trkpt><trkpt lat="45.99061655165024" lon="9.292118278346111"><ele>201.0</ele><time>2026-05-03T11:27:46.001Z</time></trkpt><trkpt lat="45.990736636411036" lon="9.292082975333406"><ele>202.0</ele><time>2026-05-03T11:27:47.001Z</time></trkpt><trkpt lat="45.99085624212751" lon="9.29205285148712"><ele>203.0</ele><time>2026-05-03T11:27:48.001Z</time></trkpt><trkpt lat="45.99097171943929" lon="9.292019552087059"><ele>204.0</ele><time>2026-05-03T11:27:49.001Z</time></trkpt><trkpt lat="45.991092019907114" lon="9.291985134024642"><ele>205.0</ele><time>2026-05-03T11:27:50.001Z</time></trkpt><trkpt lat="45.99121039398869" lon="9.291951007704679"><ele>205.0</ele><time>2026-05-03T11:27:51.001Z</time></trkpt><trkpt lat="45.991327390186655" lon="9.291919933326342"><ele>205.0</ele><time>2026-05-03T11:27:52.001Z</time></trkpt><trkpt lat="45.991447324582325" lon="9.291884515555731"><ele>205.0</ele><time>2026-05-03T11:27:53.001Z</time></trkpt><trkpt lat="45.99156691775459" lon="9.291853528107424"><ele>205.0</ele><time>2026-05-03T11:27:54.001Z</time></trkpt><trkpt lat="45.99168645298254" lon="9.291816843384822"><ele>207.5</ele><time>2026-05-03T11:27:55.001Z</time></trkpt><trkpt lat="45.991804625370854" lon="9.291783056718705"><ele>210.0</ele><time>2026-05-03T11:27:56.001Z</time></trkpt><trkpt lat="45.99192506066782" lon="9.291745871969352"><ele>212.5</ele><time>2026-05-03T11:27:57.001Z</time></trkpt><trkpt lat="45.99204798898495" lon="9.291702135137358"><ele>215.0</ele><time>2026-05-03T11:27:58.001Z</time></trkpt><trkpt lat="45.99218289255855" lon="9.291654006720107"><ele>215.0</ele><time>2026-05-03T11:27:59.001Z</time></trkpt><trkpt lat="45.99232377802534" lon="9.291608547016128"><ele>215.0</ele><time>2026-05-03T11:28:00.001Z</time></trkpt><trkpt lat="45.9924640495064" lon="9.29156662734879"><ele>215.0</ele><time>2026-05-03T11:28:01.001Z</time></trkpt><trkpt lat="45.99260084813167" lon="9.291530013572581"><ele>215.0</ele><time>2026-05-03T11:28:02.001Z</time></trkpt><trkpt lat="45.99273620796223" lon="9.291495163724122"><ele>217.25</ele><time>2026-05-03T11:28:03.001Z</time></trkpt><trkpt lat="45.99286516732515" lon="9.291464534800795"><ele>219.5</ele><time>2026-05-03T11:28:04.001Z</time></trkpt><trkpt lat="45.992993819436144" lon="9.291430211034013"><ele>221.75</ele><time>2026-05-03T11:28:05.001Z</time></trkpt><trkpt lat="45.993124346632506" lon="9.291396526637833"><ele>224.0</ele><time>2026-05-03T11:28:06.001Z</time></trkpt><trkpt lat="45.993248924303394" lon="9.291357776656703"><ele>218.25</ele><time>2026-05-03T11:28:07.001Z</time></trkpt><trkpt lat="45.993368767906496" lon="9.291324056757915"><ele>212.5</ele><time>2026-05-03T11:28:08.001Z</time></trkpt><trkpt lat="45.99348022332212" lon="9.291295754093793"><ele>206.75</ele><time>2026-05-03T11:28:09.001Z</time></trkpt><trkpt lat="45.99359542046689" lon="9.291265638357705"><ele>201.0</ele><time>2026-05-03T11:28:10.001Z</time></trkpt><trkpt lat="45.99371472806772" lon="9.291232972897678"><ele>201.0</ele><time>2026-05-03T11:28:11.001Z</time></trkpt><trkpt lat="45.993826108029396" lon="9.291202589921673"><ele>201.0</ele><time>2026-05-03T11:28:12.001Z</time></trkpt><trkpt lat="45.99393211605633" lon="9.291176607544024"><ele>201.0</ele><time>2026-05-03T11:28:13.001Z</time></trkpt><trkpt lat="45.99403217256817" lon="9.291155177169015"><ele>201.0</ele><time>2026-05-03T11:28:14.001Z</time></trkpt><trkpt lat="45.9941338488598" lon="9.291134616253897"><ele>201.0</ele><time>2026-05-03T11:28:15.001Z</time></trkpt><trkpt lat="45.99423864883374" lon="9.291124089918275"><ele>200.5</ele><time>2026-05-03T11:28:16.001Z</time></trkpt><trkpt lat="45.99435036158679" lon="9.291133387116126"><ele>200.0</ele><time>2026-05-03T11:28:17.001Z</time></trkpt><trkpt lat="45.99446217248402" lon="9.291153633920308"><ele>199.5</ele><time>2026-05-03T11:28:18.001Z</time></trkpt><trkpt lat="45.99457703663031" lon="9.29119651837394"><ele>199.0</ele><time>2026-05-03T11:28:19.001Z</time></trkpt><trkpt lat="45.99469967938271" lon="9.291236474757689"><ele>199.0</ele><time>2026-05-03T11:28:20.001Z</time></trkpt><trkpt lat="45.994827183674914" lon="9.291279168811306"><ele>199.0</ele><time>2026-05-03T11:28:21.001Z</time></trkpt><trkpt lat="45.994960297571545" lon="9.291309526115043"><ele>199.0</ele><time>2026-05-03T11:28:22.001Z</time></trkpt><trkpt lat="45.995091116356534" lon="9.291345505421248"><ele>199.0</ele><time>2026-05-03T11:28:23.001Z</time></trkpt><trkpt lat="45.99522338582977" lon="9.291372572904212"><ele>198.75</ele><time>2026-05-03T11:28:24.001Z</time></trkpt><trkpt lat="45.99536710754586" lon="9.291420090690737"><ele>198.5</ele><time>2026-05-03T11:28:25.001Z</time></trkpt><trkpt lat="45.99550143688637" lon="9.291457185749262"><ele>198.25</ele><time>2026-05-03T11:28:26.001Z</time></trkpt><trkpt lat="45.99562988246473" lon="9.291492708516941"><ele>198.0</ele><time>2026-05-03T11:28:27.001Z</time></trkpt><trkpt lat="45.99575237230347" lon="9.291524278777468"><ele>199.0</ele><time>2026-05-03T11:28:28.001Z</time></trkpt><trkpt lat="45.995867692790675" lon="9.291543621795329"><ele>200.0</ele><time>2026-05-03T11:28:29.001Z</time></trkpt><trkpt lat="45.99598880375137" lon="9.291566282742693"><ele>201.0</ele><time>2026-05-03T11:28:30.001Z</time></trkpt><trkpt lat="45.99611614813139" lon="9.291578656030909"><ele>202.0</ele><time>2026-05-03T11:28:31.001Z</time></trkpt><trkpt lat="45.99624165799551" lon="9.29158084559454"><ele>202.0</ele><time>2026-05-03T11:28:32.001Z</time></trkpt><trkpt lat="45.99636769390737" lon="9.291585510635727"><ele>202.0</ele><time>2026-05-03T11:28:33.001Z</time></trkpt><trkpt lat="45.996494677142934" lon="9.291605190212215"><ele>202.0</ele><time>2026-05-03T11:28:34.001Z</time></trkpt><trkpt lat="45.9966218698422" lon="9.29164916298061"><ele>202.0</ele><time>2026-05-03T11:28:35.001Z</time></trkpt><trkpt lat="45.996741312585556" lon="9.291714118307063"><ele>202.25</ele><time>2026-05-03T11:28:36.001Z</time></trkpt><trkpt lat="45.99686417639388" lon="9.291801443091975"><ele>202.5</ele><time>2026-05-03T11:28:37.001Z</time></trkpt><trkpt lat="45.99699133130122" lon="9.291873587105243"><ele>202.75</ele><time>2026-05-03T11:28:38.002Z</time></trkpt><trkpt lat="45.997142228934386" lon="9.291938889310822"><ele>203.0</ele><time>2026-05-03T11:28:39.002Z</time></trkpt><trkpt lat="45.997301532939645" lon="9.29203892861429"><ele>203.0</ele><time>2026-05-03T11:28:40.002Z</time></trkpt><trkpt lat="45.99745229688483" lon="9.292110199817307"><ele>203.0</ele><time>2026-05-03T11:28:41.002Z</time></trkpt><trkpt lat="45.99756671921961" lon="9.292203805400312"><ele>203.0</ele><time>2026-05-03T11:28:42.002Z</time></trkpt><trkpt lat="45.99768531754661" lon="9.292256880263137"><ele>203.0</ele><time>2026-05-03T11:28:43.002Z</time></trkpt><trkpt lat="45.99783060825728" lon="9.292275275828713"><ele>208.33333333333334</ele><time>2026-05-03T11:28:44.002Z</time></trkpt><trkpt lat="45.997989481910345" lon="9.292302486247623"><ele>213.66666666666669</ele><time>2026-05-03T11:28:45.002Z</time></trkpt><trkpt lat="45.99817490082193" lon="9.292316990341671"><ele>219.0</ele><time>2026-05-03T11:28:46.002Z</time></trkpt><trkpt lat="45.998330902594944" lon="9.292328898488725"><ele>220.66666666666669</ele><time>2026-05-03T11:28:47.002Z</time></trkpt><trkpt lat="45.99850107744811" lon="9.292275891528734"><ele>222.33333333333334</ele><time>2026-05-03T11:28:48.002Z</time></trkpt><trkpt lat="45.99871235656323" lon="9.29218198062294"><ele>224.0</ele><time>2026-05-03T11:28:49.002Z</time></trkpt><trkpt lat="45.998929486051935" lon="9.292102883257845"><ele>216.66666666666669</ele><time>2026-05-03T11:28:50.002Z</time></trkpt><trkpt lat="45.99914587755728" lon="9.292052054089515"><ele>209.33333333333331</ele><time>2026-05-03T11:28:51.002Z</time></trkpt><trkpt lat="45.99934712754007" lon="9.292024528764145"><ele>202.0</ele><time>2026-05-03T11:28:52.002Z</time></trkpt><trkpt lat="45.99951879076769" lon="9.292000282528923"><ele>202.0</ele><time>2026-05-03T11:28:53.002Z</time></trkpt><trkpt lat="45.99967601832174" lon="9.291961627466966"><ele>202.0</ele><time>2026-05-03T11:28:54.002Z</time></trkpt><trkpt lat="45.999840988357455" lon="9.29190856272646"><ele>202.0</ele><time>2026-05-03T11:28:55.002Z</time></trkpt><trkpt lat="46.00002544635257" lon="9.291851183805061"><ele>202.0</ele><time>2026-05-03T11:28:56.002Z</time></trkpt><trkpt lat="46.00023143418885" lon="9.29178974441748"><ele>202.0</ele><time>2026-05-03T11:28:57.002Z</time></trkpt><trkpt lat="46.00045415458562" lon="9.29171670924786"><ele>202.0</ele><time>2026-05-03T11:28:58.002Z</time></trkpt><trkpt lat="46.00065432037048" lon="9.29165907320085"><ele>202.0</ele><time>2026-05-03T11:28:59.002Z</time></trkpt><trkpt lat="46.0008172054029" lon="9.291623009007784"><ele>202.0</ele><time>2026-05-03T11:29:00.002Z</time></trkpt><trkpt lat="46.000974966666256" lon="9.291635763877538"><ele>202.0</ele><time>2026-05-03T11:29:01.002Z</time></trkpt><trkpt lat="46.00104309956595" lon="9.291685387420568"><ele>202.0</ele><time>2026-05-03T11:29:02.002Z</time></trkpt><trkpt lat="46.00117712907772" lon="9.291763736109496"><ele>202.33333333333331</ele><time>2026-05-03T11:29:03.002Z</time></trkpt><trkpt lat="46.00132494094183" lon="9.291862733566663"><ele>202.66666666666669</ele><time>2026-05-03T11:29:04.002Z</time></trkpt><trkpt lat="46.00147969072326" lon="9.291950658253198"><ele>203.0</ele><time>2026-05-03T11:29:05.002Z</time></trkpt><trkpt lat="46.001651762600936" lon="9.292016805591766"><ele>204.33333333333334</ele><time>2026-05-03T11:29:06.002Z</time></trkpt><trkpt lat="46.0018408843436" lon="9.292048209220818"><ele>205.66666666666669</ele><time>2026-05-03T11:29:07.002Z</time></trkpt><trkpt lat="46.002044430370326" lon="9.292049328031103"><ele>207.0</ele><time>2026-05-03T11:29:08.002Z</time></trkpt><trkpt lat="46.002241035968176" lon="9.292058221401026"><ele>207.0</ele><time>2026-05-03T11:29:09.002Z</time></trkpt><trkpt lat="46.0024399874166" lon="9.292068005391576"><ele>207.0</ele><time>2026-05-03T11:29:10.002Z</time></trkpt><trkpt lat="46.00265048416753" lon="9.292068328180399"><ele>207.0</ele><time>2026-05-03T11:29:11.002Z</time></trkpt><trkpt lat="46.002861575602054" lon="9.292037631056296"><ele>206.66666666666669</ele><time>2026-05-03T11:29:12.002Z</time></trkpt><trkpt lat="46.00306366274585" lon="9.291982099801272"><ele>206.33333333333334</ele><time>2026-05-03T11:29:13.002Z</time></trkpt><trkpt lat="46.00325790230087" lon="9.291920132943169"><ele>206.0</ele><time>2026-05-03T11:29:14.002Z</time></trkpt><trkpt lat="46.00344677689609" lon="9.291826502904907"><ele>208.0</ele><time>2026-05-03T11:29:15.002Z</time></trkpt><trkpt lat="46.00361609949147" lon="9.291741590235754"><ele>210.0</ele><time>2026-05-03T11:29:16.002Z</time></trkpt><trkpt lat="46.00376843650676" lon="9.291665313274857"><ele>212.0</ele><time>2026-05-03T11:29:17.003Z</time></trkpt><trkpt lat="46.003912095376144" lon="9.291585671355245"><ele>212.0</ele><time>2026-05-03T11:29:18.003Z</time></trkpt><trkpt lat="46.00405217197423" lon="9.291518035956"><ele>212.0</ele><time>2026-05-03T11:29:19.003Z</time></trkpt><trkpt lat="46.004189042897366" lon="9.291490699672634"><ele>212.0</ele><time>2026-05-03T11:29:20.003Z</time></trkpt><trkpt lat="46.00432293313691" lon="9.291482235244002"><ele>212.0</ele><time>2026-05-03T11:29:21.003Z</time></trkpt><trkpt lat="46.00446225147712" lon="9.291479969856303"><ele>209.5</ele><time>2026-05-03T11:29:22.003Z</time></trkpt><trkpt lat="46.00459128609415" lon="9.291485240153731"><ele>207.0</ele><time>2026-05-03T11:29:23.003Z</time></trkpt><trkpt lat="46.00470996816005" lon="9.291463184211864"><ele>204.5</ele><time>2026-05-03T11:29:24.003Z</time></trkpt><trkpt lat="46.004826166756466" lon="9.291423787628242"><ele>202.0</ele><time>2026-05-03T11:29:25.003Z</time></trkpt><trkpt lat="46.00494540061552" lon="9.291330245735303"><ele>206.0</ele><time>2026-05-03T11:29:26.003Z</time></trkpt><trkpt lat="46.00504847805093" lon="9.291228589276205"><ele>210.0</ele><time>2026-05-03T11:29:27.003Z</time></trkpt><trkpt lat="46.00515129700415" lon="9.291121646617666"><ele>214.0</ele><time>2026-05-03T11:29:28.003Z</time></trkpt><trkpt lat="46.00526591085328" lon="9.29100739580668"><ele>218.0</ele><time>2026-05-03T11:29:29.003Z</time></trkpt><trkpt lat="46.00538478147536" lon="9.290900204320451"><ele>218.0</ele><time>2026-05-03T11:29:30.003Z</time></trkpt><trkpt lat="46.005505387514" lon="9.290793982179807"><ele>218.0</ele><time>2026-05-03T11:29:31.003Z</time></trkpt><trkpt lat="46.00563540528679" lon="9.290696872185837"><ele>218.0</ele><time>2026-05-03T11:29:32.003Z</time></trkpt><trkpt lat="46.005767343507046" lon="9.290600488875521"><ele>218.0</ele><time>2026-05-03T11:29:33.003Z</time></trkpt><trkpt lat="46.00590073232696" lon="9.290526646807105"><ele>217.75</ele><time>2026-05-03T11:29:34.003Z</time></trkpt><trkpt lat="46.00604288363502" lon="9.290474241119732"><ele>217.5</ele><time>2026-05-03T11:29:35.003Z</time></trkpt><trkpt lat="46.00618471186233" lon="9.290401149919878"><ele>217.25</ele><time>2026-05-03T11:29:36.003Z</time></trkpt><trkpt lat="46.006326135821844" lon="9.290326496580946"><ele>217.0</ele><time>2026-05-03T11:29:37.003Z</time></trkpt><trkpt lat="46.00647706635754" lon="9.290289135366507"><ele>217.0</ele><time>2026-05-03T11:29:38.003Z</time></trkpt><trkpt lat="46.006626292171724" lon="9.290229025511545"><ele>217.0</ele><time>2026-05-03T11:29:39.003Z</time></trkpt><trkpt lat="46.006784161766525" lon="9.290165433901622"><ele>217.0</ele><time>2026-05-03T11:29:40.057Z</time></trkpt><trkpt lat="46.00693241669775" lon="9.290105715226957"><ele>244.0</ele><time>2026-05-03T11:29:41.059Z</time></trkpt><trkpt lat="46.00791325813066" lon="9.289720029464767"><ele>244.0</ele><time>2026-05-03T11:29:44.834Z</time></trkpt><trkpt lat="46.008168136624825" lon="9.289590991841063"><ele>244.0</ele><time>2026-05-03T11:29:45.833Z</time></trkpt><trkpt lat="46.00843266194848" lon="9.289510256723212"><ele>264.0</ele><time>2026-05-03T11:29:46.833Z</time></trkpt><trkpt lat="46.00868826172919" lon="9.28938364918735"><ele>284.0</ele><time>2026-05-03T11:29:47.833Z</time></trkpt><trkpt lat="46.008952865416504" lon="9.289303512816637"><ele>310.0</ele><time>2026-05-03T11:29:48.833Z</time></trkpt><trkpt lat="46.00921302671785" lon="9.289200358065608"><ele>336.0</ele><time>2026-05-03T11:29:49.833Z</time></trkpt><trkpt lat="46.00947318879635" lon="9.2890972030166"><ele>336.0</ele><time>2026-05-03T11:29:50.833Z</time></trkpt><trkpt lat="46.00973338731253" lon="9.288994033505979"><ele>336.0</ele><time>2026-05-03T11:29:51.833Z</time></trkpt><trkpt lat="46.00999362496915" lon="9.288892866188233"><ele>342.0</ele><time>2026-05-03T11:29:52.833Z</time></trkpt><trkpt lat="46.010254873446094" lon="9.288797513987287"><ele>348.0</ele><time>2026-05-03T11:29:53.833Z</time></trkpt><trkpt lat="46.01051366778357" lon="9.288684754768619"><ele>348.0</ele><time>2026-05-03T11:29:54.833Z</time></trkpt><trkpt lat="46.01077742621355" lon="9.288602951597072"><ele>348.0</ele><time>2026-05-03T11:29:55.833Z</time></trkpt><trkpt lat="46.011045434645965" lon="9.28855153976329"><ele>354.5</ele><time>2026-05-03T11:29:56.833Z</time></trkpt><trkpt lat="46.0112057" lon="9.2884824"><ele>361.0</ele><time>2026-05-03T11:29:57.833Z</time></trkpt><trkpt lat="46.01421935092376" lon="9.287956914295107"><ele>294.5</ele><time>2026-05-03T11:30:17.004Z</time></trkpt><trkpt lat="46.01440872424946" lon="9.287946679275219"><ele>228.0</ele><time>2026-05-03T11:30:18.004Z</time></trkpt><trkpt lat="46.01818210891653" lon="9.287202287495246"><ele>230.25</ele><time>2026-05-03T11:30:39.001Z</time></trkpt><trkpt lat="46.01833219554403" lon="9.287277538260499"><ele>232.5</ele><time>2026-05-03T11:30:40.001Z</time></trkpt><trkpt lat="46.0183860322064" lon="9.287200637776783"><ele>234.75</ele><time>2026-05-03T11:30:41.001Z</time></trkpt><trkpt lat="46.01848128688101" lon="9.28712214725843"><ele>237.0</ele><time>2026-05-03T11:30:42.001Z</time></trkpt><trkpt lat="46.01858178496757" lon="9.287031804232665"><ele>228.0</ele><time>2026-05-03T11:30:43.001Z</time></trkpt><trkpt lat="46.018681520078765" lon="9.286952632362349"><ele>219.0</ele><time>2026-05-03T11:30:44.001Z</time></trkpt><trkpt lat="46.018781121838266" lon="9.286893603851205"><ele>210.0</ele><time>2026-05-03T11:30:45.001Z</time></trkpt><trkpt lat="46.01888791574218" lon="9.286843415231713"><ele>201.0</ele><time>2026-05-03T11:30:46.001Z</time></trkpt><trkpt lat="46.01901067533776" lon="9.286807677360919"><ele>201.0</ele><time>2026-05-03T11:30:47.001Z</time></trkpt><trkpt lat="46.0191415729779" lon="9.286775840776317"><ele>201.0</ele><time>2026-05-03T11:30:48.001Z</time></trkpt><trkpt lat="46.01927920699231" lon="9.286762690449128"><ele>201.0</ele><time>2026-05-03T11:30:49.001Z</time></trkpt><trkpt lat="46.019402133422204" lon="9.286775739913022"><ele>201.0</ele><time>2026-05-03T11:30:50.001Z</time></trkpt><trkpt lat="46.0195313302973" lon="9.28680941445296"><ele>202.66666666666669</ele><time>2026-05-03T11:30:51.001Z</time></trkpt><trkpt lat="46.01967038798903" lon="9.28685878778034"><ele>204.33333333333334</ele><time>2026-05-03T11:30:52.001Z</time></trkpt><trkpt lat="46.01982079304177" lon="9.286908094868826"><ele>206.0</ele><time>2026-05-03T11:30:53.001Z</time></trkpt><trkpt lat="46.01997033760851" lon="9.286952875337656"><ele>211.33333333333334</ele><time>2026-05-03T11:30:54.001Z</time></trkpt><trkpt lat="46.02011659168627" lon="9.287002202032117"><ele>216.66666666666669</ele><time>2026-05-03T11:30:55.001Z</time></trkpt><trkpt lat="46.020265785274844" lon="9.28705116376778"><ele>222.0</ele><time>2026-05-03T11:30:56.001Z</time></trkpt><trkpt lat="46.020429883491296" lon="9.287070069152362"><ele>222.0</ele><time>2026-05-03T11:30:57.067Z</time></trkpt><trkpt lat="46.02057513089203" lon="9.287096867269689"><ele>222.0</ele><time>2026-05-03T11:30:58.038Z</time></trkpt><trkpt lat="46.02070417740575" lon="9.287104946855228"><ele>222.0</ele><time>2026-05-03T11:30:59.038Z</time></trkpt><trkpt lat="46.02081055222972" lon="9.287089318065593"><ele>222.0</ele><time>2026-05-03T11:31:00.038Z</time></trkpt><trkpt lat="46.02092272499347" lon="9.2870542089461"><ele>226.0</ele><time>2026-05-03T11:31:01.038Z</time></trkpt><trkpt lat="46.021054829190945" lon="9.287017671480568"><ele>230.0</ele><time>2026-05-03T11:31:02.036Z</time></trkpt><trkpt lat="46.022657417320424" lon="9.286340477996024"><ele>230.0</ele><time>2026-05-03T11:31:05.835Z</time></trkpt><trkpt lat="46.02307176311576" lon="9.286089269828313"><ele>241.5</ele><time>2026-05-03T11:31:06.835Z</time></trkpt><trkpt lat="46.02343351349437" lon="9.285710136471295"><ele>253.0</ele><time>2026-05-03T11:31:07.835Z</time></trkpt><trkpt lat="46.02376591102849" lon="9.285274886439629"><ele>198.0</ele><time>2026-05-03T11:31:08.835Z</time></trkpt><trkpt lat="46.02496953351508" lon="9.284469558625297"><ele>204.5</ele><time>2026-05-03T11:31:11.836Z</time></trkpt><trkpt lat="46.02539724567661" lon="9.28427070612605"><ele>211.0</ele><time>2026-05-03T11:31:12.835Z</time></trkpt><trkpt lat="46.02582595976308" lon="9.284075730877474"><ele>198.0</ele><time>2026-05-03T11:31:13.835Z</time></trkpt><trkpt lat="46.024333292365576" lon="9.284731005237234"><ele>198.0</ele><time>2026-05-03T11:31:25.002Z</time></trkpt><trkpt lat="46.024640553537125" lon="9.284643451888396"><ele>198.0</ele><time>2026-05-03T11:31:27.002Z</time></trkpt><trkpt lat="46.0247866431799" lon="9.284562724915563"><ele>198.0</ele><time>2026-05-03T11:31:28.002Z</time></trkpt><trkpt lat="46.02493052315863" lon="9.284505412959442"><ele>198.0</ele><time>2026-05-03T11:31:29.002Z</time></trkpt><trkpt lat="46.025102413748655" lon="9.284442216204795"><ele>198.0</ele><time>2026-05-03T11:31:30.002Z</time></trkpt><trkpt lat="46.02527215128877" lon="9.28437914509401"><ele>204.5</ele><time>2026-05-03T11:31:31.002Z</time></trkpt><trkpt lat="46.025444958703034" lon="9.284294961743882"><ele>211.0</ele><time>2026-05-03T11:31:32.002Z</time></trkpt><trkpt lat="46.02614137658627" lon="9.284046995180438"><ele>211.0</ele><time>2026-05-03T11:31:36.002Z</time></trkpt><trkpt lat="46.02621112588636" lon="9.284105384828074"><ele>211.0</ele><time>2026-05-03T11:31:37.002Z</time></trkpt><trkpt lat="46.026306908502285" lon="9.284139109617106"><ele>211.0</ele><time>2026-05-03T11:31:38.002Z</time></trkpt><trkpt lat="46.026318565370204" lon="9.284275080861994"><ele>211.0</ele><time>2026-05-03T11:31:39.002Z</time></trkpt><trkpt lat="46.02636391143622" lon="9.284405352763716"><ele>211.0</ele><time>2026-05-03T11:31:40.002Z</time></trkpt><trkpt lat="46.0264468487797" lon="9.284560641025518"><ele>212.66666666666666</ele><time>2026-05-03T11:31:41.002Z</time></trkpt><trkpt lat="46.0265307875576" lon="9.284794980342463"><ele>214.33333333333331</ele><time>2026-05-03T11:31:42.002Z</time></trkpt><trkpt lat="46.02661239050771" lon="9.285009299636432"><ele>216.0</ele><time>2026-05-03T11:31:43.002Z</time></trkpt><trkpt lat="46.026696313912545" lon="9.285206605158956"><ele>216.0</ele><time>2026-05-03T11:31:44.002Z</time></trkpt><trkpt lat="46.026790533877566" lon="9.285388988367904"><ele>216.0</ele><time>2026-05-03T11:31:45.002Z</time></trkpt><trkpt lat="46.02689549094204" lon="9.28554962191798"><ele>216.0</ele><time>2026-05-03T11:31:46.002Z</time></trkpt><trkpt lat="46.027014631891376" lon="9.285729637261104"><ele>228.66666666666669</ele><time>2026-05-03T11:31:47.002Z</time></trkpt><trkpt lat="46.027145701577766" lon="9.285896070531104"><ele>241.33333333333334</ele><time>2026-05-03T11:31:48.002Z</time></trkpt><trkpt lat="46.027279817762235" lon="9.28604803785254"><ele>254.0</ele><time>2026-05-03T11:31:49.002Z</time></trkpt><trkpt lat="46.0274072467627" lon="9.286221453898417"><ele>245.33333333333334</ele><time>2026-05-03T11:31:50.002Z</time></trkpt><trkpt lat="46.02753974824964" lon="9.28639966718712"><ele>236.66666666666669</ele><time>2026-05-03T11:31:51.003Z</time></trkpt><trkpt lat="46.02765330597853" lon="9.286577915324942"><ele>228.0</ele><time>2026-05-03T11:31:52.003Z</time></trkpt><trkpt lat="46.027745575086875" lon="9.286740529495221"><ele>228.0</ele><time>2026-05-03T11:31:53.003Z</time></trkpt><trkpt lat="46.02780011612571" lon="9.2869264498745"><ele>228.0</ele><time>2026-05-03T11:31:54.003Z</time></trkpt><trkpt lat="46.02787458782001" lon="9.28715605924913"><ele>228.0</ele><time>2026-05-03T11:31:55.003Z</time></trkpt><trkpt lat="46.027951483338946" lon="9.287370319669565"><ele>233.0</ele><time>2026-05-03T11:31:56.003Z</time></trkpt><trkpt lat="46.028012177682086" lon="9.287582448762226"><ele>238.0</ele><time>2026-05-03T11:31:57.003Z</time></trkpt><trkpt lat="46.02807137474405" lon="9.287759883693159"><ele>243.0</ele><time>2026-05-03T11:31:58.003Z</time></trkpt><trkpt lat="46.02815780897613" lon="9.287920936235563"><ele>248.0</ele><time>2026-05-03T11:31:59.003Z</time></trkpt><trkpt lat="46.02825789666137" lon="9.28807154213238"><ele>241.66666666666669</ele><time>2026-05-03T11:32:00.003Z</time></trkpt><trkpt lat="46.02839996897755" lon="9.288165440352271"><ele>235.33333333333331</ele><time>2026-05-03T11:32:01.003Z</time></trkpt><trkpt lat="46.02860358367453" lon="9.288239289982709"><ele>229.0</ele><time>2026-05-03T11:32:02.003Z</time></trkpt><trkpt lat="46.02875211078966" lon="9.28834128881034"><ele>229.0</ele><time>2026-05-03T11:32:03.003Z</time></trkpt><trkpt lat="46.028888417475876" lon="9.28846427881302"><ele>229.0</ele><time>2026-05-03T11:32:04.003Z</time></trkpt><trkpt lat="46.02901107896206" lon="9.288617847616214"><ele>229.0</ele><time>2026-05-03T11:32:05.003Z</time></trkpt><trkpt lat="46.02914889160558" lon="9.288752875901157"><ele>227.66666666666666</ele><time>2026-05-03T11:32:06.003Z</time></trkpt><trkpt lat="46.02928764248934" lon="9.288925025790244"><ele>226.33333333333331</ele><time>2026-05-03T11:32:07.003Z</time></trkpt><trkpt lat="46.02943406444622" lon="9.289099107731921"><ele>225.0</ele><time>2026-05-03T11:32:08.003Z</time></trkpt><trkpt lat="46.02956184277253" lon="9.289242811371423"><ele>225.0</ele><time>2026-05-03T11:32:09.003Z</time></trkpt><trkpt lat="46.02968591734286" lon="9.289365280922889"><ele>225.0</ele><time>2026-05-03T11:32:10.003Z</time></trkpt><trkpt lat="46.02979947126689" lon="9.289468915806271"><ele>225.0</ele><time>2026-05-03T11:32:11.003Z</time></trkpt><trkpt lat="46.029903542411745" lon="9.289583801713256"><ele>225.0</ele><time>2026-05-03T11:32:12.003Z</time></trkpt><trkpt lat="46.02999817921261" lon="9.289727981724566"><ele>223.66666666666669</ele><time>2026-05-03T11:32:13.003Z</time></trkpt><trkpt lat="46.030077165616795" lon="9.289914963143282"><ele>222.33333333333334</ele><time>2026-05-03T11:32:14.003Z</time></trkpt><trkpt lat="46.03017942134892" lon="9.29008628082221"><ele>221.0</ele><time>2026-05-03T11:32:15.003Z</time></trkpt><trkpt lat="46.03026561352659" lon="9.290264838765495"><ele>221.0</ele><time>2026-05-03T11:32:16.003Z</time></trkpt><trkpt lat="46.03034125710761" lon="9.290423788200533"><ele>221.0</ele><time>2026-05-03T11:32:17.003Z</time></trkpt><trkpt lat="46.03039736803745" lon="9.290596105391112"><ele>221.0</ele><time>2026-05-03T11:32:18.003Z</time></trkpt><trkpt lat="46.03041944747744" lon="9.2908008644537"><ele>221.0</ele><time>2026-05-03T11:32:19.003Z</time></trkpt><trkpt lat="46.03043765301824" lon="9.291021053936154"><ele>225.75</ele><time>2026-05-03T11:32:20.003Z</time></trkpt><trkpt lat="46.03045412963744" lon="9.291237018653659"><ele>230.5</ele><time>2026-05-03T11:32:21.003Z</time></trkpt><trkpt lat="46.03047952900371" lon="9.291433808235816"><ele>235.25</ele><time>2026-05-03T11:32:22.003Z</time></trkpt><trkpt lat="46.030488297847626" lon="9.291614271973245"><ele>240.0</ele><time>2026-05-03T11:32:23.003Z</time></trkpt><trkpt lat="46.030528613465094" lon="9.291810025579439"><ele>247.33333333333331</ele><time>2026-05-03T11:32:24.003Z</time></trkpt><trkpt lat="46.03059906282079" lon="9.292025924490682"><ele>254.66666666666666</ele><time>2026-05-03T11:32:25.003Z</time></trkpt><trkpt lat="46.03069294442585" lon="9.292239580086678"><ele>262.0</ele><time>2026-05-03T11:32:26.003Z</time></trkpt><trkpt lat="46.030797737528076" lon="9.292453402198108"><ele>251.33333333333331</ele><time>2026-05-03T11:32:27.003Z</time></trkpt><trkpt lat="46.03089720401929" lon="9.29264135449457"><ele>240.66666666666669</ele><time>2026-05-03T11:32:28.001Z</time></trkpt><trkpt lat="46.03098804524362" lon="9.292807103924506"><ele>230.0</ele><time>2026-05-03T11:32:29.001Z</time></trkpt><trkpt lat="46.03108451600544" lon="9.292958988498357"><ele>235.0</ele><time>2026-05-03T11:32:30.001Z</time></trkpt><trkpt lat="46.031189307634286" lon="9.293097554524525"><ele>240.0</ele><time>2026-05-03T11:32:31.001Z</time></trkpt><trkpt lat="46.031288745539335" lon="9.293224559101096"><ele>245.0</ele><time>2026-05-03T11:32:32.001Z</time></trkpt><trkpt lat="46.031381424172906" lon="9.293341015877868"><ele>250.0</ele><time>2026-05-03T11:32:33.001Z</time></trkpt><trkpt lat="46.031474148908536" lon="9.29345693619682"><ele>250.0</ele><time>2026-05-03T11:32:34.001Z</time></trkpt><trkpt lat="46.03156248281752" lon="9.293570146618361"><ele>250.0</ele><time>2026-05-03T11:32:35.001Z</time></trkpt><trkpt lat="46.031639555007665" lon="9.293687467578614"><ele>250.0</ele><time>2026-05-03T11:32:36.001Z</time></trkpt><trkpt lat="46.031710731454304" lon="9.29382007158288"><ele>250.0</ele><time>2026-05-03T11:32:37.001Z</time></trkpt><trkpt lat="46.03177685734211" lon="9.293974488049633"><ele>245.75</ele><time>2026-05-03T11:32:38.001Z</time></trkpt><trkpt lat="46.03184571729381" lon="9.294140727125404"><ele>241.5</ele><time>2026-05-03T11:32:39.001Z</time></trkpt><trkpt lat="46.03192084829686" lon="9.29430107736994"><ele>237.25</ele><time>2026-05-03T11:32:40.001Z</time></trkpt><trkpt lat="46.031992795106724" lon="9.294453425501402"><ele>233.0</ele><time>2026-05-03T11:32:41.001Z</time></trkpt><trkpt lat="46.03206448160469" lon="9.294603587151952"><ele>233.0</ele><time>2026-05-03T11:32:42.001Z</time></trkpt><trkpt lat="46.03213564979192" lon="9.29474587898625"><ele>233.0</ele><time>2026-05-03T11:32:43.001Z</time></trkpt><trkpt lat="46.03221741758952" lon="9.294902298483834"><ele>233.0</ele><time>2026-05-03T11:32:44.001Z</time></trkpt><trkpt lat="46.03228524941736" lon="9.295031433583395"><ele>233.0</ele><time>2026-05-03T11:32:45.001Z</time></trkpt><trkpt lat="46.03235480786283" lon="9.295154520855288"><ele>232.75</ele><time>2026-05-03T11:32:46.001Z</time></trkpt><trkpt lat="46.03242242588975" lon="9.295274174710546"><ele>232.5</ele><time>2026-05-03T11:32:47.001Z</time></trkpt><trkpt lat="46.03249423542282" lon="9.295401051673897"><ele>232.25</ele><time>2026-05-03T11:32:48.001Z</time></trkpt><trkpt lat="46.03259465047595" lon="9.295578030842941"><ele>232.0</ele><time>2026-05-03T11:32:49.001Z</time></trkpt><trkpt lat="46.032707745710375" lon="9.295764352136086"><ele>241.5</ele><time>2026-05-03T11:32:50.08Z</time></trkpt><trkpt lat="46.03277916121379" lon="9.29590662781503"><ele>251.0</ele><time>2026-05-03T11:32:51.001Z</time></trkpt><trkpt lat="46.03285765267716" lon="9.296031246815065"><ele>260.5</ele><time>2026-05-03T11:32:52.001Z</time></trkpt><trkpt lat="46.03294577056851" lon="9.296156663601831"><ele>270.0</ele><time>2026-05-03T11:32:53.001Z</time></trkpt><trkpt lat="46.03305298969803" lon="9.296275120708154"><ele>270.0</ele><time>2026-05-03T11:32:54.001Z</time></trkpt><trkpt lat="46.03317893793915" lon="9.296393591963849"><ele>270.0</ele><time>2026-05-03T11:32:55.001Z</time></trkpt><trkpt lat="46.03328774362385" lon="9.29650273839063"><ele>270.0</ele><time>2026-05-03T11:32:56.001Z</time></trkpt><trkpt lat="46.03339265340183" lon="9.296617348301323"><ele>270.0</ele><time>2026-05-03T11:32:57.001Z</time></trkpt><trkpt lat="46.03349328281654" lon="9.296742593007444"><ele>265.0</ele><time>2026-05-03T11:32:58.001Z</time></trkpt><trkpt lat="46.03358887011934" lon="9.296873412561723"><ele>260.0</ele><time>2026-05-03T11:32:59.001Z</time></trkpt><trkpt lat="46.03368256906107" lon="9.297003960776673"><ele>255.0</ele><time>2026-05-03T11:33:00.001Z</time></trkpt><trkpt lat="46.03379024894406" lon="9.297123779287812"><ele>250.0</ele><time>2026-05-03T11:33:01.001Z</time></trkpt><trkpt lat="46.03388472229241" lon="9.297247578267225"><ele>256.75</ele><time>2026-05-03T11:33:02.001Z</time></trkpt><trkpt lat="46.033970848885645" lon="9.297381280143387"><ele>263.5</ele><time>2026-05-03T11:33:03.001Z</time></trkpt><trkpt lat="46.03405871495696" lon="9.297509061474484"><ele>270.25</ele><time>2026-05-03T11:33:04.001Z</time></trkpt><trkpt lat="46.034139034726614" lon="9.297652706036613"><ele>277.0</ele><time>2026-05-03T11:33:05.001Z</time></trkpt><trkpt lat="46.034212012222" lon="9.2977972042691"><ele>271.0</ele><time>2026-05-03T11:33:06.001Z</time></trkpt><trkpt lat="46.034292649866224" lon="9.297934465744518"><ele>265.0</ele><time>2026-05-03T11:33:07.001Z</time></trkpt><trkpt lat="46.03437571051874" lon="9.298060147480788"><ele>259.0</ele><time>2026-05-03T11:33:08.001Z</time></trkpt><trkpt lat="46.034469394138625" lon="9.298168550854841"><ele>253.0</ele><time>2026-05-03T11:33:09.001Z</time></trkpt><trkpt lat="46.034569216854884" lon="9.298251340254316"><ele>253.0</ele><time>2026-05-03T11:33:10.001Z</time></trkpt><trkpt lat="46.034670860020505" lon="9.29833482859895"><ele>253.0</ele><time>2026-05-03T11:33:11.001Z</time></trkpt><trkpt lat="46.03476180939404" lon="9.298454312511046"><ele>253.0</ele><time>2026-05-03T11:33:12.001Z</time></trkpt><trkpt lat="46.03485751991137" lon="9.298563187392272"><ele>253.0</ele><time>2026-05-03T11:33:13.001Z</time></trkpt><trkpt lat="46.03492745228582" lon="9.298707086237284"><ele>249.4</ele><time>2026-05-03T11:33:14.001Z</time></trkpt><trkpt lat="46.03498976519401" lon="9.298857397614738"><ele>245.8</ele><time>2026-05-03T11:33:15.001Z</time></trkpt><trkpt lat="46.03504530165906" lon="9.29900406624943"><ele>242.2</ele><time>2026-05-03T11:33:16.001Z</time></trkpt><trkpt lat="46.035093214343846" lon="9.299133119294806"><ele>238.6</ele><time>2026-05-03T11:33:17.001Z</time></trkpt><trkpt lat="46.035159457346545" lon="9.299239827835944"><ele>235.0</ele><time>2026-05-03T11:33:18.001Z</time></trkpt><trkpt lat="46.03524489876938" lon="9.299330795230052"><ele>235.0</ele><time>2026-05-03T11:33:19.001Z</time></trkpt><trkpt lat="46.035339621240695" lon="9.29940281628577"><ele>235.0</ele><time>2026-05-03T11:33:20.001Z</time></trkpt><trkpt lat="46.035432802344296" lon="9.299454175803758"><ele>235.0</ele><time>2026-05-03T11:33:21.001Z</time></trkpt><trkpt lat="46.03552494929293" lon="9.299485122126923"><ele>235.0</ele><time>2026-05-03T11:33:22.001Z</time></trkpt><trkpt lat="46.035620711306684" lon="9.299503911378249"><ele>235.0</ele><time>2026-05-03T11:33:23.001Z</time></trkpt><trkpt lat="46.03570789168618" lon="9.299497607990943"><ele>234.99999999999997</ele><time>2026-05-03T11:33:24.001Z</time></trkpt><trkpt lat="46.035798970065976" lon="9.299488488647881"><ele>235.0</ele><time>2026-05-03T11:33:25.001Z</time></trkpt><trkpt lat="46.03588501885593" lon="9.29947187703588"><ele>235.0</ele><time>2026-05-03T11:33:26.002Z</time></trkpt><trkpt lat="46.0359681077089" lon="9.299460182998391"><ele>235.0</ele><time>2026-05-03T11:33:27.002Z</time></trkpt><trkpt lat="46.03605209546422" lon="9.299460302911518"><ele>234.99999999999997</ele><time>2026-05-03T11:33:28.002Z</time></trkpt><trkpt lat="46.036149065648374" lon="9.299485201948103"><ele>235.0</ele><time>2026-05-03T11:33:29.002Z</time></trkpt><trkpt lat="46.036242596543055" lon="9.299534850977063"><ele>235.0</ele><time>2026-05-03T11:33:30.002Z</time></trkpt><trkpt lat="46.03632885044745" lon="9.29962349015935"><ele>235.0</ele><time>2026-05-03T11:33:31.002Z</time></trkpt><trkpt lat="46.036424839457126" lon="9.299684522000204"><ele>235.0</ele><time>2026-05-03T11:33:32.002Z</time></trkpt><trkpt lat="46.036511205984816" lon="9.299765850758224"><ele>235.0</ele><time>2026-05-03T11:33:33.002Z</time></trkpt><trkpt lat="46.03659615352781" lon="9.299846621844733"><ele>235.0</ele><time>2026-05-03T11:33:34.002Z</time></trkpt><trkpt lat="46.036687603342145" lon="9.299923408947738"><ele>231.49999999999997</ele><time>2026-05-03T11:33:35.002Z</time></trkpt><trkpt lat="46.03677284098722" lon="9.299994695879732"><ele>228.0</ele><time>2026-05-03T11:33:36.002Z</time></trkpt><trkpt lat="46.03685149818637" lon="9.30006042467197"><ele>224.5</ele><time>2026-05-03T11:33:37.002Z</time></trkpt><trkpt lat="46.036923619371606" lon="9.300124191207216"><ele>221.0</ele><time>2026-05-03T11:33:38.002Z</time></trkpt><trkpt lat="46.03699091143531" lon="9.300183646939079"><ele>217.49999999999997</ele><time>2026-05-03T11:33:39.002Z</time></trkpt><trkpt lat="46.03705754941014" lon="9.300242061121386"><ele>214.0</ele><time>2026-05-03T11:33:40.002Z</time></trkpt><trkpt lat="46.03712106122745" lon="9.300299166635035"><ele>213.99999999999997</ele><time>2026-05-03T11:33:41.002Z</time></trkpt><trkpt lat="46.03718429239952" lon="9.300355454171967"><ele>214.0</ele><time>2026-05-03T11:33:42.002Z</time></trkpt><trkpt lat="46.03724534260884" lon="9.300414289833892"><ele>214.0</ele><time>2026-05-03T11:33:43.002Z</time></trkpt><trkpt lat="46.03730438263539" lon="9.30047679543904"><ele>214.0</ele><time>2026-05-03T11:33:44.002Z</time></trkpt><trkpt lat="46.037372449479996" lon="9.30054017291761"><ele>213.99999999999997</ele><time>2026-05-03T11:33:45.002Z</time></trkpt><trkpt lat="46.03743432208944" lon="9.300620815490113"><ele>214.0</ele><time>2026-05-03T11:33:46.002Z</time></trkpt><trkpt lat="46.0374881292029" lon="9.30071428030039"><ele>214.66666666666666</ele><time>2026-05-03T11:33:47.002Z</time></trkpt><trkpt lat="46.03753373255826" lon="9.30081366335858"><ele>215.33333333333331</ele><time>2026-05-03T11:33:48.002Z</time></trkpt><trkpt lat="46.03755114443868" lon="9.3009305242885"><ele>216.0</ele><time>2026-05-03T11:33:49.002Z</time></trkpt><trkpt lat="46.0375981118578" lon="9.301046721600262"><ele>216.66666666666669</ele><time>2026-05-03T11:33:50.002Z</time></trkpt><trkpt lat="46.037625110105104" lon="9.301144008720001"><ele>217.33333333333334</ele><time>2026-05-03T11:33:51.002Z</time></trkpt><trkpt lat="46.03765648589323" lon="9.301242054870013"><ele>218.0</ele><time>2026-05-03T11:33:52.002Z</time></trkpt><trkpt lat="46.037687417887525" lon="9.301352391111807"><ele>223.0</ele><time>2026-05-03T11:33:53.002Z</time></trkpt><trkpt lat="46.03772715565837" lon="9.301473029156973"><ele>228.0</ele><time>2026-05-03T11:33:54.002Z</time></trkpt><trkpt lat="46.03775693788792" lon="9.30161709933544"><ele>233.0</ele><time>2026-05-03T11:33:55.002Z</time></trkpt><trkpt lat="46.03781533325068" lon="9.301748830136916"><ele>238.0</ele><time>2026-05-03T11:33:56.002Z</time></trkpt><trkpt lat="46.0378678009728" lon="9.301888276581126"><ele>243.0</ele><time>2026-05-03T11:33:57.002Z</time></trkpt><trkpt lat="46.03795063173518" lon="9.302016313238889"><ele>243.0</ele><time>2026-05-03T11:33:58.002Z</time></trkpt><trkpt lat="46.038057375105495" lon="9.302121564977817"><ele>243.0</ele><time>2026-05-03T11:33:59.002Z</time></trkpt><trkpt lat="46.03815620585404" lon="9.302183421502074"><ele>243.0</ele><time>2026-05-03T11:34:00.002Z</time></trkpt><trkpt lat="46.038270217151904" lon="9.30220671014584"><ele>243.0</ele><time>2026-05-03T11:34:01.002Z</time></trkpt><trkpt lat="46.03838608874387" lon="9.302214889053113"><ele>235.4</ele><time>2026-05-03T11:34:02.002Z</time></trkpt><trkpt lat="46.03848633048194" lon="9.302212121892502"><ele>227.8</ele><time>2026-05-03T11:34:03.002Z</time></trkpt><trkpt lat="46.03857571952228" lon="9.302209215132766"><ele>220.2</ele><time>2026-05-03T11:34:04.002Z</time></trkpt><trkpt lat="46.03866397417781" lon="9.302208194152168"><ele>212.6</ele><time>2026-05-03T11:34:05.003Z</time></trkpt><trkpt lat="46.038750064343915" lon="9.302211172083604"><ele>205.0</ele><time>2026-05-03T11:34:06.003Z</time></trkpt><trkpt lat="46.03884182369058" lon="9.302210445677554"><ele>205.0</ele><time>2026-05-03T11:34:07.003Z</time></trkpt><trkpt lat="46.03893849545594" lon="9.302211093745006"><ele>205.0</ele><time>2026-05-03T11:34:08.003Z</time></trkpt><trkpt lat="46.03903086295198" lon="9.302214514443182"><ele>205.0</ele><time>2026-05-03T11:34:09.003Z</time></trkpt><trkpt lat="46.039127492144274" lon="9.302210681736964"><ele>205.0</ele><time>2026-05-03T11:34:10.003Z</time></trkpt><trkpt lat="46.03921514516571" lon="9.302218680829448"><ele>205.0</ele><time>2026-05-03T11:34:11.003Z</time></trkpt><trkpt lat="46.03930765095581" lon="9.30222476229889"><ele>205.16666666666666</ele><time>2026-05-03T11:34:12.003Z</time></trkpt><trkpt lat="46.03938481109454" lon="9.302221697843668"><ele>205.33333333333331</ele><time>2026-05-03T11:34:13.003Z</time></trkpt><trkpt lat="46.03945566169629" lon="9.3022217950418"><ele>205.5</ele><time>2026-05-03T11:34:14.003Z</time></trkpt><trkpt lat="46.039583742415665" lon="9.302229516610215"><ele>205.66666666666669</ele><time>2026-05-03T11:34:16.003Z</time></trkpt><trkpt lat="46.03965285512854" lon="9.30223015378356"><ele>205.83333333333334</ele><time>2026-05-03T11:34:17.003Z</time></trkpt><trkpt lat="46.039725648110704" lon="9.302226916242644"><ele>206.0</ele><time>2026-05-03T11:34:18.003Z</time></trkpt><trkpt lat="46.039806651309476" lon="9.30222036171798"><ele>206.0</ele><time>2026-05-03T11:34:19.003Z</time></trkpt><trkpt lat="46.03990074011267" lon="9.302216857876903"><ele>206.0</ele><time>2026-05-03T11:34:20.003Z</time></trkpt><trkpt lat="46.04000211745895" lon="9.302225899544231"><ele>206.0</ele><time>2026-05-03T11:34:21.003Z</time></trkpt><trkpt lat="46.04010370001868" lon="9.302226861336564"><ele>206.0</ele><time>2026-05-03T11:34:22.003Z</time></trkpt><trkpt lat="46.04020236744523" lon="9.302232957185073"><ele>206.0</ele><time>2026-05-03T11:34:23.003Z</time></trkpt><trkpt lat="46.04029941434788" lon="9.302234704014934"><ele>206.00000000000003</ele><time>2026-05-03T11:34:24.003Z</time></trkpt><trkpt lat="46.0403845376622" lon="9.302240943134583"><ele>206.0</ele><time>2026-05-03T11:34:25.003Z</time></trkpt><trkpt lat="46.04046406370379" lon="9.302243509083919"><ele>206.0</ele><time>2026-05-03T11:34:26.003Z</time></trkpt><trkpt lat="46.04054453814895" lon="9.302241180592596"><ele>206.0</ele><time>2026-05-03T11:34:27.003Z</time></trkpt><trkpt lat="46.04062695084746" lon="9.302240968842273"><ele>206.00000000000003</ele><time>2026-05-03T11:34:28.003Z</time></trkpt><trkpt lat="46.04070798836507" lon="9.30224584330731"><ele>206.0</ele><time>2026-05-03T11:34:29.003Z</time></trkpt><trkpt lat="46.040787234195705" lon="9.302248967809216"><ele>206.16666666666669</ele><time>2026-05-03T11:34:30.003Z</time></trkpt><trkpt lat="46.04086876937128" lon="9.302250741974893"><ele>206.33333333333334</ele><time>2026-05-03T11:34:31.003Z</time></trkpt><trkpt lat="46.040948494910914" lon="9.302253327918812"><ele>206.5</ele><time>2026-05-03T11:34:32.003Z</time></trkpt><trkpt lat="46.04102979074433" lon="9.302258891044469"><ele>206.66666666666669</ele><time>2026-05-03T11:34:33.003Z</time></trkpt><trkpt lat="46.041113738008114" lon="9.302258059699305"><ele>206.83333333333334</ele><time>2026-05-03T11:34:34Z</time></trkpt><trkpt lat="46.04119660346716" lon="9.302259722270055"><ele>207.0</ele><time>2026-05-03T11:34:35Z</time></trkpt><trkpt lat="46.04127665257818" lon="9.302257994462403"><ele>207.0</ele><time>2026-05-03T11:34:36.001Z</time></trkpt><trkpt lat="46.041361061991424" lon="9.302254547488563"><ele>207.0</ele><time>2026-05-03T11:34:37Z</time></trkpt><trkpt lat="46.041444375530084" lon="9.302261058853585"><ele>207.0</ele><time>2026-05-03T11:34:38Z</time></trkpt><trkpt lat="46.041528724219006" lon="9.302262368730219"><ele>207.0</ele><time>2026-05-03T11:34:39.001Z</time></trkpt><trkpt lat="46.04161339622898" lon="9.302262021357816"><ele>207.0</ele><time>2026-05-03T11:34:40Z</time></trkpt><trkpt lat="46.041697027681664" lon="9.302260042422061"><ele>207.0</ele><time>2026-05-03T11:34:41Z</time></trkpt><trkpt lat="46.041780142856474" lon="9.302264118422976"><ele>207.0</ele><time>2026-05-03T11:34:42Z</time></trkpt><trkpt lat="46.04186580314834" lon="9.302267532591253"><ele>207.0</ele><time>2026-05-03T11:34:43Z</time></trkpt><trkpt lat="46.04195372280681" lon="9.30226895677001"><ele>207.0</ele><time>2026-05-03T11:34:44Z</time></trkpt><trkpt lat="46.04204234742578" lon="9.30227452439433"><ele>207.0</ele><time>2026-05-03T11:34:45Z</time></trkpt><trkpt lat="46.04213030067353" lon="9.3022776598539"><ele>207.0</ele><time>2026-05-03T11:34:46Z</time></trkpt><trkpt lat="46.042222032434275" lon="9.302281581521408"><ele>207.0</ele><time>2026-05-03T11:34:47Z</time></trkpt><trkpt lat="46.0423179394959" lon="9.302287030263521"><ele>207.0</ele><time>2026-05-03T11:34:48Z</time></trkpt><trkpt lat="46.04241315040088" lon="9.30228336284197"><ele>207.0</ele><time>2026-05-03T11:34:49Z</time></trkpt><trkpt lat="46.042510808864144" lon="9.302283754558358"><ele>207.0</ele><time>2026-05-03T11:34:50.001Z</time></trkpt><trkpt lat="46.042596823447624" lon="9.302304733260662"><ele>207.0</ele><time>2026-05-03T11:34:51.001Z</time></trkpt><trkpt lat="46.04269524558865" lon="9.302300102449676"><ele>207.0</ele><time>2026-05-03T11:34:52.001Z</time></trkpt><trkpt lat="46.04279168187713" lon="9.302299350305868"><ele>207.33333333333334</ele><time>2026-05-03T11:34:53.001Z</time></trkpt><trkpt lat="46.04289116276356" lon="9.302294395746621"><ele>207.66666666666669</ele><time>2026-05-03T11:34:54.001Z</time></trkpt><trkpt lat="46.042982239290176" lon="9.302291703492317"><ele>208.0</ele><time>2026-05-03T11:34:55.001Z</time></trkpt><trkpt lat="46.04306570158515" lon="9.302294348152484"><ele>208.33333333333334</ele><time>2026-05-03T11:34:56.001Z</time></trkpt><trkpt lat="46.0431396544128" lon="9.302300053705153"><ele>208.66666666666669</ele><time>2026-05-03T11:34:57.001Z</time></trkpt><trkpt lat="46.04321447011735" lon="9.302304365002946"><ele>209.0</ele><time>2026-05-03T11:34:58.001Z</time></trkpt><trkpt lat="46.04328727062066" lon="9.302318303214475"><ele>209.39999999999998</ele><time>2026-05-03T11:34:59.001Z</time></trkpt><trkpt lat="46.04335980599175" lon="9.302335679928243"><ele>209.8</ele><time>2026-05-03T11:35:00.001Z</time></trkpt><trkpt lat="46.04342300946237" lon="9.302360970812243"><ele>210.2</ele><time>2026-05-03T11:35:01.001Z</time></trkpt><trkpt lat="46.04351891092005" lon="9.302432810371517"><ele>210.60000000000002</ele><time>2026-05-03T11:35:03.001Z</time></trkpt><trkpt lat="46.043615708980326" lon="9.30251468957634"><ele>211.0</ele><time>2026-05-03T11:35:05.001Z</time></trkpt><trkpt lat="46.0437153528227" lon="9.30261488016445"><ele>210.99999999999997</ele><time>2026-05-03T11:35:07.001Z</time></trkpt><trkpt lat="46.04380547601932" lon="9.302742640052047"><ele>211.0</ele><time>2026-05-03T11:35:09.001Z</time></trkpt><trkpt lat="46.04384833764399" lon="9.302811062805604"><ele>211.0</ele><time>2026-05-03T11:35:10.001Z</time></trkpt><trkpt lat="46.043893698898074" lon="9.302880613560458"><ele>211.0</ele><time>2026-05-03T11:35:11.001Z</time></trkpt><trkpt lat="46.04394122871085" lon="9.302946125907274"><ele>210.99999999999997</ele><time>2026-05-03T11:35:12.001Z</time></trkpt><trkpt lat="46.04398820062342" lon="9.303009366100785"><ele>211.0</ele><time>2026-05-03T11:35:13.001Z</time></trkpt><trkpt lat="46.04403526295031" lon="9.303071453427105"><ele>211.0</ele><time>2026-05-03T11:35:14.001Z</time></trkpt><trkpt lat="46.04408486328595" lon="9.303135050727123"><ele>211.0</ele><time>2026-05-03T11:35:15.001Z</time></trkpt><trkpt lat="46.044135221229496" lon="9.303198591780863"><ele>211.0</ele><time>2026-05-03T11:35:16.001Z</time></trkpt><trkpt lat="46.044185758474335" lon="9.303261207708156"><ele>211.0</ele><time>2026-05-03T11:35:17.001Z</time></trkpt><trkpt lat="46.04423784440415" lon="9.303325070970953"><ele>211.0</ele><time>2026-05-03T11:35:18.001Z</time></trkpt><trkpt lat="46.04429045157797" lon="9.30338801673668"><ele>211.0</ele><time>2026-05-03T11:35:19.001Z</time></trkpt><trkpt lat="46.04434359589465" lon="9.303453121933115"><ele>211.0</ele><time>2026-05-03T11:35:20.001Z</time></trkpt><trkpt lat="46.044409075748156" lon="9.303527864680785"><ele>211.33333333333331</ele><time>2026-05-03T11:35:21.001Z</time></trkpt><trkpt lat="46.04446375151639" lon="9.303595156310625"><ele>211.66666666666666</ele><time>2026-05-03T11:35:22.001Z</time></trkpt><trkpt lat="46.044514837439394" lon="9.30365261347905"><ele>212.0</ele><time>2026-05-03T11:35:23.001Z</time></trkpt><trkpt lat="46.04456792031294" lon="9.303717295308049"><ele>212.33333333333331</ele><time>2026-05-03T11:35:24.001Z</time></trkpt><trkpt lat="46.044624157996665" lon="9.303791350645177"><ele>212.66666666666666</ele><time>2026-05-03T11:35:25.001Z</time></trkpt><trkpt lat="46.04468778171674" lon="9.303874107054673"><ele>213.0</ele><time>2026-05-03T11:35:26.001Z</time></trkpt><trkpt lat="46.0447564847215" lon="9.30396616880135"><ele>213.0</ele><time>2026-05-03T11:35:27.001Z</time></trkpt><trkpt lat="46.04482567736903" lon="9.304061096890644"><ele>213.0</ele><time>2026-05-03T11:35:28.001Z</time></trkpt><trkpt lat="46.044891527577406" lon="9.304156455623028"><ele>213.0</ele><time>2026-05-03T11:35:29.001Z</time></trkpt><trkpt lat="46.044963254014746" lon="9.30425642970089"><ele>213.0</ele><time>2026-05-03T11:35:30.001Z</time></trkpt><trkpt lat="46.04501726894509" lon="9.304382497741795"><ele>213.0</ele><time>2026-05-03T11:35:32.001Z</time></trkpt><trkpt lat="46.045093137032666" lon="9.30452024420181"><ele>212.4</ele><time>2026-05-03T11:35:34.002Z</time></trkpt><trkpt lat="46.04516274750329" lon="9.304679281351483"><ele>211.8</ele><time>2026-05-03T11:35:36.002Z</time></trkpt><trkpt lat="46.0452023940527" lon="9.30476299646675"><ele>211.2</ele><time>2026-05-03T11:35:37.002Z</time></trkpt><trkpt lat="46.04526372531216" lon="9.304906674562492"><ele>210.6</ele><time>2026-05-03T11:35:39.002Z</time></trkpt><trkpt lat="46.045300188195355" lon="9.304984325908958"><ele>210.0</ele><time>2026-05-03T11:35:40.002Z</time></trkpt><trkpt lat="46.04533571335975" lon="9.305074137580725"><ele>210.0</ele><time>2026-05-03T11:35:41.002Z</time></trkpt><trkpt lat="46.04537682925413" lon="9.305166101395658"><ele>210.0</ele><time>2026-05-03T11:35:42.002Z</time></trkpt><trkpt lat="46.045420217683" lon="9.305263259850674"><ele>210.0</ele><time>2026-05-03T11:35:43.002Z</time></trkpt><trkpt lat="46.045478568918696" lon="9.305350260551956"><ele>210.0</ele><time>2026-05-03T11:35:44.002Z</time></trkpt><trkpt lat="46.04554553549522" lon="9.305424433416341"><ele>210.0</ele><time>2026-05-03T11:35:45.002Z</time></trkpt><trkpt lat="46.045628827197916" lon="9.30549547740177"><ele>210.0</ele><time>2026-05-03T11:35:46.002Z</time></trkpt><trkpt lat="46.045727919306294" lon="9.305544004030303"><ele>213.75</ele><time>2026-05-03T11:35:47.002Z</time></trkpt><trkpt lat="46.04585146848089" lon="9.305598235663663"><ele>217.5</ele><time>2026-05-03T11:35:48.002Z</time></trkpt><trkpt lat="46.04598420303882" lon="9.305637644693942"><ele>221.25</ele><time>2026-05-03T11:35:49.002Z</time></trkpt><trkpt lat="46.04610769447754" lon="9.305663531571007"><ele>225.0</ele><time>2026-05-03T11:35:50.002Z</time></trkpt><trkpt lat="46.04621278325467" lon="9.305659798972005"><ele>225.0</ele><time>2026-05-03T11:35:51.002Z</time></trkpt><trkpt lat="46.046306144471544" lon="9.305645742038337"><ele>225.0</ele><time>2026-05-03T11:35:52.002Z</time></trkpt><trkpt lat="46.04637755029354" lon="9.305577755303348"><ele>225.0</ele><time>2026-05-03T11:35:53.002Z</time></trkpt><trkpt lat="46.04647417821442" lon="9.305543607976162"><ele>225.0</ele><time>2026-05-03T11:35:54.002Z</time></trkpt><trkpt lat="46.04656222416274" lon="9.305506425106138"><ele>225.0</ele><time>2026-05-03T11:35:55.002Z</time></trkpt><trkpt lat="46.04665178012466" lon="9.305471752182042"><ele>220.6</ele><time>2026-05-03T11:35:56.002Z</time></trkpt><trkpt lat="46.0467439196198" lon="9.305443773303953"><ele>216.2</ele><time>2026-05-03T11:35:57.002Z</time></trkpt><trkpt lat="46.04683991789285" lon="9.305425618023776"><ele>211.8</ele><time>2026-05-03T11:35:58.002Z</time></trkpt><trkpt lat="46.04693542868337" lon="9.305403216939792"><ele>207.4</ele><time>2026-05-03T11:35:59.002Z</time></trkpt><trkpt lat="46.04702993195589" lon="9.305405615986198"><ele>203.0</ele><time>2026-05-03T11:36:00.002Z</time></trkpt><trkpt lat="46.047112884063054" lon="9.305434386726784"><ele>203.0</ele><time>2026-05-03T11:36:01.002Z</time></trkpt><trkpt lat="46.047186600693536" lon="9.305481671725405"><ele>203.0</ele><time>2026-05-03T11:36:02.002Z</time></trkpt><trkpt lat="46.04726786720341" lon="9.305485901349916"><ele>203.0</ele><time>2026-05-03T11:36:03.002Z</time></trkpt><trkpt lat="46.04737322296712" lon="9.305566420997794"><ele>203.0</ele><time>2026-05-03T11:36:05.002Z</time></trkpt><trkpt lat="46.04746615467091" lon="9.305671118563694"><ele>203.0</ele><time>2026-05-03T11:36:07.002Z</time></trkpt><trkpt lat="46.047509794496904" lon="9.305739399090953"><ele>204.66666666666669</ele><time>2026-05-03T11:36:08.002Z</time></trkpt><trkpt lat="46.04754844678315" lon="9.30581767654466"><ele>206.33333333333334</ele><time>2026-05-03T11:36:09.002Z</time></trkpt><trkpt lat="46.047583261107405" lon="9.30591101359975"><ele>208.0</ele><time>2026-05-03T11:36:10.002Z</time></trkpt><trkpt lat="46.04762182161937" lon="9.306018071047607"><ele>209.66666666666669</ele><time>2026-05-03T11:36:11.002Z</time></trkpt><trkpt lat="46.04767096357098" lon="9.306141062218565"><ele>211.33333333333334</ele><time>2026-05-03T11:36:12.002Z</time></trkpt><trkpt lat="46.04772041115535" lon="9.306250487033372"><ele>213.0</ele><time>2026-05-03T11:36:13.003Z</time></trkpt><trkpt lat="46.047768785726014" lon="9.306364172525432"><ele>216.0</ele><time>2026-05-03T11:36:14.003Z</time></trkpt><trkpt lat="46.04781458015401" lon="9.30646548805826"><ele>219.0</ele><time>2026-05-03T11:36:15.003Z</time></trkpt><trkpt lat="46.04786166715214" lon="9.306571386542819"><ele>222.0</ele><time>2026-05-03T11:36:16.003Z</time></trkpt><trkpt lat="46.04790618177797" lon="9.306667182754625"><ele>225.0</ele><time>2026-05-03T11:36:17.003Z</time></trkpt><trkpt lat="46.047947577694636" lon="9.306750377112438"><ele>228.0</ele><time>2026-05-03T11:36:18.003Z</time></trkpt><trkpt lat="46.048009060173165" lon="9.306812583951917"><ele>231.0</ele><time>2026-05-03T11:36:19.003Z</time></trkpt><trkpt lat="46.04806724568342" lon="9.306877440474103"><ele>231.0</ele><time>2026-05-03T11:36:20.003Z</time></trkpt><trkpt lat="46.04813624519485" lon="9.306925193271832"><ele>231.0</ele><time>2026-05-03T11:36:21.003Z</time></trkpt><trkpt lat="46.04820918086744" lon="9.306970239674362"><ele>231.0</ele><time>2026-05-03T11:36:22.003Z</time></trkpt><trkpt lat="46.04828277903317" lon="9.307017940423345"><ele>231.0</ele><time>2026-05-03T11:36:23.003Z</time></trkpt><trkpt lat="46.0483654648242" lon="9.307042799791079"><ele>231.0</ele><time>2026-05-03T11:36:24.003Z</time></trkpt><trkpt lat="46.04845266370224" lon="9.307077556350402"><ele>231.0</ele><time>2026-05-03T11:36:25.003Z</time></trkpt><trkpt lat="46.04854735673539" lon="9.307104010911576"><ele>229.5</ele><time>2026-05-03T11:36:26.003Z</time></trkpt><trkpt lat="46.048630151775704" lon="9.30715359184769"><ele>228.0</ele><time>2026-05-03T11:36:27.003Z</time></trkpt><trkpt lat="46.04871568512075" lon="9.307196330217964"><ele>226.5</ele><time>2026-05-03T11:36:28.003Z</time></trkpt><trkpt lat="46.0487938141039" lon="9.307243243213554"><ele>225.0</ele><time>2026-05-03T11:36:29.003Z</time></trkpt><trkpt lat="46.048869885859744" lon="9.307284917988424"><ele>223.5</ele><time>2026-05-03T11:36:30.003Z</time></trkpt><trkpt lat="46.048943601799884" lon="9.307328700627057"><ele>222.0</ele><time>2026-05-03T11:36:31.003Z</time></trkpt><trkpt lat="46.04901169767905" lon="9.307382121216605"><ele>222.0</ele><time>2026-05-03T11:36:32.003Z</time></trkpt><trkpt lat="46.04907335581211" lon="9.307440849575999"><ele>222.0</ele><time>2026-05-03T11:36:33.003Z</time></trkpt><trkpt lat="46.04912940112726" lon="9.307495651509498"><ele>222.0</ele><time>2026-05-03T11:36:34.003Z</time></trkpt><trkpt lat="46.049194433165276" lon="9.30755378232549"><ele>222.0</ele><time>2026-05-03T11:36:36.003Z</time></trkpt><trkpt lat="46.049246626774135" lon="9.307407688861652"><ele>222.0</ele><time>2026-05-03T11:36:38.003Z</time></trkpt><trkpt lat="46.04922434340506" lon="9.307281370850184"><ele>222.0</ele><time>2026-05-03T11:36:40Z</time></trkpt><trkpt lat="46.04913874200258" lon="9.307232767943074"><ele>222.0</ele><time>2026-05-03T11:43:33.001Z</time></trkpt><trkpt lat="46.04906089894899" lon="9.307243961426964"><ele>222.0</ele><time>2026-05-03T11:43:35.001Z</time></trkpt><trkpt lat="46.04901891132524" lon="9.307313030842883"><ele>222.0</ele><time>2026-05-03T11:43:38.001Z</time></trkpt><trkpt lat="46.04908635219364" lon="9.307471768508739"><ele>222.0</ele><time>2026-05-03T11:43:41.001Z</time></trkpt><trkpt lat="46.049142825264866" lon="9.307524050334228"><ele>222.0</ele><time>2026-05-03T11:43:42.001Z</time></trkpt><trkpt lat="46.04919834376497" lon="9.307584541206161"><ele>222.0</ele><time>2026-05-03T11:43:43.001Z</time></trkpt><trkpt lat="46.049258233474774" lon="9.307651890083976"><ele>222.0</ele><time>2026-05-03T11:43:44.001Z</time></trkpt><trkpt lat="46.04933785308652" lon="9.307756671475877"><ele>222.0</ele><time>2026-05-03T11:43:45.001Z</time></trkpt><trkpt lat="46.04943348543049" lon="9.307903067344588"><ele>222.0</ele><time>2026-05-03T11:43:46.001Z</time></trkpt><trkpt lat="46.04953558215876" lon="9.308089794168234"><ele>222.0</ele><time>2026-05-03T11:43:47.001Z</time></trkpt><trkpt lat="46.049639281430075" lon="9.308289052582971"><ele>222.0</ele><time>2026-05-03T11:43:48.001Z</time></trkpt><trkpt lat="46.04974667694292" lon="9.308479296854701"><ele>222.0</ele><time>2026-05-03T11:43:49.001Z</time></trkpt><trkpt lat="46.04984978604692" lon="9.30865782582484"><ele>222.0</ele><time>2026-05-03T11:43:50.001Z</time></trkpt><trkpt lat="46.04995007744903" lon="9.308839032769864"><ele>219.75</ele><time>2026-05-03T11:43:51.001Z</time></trkpt><trkpt lat="46.05004109483852" lon="9.30900473001405"><ele>217.5</ele><time>2026-05-03T11:43:52.001Z</time></trkpt><trkpt lat="46.050133082163946" lon="9.309172086546962"><ele>215.25</ele><time>2026-05-03T11:43:53.002Z</time></trkpt><trkpt lat="46.05022230997085" lon="9.30934120901355"><ele>213.0</ele><time>2026-05-03T11:43:54.002Z</time></trkpt><trkpt lat="46.05031472572576" lon="9.309506939325932"><ele>213.0</ele><time>2026-05-03T11:43:55.002Z</time></trkpt><trkpt lat="46.050410149722055" lon="9.309670488692417"><ele>213.0</ele><time>2026-05-03T11:43:56.002Z</time></trkpt><trkpt lat="46.050496254393266" lon="9.309826280831238"><ele>213.0</ele><time>2026-05-03T11:43:57.002Z</time></trkpt><trkpt lat="46.05057472452394" lon="9.309966146990973"><ele>213.0</ele><time>2026-05-03T11:43:58.002Z</time></trkpt><trkpt lat="46.050649140118786" lon="9.310093372979056"><ele>212.0</ele><time>2026-05-03T11:43:59.002Z</time></trkpt><trkpt lat="46.05072781821658" lon="9.31020928594983"><ele>211.0</ele><time>2026-05-03T11:44:00.002Z</time></trkpt><trkpt lat="46.050814188094066" lon="9.310314324157712"><ele>210.0</ele><time>2026-05-03T11:44:01.002Z</time></trkpt><trkpt lat="46.050906287649674" lon="9.310407473806787"><ele>209.0</ele><time>2026-05-03T11:44:02.002Z</time></trkpt><trkpt lat="46.05100300131356" lon="9.31049403223893"><ele>214.25</ele><time>2026-05-03T11:44:03.002Z</time></trkpt><trkpt lat="46.05110461098321" lon="9.310578010226505"><ele>219.5</ele><time>2026-05-03T11:44:04.002Z</time></trkpt><trkpt lat="46.051206921970476" lon="9.310657413783579"><ele>224.75</ele><time>2026-05-03T11:44:05.002Z</time></trkpt><trkpt lat="46.05130542339022" lon="9.310734263073078"><ele>230.0</ele><time>2026-05-03T11:44:06.002Z</time></trkpt><trkpt lat="46.051406522617" lon="9.310810791134415"><ele>230.0</ele><time>2026-05-03T11:44:07.002Z</time></trkpt><trkpt lat="46.05150996477041" lon="9.310885494671513"><ele>230.0</ele><time>2026-05-03T11:44:08.002Z</time></trkpt><trkpt lat="46.051619788549836" lon="9.310966072691135"><ele>230.0</ele><time>2026-05-03T11:44:09.002Z</time></trkpt><trkpt lat="46.051732879979554" lon="9.3110473468871"><ele>230.0</ele><time>2026-05-03T11:44:10.002Z</time></trkpt><trkpt lat="46.051848490339026" lon="9.311134674579252"><ele>230.5</ele><time>2026-05-03T11:44:11.002Z</time></trkpt><trkpt lat="46.051961849060234" lon="9.31121887557962"><ele>231.0</ele><time>2026-05-03T11:44:12.002Z</time></trkpt><trkpt lat="46.05207806118566" lon="9.3112990660784"><ele>231.5</ele><time>2026-05-03T11:44:13.002Z</time></trkpt><trkpt lat="46.05218640572504" lon="9.311381566992301"><ele>232.0</ele><time>2026-05-03T11:44:14.002Z</time></trkpt><trkpt lat="46.05230459027512" lon="9.311469178216944"><ele>232.0</ele><time>2026-05-03T11:44:15.002Z</time></trkpt><trkpt lat="46.05242397949832" lon="9.311557507731663"><ele>232.0</ele><time>2026-05-03T11:44:16.002Z</time></trkpt><trkpt lat="46.052542837423864" lon="9.311650538099608"><ele>232.0</ele><time>2026-05-03T11:44:17.002Z</time></trkpt><trkpt lat="46.052653186158196" lon="9.311734329732916"><ele>232.0</ele><time>2026-05-03T11:44:18.002Z</time></trkpt><trkpt lat="46.05276092684199" lon="9.311819975677416"><ele>227.25</ele><time>2026-05-03T11:44:19.002Z</time></trkpt><trkpt lat="46.05287124274835" lon="9.311910089076209"><ele>222.5</ele><time>2026-05-03T11:44:20.002Z</time></trkpt><trkpt lat="46.05297975240591" lon="9.312001157863328"><ele>217.75</ele><time>2026-05-03T11:44:21.002Z</time></trkpt><trkpt lat="46.053090466300695" lon="9.312092027691852"><ele>213.0</ele><time>2026-05-03T11:44:22.002Z</time></trkpt><trkpt lat="46.053202123597345" lon="9.312182714228175"><ele>215.75</ele><time>2026-05-03T11:44:23.002Z</time></trkpt><trkpt lat="46.053312946057396" lon="9.312268017835022"><ele>218.5</ele><time>2026-05-03T11:44:24.002Z</time></trkpt><trkpt lat="46.053421928866776" lon="9.312348440639719"><ele>221.25</ele><time>2026-05-03T11:44:25.002Z</time></trkpt><trkpt lat="46.05353061424841" lon="9.312417434312204"><ele>224.0</ele><time>2026-05-03T11:44:26.002Z</time></trkpt><trkpt lat="46.05364389869345" lon="9.312469865601194"><ele>224.0</ele><time>2026-05-03T11:44:27.002Z</time></trkpt><trkpt lat="46.05376050053285" lon="9.312499798049855"><ele>224.0</ele><time>2026-05-03T11:44:28.002Z</time></trkpt><trkpt lat="46.0538786682903" lon="9.312507083836122"><ele>224.0</ele><time>2026-05-03T11:44:29.002Z</time></trkpt><trkpt lat="46.054004440464006" lon="9.31250489186181"><ele>224.0</ele><time>2026-05-03T11:44:30.002Z</time></trkpt><trkpt lat="46.0541262038541" lon="9.312504385878851"><ele>221.75</ele><time>2026-05-03T11:44:31.002Z</time></trkpt><trkpt lat="46.05424917494413" lon="9.312504963388163"><ele>219.5</ele><time>2026-05-03T11:44:32.002Z</time></trkpt><trkpt lat="46.05436998360428" lon="9.312510420834506"><ele>217.25</ele><time>2026-05-03T11:44:33.002Z</time></trkpt><trkpt lat="46.0544897266751" lon="9.312525851631433"><ele>215.0</ele><time>2026-05-03T11:44:34.002Z</time></trkpt><trkpt lat="46.054608183585366" lon="9.312559201156759"><ele>215.0</ele><time>2026-05-03T11:44:35.002Z</time></trkpt><trkpt lat="46.05472779224028" lon="9.312611434553215"><ele>215.0</ele><time>2026-05-03T11:44:36.002Z</time></trkpt><trkpt lat="46.05485560172209" lon="9.31268776249632"><ele>215.0</ele><time>2026-05-03T11:44:37.002Z</time></trkpt><trkpt lat="46.05498943514302" lon="9.312774141470314"><ele>215.0</ele><time>2026-05-03T11:44:38.002Z</time></trkpt><trkpt lat="46.05512712524484" lon="9.31285934615319"><ele>215.0</ele><time>2026-05-03T11:44:39.002Z</time></trkpt><trkpt lat="46.055265597069784" lon="9.312927042476911"><ele>215.0</ele><time>2026-05-03T11:44:40.002Z</time></trkpt><trkpt lat="46.055422068631316" lon="9.312961301500776"><ele>215.0</ele><time>2026-05-03T11:44:41.002Z</time></trkpt><trkpt lat="46.05557739450762" lon="9.312978074663535"><ele>215.0</ele><time>2026-05-03T11:44:42.002Z</time></trkpt><trkpt lat="46.05574351564453" lon="9.31299460402839"><ele>215.0</ele><time>2026-05-03T11:44:43.002Z</time></trkpt><trkpt lat="46.05592009819941" lon="9.313007039656245"><ele>215.0</ele><time>2026-05-03T11:44:44.002Z</time></trkpt><trkpt lat="46.05609221576014" lon="9.3130280249613"><ele>211.66666666666669</ele><time>2026-05-03T11:44:45.003Z</time></trkpt><trkpt lat="46.05626390122825" lon="9.313047401858865"><ele>208.33333333333331</ele><time>2026-05-03T11:44:46.003Z</time></trkpt><trkpt lat="46.05643314484307" lon="9.313071762037918"><ele>205.0</ele><time>2026-05-03T11:44:47.003Z</time></trkpt><trkpt lat="46.056595413484466" lon="9.313094535314804"><ele>213.33333333333331</ele><time>2026-05-03T11:44:48.003Z</time></trkpt><trkpt lat="46.056746795897695" lon="9.313106226829916"><ele>221.66666666666669</ele><time>2026-05-03T11:44:49.003Z</time></trkpt><trkpt lat="46.05690102238726" lon="9.31310613268467"><ele>230.0</ele><time>2026-05-03T11:44:50.003Z</time></trkpt><trkpt lat="46.057057705096454" lon="9.313083620238677"><ele>222.66666666666669</ele><time>2026-05-03T11:44:51.003Z</time></trkpt><trkpt lat="46.05721943954721" lon="9.313037288954185"><ele>215.33333333333331</ele><time>2026-05-03T11:44:52.003Z</time></trkpt><trkpt lat="46.05738596340203" lon="9.312976651592264"><ele>208.0</ele><time>2026-05-03T11:44:53.003Z</time></trkpt><trkpt lat="46.057558062662714" lon="9.312904565895813"><ele>208.0</ele><time>2026-05-03T11:44:54.003Z</time></trkpt><trkpt lat="46.05773765919661" lon="9.312826733313306"><ele>208.0</ele><time>2026-05-03T11:44:55.003Z</time></trkpt><trkpt lat="46.0579127372495" lon="9.312754814293376"><ele>208.0</ele><time>2026-05-03T11:44:56.003Z</time></trkpt><trkpt lat="46.05807271362385" lon="9.312685291415876"><ele>208.0</ele><time>2026-05-03T11:44:57.003Z</time></trkpt><trkpt lat="46.05823271463762" lon="9.312619770762714"><ele>208.0</ele><time>2026-05-03T11:44:58.003Z</time></trkpt><trkpt lat="46.058391091153865" lon="9.312560660922202"><ele>208.0</ele><time>2026-05-03T11:44:59.003Z</time></trkpt><trkpt lat="46.0585317572847" lon="9.31249111647352"><ele>209.75</ele><time>2026-05-03T11:45:00.003Z</time></trkpt><trkpt lat="46.058673496296066" lon="9.312466654016788"><ele>211.5</ele><time>2026-05-03T11:45:01.003Z</time></trkpt><trkpt lat="46.05881368528814" lon="9.312443700014345"><ele>213.25</ele><time>2026-05-03T11:45:02.003Z</time></trkpt><trkpt lat="46.05893860060013" lon="9.312423053828127"><ele>215.0</ele><time>2026-05-03T11:45:03.003Z</time></trkpt><trkpt lat="46.05905474315143" lon="9.312407599757371"><ele>215.75</ele><time>2026-05-03T11:45:04Z</time></trkpt><trkpt lat="46.0592173893342" lon="9.312398950195695"><ele>216.5</ele><time>2026-05-03T11:45:05Z</time></trkpt><trkpt lat="46.059333278174535" lon="9.312441316295253"><ele>217.25</ele><time>2026-05-03T11:45:06Z</time></trkpt><trkpt lat="46.05945699031025" lon="9.312507777608198"><ele>218.0</ele><time>2026-05-03T11:45:07Z</time></trkpt><trkpt lat="46.05961129489838" lon="9.312570384737581"><ele>218.0</ele><time>2026-05-03T11:45:08Z</time></trkpt><trkpt lat="46.059755572552696" lon="9.312652997076842"><ele>218.0</ele><time>2026-05-03T11:45:09Z</time></trkpt><trkpt lat="46.05991377790946" lon="9.31269224069779"><ele>218.0</ele><time>2026-05-03T11:45:10Z</time></trkpt><trkpt lat="46.06008475487005" lon="9.312702904368031"><ele>217.0</ele><time>2026-05-03T11:45:11Z</time></trkpt><trkpt lat="46.060258658265624" lon="9.312713821767002"><ele>216.0</ele><time>2026-05-03T11:45:12Z</time></trkpt><trkpt lat="46.06044301247625" lon="9.31270343996076"><ele>215.0</ele><time>2026-05-03T11:45:13Z</time></trkpt><trkpt lat="46.06061751135974" lon="9.312678427238415"><ele>215.0</ele><time>2026-05-03T11:45:14Z</time></trkpt><trkpt lat="46.06077358744533" lon="9.312639413267178"><ele>215.0</ele><time>2026-05-03T11:45:15Z</time></trkpt><trkpt lat="46.06092117077514" lon="9.31260020586924"><ele>215.0</ele><time>2026-05-03T11:45:16Z</time></trkpt><trkpt lat="46.061063637980716" lon="9.312571260096162"><ele>220.33333333333334</ele><time>2026-05-03T11:45:17Z</time></trkpt><trkpt lat="46.061184479015914" lon="9.31243752129531"><ele>225.66666666666669</ele><time>2026-05-03T11:45:18Z</time></trkpt><trkpt lat="46.06131272046823" lon="9.312306091529269"><ele>231.0</ele><time>2026-05-03T11:45:19Z</time></trkpt><trkpt lat="46.061448858064075" lon="9.312217735573606"><ele>220.66666666666669</ele><time>2026-05-03T11:45:20Z</time></trkpt><trkpt lat="46.06159860892809" lon="9.312176778287427"><ele>210.33333333333334</ele><time>2026-05-03T11:45:21Z</time></trkpt><trkpt lat="46.06176249302576" lon="9.312165397208446"><ele>200.0</ele><time>2026-05-03T11:45:22Z</time></trkpt><trkpt lat="46.061919534822785" lon="9.312149969748448"><ele>200.0</ele><time>2026-05-03T11:45:23Z</time></trkpt><trkpt lat="46.06207547883021" lon="9.312124122276554"><ele>200.0</ele><time>2026-05-03T11:45:24Z</time></trkpt><trkpt lat="46.06222712519225" lon="9.312061500197546"><ele>200.0</ele><time>2026-05-03T11:45:25Z</time></trkpt><trkpt lat="46.06237618623173" lon="9.311970322252133"><ele>203.0</ele><time>2026-05-03T11:45:26Z</time></trkpt><trkpt lat="46.062522687015715" lon="9.311845900993752"><ele>206.0</ele><time>2026-05-03T11:45:27Z</time></trkpt><trkpt lat="46.06266157629021" lon="9.311727858276164"><ele>209.0</ele><time>2026-05-03T11:45:28Z</time></trkpt><trkpt lat="46.06279423784989" lon="9.311634975955563"><ele>209.0</ele><time>2026-05-03T11:45:29Z</time></trkpt><trkpt lat="46.06293244738179" lon="9.311588191634234"><ele>209.0</ele><time>2026-05-03T11:45:30Z</time></trkpt><trkpt lat="46.063084264987204" lon="9.311579875790883"><ele>209.0</ele><time>2026-05-03T11:45:31Z</time></trkpt><trkpt lat="46.06323861887221" lon="9.311598846126781"><ele>209.0</ele><time>2026-05-03T11:45:32Z</time></trkpt><trkpt lat="46.063379413347256" lon="9.311651853126417"><ele>216.66666666666669</ele><time>2026-05-03T11:45:33Z</time></trkpt><trkpt lat="46.06353700611546" lon="9.311687830101137"><ele>224.33333333333331</ele><time>2026-05-03T11:45:34Z</time></trkpt><trkpt lat="46.06368871957286" lon="9.311722854222017"><ele>232.0</ele><time>2026-05-03T11:45:35Z</time></trkpt><trkpt lat="46.06383802757208" lon="9.311763042880566"><ele>232.0</ele><time>2026-05-03T11:45:36Z</time></trkpt><trkpt lat="46.06399494811009" lon="9.311799883170078"><ele>232.0</ele><time>2026-05-03T11:45:37Z</time></trkpt><trkpt lat="46.06417576881315" lon="9.311748575875404"><ele>232.0</ele><time>2026-05-03T11:45:38.001Z</time></trkpt><trkpt lat="46.06432002741107" lon="9.311665636457954"><ele>226.0</ele><time>2026-05-03T11:45:39.069Z</time></trkpt><trkpt lat="46.06445455178151" lon="9.31158955363327"><ele>220.0</ele><time>2026-05-03T11:45:40.054Z</time></trkpt><trkpt lat="46.064592326340666" lon="9.311513956548342"><ele>214.0</ele><time>2026-05-03T11:45:41.054Z</time></trkpt><trkpt lat="46.06472651760317" lon="9.311440325598323"><ele>208.0</ele><time>2026-05-03T11:45:42.054Z</time></trkpt><trkpt lat="46.064866265890906" lon="9.311362309791217"><ele>206.0</ele><time>2026-05-03T11:45:43.038Z</time></trkpt><trkpt lat="46.06500363724974" lon="9.311285360271452"><ele>204.0</ele><time>2026-05-03T11:45:44.032Z</time></trkpt><trkpt lat="46.06598315122404" lon="9.309915984734433"><ele>204.0</ele><time>2026-05-03T11:45:54.001Z</time></trkpt><trkpt lat="46.06607220710051" lon="9.309799587367234"><ele>204.0</ele><time>2026-05-03T11:45:55.001Z</time></trkpt><trkpt lat="46.06626961331176" lon="9.309770735086293"><ele>204.0</ele><time>2026-05-03T11:45:56.001Z</time></trkpt><trkpt lat="46.06640911728463" lon="9.309692733960825"><ele>203.5</ele><time>2026-05-03T11:45:57.001Z</time></trkpt><trkpt lat="46.066525179647066" lon="9.309649322393147"><ele>203.0</ele><time>2026-05-03T11:45:58.001Z</time></trkpt><trkpt lat="46.06667440329684" lon="9.30961943035084"><ele>202.5</ele><time>2026-05-03T11:45:59.001Z</time></trkpt><trkpt lat="46.06682937676797" lon="9.309659750286176"><ele>202.0</ele><time>2026-05-03T11:46:00.001Z</time></trkpt><trkpt lat="46.06698559793913" lon="9.309684752506586"><ele>202.0</ele><time>2026-05-03T11:46:01.001Z</time></trkpt><trkpt lat="46.06714362802916" lon="9.309699399348782"><ele>202.0</ele><time>2026-05-03T11:46:02.001Z</time></trkpt><trkpt lat="46.067302987817136" lon="9.309712746820441"><ele>202.0</ele><time>2026-05-03T11:46:03.001Z</time></trkpt><trkpt lat="46.067459211359804" lon="9.309724642538292"><ele>203.33333333333331</ele><time>2026-05-03T11:46:04.001Z</time></trkpt><trkpt lat="46.06761526818951" lon="9.309733173508"><ele>204.66666666666669</ele><time>2026-05-03T11:46:05.001Z</time></trkpt><trkpt lat="46.067771046706405" lon="9.309744135736583"><ele>206.0</ele><time>2026-05-03T11:46:06.001Z</time></trkpt><trkpt lat="46.06792725863872" lon="9.309749603640979"><ele>205.75</ele><time>2026-05-03T11:46:07.001Z</time></trkpt><trkpt lat="46.068073403085165" lon="9.309756115767298"><ele>205.5</ele><time>2026-05-03T11:46:08.001Z</time></trkpt><trkpt lat="46.06820769320588" lon="9.30975782833181"><ele>205.25</ele><time>2026-05-03T11:46:09.001Z</time></trkpt><trkpt lat="46.0683312814987" lon="9.309757765972245"><ele>205.0</ele><time>2026-05-03T11:46:10.001Z</time></trkpt><trkpt lat="46.06844803123604" lon="9.309728845110998"><ele>205.0</ele><time>2026-05-03T11:46:11.001Z</time></trkpt><trkpt lat="46.06857155626012" lon="9.309669981690579"><ele>205.0</ele><time>2026-05-03T11:46:12.001Z</time></trkpt><trkpt lat="46.068693619443046" lon="9.30958025839181"><ele>205.0</ele><time>2026-05-03T11:46:13.001Z</time></trkpt><trkpt lat="46.06881205255298" lon="9.30948851470687"><ele>205.0</ele><time>2026-05-03T11:46:14.001Z</time></trkpt><trkpt lat="46.0689287402368" lon="9.309400499779512"><ele>205.0</ele><time>2026-05-03T11:46:15.001Z</time></trkpt><trkpt lat="46.06905173526418" lon="9.309309221546027"><ele>205.0</ele><time>2026-05-03T11:46:16.001Z</time></trkpt><trkpt lat="46.069179556388995" lon="9.309220988273546"><ele>205.0</ele><time>2026-05-03T11:46:17.001Z</time></trkpt><trkpt lat="46.069309512157844" lon="9.309133540000136"><ele>205.0</ele><time>2026-05-03T11:46:18.001Z</time></trkpt><trkpt lat="46.069442255611506" lon="9.309048499850348"><ele>205.25</ele><time>2026-05-03T11:46:19.001Z</time></trkpt><trkpt lat="46.06957081299272" lon="9.308961706208363"><ele>205.5</ele><time>2026-05-03T11:46:20.001Z</time></trkpt><trkpt lat="46.06970684294054" lon="9.308864596312619"><ele>205.75</ele><time>2026-05-03T11:46:21.001Z</time></trkpt><trkpt lat="46.06983973245748" lon="9.308770485909495"><ele>206.0</ele><time>2026-05-03T11:46:22.001Z</time></trkpt><trkpt lat="46.06996713376292" lon="9.308683151219027"><ele>205.25</ele><time>2026-05-03T11:46:23.001Z</time></trkpt><trkpt lat="46.07007867389078" lon="9.3086007373685"><ele>204.5</ele><time>2026-05-03T11:46:24.001Z</time></trkpt><trkpt lat="46.07018261877882" lon="9.308512993315873"><ele>203.75</ele><time>2026-05-03T11:46:25.001Z</time></trkpt><trkpt lat="46.07027723422634" lon="9.30841825677147"><ele>203.0</ele><time>2026-05-03T11:46:26.001Z</time></trkpt><trkpt lat="46.070374602751514" lon="9.30831748001907"><ele>203.0</ele><time>2026-05-03T11:46:27.001Z</time></trkpt><trkpt lat="46.07046888928537" lon="9.308222911890043"><ele>203.0</ele><time>2026-05-03T11:46:28.002Z</time></trkpt><trkpt lat="46.070567756021944" lon="9.308129558250616"><ele>203.0</ele><time>2026-05-03T11:46:29.002Z</time></trkpt><trkpt lat="46.07066563151659" lon="9.30803228994985"><ele>203.0</ele><time>2026-05-03T11:46:30.002Z</time></trkpt><trkpt lat="46.070763483728065" lon="9.307933168048555"><ele>203.75</ele><time>2026-05-03T11:46:31.002Z</time></trkpt><trkpt lat="46.07086346837305" lon="9.307835003581154"><ele>204.5</ele><time>2026-05-03T11:46:32.002Z</time></trkpt><trkpt lat="46.07096735024205" lon="9.30772864286139"><ele>205.25</ele><time>2026-05-03T11:46:33.002Z</time></trkpt><trkpt lat="46.07107101567754" lon="9.307628999414716"><ele>206.0</ele><time>2026-05-03T11:46:34.002Z</time></trkpt><trkpt lat="46.07117915384692" lon="9.307524943101653"><ele>206.0</ele><time>2026-05-03T11:46:35.002Z</time></trkpt><trkpt lat="46.07128944831969" lon="9.307421674242063"><ele>206.0</ele><time>2026-05-03T11:46:36.002Z</time></trkpt><trkpt lat="46.07140871484749" lon="9.307304165701945"><ele>206.0</ele><time>2026-05-03T11:46:37.002Z</time></trkpt><trkpt lat="46.07153570609328" lon="9.307183081675367"><ele>206.0</ele><time>2026-05-03T11:46:38.002Z</time></trkpt><trkpt lat="46.071660284623675" lon="9.307055939067432"><ele>206.33333333333334</ele><time>2026-05-03T11:46:39.002Z</time></trkpt><trkpt lat="46.07180121848779" lon="9.306925057782"><ele>206.66666666666669</ele><time>2026-05-03T11:46:40.002Z</time></trkpt><trkpt lat="46.071937541491614" lon="9.306795440004219"><ele>207.0</ele><time>2026-05-03T11:46:41.002Z</time></trkpt><trkpt lat="46.072086856653314" lon="9.306664156255984"><ele>207.0</ele><time>2026-05-03T11:46:42.002Z</time></trkpt><trkpt lat="46.07223509566362" lon="9.306533831078761"><ele>207.0</ele><time>2026-05-03T11:46:43.002Z</time></trkpt><trkpt lat="46.07237581597745" lon="9.306409405883327"><ele>207.0</ele><time>2026-05-03T11:46:44.002Z</time></trkpt><trkpt lat="46.0725307948379" lon="9.306273507542645"><ele>208.0</ele><time>2026-05-03T11:46:45.002Z</time></trkpt><trkpt lat="46.072691759120296" lon="9.306141709748166"><ele>209.0</ele><time>2026-05-03T11:46:46.002Z</time></trkpt><trkpt lat="46.07284526062065" lon="9.306009962860374"><ele>210.0</ele><time>2026-05-03T11:46:47.002Z</time></trkpt><trkpt lat="46.07300652083368" lon="9.305874876570678"><ele>210.0</ele><time>2026-05-03T11:46:48.002Z</time></trkpt><trkpt lat="46.0731602126954" lon="9.305750837859659"><ele>210.0</ele><time>2026-05-03T11:46:49.002Z</time></trkpt><trkpt lat="46.07330806251492" lon="9.305628855941766"><ele>210.0</ele><time>2026-05-03T11:46:50.002Z</time></trkpt><trkpt lat="46.07344580185212" lon="9.305522262680062"><ele>210.0</ele><time>2026-05-03T11:46:51.002Z</time></trkpt><trkpt lat="46.073575549513315" lon="9.30541646196446"><ele>210.0</ele><time>2026-05-03T11:46:52.002Z</time></trkpt><trkpt lat="46.07369390148731" lon="9.305325955363124"><ele>210.0</ele><time>2026-05-03T11:46:53.002Z</time></trkpt><trkpt lat="46.0738035136875" lon="9.305241866795102"><ele>210.0</ele><time>2026-05-03T11:46:54.002Z</time></trkpt><trkpt lat="46.073903734908846" lon="9.305164730876601"><ele>210.0</ele><time>2026-05-03T11:46:55.002Z</time></trkpt><trkpt lat="46.0739954793398" lon="9.305095364026537"><ele>210.0</ele><time>2026-05-03T11:46:56.002Z</time></trkpt><trkpt lat="46.07408431835584" lon="9.305028641964029"><ele>210.0</ele><time>2026-05-03T11:46:57.002Z</time></trkpt><trkpt lat="46.07416515251431" lon="9.304969793445517"><ele>210.0</ele><time>2026-05-03T11:46:58.002Z</time></trkpt><trkpt lat="46.074238012313316" lon="9.304918807568605"><ele>210.0</ele><time>2026-05-03T11:46:59.002Z</time></trkpt><trkpt lat="46.074309903488185" lon="9.304871140472944"><ele>210.0</ele><time>2026-05-03T11:47:00.002Z</time></trkpt><trkpt lat="46.07437678276744" lon="9.304834080981886"><ele>210.0</ele><time>2026-05-03T11:47:01.002Z</time></trkpt><trkpt lat="46.074451894221596" lon="9.304784489698374"><ele>210.0</ele><time>2026-05-03T11:47:02.002Z</time></trkpt><trkpt lat="46.074516843546" lon="9.304739958996594"><ele>210.0</ele><time>2026-05-03T11:47:03.002Z</time></trkpt><trkpt lat="46.07458472363575" lon="9.304699424931767"><ele>210.0</ele><time>2026-05-03T11:47:04.002Z</time></trkpt><trkpt lat="46.074647812323285" lon="9.304666587028864"><ele>210.0</ele><time>2026-05-03T11:47:05.002Z</time></trkpt><trkpt lat="46.0747130976647" lon="9.304631117277163"><ele>210.0</ele><time>2026-05-03T11:47:06.002Z</time></trkpt><trkpt lat="46.07478868120786" lon="9.304605753487289"><ele>209.83333333333334</ele><time>2026-05-03T11:47:07.002Z</time></trkpt><trkpt lat="46.074870544233065" lon="9.304576784039465"><ele>209.66666666666669</ele><time>2026-05-03T11:47:08.002Z</time></trkpt><trkpt lat="46.07495489807482" lon="9.304554744467943"><ele>209.5</ele><time>2026-05-03T11:47:09.002Z</time></trkpt><trkpt lat="46.0750420173898" lon="9.304531689940372"><ele>209.33333333333334</ele><time>2026-05-03T11:47:09.999Z</time></trkpt><trkpt lat="46.07513340334426" lon="9.304506298546249"><ele>209.16666666666669</ele><time>2026-05-03T11:47:10.999Z</time></trkpt><trkpt lat="46.075221274614755" lon="9.3044790817943"><ele>209.0</ele><time>2026-05-03T11:47:11.999Z</time></trkpt><trkpt lat="46.075311573855416" lon="9.304457879733734"><ele>209.00000000000003</ele><time>2026-05-03T11:47:12.999Z</time></trkpt><trkpt lat="46.07539689876894" lon="9.304440099400445"><ele>209.0</ele><time>2026-05-03T11:47:13.999Z</time></trkpt><trkpt lat="46.075472823011864" lon="9.304430172092397"><ele>209.0</ele><time>2026-05-03T11:47:14.999Z</time></trkpt><trkpt lat="46.07554997317308" lon="9.304420288992628"><ele>209.0</ele><time>2026-05-03T11:47:15.999Z</time></trkpt><trkpt lat="46.07562364390653" lon="9.304412882922655"><ele>209.00000000000003</ele><time>2026-05-03T11:47:16.999Z</time></trkpt><trkpt lat="46.075696704590655" lon="9.304416119868257"><ele>209.0</ele><time>2026-05-03T11:47:17.999Z</time></trkpt><trkpt lat="46.07576690591212" lon="9.304416970619785"><ele>209.33333333333334</ele><time>2026-05-03T11:47:18.999Z</time></trkpt><trkpt lat="46.075830637919786" lon="9.304418185228933"><ele>209.66666666666669</ele><time>2026-05-03T11:47:19.999Z</time></trkpt><trkpt lat="46.07593392588902" lon="9.304417562526492"><ele>210.0</ele><time>2026-05-03T11:47:21.999Z</time></trkpt><trkpt lat="46.07601689851839" lon="9.30442478163679"><ele>210.33333333333331</ele><time>2026-05-03T11:47:23.999Z</time></trkpt><trkpt lat="46.076085128801004" lon="9.304439361997545"><ele>210.66666666666666</ele><time>2026-05-03T11:47:25.999Z</time></trkpt><trkpt lat="46.076173703249616" lon="9.304446856548532"><ele>211.0</ele><time>2026-05-03T11:47:28.999Z</time></trkpt><trkpt lat="46.07627025637319" lon="9.304444693719468"><ele>211.0</ele><time>2026-05-03T11:47:30.999Z</time></trkpt><trkpt lat="46.07634054264042" lon="9.304447762904422"><ele>211.0</ele><time>2026-05-03T11:47:32Z</time></trkpt><trkpt lat="46.076444180140335" lon="9.30452582723683"><ele>211.0</ele><time>2026-05-03T11:47:34Z</time></trkpt><trkpt lat="46.07650657887499" lon="9.304559457435255"><ele>211.0</ele><time>2026-05-03T11:47:35Z</time></trkpt><trkpt lat="46.07659560967647" lon="9.304579926571558"><ele>211.0</ele><time>2026-05-03T11:47:36Z</time></trkpt><trkpt lat="46.07672045078916" lon="9.30458927459236"><ele>210.75</ele><time>2026-05-03T11:47:37Z</time></trkpt><trkpt lat="46.076835804112996" lon="9.30459454427633"><ele>210.5</ele><time>2026-05-03T11:47:38Z</time></trkpt><trkpt lat="46.076951850428095" lon="9.304619157373091"><ele>210.25</ele><time>2026-05-03T11:47:39Z</time></trkpt><trkpt lat="46.07707001359812" lon="9.304640741802704"><ele>210.0</ele><time>2026-05-03T11:47:40Z</time></trkpt><trkpt lat="46.07719498987308" lon="9.304676505632836"><ele>210.0</ele><time>2026-05-03T11:47:41Z</time></trkpt><trkpt lat="46.077324710481975" lon="9.304719391728282"><ele>210.0</ele><time>2026-05-03T11:47:42Z</time></trkpt><trkpt lat="46.07745590951789" lon="9.304767734834615"><ele>210.0</ele><time>2026-05-03T11:47:43Z</time></trkpt><trkpt lat="46.07758413074488" lon="9.304828032373884"><ele>210.0</ele><time>2026-05-03T11:47:44Z</time></trkpt><trkpt lat="46.07770884897987" lon="9.304902375617173"><ele>211.0</ele><time>2026-05-03T11:47:45Z</time></trkpt><trkpt lat="46.07783101483756" lon="9.304985133783363"><ele>212.0</ele><time>2026-05-03T11:47:46Z</time></trkpt><trkpt lat="46.077963434468025" lon="9.305097059273749"><ele>213.0</ele><time>2026-05-03T11:47:47Z</time></trkpt><trkpt lat="46.07810786992963" lon="9.305230660841179"><ele>213.0</ele><time>2026-05-03T11:47:48Z</time></trkpt><trkpt lat="46.078255323166786" lon="9.305379292033964"><ele>213.0</ele><time>2026-05-03T11:47:49Z</time></trkpt><trkpt lat="46.0783768790942" lon="9.305533914903146"><ele>213.0</ele><time>2026-05-03T11:47:50Z</time></trkpt><trkpt lat="46.07848099108566" lon="9.30568872900558"><ele>213.5</ele><time>2026-05-03T11:47:51Z</time></trkpt><trkpt lat="46.078584012567134" lon="9.305850617936457"><ele>214.0</ele><time>2026-05-03T11:47:52Z</time></trkpt><trkpt lat="46.078678259177245" lon="9.306018120702614"><ele>214.5</ele><time>2026-05-03T11:47:53Z</time></trkpt><trkpt lat="46.078761482598885" lon="9.30618665578657"><ele>215.0</ele><time>2026-05-03T11:47:54Z</time></trkpt><trkpt lat="46.07884205173321" lon="9.306352554306363"><ele>214.5</ele><time>2026-05-03T11:47:55Z</time></trkpt><trkpt lat="46.07891734090432" lon="9.30651173193703"><ele>214.0</ele><time>2026-05-03T11:47:56Z</time></trkpt><trkpt lat="46.07898703193468" lon="9.306666728499975"><ele>213.5</ele><time>2026-05-03T11:47:57Z</time></trkpt><trkpt lat="46.07905791946632" lon="9.30682328740144"><ele>213.0</ele><time>2026-05-03T11:47:58Z</time></trkpt><trkpt lat="46.07913239304722" lon="9.30697563344953"><ele>212.75</ele><time>2026-05-03T11:47:59Z</time></trkpt><trkpt lat="46.07920827229313" lon="9.307125954386022"><ele>212.5</ele><time>2026-05-03T11:48:00Z</time></trkpt><trkpt lat="46.07928459594563" lon="9.307282780693821"><ele>212.25</ele><time>2026-05-03T11:48:01Z</time></trkpt><trkpt lat="46.079358927147226" lon="9.307441063141285"><ele>212.0</ele><time>2026-05-03T11:48:02Z</time></trkpt><trkpt lat="46.07943227749426" lon="9.307590205983004"><ele>212.0</ele><time>2026-05-03T11:48:03Z</time></trkpt><trkpt lat="46.07950458103367" lon="9.30773796730924"><ele>212.0</ele><time>2026-05-03T11:48:04Z</time></trkpt><trkpt lat="46.07957466265737" lon="9.307883788767043"><ele>212.0</ele><time>2026-05-03T11:48:05Z</time></trkpt><trkpt lat="46.07964544340605" lon="9.308031192805688"><ele>212.0</ele><time>2026-05-03T11:48:06Z</time></trkpt><trkpt lat="46.07971203896459" lon="9.3081756005402"><ele>212.25</ele><time>2026-05-03T11:48:07.001Z</time></trkpt><trkpt lat="46.0797813537057" lon="9.30831528111853"><ele>212.5</ele><time>2026-05-03T11:48:08.001Z</time></trkpt><trkpt lat="46.079848637666394" lon="9.308455882857146"><ele>212.75</ele><time>2026-05-03T11:48:09.001Z</time></trkpt><trkpt lat="46.07991778012873" lon="9.308593005255112"><ele>213.0</ele><time>2026-05-03T11:48:10.001Z</time></trkpt><trkpt lat="46.07998487896547" lon="9.308729278535951"><ele>213.0</ele><time>2026-05-03T11:48:11.001Z</time></trkpt><trkpt lat="46.08005170385141" lon="9.308861285890396"><ele>213.0</ele><time>2026-05-03T11:48:12.001Z</time></trkpt><trkpt lat="46.080115139147885" lon="9.309006209899808"><ele>213.0</ele><time>2026-05-03T11:48:13.001Z</time></trkpt><trkpt lat="46.08018346448523" lon="9.309136761618127"><ele>213.0</ele><time>2026-05-03T11:48:14.001Z</time></trkpt><trkpt lat="46.08024585744949" lon="9.309276799067034"><ele>213.25</ele><time>2026-05-03T11:48:15.001Z</time></trkpt><trkpt lat="46.08030975475833" lon="9.309419080746123"><ele>213.5</ele><time>2026-05-03T11:48:16.001Z</time></trkpt><trkpt lat="46.08038384582953" lon="9.30957640475986"><ele>213.75</ele><time>2026-05-03T11:48:17.001Z</time></trkpt><trkpt lat="46.08046874106505" lon="9.309739971358898"><ele>214.0</ele><time>2026-05-03T11:48:18.001Z</time></trkpt><trkpt lat="46.08054838758865" lon="9.309906918093226"><ele>212.75</ele><time>2026-05-03T11:48:19.001Z</time></trkpt><trkpt lat="46.080633971147186" lon="9.310068719583924"><ele>211.5</ele><time>2026-05-03T11:48:20.001Z</time></trkpt><trkpt lat="46.08072231163114" lon="9.310216253533238"><ele>210.25</ele><time>2026-05-03T11:48:21.001Z</time></trkpt><trkpt lat="46.08082396928853" lon="9.310350155018103"><ele>209.0</ele><time>2026-05-03T11:48:22.001Z</time></trkpt><trkpt lat="46.08093696110759" lon="9.310482993185616"><ele>213.33333333333334</ele><time>2026-05-03T11:48:23.001Z</time></trkpt><trkpt lat="46.081062790966044" lon="9.310605693564376"><ele>217.66666666666669</ele><time>2026-05-03T11:48:24.001Z</time></trkpt><trkpt lat="46.08119927197122" lon="9.31071302575013"><ele>222.0</ele><time>2026-05-03T11:48:25.001Z</time></trkpt><trkpt lat="46.0813550349063" lon="9.310801887029218"><ele>222.0</ele><time>2026-05-03T11:48:26.001Z</time></trkpt><trkpt lat="46.08151250769652" lon="9.31087064348581"><ele>222.0</ele><time>2026-05-03T11:48:27.001Z</time></trkpt><trkpt lat="46.081680038952165" lon="9.310922589101876"><ele>222.0</ele><time>2026-05-03T11:48:28.001Z</time></trkpt><trkpt lat="46.081844867952235" lon="9.31094970662013"><ele>219.75</ele><time>2026-05-03T11:48:29.001Z</time></trkpt><trkpt lat="46.081991974325966" lon="9.310968484367155"><ele>217.5</ele><time>2026-05-03T11:48:30.001Z</time></trkpt><trkpt lat="46.082129247027375" lon="9.311000257949646"><ele>215.25</ele><time>2026-05-03T11:48:31.001Z</time></trkpt><trkpt lat="46.082267378451995" lon="9.311059058719634"><ele>213.0</ele><time>2026-05-03T11:48:32.001Z</time></trkpt><trkpt lat="46.08240309450784" lon="9.311138459047564"><ele>211.25</ele><time>2026-05-03T11:48:33.001Z</time></trkpt><trkpt lat="46.08251829372582" lon="9.311227515910778"><ele>209.5</ele><time>2026-05-03T11:48:34.001Z</time></trkpt><trkpt lat="46.08262748732725" lon="9.311305987756967"><ele>207.75</ele><time>2026-05-03T11:48:35.001Z</time></trkpt><trkpt lat="46.08275232824587" lon="9.311339521025545"><ele>206.0</ele><time>2026-05-03T11:48:36.001Z</time></trkpt><trkpt lat="46.082896533380485" lon="9.311321586579576"><ele>206.0</ele><time>2026-05-03T11:48:37.001Z</time></trkpt><trkpt lat="46.08304643889573" lon="9.311292843445782"><ele>206.0</ele><time>2026-05-03T11:48:38.001Z</time></trkpt><trkpt lat="46.08320323119155" lon="9.311257782606956"><ele>206.0</ele><time>2026-05-03T11:48:39.001Z</time></trkpt><trkpt lat="46.08336333240169" lon="9.311214358095238"><ele>207.66666666666669</ele><time>2026-05-03T11:48:40.001Z</time></trkpt><trkpt lat="46.08352725557701" lon="9.311170246340579"><ele>209.33333333333331</ele><time>2026-05-03T11:48:41.001Z</time></trkpt><trkpt lat="46.08368461693803" lon="9.311131864160613"><ele>211.0</ele><time>2026-05-03T11:48:42.001Z</time></trkpt><trkpt lat="46.083840207888215" lon="9.311098922307572"><ele>211.0</ele><time>2026-05-03T11:48:43.001Z</time></trkpt><trkpt lat="46.08399271230353" lon="9.311059622717652"><ele>211.0</ele><time>2026-05-03T11:48:44.001Z</time></trkpt><trkpt lat="46.084141947723836" lon="9.311024197419396"><ele>211.0</ele><time>2026-05-03T11:48:45.001Z</time></trkpt><trkpt lat="46.08429057759322" lon="9.310989803775001"><ele>212.75</ele><time>2026-05-03T11:48:46.001Z</time></trkpt><trkpt lat="46.084440208221665" lon="9.310949853609065"><ele>214.5</ele><time>2026-05-03T11:48:47.001Z</time></trkpt><trkpt lat="46.084582896863495" lon="9.310906871768365"><ele>216.25</ele><time>2026-05-03T11:48:48.001Z</time></trkpt><trkpt lat="46.08472746407872" lon="9.310849834813133"><ele>218.0</ele><time>2026-05-03T11:48:49.001Z</time></trkpt><trkpt lat="46.08486568916986" lon="9.310793842967543"><ele>218.75</ele><time>2026-05-03T11:48:50.001Z</time></trkpt><trkpt lat="46.08500966803964" lon="9.310733141650285"><ele>219.5</ele><time>2026-05-03T11:48:51.001Z</time></trkpt><trkpt lat="46.08514512052657" lon="9.310663503606522"><ele>220.25</ele><time>2026-05-03T11:48:52.001Z</time></trkpt><trkpt lat="46.085280875583365" lon="9.310588213806033"><ele>221.0</ele><time>2026-05-03T11:48:53.002Z</time></trkpt><trkpt lat="46.085413998854484" lon="9.310517475630206"><ele>217.25</ele><time>2026-05-03T11:48:54.002Z</time></trkpt><trkpt lat="46.0855491022359" lon="9.310449373698532"><ele>213.5</ele><time>2026-05-03T11:48:55.002Z</time></trkpt><trkpt lat="46.085682916479925" lon="9.310379503043476"><ele>209.75</ele><time>2026-05-03T11:48:56.002Z</time></trkpt><trkpt lat="46.08582180388751" lon="9.310318147778464"><ele>206.0</ele><time>2026-05-03T11:48:57.002Z</time></trkpt><trkpt lat="46.085972366050754" lon="9.310263613637948"><ele>206.0</ele><time>2026-05-03T11:48:58.002Z</time></trkpt><trkpt lat="46.086133162783334" lon="9.310208300041989"><ele>206.0</ele><time>2026-05-03T11:48:59.002Z</time></trkpt><trkpt lat="46.086292161846764" lon="9.310161051664984"><ele>206.0</ele><time>2026-05-03T11:49:00.002Z</time></trkpt><trkpt lat="46.08646108031363" lon="9.310112101589917"><ele>210.0</ele><time>2026-05-03T11:49:01.002Z</time></trkpt><trkpt lat="46.086624556677336" lon="9.310081783427279"><ele>214.0</ele><time>2026-05-03T11:49:02.002Z</time></trkpt><trkpt lat="46.08679146538022" lon="9.310056201446764"><ele>218.0</ele><time>2026-05-03T11:49:03.002Z</time></trkpt><trkpt lat="46.086937502486464" lon="9.310033937795604"><ele>218.0</ele><time>2026-05-03T11:49:04.002Z</time></trkpt><trkpt lat="46.08707489417529" lon="9.310034832801389"><ele>218.0</ele><time>2026-05-03T11:49:05.002Z</time></trkpt><trkpt lat="46.08720272836276" lon="9.310060888083376"><ele>218.0</ele><time>2026-05-03T11:49:06.002Z</time></trkpt><trkpt lat="46.087330135004834" lon="9.310137106281712"><ele>218.0</ele><time>2026-05-03T11:49:07.002Z</time></trkpt><trkpt lat="46.08746693403892" lon="9.310248016561843"><ele>216.33333333333334</ele><time>2026-05-03T11:49:08.002Z</time></trkpt><trkpt lat="46.08760194061901" lon="9.310370815708017"><ele>214.66666666666669</ele><time>2026-05-03T11:49:09.002Z</time></trkpt><trkpt lat="46.087743531786586" lon="9.310490158950481"><ele>213.0</ele><time>2026-05-03T11:49:10.002Z</time></trkpt><trkpt lat="46.08788630495919" lon="9.310601548982048"><ele>217.33333333333331</ele><time>2026-05-03T11:49:11.002Z</time></trkpt><trkpt lat="46.08802970919025" lon="9.310718034995883"><ele>221.66666666666666</ele><time>2026-05-03T11:49:12.002Z</time></trkpt><trkpt lat="46.08817566472276" lon="9.310837153035157"><ele>226.0</ele><time>2026-05-03T11:49:13.002Z</time></trkpt><trkpt lat="46.08832460307591" lon="9.31095809399684"><ele>226.0</ele><time>2026-05-03T11:49:14.002Z</time></trkpt><trkpt lat="46.08846991463502" lon="9.311088988229265"><ele>226.0</ele><time>2026-05-03T11:49:15.002Z</time></trkpt><trkpt lat="46.08861281111175" lon="9.311195830123637"><ele>226.0</ele><time>2026-05-03T11:49:15.998Z</time></trkpt><trkpt lat="46.08875924068181" lon="9.31131072816384"><ele>226.0</ele><time>2026-05-03T11:49:16.998Z</time></trkpt><trkpt lat="46.08890876114698" lon="9.311396018121602"><ele>226.0</ele><time>2026-05-03T11:49:17.998Z</time></trkpt><trkpt lat="46.08906423689274" lon="9.31145227820074"><ele>226.0</ele><time>2026-05-03T11:49:18.998Z</time></trkpt><trkpt lat="46.08921391165864" lon="9.31146997628287"><ele>229.75</ele><time>2026-05-03T11:49:19.998Z</time></trkpt><trkpt lat="46.089347814841716" lon="9.311465346284969"><ele>233.5</ele><time>2026-05-03T11:49:20.998Z</time></trkpt><trkpt lat="46.08947120764039" lon="9.311455460096091"><ele>237.25</ele><time>2026-05-03T11:49:21.998Z</time></trkpt><trkpt lat="46.08958316420592" lon="9.311447116254605"><ele>241.0</ele><time>2026-05-03T11:49:22.998Z</time></trkpt><trkpt lat="46.089694519747184" lon="9.31144782801543"><ele>241.0</ele><time>2026-05-03T11:49:23.999Z</time></trkpt><trkpt lat="46.089805395623635" lon="9.31147277004192"><ele>241.0</ele><time>2026-05-03T11:49:24.999Z</time></trkpt><trkpt lat="46.08993113602709" lon="9.311537168210272"><ele>241.0</ele><time>2026-05-03T11:49:25.999Z</time></trkpt><trkpt lat="46.090069907145455" lon="9.311606369941444"><ele>241.0</ele><time>2026-05-03T11:49:26.999Z</time></trkpt><trkpt lat="46.090209609317924" lon="9.311661142314195"><ele>241.25</ele><time>2026-05-03T11:49:27.999Z</time></trkpt><trkpt lat="46.090347950780966" lon="9.311714611293024"><ele>241.5</ele><time>2026-05-03T11:49:28.999Z</time></trkpt><trkpt lat="46.090472959801744" lon="9.311761715373635"><ele>241.75</ele><time>2026-05-03T11:49:29.999Z</time></trkpt><trkpt lat="46.090599428765984" lon="9.311818768213232"><ele>242.0</ele><time>2026-05-03T11:49:30.999Z</time></trkpt><trkpt lat="46.09071858862493" lon="9.31188237009909"><ele>237.25</ele><time>2026-05-03T11:49:31.999Z</time></trkpt><trkpt lat="46.09083968277869" lon="9.311982873122009"><ele>232.5</ele><time>2026-05-03T11:49:32.999Z</time></trkpt><trkpt lat="46.09095863867832" lon="9.312114944211274"><ele>227.75</ele><time>2026-05-03T11:49:33.999Z</time></trkpt><trkpt lat="46.09108038549613" lon="9.312257866910834"><ele>223.0</ele><time>2026-05-03T11:49:34.999Z</time></trkpt><trkpt lat="46.09120073858778" lon="9.312393255583741"><ele>224.0</ele><time>2026-05-03T11:49:35.999Z</time></trkpt><trkpt lat="46.09133859025792" lon="9.312507546062687"><ele>225.0</ele><time>2026-05-03T11:49:36.999Z</time></trkpt><trkpt lat="46.09150558869169" lon="9.312588296916363"><ele>226.0</ele><time>2026-05-03T11:49:37.999Z</time></trkpt><trkpt lat="46.09169199357407" lon="9.312637290024632"><ele>226.0</ele><time>2026-05-03T11:49:38.999Z</time></trkpt><trkpt lat="46.091872187880654" lon="9.312702839821876"><ele>226.0</ele><time>2026-05-03T11:49:39.999Z</time></trkpt><trkpt lat="46.09204894198704" lon="9.312814422532353"><ele>226.0</ele><time>2026-05-03T11:49:40.999Z</time></trkpt><trkpt lat="46.09222878069533" lon="9.312954002233605"><ele>226.66666666666666</ele><time>2026-05-03T11:49:41.999Z</time></trkpt><trkpt lat="46.09241296024725" lon="9.313101490162893"><ele>227.33333333333331</ele><time>2026-05-03T11:49:42.999Z</time></trkpt><trkpt lat="46.09259914024022" lon="9.31323933144767"><ele>228.0</ele><time>2026-05-03T11:49:43.999Z</time></trkpt><trkpt lat="46.092787024714475" lon="9.313387292512491"><ele>228.0</ele><time>2026-05-03T11:49:44.999Z</time></trkpt><trkpt lat="46.092976858075446" lon="9.313541162077952"><ele>228.0</ele><time>2026-05-03T11:49:45.999Z</time></trkpt><trkpt lat="46.093166405959145" lon="9.313695307854251"><ele>228.0</ele><time>2026-05-03T11:49:46.999Z</time></trkpt><trkpt lat="46.093347938311474" lon="9.313850462779687"><ele>229.66666666666669</ele><time>2026-05-03T11:49:48Z</time></trkpt><trkpt lat="46.09351600322988" lon="9.313997470471215"><ele>231.33333333333334</ele><time>2026-05-03T11:49:49Z</time></trkpt><trkpt lat="46.093668528448106" lon="9.314134490749003"><ele>233.0</ele><time>2026-05-03T11:49:50Z</time></trkpt><trkpt lat="46.0938096203722" lon="9.314275929643118"><ele>233.0</ele><time>2026-05-03T11:49:51Z</time></trkpt><trkpt lat="46.093948129611135" lon="9.31444439741705"><ele>233.0</ele><time>2026-05-03T11:49:52Z</time></trkpt><trkpt lat="46.094078497853936" lon="9.314644552929455"><ele>233.0</ele><time>2026-05-03T11:49:53Z</time></trkpt><trkpt lat="46.0942162732953" lon="9.314866070139235"><ele>230.33333333333334</ele><time>2026-05-03T11:49:54Z</time></trkpt><trkpt lat="46.09435683739511" lon="9.315080165746663"><ele>227.66666666666669</ele><time>2026-05-03T11:49:55Z</time></trkpt><trkpt lat="46.09450178260468" lon="9.315299898711366"><ele>225.0</ele><time>2026-05-03T11:49:56Z</time></trkpt><trkpt lat="46.094646222885565" lon="9.315514751111"><ele>222.66666666666669</ele><time>2026-05-03T11:49:57Z</time></trkpt><trkpt lat="46.09477901260013" lon="9.315708502004975"><ele>220.33333333333334</ele><time>2026-05-03T11:49:58Z</time></trkpt><trkpt lat="46.094899427127835" lon="9.31588062024784"><ele>218.0</ele><time>2026-05-03T11:49:59Z</time></trkpt><trkpt lat="46.09500839388514" lon="9.316040427072883"><ele>218.0</ele><time>2026-05-03T11:50:00Z</time></trkpt><trkpt lat="46.095116450963886" lon="9.31618044461495"><ele>218.0</ele><time>2026-05-03T11:50:01Z</time></trkpt><trkpt lat="46.095236535541936" lon="9.316296173592038"><ele>218.0</ele><time>2026-05-03T11:50:02Z</time></trkpt><trkpt lat="46.09538262887094" lon="9.316377873383411"><ele>218.0</ele><time>2026-05-03T11:50:03Z</time></trkpt><trkpt lat="46.095552502524754" lon="9.316437104358837"><ele>220.0</ele><time>2026-05-03T11:50:04Z</time></trkpt><trkpt lat="46.09573180841334" lon="9.31649019783044"><ele>222.0</ele><time>2026-05-03T11:50:05Z</time></trkpt><trkpt lat="46.09590573200741" lon="9.316542972834702"><ele>224.0</ele><time>2026-05-03T11:50:06Z</time></trkpt><trkpt lat="46.0960758865908" lon="9.31660030700652"><ele>224.0</ele><time>2026-05-03T11:50:07Z</time></trkpt><trkpt lat="46.09623570152622" lon="9.316656877449754"><ele>224.0</ele><time>2026-05-03T11:50:08Z</time></trkpt><trkpt lat="46.09638231736288" lon="9.316700145581981"><ele>224.0</ele><time>2026-05-03T11:50:09Z</time></trkpt><trkpt lat="46.0965367239992" lon="9.316717603288746"><ele>223.33333333333334</ele><time>2026-05-03T11:50:10Z</time></trkpt><trkpt lat="46.09670058118291" lon="9.316681339247335"><ele>222.66666666666669</ele><time>2026-05-03T11:50:11Z</time></trkpt><trkpt lat="46.09686120792261" lon="9.31661900774813"><ele>222.0</ele><time>2026-05-03T11:50:12Z</time></trkpt><trkpt lat="46.09700110789959" lon="9.316578096190746"><ele>222.0</ele><time>2026-05-03T11:50:13Z</time></trkpt><trkpt lat="46.09713906060143" lon="9.316566879767217"><ele>222.0</ele><time>2026-05-03T11:50:14Z</time></trkpt><trkpt lat="46.097280399861745" lon="9.316595449827659"><ele>222.0</ele><time>2026-05-03T11:50:15Z</time></trkpt><trkpt lat="46.09741995599602" lon="9.316654148731567"><ele>222.0</ele><time>2026-05-03T11:50:16Z</time></trkpt><trkpt lat="46.09756041882427" lon="9.316754699876435"><ele>220.33333333333331</ele><time>2026-05-03T11:50:17Z</time></trkpt><trkpt lat="46.097697318081" lon="9.31688564393905"><ele>218.66666666666666</ele><time>2026-05-03T11:50:18Z</time></trkpt><trkpt lat="46.09782754698116" lon="9.317016416888432"><ele>217.0</ele><time>2026-05-03T11:50:19Z</time></trkpt><trkpt lat="46.09796457971846" lon="9.317112263375087"><ele>217.0</ele><time>2026-05-03T11:50:20Z</time></trkpt><trkpt lat="46.09812610811516" lon="9.317167838201664"><ele>217.0</ele><time>2026-05-03T11:50:21.001Z</time></trkpt><trkpt lat="46.09830247681697" lon="9.317174071475108"><ele>217.0</ele><time>2026-05-03T11:50:22.001Z</time></trkpt><trkpt lat="46.09848848058148" lon="9.317162716353467"><ele>214.33333333333331</ele><time>2026-05-03T11:50:23.001Z</time></trkpt><trkpt lat="46.098673957461955" lon="9.31715337806543"><ele>211.66666666666669</ele><time>2026-05-03T11:50:24.001Z</time></trkpt><trkpt lat="46.09885286101624" lon="9.31715236266554"><ele>209.0</ele><time>2026-05-03T11:50:25.001Z</time></trkpt><trkpt lat="46.099020989673896" lon="9.317173532872124"><ele>208.25</ele><time>2026-05-03T11:50:26.001Z</time></trkpt><trkpt lat="46.09916724116577" lon="9.317187667978638"><ele>207.5</ele><time>2026-05-03T11:50:27.001Z</time></trkpt><trkpt lat="46.09930961368168" lon="9.317169269922775"><ele>206.75</ele><time>2026-05-03T11:50:28.001Z</time></trkpt><trkpt lat="46.09945013639858" lon="9.317166446495449"><ele>206.0</ele><time>2026-05-03T11:50:29.001Z</time></trkpt><trkpt lat="46.09958098203956" lon="9.317170460774857"><ele>206.0</ele><time>2026-05-03T11:50:30.001Z</time></trkpt><trkpt lat="46.099710178867745" lon="9.317182822914203"><ele>206.0</ele><time>2026-05-03T11:50:31.001Z</time></trkpt><trkpt lat="46.09983612327513" lon="9.317195563148266"><ele>206.0</ele><time>2026-05-03T11:50:32.001Z</time></trkpt><trkpt lat="46.099959343046656" lon="9.317225696699207"><ele>206.0</ele><time>2026-05-03T11:50:33.001Z</time></trkpt><trkpt lat="46.10009097884866" lon="9.317279431749965"><ele>212.66666666666669</ele><time>2026-05-03T11:50:34.001Z</time></trkpt><trkpt lat="46.10022807023826" lon="9.317344347348937"><ele>219.33333333333331</ele><time>2026-05-03T11:50:35.001Z</time></trkpt><trkpt lat="46.100368405434" lon="9.31743247164371"><ele>226.0</ele><time>2026-05-03T11:50:36.001Z</time></trkpt><trkpt lat="46.100513734509775" lon="9.317531531429426"><ele>226.0</ele><time>2026-05-03T11:50:37.001Z</time></trkpt><trkpt lat="46.10066319590487" lon="9.317645457451558"><ele>226.0</ele><time>2026-05-03T11:50:38.001Z</time></trkpt><trkpt lat="46.10081833243967" lon="9.317763505986143"><ele>226.0</ele><time>2026-05-03T11:50:39.001Z</time></trkpt><trkpt lat="46.10098139915614" lon="9.317876794209194"><ele>228.0</ele><time>2026-05-03T11:50:40.001Z</time></trkpt><trkpt lat="46.10114604959049" lon="9.31798555810207"><ele>230.0</ele><time>2026-05-03T11:50:41.001Z</time></trkpt><trkpt lat="46.101306669370814" lon="9.318097075775833"><ele>232.0</ele><time>2026-05-03T11:50:42.001Z</time></trkpt><trkpt lat="46.10145869526526" lon="9.318204216281465"><ele>227.66666666666666</ele><time>2026-05-03T11:50:43.001Z</time></trkpt><trkpt lat="46.10160670568492" lon="9.318304193894589"><ele>223.33333333333331</ele><time>2026-05-03T11:50:44.001Z</time></trkpt><trkpt lat="46.1017391981475" lon="9.318409912060286"><ele>219.0</ele><time>2026-05-03T11:50:45.001Z</time></trkpt><trkpt lat="46.10185579280495" lon="9.318523257513002"><ele>219.0</ele><time>2026-05-03T11:50:46.001Z</time></trkpt><trkpt lat="46.10196625459241" lon="9.318665965471315"><ele>219.0</ele><time>2026-05-03T11:50:47.001Z</time></trkpt><trkpt lat="46.10205531484944" lon="9.318824574753101"><ele>219.0</ele><time>2026-05-03T11:50:48.001Z</time></trkpt><trkpt lat="46.10214077845953" lon="9.318965844914763"><ele>219.0</ele><time>2026-05-03T11:50:49.001Z</time></trkpt><trkpt lat="46.10222830221506" lon="9.319090994843492"><ele>219.0</ele><time>2026-05-03T11:50:50.001Z</time></trkpt><trkpt lat="46.102314122125634" lon="9.319203413294755"><ele>219.0</ele><time>2026-05-03T11:50:51.001Z</time></trkpt><trkpt lat="46.102408171240405" lon="9.319307841644903"><ele>219.0</ele><time>2026-05-03T11:50:52.001Z</time></trkpt><trkpt lat="46.102507269869555" lon="9.319400884062825"><ele>219.0</ele><time>2026-05-03T11:50:53.001Z</time></trkpt><trkpt lat="46.10262098496537" lon="9.319499635857925"><ele>219.0</ele><time>2026-05-03T11:50:54.001Z</time></trkpt><trkpt lat="46.102744388538916" lon="9.319591109214466"><ele>219.0</ele><time>2026-05-03T11:50:55.001Z</time></trkpt><trkpt lat="46.102870023593034" lon="9.319686473461683"><ele>219.0</ele><time>2026-05-03T11:50:56.001Z</time></trkpt><trkpt lat="46.102999153934576" lon="9.319784805892269"><ele>219.0</ele><time>2026-05-03T11:50:57.001Z</time></trkpt><trkpt lat="46.10312512082926" lon="9.319892711772386"><ele>217.0</ele><time>2026-05-03T11:50:58.001Z</time></trkpt><trkpt lat="46.103256725135026" lon="9.320009469541382"><ele>215.0</ele><time>2026-05-03T11:50:59.001Z</time></trkpt><trkpt lat="46.103391652703216" lon="9.32014082160537"><ele>213.0</ele><time>2026-05-03T11:51:00.001Z</time></trkpt><trkpt lat="46.103525747718884" lon="9.320274849661251"><ele>213.0</ele><time>2026-05-03T11:51:01.001Z</time></trkpt><trkpt lat="46.10366982444067" lon="9.320407763971359"><ele>213.0</ele><time>2026-05-03T11:51:02.002Z</time></trkpt><trkpt lat="46.10381004834566" lon="9.320538435010214"><ele>213.0</ele><time>2026-05-03T11:51:03.002Z</time></trkpt><trkpt lat="46.10394792250349" lon="9.320662652834054"><ele>215.66666666666669</ele><time>2026-05-03T11:51:04.002Z</time></trkpt><trkpt lat="46.10409034708983" lon="9.32079736718108"><ele>218.33333333333334</ele><time>2026-05-03T11:51:05.002Z</time></trkpt><trkpt lat="46.104229426934076" lon="9.320910697846651"><ele>221.0</ele><time>2026-05-03T11:51:06.002Z</time></trkpt><trkpt lat="46.10437775611278" lon="9.32100391527201"><ele>221.0</ele><time>2026-05-03T11:51:07.002Z</time></trkpt><trkpt lat="46.1045293103199" lon="9.321068100337996"><ele>221.0</ele><time>2026-05-03T11:51:08.002Z</time></trkpt><trkpt lat="46.10467415466336" lon="9.321132801654649"><ele>221.0</ele><time>2026-05-03T11:51:09.002Z</time></trkpt><trkpt lat="46.104800876242805" lon="9.321183703168225"><ele>221.0</ele><time>2026-05-03T11:51:10.002Z</time></trkpt><trkpt lat="46.10493837769424" lon="9.321212420761501"><ele>220.66666666666669</ele><time>2026-05-03T11:51:11.002Z</time></trkpt><trkpt lat="46.105090517968186" lon="9.321194418658816"><ele>220.33333333333331</ele><time>2026-05-03T11:51:12.002Z</time></trkpt><trkpt lat="46.10524637042187" lon="9.321133053787216"><ele>220.0</ele><time>2026-05-03T11:51:13.002Z</time></trkpt><trkpt lat="46.10541946048274" lon="9.321083641700715"><ele>220.0</ele><time>2026-05-03T11:51:14.002Z</time></trkpt><trkpt lat="46.105594238303446" lon="9.321005589309511"><ele>220.0</ele><time>2026-05-03T11:51:15.002Z</time></trkpt><trkpt lat="46.1057721268665" lon="9.32092996660661"><ele>220.0</ele><time>2026-05-03T11:51:16.002Z</time></trkpt><trkpt lat="46.10595182749989" lon="9.320865486106348"><ele>218.33333333333331</ele><time>2026-05-03T11:51:17.002Z</time></trkpt><trkpt lat="46.10612415672391" lon="9.320806851436304"><ele>216.66666666666669</ele><time>2026-05-03T11:51:18.002Z</time></trkpt><trkpt lat="46.106287116056805" lon="9.320742994849438"><ele>215.0</ele><time>2026-05-03T11:51:19.002Z</time></trkpt><trkpt lat="46.106440848112065" lon="9.320660600281991"><ele>214.66666666666669</ele><time>2026-05-03T11:51:20.002Z</time></trkpt><trkpt lat="46.106591226519" lon="9.32054046174423"><ele>214.33333333333331</ele><time>2026-05-03T11:51:21.002Z</time></trkpt><trkpt lat="46.10674781695495" lon="9.32040426782229"><ele>214.0</ele><time>2026-05-03T11:51:21.998Z</time></trkpt><trkpt lat="46.106889516914045" lon="9.320288035092087"><ele>214.0</ele><time>2026-05-03T11:51:22.998Z</time></trkpt><trkpt lat="46.10701575811193" lon="9.32018991977016"><ele>214.0</ele><time>2026-05-03T11:51:23.998Z</time></trkpt><trkpt lat="46.10714157485677" lon="9.320112955984778"><ele>214.0</ele><time>2026-05-03T11:51:24.998Z</time></trkpt><trkpt lat="46.10727129460001" lon="9.32009513878533"><ele>214.0</ele><time>2026-05-03T11:51:25.998Z</time></trkpt><trkpt lat="46.10743759218092" lon="9.320031158862319"><ele>218.33333333333331</ele><time>2026-05-03T11:51:26.998Z</time></trkpt><trkpt lat="46.10759900860671" lon="9.319988063248339"><ele>222.66666666666669</ele><time>2026-05-03T11:51:27.998Z</time></trkpt><trkpt lat="46.10775890149354" lon="9.319936381064833"><ele>227.0</ele><time>2026-05-03T11:51:28.998Z</time></trkpt><trkpt lat="46.10791860913161" lon="9.31988266054172"><ele>227.0</ele><time>2026-05-03T11:51:29.998Z</time></trkpt><trkpt lat="46.10808214162167" lon="9.31982134067978"><ele>227.0</ele><time>2026-05-03T11:51:30.998Z</time></trkpt><trkpt lat="46.10823709290188" lon="9.319769737070919"><ele>227.0</ele><time>2026-05-03T11:51:31.998Z</time></trkpt><trkpt lat="46.10840265805675" lon="9.319727055573326"><ele>222.33333333333334</ele><time>2026-05-03T11:51:32.998Z</time></trkpt><trkpt lat="46.108565525862836" lon="9.319695823665052"><ele>217.66666666666669</ele><time>2026-05-03T11:51:33.998Z</time></trkpt><trkpt lat="46.108727569133784" lon="9.319676800849198"><ele>213.0</ele><time>2026-05-03T11:51:34.998Z</time></trkpt><trkpt lat="46.10888128869686" lon="9.319658455675484"><ele>213.0</ele><time>2026-05-03T11:51:35.998Z</time></trkpt><trkpt lat="46.10901618554403" lon="9.319630055557827"><ele>213.0</ele><time>2026-05-03T11:51:36.998Z</time></trkpt><trkpt lat="46.109140014599866" lon="9.319574692125498"><ele>213.0</ele><time>2026-05-03T11:51:37.998Z</time></trkpt><trkpt lat="46.109250444932606" lon="9.319467317144147"><ele>213.0</ele><time>2026-05-03T11:51:38.999Z</time></trkpt><trkpt lat="46.10935476530601" lon="9.3193138956956"><ele>210.33333333333331</ele><time>2026-05-03T11:51:39.999Z</time></trkpt><trkpt lat="46.10946193922068" lon="9.319150205772031"><ele>207.66666666666666</ele><time>2026-05-03T11:51:40.999Z</time></trkpt><trkpt lat="46.10958463828446" lon="9.319000542488457"><ele>205.0</ele><time>2026-05-03T11:51:41.999Z</time></trkpt><trkpt lat="46.10971387700177" lon="9.318843403213652"><ele>205.0</ele><time>2026-05-03T11:51:42.999Z</time></trkpt><trkpt lat="46.1098348500255" lon="9.318689445102965"><ele>205.0</ele><time>2026-05-03T11:51:43.999Z</time></trkpt><trkpt lat="46.10994510031492" lon="9.31855439740872"><ele>205.0</ele><time>2026-05-03T11:51:44.999Z</time></trkpt><trkpt lat="46.1100548768132" lon="9.318443523503591"><ele>205.0</ele><time>2026-05-03T11:51:45.999Z</time></trkpt><trkpt lat="46.110184227326265" lon="9.318362282247007"><ele>211.0</ele><time>2026-05-03T11:51:46.999Z</time></trkpt><trkpt lat="46.11033638877888" lon="9.318320236048747"><ele>217.0</ele><time>2026-05-03T11:51:47.999Z</time></trkpt><trkpt lat="46.110493678208144" lon="9.318299836004856"><ele>223.0</ele><time>2026-05-03T11:51:48.999Z</time></trkpt><trkpt lat="46.11063318049445" lon="9.318270151735653"><ele>226.33333333333331</ele><time>2026-05-03T11:51:49.999Z</time></trkpt><trkpt lat="46.11076652449345" lon="9.318194843564624"><ele>229.66666666666669</ele><time>2026-05-03T11:51:50.999Z</time></trkpt><trkpt lat="46.110897998017535" lon="9.318056034165956"><ele>233.0</ele><time>2026-05-03T11:51:51.999Z</time></trkpt><trkpt lat="46.11101898616027" lon="9.317881217010381"><ele>233.0</ele><time>2026-05-03T11:51:52.999Z</time></trkpt><trkpt lat="46.11115225222478" lon="9.317709642687586"><ele>233.0</ele><time>2026-05-03T11:51:53.999Z</time></trkpt><trkpt lat="46.11129172735078" lon="9.317541755542067"><ele>233.0</ele><time>2026-05-03T11:51:54.999Z</time></trkpt><trkpt lat="46.11143859321351" lon="9.317371631943812"><ele>234.33333333333334</ele><time>2026-05-03T11:51:55.999Z</time></trkpt><trkpt lat="46.11157249934886" lon="9.317214656852052"><ele>235.66666666666669</ele><time>2026-05-03T11:51:57Z</time></trkpt><trkpt lat="46.111691199394016" lon="9.31707678813056"><ele>237.0</ele><time>2026-05-03T11:51:58Z</time></trkpt><trkpt lat="46.111819348751546" lon="9.316955773086324"><ele>237.0</ele><time>2026-05-03T11:51:59Z</time></trkpt><trkpt lat="46.11195746550832" lon="9.316878237767009"><ele>237.0</ele><time>2026-05-03T11:52:00Z</time></trkpt><trkpt lat="46.11211371301512" lon="9.316827661504194"><ele>237.0</ele><time>2026-05-03T11:52:01Z</time></trkpt><trkpt lat="46.1122712801135" lon="9.316806488577745"><ele>241.33333333333331</ele><time>2026-05-03T11:52:02Z</time></trkpt><trkpt lat="46.1124358111257" lon="9.31681444996414"><ele>245.66666666666666</ele><time>2026-05-03T11:52:03Z</time></trkpt><trkpt lat="46.11261449600093" lon="9.316832138392794"><ele>250.0</ele><time>2026-05-03T11:52:04Z</time></trkpt><trkpt lat="46.112790519082616" lon="9.316813314444254"><ele>250.0</ele><time>2026-05-03T11:52:05Z</time></trkpt><trkpt lat="46.11295233328729" lon="9.316742755592742"><ele>250.0</ele><time>2026-05-03T11:52:06Z</time></trkpt><trkpt lat="46.11309651038184" lon="9.316676692116072"><ele>250.0</ele><time>2026-05-03T11:52:07Z</time></trkpt><trkpt lat="46.11323957884338" lon="9.316652046590825"><ele>251.0</ele><time>2026-05-03T11:52:08Z</time></trkpt><trkpt lat="46.113375753312866" lon="9.316661226867524"><ele>252.0</ele><time>2026-05-03T11:52:09Z</time></trkpt><trkpt lat="46.11351410149795" lon="9.316714128671595"><ele>253.0</ele><time>2026-05-03T11:52:10Z</time></trkpt><trkpt lat="46.11365027448144" lon="9.316816077902873"><ele>254.0</ele><time>2026-05-03T11:52:11Z</time></trkpt><trkpt lat="46.113782574457794" lon="9.316939132204627"><ele>254.0</ele><time>2026-05-03T11:52:12Z</time></trkpt><trkpt lat="46.113913320613946" lon="9.317096897916539"><ele>254.0</ele><time>2026-05-03T11:52:13Z</time></trkpt><trkpt lat="46.114043433487666" lon="9.317246341073234"><ele>254.0</ele><time>2026-05-03T11:52:14Z</time></trkpt><trkpt lat="46.11418182518494" lon="9.31740106674006"><ele>254.33333333333334</ele><time>2026-05-03T11:52:15Z</time></trkpt><trkpt lat="46.11429604525988" lon="9.31757149775433"><ele>254.66666666666669</ele><time>2026-05-03T11:52:16Z</time></trkpt><trkpt lat="46.114372472431526" lon="9.31779191821586"><ele>255.0</ele><time>2026-05-03T11:52:17Z</time></trkpt><trkpt lat="46.114440720562996" lon="9.318019273576843"><ele>256.3333333333333</ele><time>2026-05-03T11:52:18Z</time></trkpt><trkpt lat="46.114493876394754" lon="9.318245306034113"><ele>257.66666666666663</ele><time>2026-05-03T11:52:19Z</time></trkpt><trkpt lat="46.11452505471616" lon="9.318463387179108"><ele>259.0</ele><time>2026-05-03T11:52:20Z</time></trkpt><trkpt lat="46.11455280951836" lon="9.318682367717697"><ele>261.3333333333333</ele><time>2026-05-03T11:52:21Z</time></trkpt><trkpt lat="46.11455164534317" lon="9.318919588924528"><ele>263.6666666666667</ele><time>2026-05-03T11:52:22Z</time></trkpt><trkpt lat="46.11454162472056" lon="9.319197020177091"><ele>266.0</ele><time>2026-05-03T11:52:23Z</time></trkpt><trkpt lat="46.11452993067203" lon="9.319485881978997"><ele>265.33333333333337</ele><time>2026-05-03T11:52:24Z</time></trkpt><trkpt lat="46.114515787361604" lon="9.319783927208112"><ele>264.6666666666667</ele><time>2026-05-03T11:52:25Z</time></trkpt><trkpt lat="46.11450212715478" lon="9.320092001484008"><ele>264.0</ele><time>2026-05-03T11:52:26.001Z</time></trkpt><trkpt lat="46.11448740022192" lon="9.320389523151222"><ele>265.0</ele><time>2026-05-03T11:52:27.001Z</time></trkpt><trkpt lat="46.1144755552753" lon="9.320682456242741"><ele>266.0</ele><time>2026-05-03T11:52:28.001Z</time></trkpt><trkpt lat="46.11447066989945" lon="9.320958646522577"><ele>267.0</ele><time>2026-05-03T11:52:29.001Z</time></trkpt><trkpt lat="46.11446555040153" lon="9.321214643315136"><ele>267.6666666666667</ele><time>2026-05-03T11:52:30.001Z</time></trkpt><trkpt lat="46.11445938026425" lon="9.321464646639246"><ele>268.33333333333337</ele><time>2026-05-03T11:52:31.001Z</time></trkpt><trkpt lat="46.11445245783467" lon="9.321705103435908"><ele>269.0</ele><time>2026-05-03T11:52:32.001Z</time></trkpt><trkpt lat="46.11445420899468" lon="9.321931131191588"><ele>269.0</ele><time>2026-05-03T11:52:33.001Z</time></trkpt><trkpt lat="46.11446013856805" lon="9.322155728471065"><ele>269.0</ele><time>2026-05-03T11:52:34.001Z</time></trkpt><trkpt lat="46.11446957038182" lon="9.322365458254744"><ele>269.0</ele><time>2026-05-03T11:52:35.001Z</time></trkpt><trkpt lat="46.114482990931705" lon="9.322573255487239"><ele>269.0</ele><time>2026-05-03T11:52:36.001Z</time></trkpt><trkpt lat="46.114493575139946" lon="9.32277950455422"><ele>269.25</ele><time>2026-05-03T11:52:37.001Z</time></trkpt><trkpt lat="46.114498551968914" lon="9.32297319867923"><ele>269.5</ele><time>2026-05-03T11:52:38.001Z</time></trkpt><trkpt lat="46.11451243338259" lon="9.323162052538814"><ele>269.75</ele><time>2026-05-03T11:52:39.001Z</time></trkpt><trkpt lat="46.11454327471777" lon="9.323358850424372"><ele>270.0</ele><time>2026-05-03T11:52:40.001Z</time></trkpt><trkpt lat="46.114598571531275" lon="9.323571171802127"><ele>269.6666666666667</ele><time>2026-05-03T11:52:41.001Z</time></trkpt><trkpt lat="46.11465424489229" lon="9.323799346991523"><ele>269.33333333333337</ele><time>2026-05-03T11:52:42.001Z</time></trkpt><trkpt lat="46.11466675803383" lon="9.324040112522043"><ele>269.0</ele><time>2026-05-03T11:52:43.001Z</time></trkpt><trkpt lat="46.11466235673082" lon="9.324275700221094"><ele>269.0</ele><time>2026-05-03T11:52:44.001Z</time></trkpt><trkpt lat="46.11463812701835" lon="9.324491607523715"><ele>269.0</ele><time>2026-05-03T11:52:45.001Z</time></trkpt><trkpt lat="46.11458991906764" lon="9.324683731739167"><ele>269.0</ele><time>2026-05-03T11:52:46.001Z</time></trkpt><trkpt lat="46.114522872925264" lon="9.324861212992827"><ele>269.0</ele><time>2026-05-03T11:52:47.001Z</time></trkpt><trkpt lat="46.11443044023619" lon="9.325026097487074"><ele>265.25</ele><time>2026-05-03T11:52:48.001Z</time></trkpt><trkpt lat="46.114333329201145" lon="9.325204559157285"><ele>261.5</ele><time>2026-05-03T11:52:49.001Z</time></trkpt><trkpt lat="46.11426232631755" lon="9.325387842655463"><ele>257.75</ele><time>2026-05-03T11:52:50.001Z</time></trkpt><trkpt lat="46.114202692993835" lon="9.325577984756325"><ele>254.0</ele><time>2026-05-03T11:52:51.001Z</time></trkpt><trkpt lat="46.11415833500385" lon="9.325788120681295"><ele>250.0</ele><time>2026-05-03T11:52:52.001Z</time></trkpt><trkpt lat="46.114117502218974" lon="9.325991580869351"><ele>246.0</ele><time>2026-05-03T11:52:53.001Z</time></trkpt><trkpt lat="46.11407780926228" lon="9.32617682688964"><ele>242.0</ele><time>2026-05-03T11:52:54.001Z</time></trkpt><trkpt lat="46.114033734614054" lon="9.326353345276926"><ele>238.0</ele><time>2026-05-03T11:52:55.001Z</time></trkpt><trkpt lat="46.113991785067064" lon="9.326532692205873"><ele>249.5</ele><time>2026-05-03T11:52:56.001Z</time></trkpt><trkpt lat="46.113961168445506" lon="9.326712426094648"><ele>261.0</ele><time>2026-05-03T11:52:57.001Z</time></trkpt><trkpt lat="46.113946624246246" lon="9.326905755383146"><ele>272.5</ele><time>2026-05-03T11:52:58.001Z</time></trkpt><trkpt lat="46.113948599656695" lon="9.327112194833523"><ele>284.0</ele><time>2026-05-03T11:52:59.001Z</time></trkpt><trkpt lat="46.113959296258145" lon="9.327306303978386"><ele>284.0</ele><time>2026-05-03T11:53:00.001Z</time></trkpt><trkpt lat="46.11396992041305" lon="9.327482751639852"><ele>284.0</ele><time>2026-05-03T11:53:01.002Z</time></trkpt><trkpt lat="46.11397202933196" lon="9.327644565124501"><ele>284.0</ele><time>2026-05-03T11:53:02.002Z</time></trkpt><trkpt lat="46.113980435391206" lon="9.327807882562768"><ele>284.0</ele><time>2026-05-03T11:53:03.002Z</time></trkpt><trkpt lat="46.113995032990964" lon="9.32796554361355"><ele>283.0</ele><time>2026-05-03T11:53:04.002Z</time></trkpt><trkpt lat="46.1140287261774" lon="9.32812326783173"><ele>282.0</ele><time>2026-05-03T11:53:05.002Z</time></trkpt><trkpt lat="46.11408967086441" lon="9.328276409522369"><ele>281.0</ele><time>2026-05-03T11:53:06.002Z</time></trkpt><trkpt lat="46.114167144404405" lon="9.328423861873514"><ele>280.0</ele><time>2026-05-03T11:53:07.002Z</time></trkpt><trkpt lat="46.114248434277734" lon="9.328580459158106"><ele>268.5</ele><time>2026-05-03T11:53:08.002Z</time></trkpt><trkpt lat="46.11430582341108" lon="9.32875923098863"><ele>257.0</ele><time>2026-05-03T11:53:09.002Z</time></trkpt><trkpt lat="46.11433812587315" lon="9.328952404400304"><ele>245.5</ele><time>2026-05-03T11:53:10.002Z</time></trkpt><trkpt lat="46.11433106974269" lon="9.329158446438152"><ele>234.0</ele><time>2026-05-03T11:53:11.002Z</time></trkpt><trkpt lat="46.114347402089805" lon="9.329366962089251"><ele>234.0</ele><time>2026-05-03T11:53:12.002Z</time></trkpt><trkpt lat="46.11434996650841" lon="9.329578888122688"><ele>234.0</ele><time>2026-05-03T11:53:13.002Z</time></trkpt><trkpt lat="46.114357485031775" lon="9.329791523770355"><ele>234.0</ele><time>2026-05-03T11:53:14.002Z</time></trkpt><trkpt lat="46.11436509599271" lon="9.330008038071782"><ele>234.0</ele><time>2026-05-03T11:53:15.002Z</time></trkpt><trkpt lat="46.11437205137854" lon="9.330225924647932"><ele>235.0</ele><time>2026-05-03T11:53:16.002Z</time></trkpt><trkpt lat="46.114379212043396" lon="9.330442470968553"><ele>236.0</ele><time>2026-05-03T11:53:17.002Z</time></trkpt><trkpt lat="46.11439008179366" lon="9.330659226062775"><ele>237.0</ele><time>2026-05-03T11:53:18.002Z</time></trkpt><trkpt lat="46.11441419757587" lon="9.330871857955543"><ele>239.66666666666669</ele><time>2026-05-03T11:53:19.002Z</time></trkpt><trkpt lat="46.1144548071969" lon="9.331082744576863"><ele>242.33333333333334</ele><time>2026-05-03T11:53:20.002Z</time></trkpt><trkpt lat="46.114509650888394" lon="9.331284213024981"><ele>245.0</ele><time>2026-05-03T11:53:21.002Z</time></trkpt><trkpt lat="46.114572511736036" lon="9.331479699937002"><ele>247.33333333333334</ele><time>2026-05-03T11:53:22.002Z</time></trkpt><trkpt lat="46.11462306471016" lon="9.331691490726614"><ele>249.66666666666669</ele><time>2026-05-03T11:53:23.002Z</time></trkpt><trkpt lat="46.11471359390513" lon="9.331881383332862"><ele>252.0</ele><time>2026-05-03T11:53:24.002Z</time></trkpt><trkpt lat="46.11479433889832" lon="9.332083579923884"><ele>258.0</ele><time>2026-05-03T11:53:25.002Z</time></trkpt><trkpt lat="46.11487596663915" lon="9.332279431246981"><ele>264.0</ele><time>2026-05-03T11:53:26.002Z</time></trkpt><trkpt lat="46.11494041263367" lon="9.332474734574348"><ele>270.0</ele><time>2026-05-03T11:53:27.002Z</time></trkpt><trkpt lat="46.11499554688565" lon="9.332671628341862"><ele>262.3333333333333</ele><time>2026-05-03T11:53:27.999Z</time></trkpt><trkpt lat="46.1150657501269" lon="9.332859955228212"><ele>254.66666666666666</ele><time>2026-05-03T11:53:28.999Z</time></trkpt><trkpt lat="46.11516015049091" lon="9.333035476795848"><ele>247.0</ele><time>2026-05-03T11:53:29.999Z</time></trkpt><trkpt lat="46.115266584566676" lon="9.333215364251949"><ele>247.0</ele><time>2026-05-03T11:53:30.999Z</time></trkpt><trkpt lat="46.1153619759026" lon="9.333378617557988"><ele>247.0</ele><time>2026-05-03T11:53:31.999Z</time></trkpt><trkpt lat="46.115449363630525" lon="9.333532358441728"><ele>247.0</ele><time>2026-05-03T11:53:32.999Z</time></trkpt><trkpt lat="46.11552968114098" lon="9.333683024520885"><ele>247.0</ele><time>2026-05-03T11:53:33.999Z</time></trkpt><trkpt lat="46.115600329827345" lon="9.333836465382847"><ele>241.25</ele><time>2026-05-03T11:53:34.999Z</time></trkpt><trkpt lat="46.11566248297458" lon="9.333987117098179"><ele>235.5</ele><time>2026-05-03T11:53:35.999Z</time></trkpt><trkpt lat="46.11572408232218" lon="9.33413382023566"><ele>229.75</ele><time>2026-05-03T11:53:36.999Z</time></trkpt><trkpt lat="46.11578147388855" lon="9.334276714256168"><ele>224.0</ele><time>2026-05-03T11:53:37.999Z</time></trkpt><trkpt lat="46.1158296997497" lon="9.334433353518593"><ele>224.0</ele><time>2026-05-03T11:53:38.999Z</time></trkpt><trkpt lat="46.115862781854666" lon="9.334603316650314"><ele>224.0</ele><time>2026-05-03T11:53:39.999Z</time></trkpt><trkpt lat="46.115880771345736" lon="9.3347867256595"><ele>224.0</ele><time>2026-05-03T11:53:40.999Z</time></trkpt><trkpt lat="46.115894018905216" lon="9.33497390381668"><ele>224.0</ele><time>2026-05-03T11:53:41.999Z</time></trkpt><trkpt lat="46.115921229893864" lon="9.335153625829339"><ele>228.5</ele><time>2026-05-03T11:53:42.999Z</time></trkpt><trkpt lat="46.11597675895087" lon="9.335323662152659"><ele>233.0</ele><time>2026-05-03T11:53:43.999Z</time></trkpt><trkpt lat="46.116055988476326" lon="9.335489146259432"><ele>237.5</ele><time>2026-05-03T11:53:44.999Z</time></trkpt><trkpt lat="46.11614611035277" lon="9.335651561729247"><ele>242.0</ele><time>2026-05-03T11:53:45.999Z</time></trkpt><trkpt lat="46.11623549671354" lon="9.335822484862923"><ele>247.25</ele><time>2026-05-03T11:53:46.999Z</time></trkpt><trkpt lat="46.11632617778257" lon="9.335999474359038"><ele>252.5</ele><time>2026-05-03T11:53:47.999Z</time></trkpt><trkpt lat="46.11640831057599" lon="9.336175606043428"><ele>257.75</ele><time>2026-05-03T11:53:48.999Z</time></trkpt><trkpt lat="46.1164819119366" lon="9.336354073849384"><ele>263.0</ele><time>2026-05-03T11:53:49.999Z</time></trkpt><trkpt lat="46.11655216527997" lon="9.336520357271496"><ele>252.75</ele><time>2026-05-03T11:53:50.999Z</time></trkpt><trkpt lat="46.11662015173879" lon="9.336674647135936"><ele>242.5</ele><time>2026-05-03T11:53:51.999Z</time></trkpt><trkpt lat="46.11668260349885" lon="9.336827179315032"><ele>232.25</ele><time>2026-05-03T11:53:52.999Z</time></trkpt><trkpt lat="46.116740814608" lon="9.33698366079502"><ele>222.0</ele><time>2026-05-03T11:53:53.999Z</time></trkpt><trkpt lat="46.11679778168908" lon="9.33713400381785"><ele>225.0</ele><time>2026-05-03T11:53:54.999Z</time></trkpt><trkpt lat="46.116849954628854" lon="9.337282370523724"><ele>228.0</ele><time>2026-05-03T11:53:55.999Z</time></trkpt><trkpt lat="46.116900481256145" lon="9.337437109209029"><ele>231.0</ele><time>2026-05-03T11:53:57Z</time></trkpt><trkpt lat="46.116938743848536" lon="9.337602455082807"><ele>234.0</ele><time>2026-05-03T11:53:58Z</time></trkpt><trkpt lat="46.116959984986146" lon="9.33778215786306"><ele>234.0</ele><time>2026-05-03T11:53:59Z</time></trkpt><trkpt lat="46.11696574481585" lon="9.337969966277385"><ele>234.0</ele><time>2026-05-03T11:54:00Z</time></trkpt><trkpt lat="46.116954626868754" lon="9.338165804514007"><ele>234.0</ele><time>2026-05-03T11:54:01Z</time></trkpt><trkpt lat="46.11694886662165" lon="9.338369195986683"><ele>234.0</ele><time>2026-05-03T11:54:02Z</time></trkpt><trkpt lat="46.116947036325165" lon="9.338561292182929"><ele>234.75</ele><time>2026-05-03T11:54:03Z</time></trkpt><trkpt lat="46.11693947444269" lon="9.338750036856487"><ele>235.5</ele><time>2026-05-03T11:54:04Z</time></trkpt><trkpt lat="46.11692214910489" lon="9.338940250901416"><ele>236.25</ele><time>2026-05-03T11:54:05Z</time></trkpt><trkpt lat="46.11689685471946" lon="9.339125370834443"><ele>237.0</ele><time>2026-05-03T11:54:06Z</time></trkpt><trkpt lat="46.11686646781483" lon="9.339310347113612"><ele>237.0</ele><time>2026-05-03T11:54:07Z</time></trkpt><trkpt lat="46.116835781329755" lon="9.33949693066773"><ele>237.0</ele><time>2026-05-03T11:54:08Z</time></trkpt><trkpt lat="46.11680353251121" lon="9.33968485272106"><ele>237.0</ele><time>2026-05-03T11:54:09Z</time></trkpt><trkpt lat="46.11676486291158" lon="9.339870703814645"><ele>237.0</ele><time>2026-05-03T11:54:10Z</time></trkpt><trkpt lat="46.116722307872784" lon="9.340059302315346"><ele>234.0</ele><time>2026-05-03T11:54:11Z</time></trkpt><trkpt lat="46.11667750261818" lon="9.34024506308291"><ele>231.0</ele><time>2026-05-03T11:54:12Z</time></trkpt><trkpt lat="46.11663265846691" lon="9.340431032187043"><ele>228.0</ele><time>2026-05-03T11:54:13Z</time></trkpt><trkpt lat="46.116584923558406" lon="9.340622912922026"><ele>225.0</ele><time>2026-05-03T11:54:14Z</time></trkpt><trkpt lat="46.116539456147045" lon="9.340815235760958"><ele>231.5</ele><time>2026-05-03T11:54:15Z</time></trkpt><trkpt lat="46.11649509700654" lon="9.341008034559007"><ele>238.0</ele><time>2026-05-03T11:54:16Z</time></trkpt><trkpt lat="46.11644995948931" lon="9.34120317021571"><ele>244.5</ele><time>2026-05-03T11:54:17Z</time></trkpt><trkpt lat="46.11640380293795" lon="9.341397628572485"><ele>251.0</ele><time>2026-05-03T11:54:18Z</time></trkpt><trkpt lat="46.11635458514408" lon="9.341590485125774"><ele>251.0</ele><time>2026-05-03T11:54:19Z</time></trkpt><trkpt lat="46.11630140499622" lon="9.34178261589753"><ele>251.0</ele><time>2026-05-03T11:54:20Z</time></trkpt><trkpt lat="46.11625038148204" lon="9.341976113555269"><ele>251.0</ele><time>2026-05-03T11:54:21Z</time></trkpt><trkpt lat="46.11620724235484" lon="9.342182215069645"><ele>251.0</ele><time>2026-05-03T11:54:22Z</time></trkpt><trkpt lat="46.11617762375195" lon="9.342406778942754"><ele>248.0</ele><time>2026-05-03T11:54:23.001Z</time></trkpt><trkpt lat="46.11616368035709" lon="9.342647629220243"><ele>245.0</ele><time>2026-05-03T11:54:24.001Z</time></trkpt><trkpt lat="46.11616153099809" lon="9.342896932743898"><ele>242.0</ele><time>2026-05-03T11:54:25.001Z</time></trkpt><trkpt lat="46.11617411654298" lon="9.343149607851961"><ele>239.0</ele><time>2026-05-03T11:54:26.001Z</time></trkpt><trkpt lat="46.11619402457491" lon="9.343402416097856"><ele>236.0</ele><time>2026-05-03T11:54:27.001Z</time></trkpt><trkpt lat="46.11621837103143" lon="9.343645368058251"><ele>233.0</ele><time>2026-05-03T11:54:28.001Z</time></trkpt><trkpt lat="46.116238881207195" lon="9.343868594300016"><ele>232.5</ele><time>2026-05-03T11:54:29.001Z</time></trkpt><trkpt lat="46.11625791828124" lon="9.344075475381235"><ele>232.0</ele><time>2026-05-03T11:54:30.001Z</time></trkpt><trkpt lat="46.116277524865204" lon="9.344266764769163"><ele>231.5</ele><time>2026-05-03T11:54:31.001Z</time></trkpt><trkpt lat="46.11629565733869" lon="9.344445619107034"><ele>231.0</ele><time>2026-05-03T11:54:32.001Z</time></trkpt><trkpt lat="46.116313364658886" lon="9.344625477564318"><ele>233.25</ele><time>2026-05-03T11:54:33.001Z</time></trkpt><trkpt lat="46.11632907429566" lon="9.34480465522722"><ele>235.5</ele><time>2026-05-03T11:54:34.001Z</time></trkpt><trkpt lat="46.11634549317193" lon="9.344985285459824"><ele>237.75</ele><time>2026-05-03T11:54:35.001Z</time></trkpt><trkpt lat="46.11637091744913" lon="9.345173412572336"><ele>240.0</ele><time>2026-05-03T11:54:36.001Z</time></trkpt><trkpt lat="46.11641149622228" lon="9.345365814375954"><ele>244.5</ele><time>2026-05-03T11:54:37.001Z</time></trkpt><trkpt lat="46.11647181845142" lon="9.345555801701188"><ele>249.0</ele><time>2026-05-03T11:54:38.001Z</time></trkpt><trkpt lat="46.116538570628286" lon="9.345724286279248"><ele>253.5</ele><time>2026-05-03T11:54:39.001Z</time></trkpt><trkpt lat="46.11661005620394" lon="9.3458763839314"><ele>258.0</ele><time>2026-05-03T11:54:40.001Z</time></trkpt><trkpt lat="46.116685104247644" lon="9.346010012219624"><ele>251.2</ele><time>2026-05-03T11:54:41.001Z</time></trkpt><trkpt lat="46.11675936968645" lon="9.346125733823573"><ele>244.4</ele><time>2026-05-03T11:54:42.001Z</time></trkpt><trkpt lat="46.116827574921544" lon="9.346230844899825"><ele>237.59999999999997</ele><time>2026-05-03T11:54:43.001Z</time></trkpt><trkpt lat="46.11688957507463" lon="9.346332789938218"><ele>230.79999999999998</ele><time>2026-05-03T11:54:44.001Z</time></trkpt><trkpt lat="46.11694293525653" lon="9.346426822657813"><ele>224.0</ele><time>2026-05-03T11:54:45.001Z</time></trkpt><trkpt lat="46.11699384398325" lon="9.346530862712608"><ele>224.0</ele><time>2026-05-03T11:54:46.001Z</time></trkpt><trkpt lat="46.11704495363593" lon="9.346641043088297"><ele>223.99999999999997</ele><time>2026-05-03T11:54:47.001Z</time></trkpt><trkpt lat="46.11709305762244" lon="9.346734999098713"><ele>223.99999999999997</ele><time>2026-05-03T11:54:48.001Z</time></trkpt><trkpt lat="46.117149422042075" lon="9.346806420665203"><ele>224.0</ele><time>2026-05-03T11:54:49.001Z</time></trkpt><trkpt lat="46.117262688446736" lon="9.346834833373624"><ele>224.0</ele><time>2026-05-03T11:54:51.001Z</time></trkpt><trkpt lat="46.117375013472056" lon="9.34674517565555"><ele>220.50000000000003</ele><time>2026-05-03T11:54:53.001Z</time></trkpt><trkpt lat="46.11744431841032" lon="9.346707038237959"><ele>217.0</ele><time>2026-05-03T11:54:54.001Z</time></trkpt><trkpt lat="46.1175228810191" lon="9.346714047405571"><ele>213.5</ele><time>2026-05-03T11:54:55.001Z</time></trkpt><trkpt lat="46.11760102587807" lon="9.34674058191481"><ele>210.0</ele><time>2026-05-03T11:54:56.002Z</time></trkpt><trkpt lat="46.1176754950965" lon="9.346765673956783"><ele>206.50000000000003</ele><time>2026-05-03T11:54:57.002Z</time></trkpt><trkpt lat="46.1177471530197" lon="9.346790657811088"><ele>203.0</ele><time>2026-05-03T11:54:58.002Z</time></trkpt><trkpt lat="46.1178195226395" lon="9.34680952064064"><ele>203.00000000000003</ele><time>2026-05-03T11:54:59.002Z</time></trkpt><trkpt lat="46.11789476474234" lon="9.346836143272105"><ele>203.0</ele><time>2026-05-03T11:55:00.002Z</time></trkpt><trkpt lat="46.117970180387374" lon="9.346864327469168"><ele>203.0</ele><time>2026-05-03T11:55:01.002Z</time></trkpt><trkpt lat="46.11803884647393" lon="9.346885520598718"><ele>203.0</ele><time>2026-05-03T11:55:02.002Z</time></trkpt><trkpt lat="46.11809465752984" lon="9.346932432169337"><ele>203.00000000000003</ele><time>2026-05-03T11:55:04.002Z</time></trkpt><trkpt lat="46.118159505687146" lon="9.346946209543267"><ele>203.0</ele><time>2026-05-03T11:55:09.002Z</time></trkpt><trkpt lat="46.11806595659637" lon="9.34689016819812"><ele>203.00000000000003</ele><time>2026-05-03T11:55:13.002Z</time></trkpt><trkpt lat="46.11794888001828" lon="9.346851515300367"><ele>203.0</ele><time>2026-05-03T11:55:15.002Z</time></trkpt><trkpt lat="46.117885900278836" lon="9.346830722499911"><ele>203.0</ele><time>2026-05-03T11:55:16.002Z</time></trkpt><trkpt lat="46.117809324736584" lon="9.346805441089852"><ele>203.0</ele><time>2026-05-03T11:55:17.002Z</time></trkpt><trkpt lat="46.117726737335495" lon="9.346778174868328"><ele>203.00000000000003</ele><time>2026-05-03T11:55:18.002Z</time></trkpt><trkpt lat="46.1176464504291" lon="9.346751668199987"><ele>203.0</ele><time>2026-05-03T11:55:19.002Z</time></trkpt><trkpt lat="46.11756947024497" lon="9.346724163066321"><ele>203.0</ele><time>2026-05-03T11:55:20.002Z</time></trkpt><trkpt lat="46.117476793807946" lon="9.346688599145578"><ele>203.0</ele><time>2026-05-03T11:55:21.002Z</time></trkpt><trkpt lat="46.11732407443702" lon="9.34671169852747"><ele>203.0</ele><time>2026-05-03T11:55:22.002Z</time></trkpt><trkpt lat="46.117252197000965" lon="9.346747270586441"><ele>203.0</ele><time>2026-05-03T11:55:23.002Z</time></trkpt><trkpt lat="46.11717084876653" lon="9.346817306342604"><ele>203.0</ele><time>2026-05-03T11:55:26.002Z</time></trkpt><trkpt lat="46.11717969124497" lon="9.347009127267537"><ele>207.2</ele><time>2026-05-03T11:55:28.002Z</time></trkpt><trkpt lat="46.117200442764606" lon="9.347131024856967"><ele>211.4</ele><time>2026-05-03T11:55:29.003Z</time></trkpt><trkpt lat="46.117197690064735" lon="9.34727611676006"><ele>215.59999999999997</ele><time>2026-05-03T11:55:30.003Z</time></trkpt><trkpt lat="46.11718741236494" lon="9.347431572439056"><ele>219.79999999999998</ele><time>2026-05-03T11:55:31.003Z</time></trkpt><trkpt lat="46.117169832233195" lon="9.347579954046239"><ele>224.0</ele><time>2026-05-03T11:55:32.003Z</time></trkpt><trkpt lat="46.11714996157346" lon="9.34771251216627"><ele>227.2</ele><time>2026-05-03T11:55:33.003Z</time></trkpt><trkpt lat="46.11713825365506" lon="9.347849329281626"><ele>230.39999999999998</ele><time>2026-05-03T11:55:33.999Z</time></trkpt><trkpt lat="46.1171476627246" lon="9.347994325969431"><ele>233.6</ele><time>2026-05-03T11:55:34.999Z</time></trkpt><trkpt lat="46.11718356722767" lon="9.348155471000576"><ele>236.8</ele><time>2026-05-03T11:55:35.999Z</time></trkpt><trkpt lat="46.117255859173476" lon="9.348309482343751"><ele>240.0</ele><time>2026-05-03T11:55:36.999Z</time></trkpt><trkpt lat="46.11735534440814" lon="9.348423976621092"><ele>233.75</ele><time>2026-05-03T11:55:37.999Z</time></trkpt><trkpt lat="46.11746850651986" lon="9.348496381307823"><ele>227.5</ele><time>2026-05-03T11:55:38.999Z</time></trkpt><trkpt lat="46.117604303443485" lon="9.348527750725127"><ele>221.25</ele><time>2026-05-03T11:55:39.999Z</time></trkpt><trkpt lat="46.1177689564444" lon="9.348543320495015"><ele>215.0</ele><time>2026-05-03T11:55:40.999Z</time></trkpt><trkpt lat="46.11793463918645" lon="9.348544098993619"><ele>215.0</ele><time>2026-05-03T11:55:41.999Z</time></trkpt><trkpt lat="46.11810007658611" lon="9.34854374149001"><ele>215.0</ele><time>2026-05-03T11:55:42.999Z</time></trkpt><trkpt lat="46.11824344575682" lon="9.348582043282684"><ele>215.0</ele><time>2026-05-03T11:55:43.999Z</time></trkpt><trkpt lat="46.11841009911388" lon="9.348589274484398"><ele>213.75</ele><time>2026-05-03T11:55:44.999Z</time></trkpt><trkpt lat="46.118566252320726" lon="9.348610796106255"><ele>212.5</ele><time>2026-05-03T11:55:45.999Z</time></trkpt><trkpt lat="46.1187083271102" lon="9.348642656542694"><ele>211.25</ele><time>2026-05-03T11:55:46.999Z</time></trkpt><trkpt lat="46.11883723180112" lon="9.348680669422851"><ele>210.0</ele><time>2026-05-03T11:55:47.999Z</time></trkpt><trkpt lat="46.11894588324471" lon="9.348731495334668"><ele>210.0</ele><time>2026-05-03T11:55:48.999Z</time></trkpt><trkpt lat="46.11905678284018" lon="9.348774767512834"><ele>210.0</ele><time>2026-05-03T11:55:49.999Z</time></trkpt><trkpt lat="46.1191582968215" lon="9.34881771480664"><ele>210.0</ele><time>2026-05-03T11:55:50.999Z</time></trkpt><trkpt lat="46.119245006644626" lon="9.348864769282118"><ele>210.0</ele><time>2026-05-03T11:55:51.999Z</time></trkpt><trkpt lat="46.11931928130512" lon="9.348931868359351"><ele>210.0</ele><time>2026-05-03T11:55:53Z</time></trkpt><trkpt lat="46.11935902241579" lon="9.349020167828538"><ele>210.6</ele><time>2026-05-03T11:55:54Z</time></trkpt><trkpt lat="46.11937328894204" lon="9.349132140977575"><ele>211.2</ele><time>2026-05-03T11:55:55Z</time></trkpt><trkpt lat="46.11937979845319" lon="9.349243192545412"><ele>211.8</ele><time>2026-05-03T11:55:56Z</time></trkpt><trkpt lat="46.11944657181488" lon="9.349358880983523"><ele>212.4</ele><time>2026-05-03T11:55:58Z</time></trkpt><trkpt lat="46.11954287925526" lon="9.349379808733934"><ele>213.0</ele><time>2026-05-03T11:56:00Z</time></trkpt><trkpt lat="46.11965079323912" lon="9.349293004697872"><ele>213.0</ele><time>2026-05-03T11:56:02Z</time></trkpt><trkpt lat="46.119705483449074" lon="9.349226444671931"><ele>213.0</ele><time>2026-05-03T11:56:03Z</time></trkpt><trkpt lat="46.11977035975197" lon="9.349178355111444"><ele>213.0</ele><time>2026-05-03T11:56:04Z</time></trkpt><trkpt lat="46.11984762178935" lon="9.349160449218015"><ele>213.0</ele><time>2026-05-03T11:56:05Z</time></trkpt><trkpt lat="46.119930441831194" lon="9.349156766813467"><ele>213.0</ele><time>2026-05-03T11:56:06Z</time></trkpt><trkpt lat="46.12002283959919" lon="9.349164585166884"><ele>213.0</ele><time>2026-05-03T11:56:07Z</time></trkpt><trkpt lat="46.12012638404546" lon="9.349190111551106"><ele>213.0</ele><time>2026-05-03T11:56:08Z</time></trkpt><trkpt lat="46.120240627859815" lon="9.349228346269966"><ele>213.0</ele><time>2026-05-03T11:56:09Z</time></trkpt><trkpt lat="46.12035840880046" lon="9.349265230285505"><ele>213.0</ele><time>2026-05-03T11:56:10Z</time></trkpt><trkpt lat="46.12046873520547" lon="9.349307128807705"><ele>213.0</ele><time>2026-05-03T11:56:11Z</time></trkpt><trkpt lat="46.120593106418895" lon="9.349355316530069"><ele>213.0</ele><time>2026-05-03T11:56:12Z</time></trkpt><trkpt lat="46.120727452997734" lon="9.349404166350656"><ele>213.0</ele><time>2026-05-03T11:56:13Z</time></trkpt><trkpt lat="46.12086903611733" lon="9.349456246071941"><ele>213.0</ele><time>2026-05-03T11:56:14Z</time></trkpt><trkpt lat="46.12102125978112" lon="9.349506898858811"><ele>213.0</ele><time>2026-05-03T11:56:15Z</time></trkpt><trkpt lat="46.12118579963324" lon="9.349591226952402"><ele>213.0</ele><time>2026-05-03T11:56:16Z</time></trkpt><trkpt lat="46.12137222449022" lon="9.349664639039322"><ele>213.0</ele><time>2026-05-03T11:56:17Z</time></trkpt><trkpt lat="46.12157014884585" lon="9.34974168264773"><ele>213.0</ele><time>2026-05-03T11:56:18Z</time></trkpt><trkpt lat="46.121786102037746" lon="9.34981089907363"><ele>213.0</ele><time>2026-05-03T11:56:19Z</time></trkpt><trkpt lat="46.12200755492751" lon="9.349902070825193"><ele>213.0</ele><time>2026-05-03T11:56:20.001Z</time></trkpt><trkpt lat="46.12222179113435" lon="9.349981253908494"><ele>212.5</ele><time>2026-05-03T11:56:21.001Z</time></trkpt><trkpt lat="46.122439605568864" lon="9.350067801650189"><ele>212.0</ele><time>2026-05-03T11:56:22.001Z</time></trkpt><trkpt lat="46.122669801133625" lon="9.35015745005503"><ele>212.0</ele><time>2026-05-03T11:56:23.001Z</time></trkpt><trkpt lat="46.12290982521109" lon="9.350250569740957"><ele>212.0</ele><time>2026-05-03T11:56:24.001Z</time></trkpt><trkpt lat="46.12316237667321" lon="9.350355096114669"><ele>211.5</ele><time>2026-05-03T11:56:25.001Z</time></trkpt><trkpt lat="46.12342109596633" lon="9.350463510017587"><ele>211.0</ele><time>2026-05-03T11:56:26.001Z</time></trkpt><trkpt lat="46.12367059231677" lon="9.350560272670004"><ele>211.66666666666666</ele><time>2026-05-03T11:56:27.001Z</time></trkpt><trkpt lat="46.12389629610235" lon="9.350645867378987"><ele>212.33333333333331</ele><time>2026-05-03T11:56:28.001Z</time></trkpt><trkpt lat="46.12410499717751" lon="9.350726344648491"><ele>213.0</ele><time>2026-05-03T11:56:29.001Z</time></trkpt><trkpt lat="46.12430292718244" lon="9.350803847992083"><ele>213.0</ele><time>2026-05-03T11:56:30.001Z</time></trkpt><trkpt lat="46.124490859131406" lon="9.350879509825022"><ele>213.0</ele><time>2026-05-03T11:56:31.001Z</time></trkpt><trkpt lat="46.124666751640405" lon="9.350945680373222"><ele>213.0</ele><time>2026-05-03T11:56:32.001Z</time></trkpt><trkpt lat="46.124825586832216" lon="9.351007072102782"><ele>212.75</ele><time>2026-05-03T11:56:33.001Z</time></trkpt><trkpt lat="46.12495981565037" lon="9.351064143468001"><ele>212.5</ele><time>2026-05-03T11:56:34.001Z</time></trkpt><trkpt lat="46.12508278666149" lon="9.351134434629051"><ele>212.25</ele><time>2026-05-03T11:56:35.001Z</time></trkpt><trkpt lat="46.12520937918375" lon="9.351249122644056"><ele>212.0</ele><time>2026-05-03T11:56:36.001Z</time></trkpt><trkpt lat="46.12533478321529" lon="9.35141291308263"><ele>212.0</ele><time>2026-05-03T11:56:37.001Z</time></trkpt><trkpt lat="46.12546251688138" lon="9.351587395058104"><ele>212.0</ele><time>2026-05-03T11:56:38.001Z</time></trkpt><trkpt lat="46.12559441999257" lon="9.351760438143787"><ele>212.0</ele><time>2026-05-03T11:56:39.001Z</time></trkpt><trkpt lat="46.12573893023177" lon="9.351943437123824"><ele>212.0</ele><time>2026-05-03T11:56:40.001Z</time></trkpt><trkpt lat="46.12588063702413" lon="9.35212650424902"><ele>212.0</ele><time>2026-05-03T11:56:41.001Z</time></trkpt><trkpt lat="46.126033272506625" lon="9.352320312904324"><ele>212.0</ele><time>2026-05-03T11:56:42.001Z</time></trkpt><trkpt lat="46.12618769479977" lon="9.352520853677271"><ele>212.33333333333334</ele><time>2026-05-03T11:56:43.001Z</time></trkpt><trkpt lat="46.12634633324659" lon="9.35272218580784"><ele>212.66666666666669</ele><time>2026-05-03T11:56:44.001Z</time></trkpt><trkpt lat="46.12650076754483" lon="9.35292524878495"><ele>213.0</ele><time>2026-05-03T11:56:45.001Z</time></trkpt><trkpt lat="46.126647070917464" lon="9.353113342055417"><ele>213.66666666666669</ele><time>2026-05-03T11:56:46.001Z</time></trkpt><trkpt lat="46.126788989634164" lon="9.353296682345738"><ele>214.33333333333334</ele><time>2026-05-03T11:56:47.001Z</time></trkpt><trkpt lat="46.12692863490772" lon="9.353478728565403"><ele>215.0</ele><time>2026-05-03T11:56:48.001Z</time></trkpt><trkpt lat="46.12707121650762" lon="9.35366115629836"><ele>215.0</ele><time>2026-05-03T11:56:49.001Z</time></trkpt><trkpt lat="46.12720738493376" lon="9.35383495846841"><ele>215.0</ele><time>2026-05-03T11:56:50.001Z</time></trkpt><trkpt lat="46.12732835656564" lon="9.353988592480896"><ele>215.0</ele><time>2026-05-03T11:56:51.001Z</time></trkpt><trkpt lat="46.12744596525556" lon="9.354138928362044"><ele>215.66666666666669</ele><time>2026-05-03T11:56:52.002Z</time></trkpt><trkpt lat="46.127563823169055" lon="9.354285581304028"><ele>216.33333333333331</ele><time>2026-05-03T11:56:53.002Z</time></trkpt><trkpt lat="46.12768860619788" lon="9.35445232386162"><ele>217.0</ele><time>2026-05-03T11:56:54.002Z</time></trkpt><trkpt lat="46.12781855355593" lon="9.354624262255017"><ele>218.33333333333331</ele><time>2026-05-03T11:56:55.002Z</time></trkpt><trkpt lat="46.127956045353294" lon="9.354799600834749"><ele>219.66666666666669</ele><time>2026-05-03T11:56:56.002Z</time></trkpt><trkpt lat="46.12809301612785" lon="9.354972937352873"><ele>221.0</ele><time>2026-05-03T11:56:57.002Z</time></trkpt><trkpt lat="46.1282224356688" lon="9.355137431480358"><ele>221.0</ele><time>2026-05-03T11:56:58.002Z</time></trkpt><trkpt lat="46.128350586613266" lon="9.355301423978547"><ele>221.0</ele><time>2026-05-03T11:56:59.002Z</time></trkpt><trkpt lat="46.12847572646461" lon="9.355465672295079"><ele>221.0</ele><time>2026-05-03T11:57:00.002Z</time></trkpt><trkpt lat="46.12860531455364" lon="9.355631328388773"><ele>221.0</ele><time>2026-05-03T11:57:01.002Z</time></trkpt><trkpt lat="46.128734287900556" lon="9.355797629992258"><ele>221.0</ele><time>2026-05-03T11:57:02.002Z</time></trkpt><trkpt lat="46.128866522051645" lon="9.355970835927787"><ele>221.0</ele><time>2026-05-03T11:57:03.002Z</time></trkpt><trkpt lat="46.12899747494141" lon="9.356148946086222"><ele>220.33333333333334</ele><time>2026-05-03T11:57:04.002Z</time></trkpt><trkpt lat="46.129125683606986" lon="9.356335440560468"><ele>219.66666666666669</ele><time>2026-05-03T11:57:05.002Z</time></trkpt><trkpt lat="46.12924929560914" lon="9.356530601299584"><ele>219.0</ele><time>2026-05-03T11:57:06.002Z</time></trkpt><trkpt lat="46.129370360233615" lon="9.356737412251267"><ele>219.0</ele><time>2026-05-03T11:57:07.002Z</time></trkpt><trkpt lat="46.12948671076825" lon="9.35694197730017"><ele>219.0</ele><time>2026-05-03T11:57:08.002Z</time></trkpt><trkpt lat="46.12960106092996" lon="9.357156218290896"><ele>219.0</ele><time>2026-05-03T11:57:09.002Z</time></trkpt><trkpt lat="46.129712927104315" lon="9.357373923702289"><ele>219.66666666666669</ele><time>2026-05-03T11:57:10.002Z</time></trkpt><trkpt lat="46.12981879541482" lon="9.357595626276865"><ele>220.33333333333334</ele><time>2026-05-03T11:57:11.002Z</time></trkpt><trkpt lat="46.12991143789955" lon="9.357813368730163"><ele>221.0</ele><time>2026-05-03T11:57:12.002Z</time></trkpt><trkpt lat="46.12999548733095" lon="9.358037291823972"><ele>219.33333333333334</ele><time>2026-05-03T11:57:13.002Z</time></trkpt><trkpt lat="46.13007311221157" lon="9.358238301984914"><ele>217.66666666666669</ele><time>2026-05-03T11:57:14.002Z</time></trkpt><trkpt lat="46.130142582408254" lon="9.358428090535977"><ele>216.0</ele><time>2026-05-03T11:57:15.002Z</time></trkpt><trkpt lat="46.13021418036023" lon="9.358624145110022"><ele>216.0</ele><time>2026-05-03T11:57:16.002Z</time></trkpt><trkpt lat="46.130278991144294" lon="9.358818736722322"><ele>216.0</ele><time>2026-05-03T11:57:17.002Z</time></trkpt><trkpt lat="46.13034213518776" lon="9.359006839927378"><ele>216.0</ele><time>2026-05-03T11:57:18.002Z</time></trkpt><trkpt lat="46.130405404030306" lon="9.359188639672016"><ele>216.0</ele><time>2026-05-03T11:57:19.002Z</time></trkpt><trkpt lat="46.130469329484164" lon="9.359366412561434"><ele>216.25</ele><time>2026-05-03T11:57:20.002Z</time></trkpt><trkpt lat="46.1305305160456" lon="9.359540907779847"><ele>216.5</ele><time>2026-05-03T11:57:21.002Z</time></trkpt><trkpt lat="46.130591716138845" lon="9.359713761737165"><ele>216.75</ele><time>2026-05-03T11:57:22.002Z</time></trkpt><trkpt lat="46.13065348756381" lon="9.359893087888079"><ele>217.0</ele><time>2026-05-03T11:57:23.002Z</time></trkpt><trkpt lat="46.13071285565073" lon="9.36006014554451"><ele>216.75</ele><time>2026-05-03T11:57:24.002Z</time></trkpt><trkpt lat="46.13077116316587" lon="9.360228788833279"><ele>216.5</ele><time>2026-05-03T11:57:25.003Z</time></trkpt><trkpt lat="46.13082952625243" lon="9.360393860888873"><ele>216.25</ele><time>2026-05-03T11:57:26.003Z</time></trkpt><trkpt lat="46.13089239440878" lon="9.360559540870788"><ele>216.0</ele><time>2026-05-03T11:57:27.003Z</time></trkpt><trkpt lat="46.130952491575044" lon="9.360720951359962"><ele>216.5</ele><time>2026-05-03T11:57:28.003Z</time></trkpt><trkpt lat="46.131010727135696" lon="9.360883520495623"><ele>217.0</ele><time>2026-05-03T11:57:29.003Z</time></trkpt><trkpt lat="46.13106600419555" lon="9.361051205845778"><ele>217.5</ele><time>2026-05-03T11:57:30.003Z</time></trkpt><trkpt lat="46.131120062530236" lon="9.361212764425968"><ele>218.0</ele><time>2026-05-03T11:57:31.003Z</time></trkpt><trkpt lat="46.13117743593868" lon="9.361371491024611"><ele>218.0</ele><time>2026-05-03T11:57:32.003Z</time></trkpt><trkpt lat="46.131236965951" lon="9.36152779631824"><ele>218.0</ele><time>2026-05-03T11:57:33.003Z</time></trkpt><trkpt lat="46.131294746193234" lon="9.361679734719877"><ele>218.0</ele><time>2026-05-03T11:57:34.003Z</time></trkpt><trkpt lat="46.1313491590012" lon="9.361830911745455"><ele>218.0</ele><time>2026-05-03T11:57:35.003Z</time></trkpt><trkpt lat="46.13140266261573" lon="9.361982610233452"><ele>218.0</ele><time>2026-05-03T11:57:36.003Z</time></trkpt><trkpt lat="46.13145858167005" lon="9.362134981881207"><ele>218.0</ele><time>2026-05-03T11:57:37.003Z</time></trkpt><trkpt lat="46.13151371769496" lon="9.36228821569174"><ele>218.0</ele><time>2026-05-03T11:57:38.003Z</time></trkpt><trkpt lat="46.131570592794816" lon="9.362447258601172"><ele>218.0</ele><time>2026-05-03T11:57:39.003Z</time></trkpt><trkpt lat="46.13162480906018" lon="9.362605845014844"><ele>216.75</ele><time>2026-05-03T11:57:40Z</time></trkpt><trkpt lat="46.131682096017286" lon="9.36276421604704"><ele>215.5</ele><time>2026-05-03T11:57:41Z</time></trkpt><trkpt lat="46.13174096176109" lon="9.362925787964933"><ele>214.25</ele><time>2026-05-03T11:57:42Z</time></trkpt><trkpt lat="46.13180084934331" lon="9.363089882780802"><ele>213.0</ele><time>2026-05-03T11:57:43Z</time></trkpt><trkpt lat="46.1318609205088" lon="9.36325400447345"><ele>213.0</ele><time>2026-05-03T11:57:44Z</time></trkpt><trkpt lat="46.13192033450858" lon="9.363422968372506"><ele>213.0</ele><time>2026-05-03T11:57:45Z</time></trkpt><trkpt lat="46.13197794879162" lon="9.363586491123517"><ele>213.0</ele><time>2026-05-03T11:57:46Z</time></trkpt><trkpt lat="46.13203529040672" lon="9.36374813428616"><ele>213.0</ele><time>2026-05-03T11:57:47Z</time></trkpt><trkpt lat="46.132087765870146" lon="9.363892124874628"><ele>213.8</ele><time>2026-05-03T11:57:48Z</time></trkpt><trkpt lat="46.13213590229919" lon="9.364023749922856"><ele>214.60000000000002</ele><time>2026-05-03T11:57:49Z</time></trkpt><trkpt lat="46.132177410548074" lon="9.364152539208261"><ele>215.39999999999998</ele><time>2026-05-03T11:57:50Z</time></trkpt><trkpt lat="46.13221920810652" lon="9.364279317232509"><ele>216.2</ele><time>2026-05-03T11:57:51Z</time></trkpt><trkpt lat="46.132258386593314" lon="9.364403069072418"><ele>217.0</ele><time>2026-05-03T11:57:52Z</time></trkpt><trkpt lat="46.132288878286154" lon="9.364521709878451"><ele>217.0</ele><time>2026-05-03T11:57:53Z</time></trkpt><trkpt lat="46.13230739462133" lon="9.364634354752182"><ele>217.0</ele><time>2026-05-03T11:57:54Z</time></trkpt><trkpt lat="46.13233236740583" lon="9.36476162061521"><ele>217.0</ele><time>2026-05-03T11:57:55Z</time></trkpt><trkpt lat="46.13239771399172" lon="9.364889873437898"><ele>217.0</ele><time>2026-05-03T11:57:56Z</time></trkpt><trkpt lat="46.132488144020456" lon="9.365032612066628"><ele>217.0</ele><time>2026-05-03T11:57:57Z</time></trkpt><trkpt lat="46.132558742998285" lon="9.365211822651746"><ele>216.66666666666666</ele><time>2026-05-03T11:57:58Z</time></trkpt><trkpt lat="46.13263064611994" lon="9.365405357322004"><ele>216.33333333333331</ele><time>2026-05-03T11:57:59Z</time></trkpt><trkpt lat="46.132708391421716" lon="9.365610047769458"><ele>216.0</ele><time>2026-05-03T11:58:00Z</time></trkpt><trkpt lat="46.13278162228438" lon="9.36582277933261"><ele>216.0</ele><time>2026-05-03T11:58:01Z</time></trkpt><trkpt lat="46.13285070979655" lon="9.366037099193647"><ele>216.0</ele><time>2026-05-03T11:58:02Z</time></trkpt><trkpt lat="46.13293047586241" lon="9.36624839799924"><ele>216.0</ele><time>2026-05-03T11:58:03Z</time></trkpt><trkpt lat="46.133013232619966" lon="9.366454341984939"><ele>215.66666666666669</ele><time>2026-05-03T11:58:04Z</time></trkpt><trkpt lat="46.1331088373777" lon="9.366664489050281"><ele>215.33333333333334</ele><time>2026-05-03T11:58:05Z</time></trkpt><trkpt lat="46.133216279105895" lon="9.366852074248905"><ele>215.0</ele><time>2026-05-03T11:58:06Z</time></trkpt><trkpt lat="46.13332104389804" lon="9.367021755495815"><ele>215.0</ele><time>2026-05-03T11:58:07Z</time></trkpt><trkpt lat="46.133415470253446" lon="9.367162341143498"><ele>215.0</ele><time>2026-05-03T11:58:08Z</time></trkpt><trkpt lat="46.13350412434603" lon="9.367298208679333"><ele>215.0</ele><time>2026-05-03T11:58:09Z</time></trkpt><trkpt lat="46.13359423853376" lon="9.367438332025959"><ele>215.0</ele><time>2026-05-03T11:58:10Z</time></trkpt><trkpt lat="46.13368256842735" lon="9.367573209044677"><ele>215.5</ele><time>2026-05-03T11:58:11Z</time></trkpt><trkpt lat="46.13377337507778" lon="9.367721517497923"><ele>216.0</ele><time>2026-05-03T11:58:12Z</time></trkpt><trkpt lat="46.1338609611628" lon="9.367864207100776"><ele>216.5</ele><time>2026-05-03T11:58:13Z</time></trkpt><trkpt lat="46.13395000449378" lon="9.36800461304087"><ele>217.0</ele><time>2026-05-03T11:58:14.001Z</time></trkpt><trkpt lat="46.13403336661215" lon="9.368138275516909"><ele>216.0</ele><time>2026-05-03T11:58:15.001Z</time></trkpt><trkpt lat="46.13411054871248" lon="9.36825846982827"><ele>215.0</ele><time>2026-05-03T11:58:16.001Z</time></trkpt><trkpt lat="46.13418247209125" lon="9.368372994312258"><ele>214.0</ele><time>2026-05-03T11:58:17.001Z</time></trkpt><trkpt lat="46.13424670835314" lon="9.368478803463804"><ele>213.0</ele><time>2026-05-03T11:58:18.001Z</time></trkpt><trkpt lat="46.134311957307546" lon="9.368588682989175"><ele>212.0</ele><time>2026-05-03T11:58:19.001Z</time></trkpt><trkpt lat="46.13437444295397" lon="9.368690397519519"><ele>212.0</ele><time>2026-05-03T11:58:20.001Z</time></trkpt><trkpt lat="46.134441292247175" lon="9.368792066512928"><ele>212.0</ele><time>2026-05-03T11:58:21.001Z</time></trkpt><trkpt lat="46.13450471875149" lon="9.368895073227526"><ele>212.0</ele><time>2026-05-03T11:58:22.001Z</time></trkpt><trkpt lat="46.13456705935275" lon="9.369002583563002"><ele>212.0</ele><time>2026-05-03T11:58:23.001Z</time></trkpt><trkpt lat="46.13462781491841" lon="9.36910715994726"><ele>212.0</ele><time>2026-05-03T11:58:24.001Z</time></trkpt><trkpt lat="46.134690190397954" lon="9.369213050210965"><ele>212.00000000000003</ele><time>2026-05-03T11:58:25.001Z</time></trkpt><trkpt lat="46.13474832096059" lon="9.36931949649781"><ele>212.0</ele><time>2026-05-03T11:58:26.001Z</time></trkpt><trkpt lat="46.134801964766886" lon="9.369420622697943"><ele>212.0</ele><time>2026-05-03T11:58:27.001Z</time></trkpt><trkpt lat="46.13485343002274" lon="9.36952486860473"><ele>212.0</ele><time>2026-05-03T11:58:28.001Z</time></trkpt><trkpt lat="46.134901786739285" lon="9.369628040522288"><ele>212.00000000000003</ele><time>2026-05-03T11:58:29.001Z</time></trkpt><trkpt lat="46.13495254551919" lon="9.3697345456988"><ele>212.0</ele><time>2026-05-03T11:58:30.001Z</time></trkpt><trkpt lat="46.13500259124266" lon="9.36984307345784"><ele>212.16666666666669</ele><time>2026-05-03T11:58:31.001Z</time></trkpt><trkpt lat="46.135050098618315" lon="9.369950653949537"><ele>212.33333333333334</ele><time>2026-05-03T11:58:32.001Z</time></trkpt><trkpt lat="46.13509709400711" lon="9.370057000884396"><ele>212.5</ele><time>2026-05-03T11:58:33.001Z</time></trkpt><trkpt lat="46.13514608106529" lon="9.37015560858023"><ele>212.66666666666669</ele><time>2026-05-03T11:58:34.001Z</time></trkpt><trkpt lat="46.13519923005967" lon="9.370248715231995"><ele>212.83333333333334</ele><time>2026-05-03T11:58:35.001Z</time></trkpt><trkpt lat="46.135240747363575" lon="9.370344520383036"><ele>213.0</ele><time>2026-05-03T11:58:36.001Z</time></trkpt><trkpt lat="46.13527894515559" lon="9.37043413303441"><ele>213.0</ele><time>2026-05-03T11:58:37.001Z</time></trkpt><trkpt lat="46.135314965955494" lon="9.370516856091694"><ele>213.0</ele><time>2026-05-03T11:58:38.001Z</time></trkpt><trkpt lat="46.13536306627794" lon="9.370667705341933"><ele>213.0</ele><time>2026-05-03T11:58:40.001Z</time></trkpt><trkpt lat="46.13538889306499" lon="9.370795710767682"><ele>213.0</ele><time>2026-05-03T11:58:42.001Z</time></trkpt><trkpt lat="46.13544777511949" lon="9.370897618564634"><ele>213.0</ele><time>2026-05-03T11:58:44.001Z</time></trkpt><trkpt lat="46.135536776100935" lon="9.370990058762276"><ele>212.83333333333334</ele><time>2026-05-03T11:58:46.002Z</time></trkpt><trkpt lat="46.13560531823073" lon="9.371137722068633"><ele>212.66666666666669</ele><time>2026-05-03T11:58:48.002Z</time></trkpt><trkpt lat="46.13563918739709" lon="9.371217060693608"><ele>212.5</ele><time>2026-05-03T11:58:49.002Z</time></trkpt><trkpt lat="46.135674661378715" lon="9.371300330480508"><ele>212.33333333333334</ele><time>2026-05-03T11:58:50.002Z</time></trkpt><trkpt lat="46.135716299372156" lon="9.371381768252558"><ele>212.16666666666669</ele><time>2026-05-03T11:58:51.002Z</time></trkpt><trkpt lat="46.13575457396681" lon="9.37146623164831"><ele>212.0</ele><time>2026-05-03T11:58:52.002Z</time></trkpt><trkpt lat="46.135792107141434" lon="9.371552829622761"><ele>212.00000000000003</ele><time>2026-05-03T11:58:53.002Z</time></trkpt><trkpt lat="46.13582952551741" lon="9.37163824080339"><ele>212.0</ele><time>2026-05-03T11:58:54.002Z</time></trkpt><trkpt lat="46.13587058774679" lon="9.371729784089778"><ele>212.0</ele><time>2026-05-03T11:58:55.002Z</time></trkpt><trkpt lat="46.135912582857294" lon="9.371822866376391"><ele>212.0</ele><time>2026-05-03T11:58:56.002Z</time></trkpt><trkpt lat="46.135953722590024" lon="9.37191475067757"><ele>212.00000000000003</ele><time>2026-05-03T11:58:57.002Z</time></trkpt><trkpt lat="46.13599311209128" lon="9.37200659022234"><ele>212.0</ele><time>2026-05-03T11:58:58.002Z</time></trkpt><trkpt lat="46.13603663568259" lon="9.372102709420874"><ele>212.16666666666669</ele><time>2026-05-03T11:58:59.002Z</time></trkpt><trkpt lat="46.136081211268" lon="9.37219671224101"><ele>212.33333333333334</ele><time>2026-05-03T11:59:00.002Z</time></trkpt><trkpt lat="46.136120659494615" lon="9.372287549121172"><ele>212.5</ele><time>2026-05-03T11:59:01.002Z</time></trkpt><trkpt lat="46.136160884445054" lon="9.372373139468571"><ele>212.66666666666669</ele><time>2026-05-03T11:59:02.002Z</time></trkpt><trkpt lat="46.13619954627415" lon="9.37246727211582"><ele>212.83333333333334</ele><time>2026-05-03T11:59:03.002Z</time></trkpt><trkpt lat="46.13623748306842" lon="9.372561057020148"><ele>213.0</ele><time>2026-05-03T11:59:04.002Z</time></trkpt><trkpt lat="46.13627888121619" lon="9.372656079921889"><ele>213.0</ele><time>2026-05-03T11:59:05.002Z</time></trkpt><trkpt lat="46.13632484607477" lon="9.372745001415291"><ele>213.0</ele><time>2026-05-03T11:59:06.002Z</time></trkpt><trkpt lat="46.136423324930725" lon="9.372907528726541"><ele>213.0</ele><time>2026-05-03T11:59:08.002Z</time></trkpt><trkpt lat="46.13646615660388" lon="9.372997095614512"><ele>213.0</ele><time>2026-05-03T11:59:09.002Z</time></trkpt><trkpt lat="46.13651213647089" lon="9.373075069411067"><ele>213.0</ele><time>2026-05-03T11:59:10.002Z</time></trkpt><trkpt lat="46.13657409540354" lon="9.373232950227674"><ele>212.85714285714283</ele><time>2026-05-03T11:59:12.002Z</time></trkpt><trkpt lat="46.13661277278529" lon="9.373307355383256"><ele>212.71428571428572</ele><time>2026-05-03T11:59:13.002Z</time></trkpt><trkpt lat="46.136650831433236" lon="9.37337989762466"><ele>212.57142857142856</ele><time>2026-05-03T11:59:14.002Z</time></trkpt><trkpt lat="46.13668950986171" lon="9.373453352896622"><ele>212.42857142857142</ele><time>2026-05-03T11:59:15.002Z</time></trkpt><trkpt lat="46.1367306030504" lon="9.373530995196932"><ele>212.28571428571428</ele><time>2026-05-03T11:59:16.002Z</time></trkpt><trkpt lat="46.13677173644783" lon="9.373604831279804"><ele>212.14285714285714</ele><time>2026-05-03T11:59:17.002Z</time></trkpt><trkpt lat="46.13681375324492" lon="9.373682246443666"><ele>212.0</ele><time>2026-05-03T11:59:18.002Z</time></trkpt><trkpt lat="46.13685454584367" lon="9.373763655828654"><ele>212.0</ele><time>2026-05-03T11:59:19.003Z</time></trkpt><trkpt lat="46.136904895441845" lon="9.373836365456913"><ele>212.0</ele><time>2026-05-03T11:59:20.003Z</time></trkpt><trkpt lat="46.13693924817188" lon="9.373928310146452"><ele>212.0</ele><time>2026-05-03T11:59:21.003Z</time></trkpt><trkpt lat="46.136978396040476" lon="9.374014253763654"><ele>212.0</ele><time>2026-05-03T11:59:22.003Z</time></trkpt><trkpt lat="46.13702222553419" lon="9.374109651667277"><ele>212.0</ele><time>2026-05-03T11:59:23.003Z</time></trkpt><trkpt lat="46.13706254104592" lon="9.374201094188589"><ele>212.0</ele><time>2026-05-03T11:59:24.003Z</time></trkpt><trkpt lat="46.13709383891844" lon="9.374282535535643"><ele>212.0</ele><time>2026-05-03T11:59:25.003Z</time></trkpt><trkpt lat="46.13716323010953" lon="9.374418148601759"><ele>211.8</ele><time>2026-05-03T11:59:27.003Z</time></trkpt><trkpt lat="46.137223602561264" lon="9.374559946113427"><ele>211.6</ele><time>2026-05-03T11:59:29.003Z</time></trkpt><trkpt lat="46.137285214243526" lon="9.374698249305588"><ele>211.4</ele><time>2026-05-03T11:59:31.003Z</time></trkpt><trkpt lat="46.13735253593648" lon="9.374816116759535"><ele>211.20000000000002</ele><time>2026-05-03T11:59:33.003Z</time></trkpt><trkpt lat="46.137411920150406" lon="9.374954900324243"><ele>211.0</ele><time>2026-05-03T11:59:35.003Z</time></trkpt><trkpt lat="46.13746968522589" lon="9.375092759761829"><ele>211.0</ele><time>2026-05-03T11:59:37.003Z</time></trkpt><trkpt lat="46.13752667669737" lon="9.375219316241633"><ele>211.0</ele><time>2026-05-03T11:59:39.003Z</time></trkpt><trkpt lat="46.13754241246501" lon="9.375308352274523"><ele>211.0</ele><time>2026-05-03T11:59:40.003Z</time></trkpt><trkpt lat="46.1375992545499" lon="9.375381036949985"><ele>211.0</ele><time>2026-05-03T11:59:41.003Z</time></trkpt><trkpt lat="46.13765058337438" lon="9.375499228662685"><ele>211.0</ele><time>2026-05-03T11:59:42.003Z</time></trkpt><trkpt lat="46.13771882738876" lon="9.375636411710355"><ele>211.25</ele><time>2026-05-03T11:59:43.003Z</time></trkpt><trkpt lat="46.13779190324613" lon="9.375795986593348"><ele>211.5</ele><time>2026-05-03T11:59:44.003Z</time></trkpt><trkpt lat="46.13784208940634" lon="9.375966491392575"><ele>211.75</ele><time>2026-05-03T11:59:45.003Z</time></trkpt><trkpt lat="46.137900367778514" lon="9.376122957550809"><ele>212.0</ele><time>2026-05-03T11:59:46Z</time></trkpt><trkpt lat="46.13797590574107" lon="9.376293763553582"><ele>212.25</ele><time>2026-05-03T11:59:47Z</time></trkpt><trkpt lat="46.138058348050244" lon="9.37646966425493"><ele>212.5</ele><time>2026-05-03T11:59:48Z</time></trkpt><trkpt lat="46.13813148058968" lon="9.376634911312863"><ele>212.75</ele><time>2026-05-03T11:59:49Z</time></trkpt><trkpt lat="46.13820224163713" lon="9.376804656645477"><ele>213.0</ele><time>2026-05-03T11:59:50Z</time></trkpt><trkpt lat="46.13827842293633" lon="9.376977172696288"><ele>212.33333333333331</ele><time>2026-05-03T11:59:51Z</time></trkpt><trkpt lat="46.13835724383381" lon="9.377156205544757"><ele>211.66666666666666</ele><time>2026-05-03T11:59:52Z</time></trkpt><trkpt lat="46.13843849699293" lon="9.377340513405441"><ele>211.0</ele><time>2026-05-03T11:59:53Z</time></trkpt><trkpt lat="46.13852213066971" lon="9.377529580105135"><ele>211.0</ele><time>2026-05-03T11:59:54Z</time></trkpt><trkpt lat="46.13860754946484" lon="9.377720887434675"><ele>211.0</ele><time>2026-05-03T11:59:55Z</time></trkpt><trkpt lat="46.13868991458595" lon="9.377911664766284"><ele>211.0</ele><time>2026-05-03T11:59:56Z</time></trkpt><trkpt lat="46.1387646063245" lon="9.378092102642636"><ele>211.75</ele><time>2026-05-03T11:59:57Z</time></trkpt><trkpt lat="46.13884416029535" lon="9.378283261768146"><ele>212.5</ele><time>2026-05-03T11:59:58Z</time></trkpt><trkpt lat="46.13892303853778" lon="9.37847001160273"><ele>213.25</ele><time>2026-05-03T11:59:59Z</time></trkpt><trkpt lat="46.138987022026996" lon="9.378641612585751"><ele>214.0</ele><time>2026-05-03T12:00:00Z</time></trkpt><trkpt lat="46.139036811864635" lon="9.378802652985712"><ele>213.39999999999998</ele><time>2026-05-03T12:00:01Z</time></trkpt><trkpt lat="46.13908023519905" lon="9.378954160518756"><ele>212.79999999999998</ele><time>2026-05-03T12:00:02Z</time></trkpt><trkpt lat="46.139118158237764" lon="9.379096822869965"><ele>212.2</ele><time>2026-05-03T12:00:03Z</time></trkpt><trkpt lat="46.13915053634332" lon="9.379239141945204"><ele>211.60000000000002</ele><time>2026-05-03T12:00:04Z</time></trkpt><trkpt lat="46.13918127316914" lon="9.379383444511607"><ele>211.0</ele><time>2026-05-03T12:00:05Z</time></trkpt><trkpt lat="46.13921136460307" lon="9.379537276148117"><ele>211.5</ele><time>2026-05-03T12:00:06Z</time></trkpt><trkpt lat="46.13924008959564" lon="9.379709214050154"><ele>212.0</ele><time>2026-05-03T12:00:07Z</time></trkpt><trkpt lat="46.139263776293944" lon="9.379898648150204"><ele>212.5</ele><time>2026-05-03T12:00:08Z</time></trkpt><trkpt lat="46.13928395425112" lon="9.380103761775295"><ele>213.0</ele><time>2026-05-03T12:00:09Z</time></trkpt><trkpt lat="46.1393015214824" lon="9.380318707377478"><ele>213.75</ele><time>2026-05-03T12:00:10Z</time></trkpt><trkpt lat="46.13931628037401" lon="9.380536644278994"><ele>214.5</ele><time>2026-05-03T12:00:11Z</time></trkpt><trkpt lat="46.13932816888864" lon="9.380752277327604"><ele>215.25</ele><time>2026-05-03T12:00:12Z</time></trkpt><trkpt lat="46.139341277681666" lon="9.380960270648691"><ele>216.0</ele><time>2026-05-03T12:00:13Z</time></trkpt><trkpt lat="46.139352592977396" lon="9.381152422628286"><ele>216.0</ele><time>2026-05-03T12:00:14Z</time></trkpt><trkpt lat="46.13936380393305" lon="9.381330769853088"><ele>216.00000000000003</ele><time>2026-05-03T12:00:15Z</time></trkpt><trkpt lat="46.139375280695646" lon="9.381493881484746"><ele>216.00000000000003</ele><time>2026-05-03T12:00:16Z</time></trkpt><trkpt lat="46.139386508209206" lon="9.381645665064598"><ele>216.0</ele><time>2026-05-03T12:00:17Z</time></trkpt><trkpt lat="46.139394532227534" lon="9.38178098763883"><ele>216.0</ele><time>2026-05-03T12:00:18Z</time></trkpt><trkpt lat="46.139399702157775" lon="9.381892460739358"><ele>216.33333333333334</ele><time>2026-05-03T12:00:19.001Z</time></trkpt><trkpt lat="46.13940382341316" lon="9.381996264124155"><ele>216.66666666666669</ele><time>2026-05-03T12:00:20.001Z</time></trkpt><trkpt lat="46.13940847585711" lon="9.382090490647341"><ele>217.0</ele><time>2026-05-03T12:00:21.001Z</time></trkpt><trkpt lat="46.13941644497948" lon="9.382190471726721"><ele>217.33333333333334</ele><time>2026-05-03T12:00:22.001Z</time></trkpt><trkpt lat="46.13942476679216" lon="9.38229821175538"><ele>217.66666666666669</ele><time>2026-05-03T12:00:23.001Z</time></trkpt><trkpt lat="46.139431777430865" lon="9.382413066042925"><ele>218.0</ele><time>2026-05-03T12:00:24.001Z</time></trkpt><trkpt lat="46.13944204957562" lon="9.382540056221927"><ele>218.2</ele><time>2026-05-03T12:00:25.001Z</time></trkpt><trkpt lat="46.13945293227703" lon="9.382668139456593"><ele>218.4</ele><time>2026-05-03T12:00:26.001Z</time></trkpt><trkpt lat="46.13946473837309" lon="9.382802345463189"><ele>218.59999999999997</ele><time>2026-05-03T12:00:27.001Z</time></trkpt><trkpt lat="46.13947324669478" lon="9.382941419400883"><ele>218.79999999999998</ele><time>2026-05-03T12:00:28.001Z</time></trkpt><trkpt lat="46.13948539248846" lon="9.383085250930247"><ele>219.0</ele><time>2026-05-03T12:00:29.001Z</time></trkpt><trkpt lat="46.139493199452964" lon="9.383232094870772"><ele>219.16666666666666</ele><time>2026-05-03T12:00:30.001Z</time></trkpt><trkpt lat="46.139501335823766" lon="9.383361423136758"><ele>219.33333333333331</ele><time>2026-05-03T12:00:31.001Z</time></trkpt><trkpt lat="46.139507324737544" lon="9.383472772173704"><ele>219.5</ele><time>2026-05-03T12:00:32.001Z</time></trkpt><trkpt lat="46.13951293418578" lon="9.383573517186868"><ele>219.66666666666666</ele><time>2026-05-03T12:00:33.001Z</time></trkpt><trkpt lat="46.13951796247465" lon="9.383666868148278"><ele>219.83333333333331</ele><time>2026-05-03T12:00:34.001Z</time></trkpt><trkpt lat="46.139523782915646" lon="9.383841040637808"><ele>220.0</ele><time>2026-05-03T12:00:36.001Z</time></trkpt><trkpt lat="46.13951413776054" lon="9.383935020745549"><ele>219.99999999999997</ele><time>2026-05-03T12:00:37.001Z</time></trkpt><trkpt lat="46.139487898762944" lon="9.384029994201034"><ele>220.0</ele><time>2026-05-03T12:00:38.001Z</time></trkpt><trkpt lat="46.139489470572386" lon="9.3841859421233"><ele>220.0</ele><time>2026-05-03T12:00:40.001Z</time></trkpt><trkpt lat="46.13957640196196" lon="9.384255711197032"><ele>220.0</ele><time>2026-05-03T12:00:42.001Z</time></trkpt><trkpt lat="46.13963920093427" lon="9.38422991345509"><ele>219.99999999999997</ele><time>2026-05-03T12:00:43.001Z</time></trkpt><trkpt lat="46.13968801321637" lon="9.38416710468565"><ele>220.0</ele><time>2026-05-03T12:00:44.001Z</time></trkpt><trkpt lat="46.13979323380846" lon="9.384070223229678"><ele>219.99999999999997</ele><time>2026-05-03T12:00:46.001Z</time></trkpt><trkpt lat="46.13986001554591" lon="9.384070115870122"><ele>220.0</ele><time>2026-05-03T12:00:47.001Z</time></trkpt><trkpt lat="46.1399222200478" lon="9.384103700599539"><ele>220.0</ele><time>2026-05-03T12:00:48.001Z</time></trkpt><trkpt lat="46.13998530727667" lon="9.384127537327208"><ele>220.0</ele><time>2026-05-03T12:00:49.001Z</time></trkpt><trkpt lat="46.14002044676636" lon="9.384276845028413"><ele>219.99999999999997</ele><time>2026-05-03T12:00:50.001Z</time></trkpt><trkpt lat="46.14004964538142" lon="9.384412554142756"><ele>220.0</ele><time>2026-05-03T12:00:51.001Z</time></trkpt><trkpt lat="46.14006951669611" lon="9.384530119557748"><ele>219.6</ele><time>2026-05-03T12:00:52.002Z</time></trkpt><trkpt lat="46.140097707279054" lon="9.38462878833336"><ele>219.2</ele><time>2026-05-03T12:00:53.002Z</time></trkpt><trkpt lat="46.14014964923324" lon="9.384756911582054"><ele>218.8</ele><time>2026-05-03T12:00:55.002Z</time></trkpt><trkpt lat="46.14026499155017" lon="9.384724023661677"><ele>218.4</ele><time>2026-05-03T12:00:56.002Z</time></trkpt><trkpt lat="46.140342682099" lon="9.384697367130535"><ele>218.0</ele><time>2026-05-03T12:00:57.002Z</time></trkpt><trkpt lat="46.14042999501351" lon="9.384660601881446"><ele>218.0</ele><time>2026-05-03T12:00:58.002Z</time></trkpt><trkpt lat="46.140541850420384" lon="9.384618166660756"><ele>218.0</ele><time>2026-05-03T12:00:59.002Z</time></trkpt><trkpt lat="46.14067246798521" lon="9.384572155998125"><ele>218.0</ele><time>2026-05-03T12:01:00.002Z</time></trkpt><trkpt lat="46.14081329728444" lon="9.384520904102915"><ele>218.0</ele><time>2026-05-03T12:01:01.002Z</time></trkpt><trkpt lat="46.14096066762942" lon="9.384466837398666"><ele>216.75</ele><time>2026-05-03T12:01:02.002Z</time></trkpt><trkpt lat="46.1411141755612" lon="9.384416268614665"><ele>215.5</ele><time>2026-05-03T12:01:03.002Z</time></trkpt><trkpt lat="46.141258959695065" lon="9.384359676550392"><ele>214.25</ele><time>2026-05-03T12:01:04.002Z</time></trkpt><trkpt lat="46.141385605277804" lon="9.384314958591629"><ele>213.0</ele><time>2026-05-03T12:01:05.002Z</time></trkpt><trkpt lat="46.14150415306618" lon="9.384273305732796"><ele>212.2</ele><time>2026-05-03T12:01:06.002Z</time></trkpt><trkpt lat="46.141615738003594" lon="9.384226179860692"><ele>211.4</ele><time>2026-05-03T12:01:07.002Z</time></trkpt><trkpt lat="46.14171345675694" lon="9.38415986143982"><ele>210.6</ele><time>2026-05-03T12:01:08.002Z</time></trkpt><trkpt lat="46.14178970617793" lon="9.384071533146349"><ele>209.79999999999998</ele><time>2026-05-03T12:01:09.002Z</time></trkpt><trkpt lat="46.14184927548626" lon="9.383964054445114"><ele>209.0</ele><time>2026-05-03T12:01:10.002Z</time></trkpt><trkpt lat="46.14188467206144" lon="9.383828801187825"><ele>208.79999999999998</ele><time>2026-05-03T12:01:11.002Z</time></trkpt><trkpt lat="46.14189977913797" lon="9.38367190666875"><ele>208.6</ele><time>2026-05-03T12:01:12.002Z</time></trkpt><trkpt lat="46.141898698494174" lon="9.383530468620316"><ele>208.4</ele><time>2026-05-03T12:01:13.002Z</time></trkpt><trkpt lat="46.14187498694906" lon="9.38340387566997"><ele>208.2</ele><time>2026-05-03T12:01:14.002Z</time></trkpt><trkpt lat="46.141822937839756" lon="9.383290831396819"><ele>208.0</ele><time>2026-05-03T12:01:15.002Z</time></trkpt><trkpt lat="46.14175112125152" lon="9.383195367168506"><ele>207.99999999999997</ele><time>2026-05-03T12:01:16.002Z</time></trkpt><trkpt lat="46.141664572584325" lon="9.38312283272895"><ele>208.0</ele><time>2026-05-03T12:01:17.002Z</time></trkpt><trkpt lat="46.14157222661048" lon="9.383075868986932"><ele>208.0</ele><time>2026-05-03T12:01:18.002Z</time></trkpt><trkpt lat="46.14148045008114" lon="9.383069562472599"><ele>208.0</ele><time>2026-05-03T12:01:19.002Z</time></trkpt><trkpt lat="46.14140403725837" lon="9.383077366089742"><ele>207.99999999999997</ele><time>2026-05-03T12:01:20.002Z</time></trkpt><trkpt lat="46.14133171539303" lon="9.383090089552335"><ele>208.0</ele><time>2026-05-03T12:01:21.002Z</time></trkpt><trkpt lat="46.1412648626365" lon="9.383100862495672"><ele>208.8</ele><time>2026-05-03T12:01:22.002Z</time></trkpt><trkpt lat="46.14114945112159" lon="9.38306823895888"><ele>209.60000000000002</ele><time>2026-05-03T12:01:24.002Z</time></trkpt><trkpt lat="46.14109324117275" lon="9.382983100098006"><ele>210.39999999999998</ele><time>2026-05-03T12:01:25.003Z</time></trkpt><trkpt lat="46.14108455242201" lon="9.382833650021437"><ele>211.2</ele><time>2026-05-03T12:01:26.003Z</time></trkpt><trkpt lat="46.14104746931565" lon="9.382671071789577"><ele>212.0</ele><time>2026-05-03T12:01:27.003Z</time></trkpt><trkpt lat="46.14100538176149" lon="9.382482922195663"><ele>212.0</ele><time>2026-05-03T12:01:28.003Z</time></trkpt><trkpt lat="46.140957796446806" lon="9.382272604051396"><ele>212.0</ele><time>2026-05-03T12:01:29.003Z</time></trkpt><trkpt lat="46.1409012488287" lon="9.382020967012245"><ele>212.0</ele><time>2026-05-03T12:01:30.003Z</time></trkpt><trkpt lat="46.14083916723279" lon="9.381744704233563"><ele>211.33333333333334</ele><time>2026-05-03T12:01:31.003Z</time></trkpt><trkpt lat="46.14076367565127" lon="9.381466845856592"><ele>210.66666666666669</ele><time>2026-05-03T12:01:32.003Z</time></trkpt><trkpt lat="46.14070822203534" lon="9.3811950960386"><ele>210.0</ele><time>2026-05-03T12:01:33.003Z</time></trkpt><trkpt lat="46.14064457889373" lon="9.380901588404512"><ele>210.66666666666669</ele><time>2026-05-03T12:01:34.003Z</time></trkpt><trkpt lat="46.14057347193658" lon="9.38061251967074"><ele>211.33333333333334</ele><time>2026-05-03T12:01:35.003Z</time></trkpt><trkpt lat="46.1405158281916" lon="9.380357224415961"><ele>212.0</ele><time>2026-05-03T12:01:36.003Z</time></trkpt><trkpt lat="46.14046837788831" lon="9.380140235765296"><ele>212.0</ele><time>2026-05-03T12:01:37.003Z</time></trkpt><trkpt lat="46.1404204492211" lon="9.379930548720314"><ele>212.0</ele><time>2026-05-03T12:01:38.003Z</time></trkpt><trkpt lat="46.14037446686364" lon="9.37973005291454"><ele>212.0</ele><time>2026-05-03T12:01:39.003Z</time></trkpt><trkpt lat="46.140333093252316" lon="9.379550948939904"><ele>212.0</ele><time>2026-05-03T12:01:40.003Z</time></trkpt><trkpt lat="46.14030082971453" lon="9.379380985778216"><ele>211.66666666666669</ele><time>2026-05-03T12:01:41.003Z</time></trkpt><trkpt lat="46.140270479359465" lon="9.379233893630479"><ele>211.33333333333334</ele><time>2026-05-03T12:01:42.003Z</time></trkpt><trkpt lat="46.1402350476098" lon="9.379100421899533"><ele>211.0</ele><time>2026-05-03T12:01:43.003Z</time></trkpt><trkpt lat="46.140217880721686" lon="9.378980677570754"><ele>210.66666666666669</ele><time>2026-05-03T12:01:44.003Z</time></trkpt><trkpt lat="46.14017796594928" lon="9.378886847290552"><ele>210.33333333333334</ele><time>2026-05-03T12:01:45.003Z</time></trkpt><trkpt lat="46.140169147577865" lon="9.378787691271766"><ele>210.0</ele><time>2026-05-03T12:01:46.003Z</time></trkpt><trkpt lat="46.140132816366595" lon="9.3786842449004"><ele>208.0</ele><time>2026-05-03T12:01:48.003Z</time></trkpt><trkpt lat="46.1401770968508" lon="9.378751832942728"><ele>208.0</ele><time>2026-05-03T12:01:51.003Z</time></trkpt><trkpt lat="46.14020371358691" lon="9.378847493530618"><ele>208.0</ele><time>2026-05-03T12:01:52Z</time></trkpt><trkpt lat="46.14023509370884" lon="9.378973353293787"><ele>210.0</ele><time>2026-05-03T12:01:53Z</time></trkpt><trkpt lat="46.140260620517445" lon="9.379090298954981"><ele>210.0</ele><time>2026-05-03T12:01:55Z</time></trkpt></trkseg></trk></gpx>